<?xml version="1.0" encoding="UTF-8" standalone="no" ?>
<gpx xmlns="http://www.topografix.com/GPX/1/1" xmlns:xsi="http://www.w3.org/2001/XMLSchema-instance" xsi:schemaLocation="http://www.topografix.com/GPX/1/1 http://www.topografix.com/GPX/1/1/gpx.xsd" version="1.1" creator="VisuGPX - https://www.visugpx.com">
  <metadata>
    <name>Tête de Bostan 2026</name>
    <desc><![CDATA[AlpineQuest Track 2/22/26 10:00:45]]></desc>
  </metadata>
  <trk>
    <name><![CDATA[Tête de Bostan 2026]]></name>
    <trkseg>
      <trkpt lat="46.11407" lon="6.74923">
        <ele>1111.518</ele>
        <time>2026-02-22T09:00:45Z</time>
      </trkpt>
      <trkpt lat="46.11402" lon="6.74919">
        <ele>1128.464</ele>
        <time>2026-02-22T09:00:50Z</time>
      </trkpt>
      <trkpt lat="46.11404" lon="6.74913">
        <ele>1131.492</ele>
        <time>2026-02-22T09:00:55Z</time>
      </trkpt>
      <trkpt lat="46.11407" lon="6.74908">
        <ele>1129.162</ele>
        <time>2026-02-22T09:01:00Z</time>
      </trkpt>
      <trkpt lat="46.11407" lon="6.74903">
        <ele>1129.56</ele>
        <time>2026-02-22T09:01:05Z</time>
      </trkpt>
      <trkpt lat="46.1141" lon="6.74898">
        <ele>1130.173</ele>
        <time>2026-02-22T09:01:10Z</time>
      </trkpt>
      <trkpt lat="46.1141" lon="6.74892">
        <ele>1130.686</ele>
        <time>2026-02-22T09:01:15Z</time>
      </trkpt>
      <trkpt lat="46.11412" lon="6.74886">
        <ele>1130.3</ele>
        <time>2026-02-22T09:01:20Z</time>
      </trkpt>
      <trkpt lat="46.11413" lon="6.74882">
        <ele>1133.562</ele>
        <time>2026-02-22T09:01:25Z</time>
      </trkpt>
      <trkpt lat="46.11414" lon="6.74878">
        <ele>1132.695</ele>
        <time>2026-02-22T09:01:30Z</time>
      </trkpt>
      <trkpt lat="46.11415" lon="6.74874">
        <ele>1132.626</ele>
        <time>2026-02-22T09:01:35Z</time>
      </trkpt>
      <trkpt lat="46.11416" lon="6.74869">
        <ele>1133.852</ele>
        <time>2026-02-22T09:01:40Z</time>
      </trkpt>
      <trkpt lat="46.11418" lon="6.74864">
        <ele>1135.374</ele>
        <time>2026-02-22T09:01:45Z</time>
      </trkpt>
      <trkpt lat="46.1142" lon="6.7486">
        <ele>1135.25</ele>
        <time>2026-02-22T09:01:50Z</time>
      </trkpt>
      <trkpt lat="46.11422" lon="6.74855">
        <ele>1135.928</ele>
        <time>2026-02-22T09:01:55Z</time>
      </trkpt>
      <trkpt lat="46.11425" lon="6.74853">
        <ele>1137.162</ele>
        <time>2026-02-22T09:02:00Z</time>
      </trkpt>
      <trkpt lat="46.11426" lon="6.74848">
        <ele>1140.883</ele>
        <time>2026-02-22T09:02:05Z</time>
      </trkpt>
      <trkpt lat="46.11428" lon="6.74845">
        <ele>1140.343</ele>
        <time>2026-02-22T09:02:10Z</time>
      </trkpt>
      <trkpt lat="46.11431" lon="6.74841">
        <ele>1141.269</ele>
        <time>2026-02-22T09:02:15Z</time>
      </trkpt>
      <trkpt lat="46.11434" lon="6.74838">
        <ele>1141.794</ele>
        <time>2026-02-22T09:02:20Z</time>
      </trkpt>
      <trkpt lat="46.11437" lon="6.74835">
        <ele>1142.206</ele>
        <time>2026-02-22T09:02:25Z</time>
      </trkpt>
      <trkpt lat="46.11438" lon="6.74829">
        <ele>1144.881</ele>
        <time>2026-02-22T09:02:30Z</time>
      </trkpt>
      <trkpt lat="46.11441" lon="6.74825">
        <ele>1146.57</ele>
        <time>2026-02-22T09:02:35Z</time>
      </trkpt>
      <trkpt lat="46.11444" lon="6.74825">
        <ele>1146.909</ele>
        <time>2026-02-22T09:02:40Z</time>
      </trkpt>
      <trkpt lat="46.11448" lon="6.74822">
        <ele>1148.263</ele>
        <time>2026-02-22T09:02:45Z</time>
      </trkpt>
      <trkpt lat="46.11451" lon="6.7482">
        <ele>1149.505</ele>
        <time>2026-02-22T09:02:50Z</time>
      </trkpt>
      <trkpt lat="46.11454" lon="6.74819">
        <ele>1150.14</ele>
        <time>2026-02-22T09:02:55Z</time>
      </trkpt>
      <trkpt lat="46.11457" lon="6.74819">
        <ele>1149.555</ele>
        <time>2026-02-22T09:03:00Z</time>
      </trkpt>
      <trkpt lat="46.1146" lon="6.74819">
        <ele>1151.585</ele>
        <time>2026-02-22T09:03:05Z</time>
      </trkpt>
      <trkpt lat="46.11463" lon="6.74819">
        <ele>1152.145</ele>
        <time>2026-02-22T09:03:10Z</time>
      </trkpt>
      <trkpt lat="46.11468" lon="6.7482">
        <ele>1152.098</ele>
        <time>2026-02-22T09:03:15Z</time>
      </trkpt>
      <trkpt lat="46.11472" lon="6.74821">
        <ele>1153.799</ele>
        <time>2026-02-22T09:03:20Z</time>
      </trkpt>
      <trkpt lat="46.11476" lon="6.7482">
        <ele>1154.318</ele>
        <time>2026-02-22T09:03:25Z</time>
      </trkpt>
      <trkpt lat="46.11481" lon="6.74819">
        <ele>1153.181</ele>
        <time>2026-02-22T09:03:30Z</time>
      </trkpt>
      <trkpt lat="46.11485" lon="6.74817">
        <ele>1153.706</ele>
        <time>2026-02-22T09:03:35Z</time>
      </trkpt>
      <trkpt lat="46.11489" lon="6.74814">
        <ele>1152.825</ele>
        <time>2026-02-22T09:03:40Z</time>
      </trkpt>
      <trkpt lat="46.11493" lon="6.7481">
        <ele>1152.83</ele>
        <time>2026-02-22T09:03:45Z</time>
      </trkpt>
      <trkpt lat="46.11495" lon="6.74807">
        <ele>1151.703</ele>
        <time>2026-02-22T09:03:50Z</time>
      </trkpt>
      <trkpt lat="46.11498" lon="6.74805">
        <ele>1153.243</ele>
        <time>2026-02-22T09:03:55Z</time>
      </trkpt>
      <trkpt lat="46.11502" lon="6.74801">
        <ele>1153.765</ele>
        <time>2026-02-22T09:04:00Z</time>
      </trkpt>
      <trkpt lat="46.11506" lon="6.748">
        <ele>1151.92</ele>
        <time>2026-02-22T09:04:05Z</time>
      </trkpt>
      <trkpt lat="46.1151" lon="6.748">
        <ele>1154.738</ele>
        <time>2026-02-22T09:04:10Z</time>
      </trkpt>
      <trkpt lat="46.11512" lon="6.74799">
        <ele>1154.484</ele>
        <time>2026-02-22T09:04:15Z</time>
      </trkpt>
      <trkpt lat="46.11516" lon="6.74799">
        <ele>1154.402</ele>
        <time>2026-02-22T09:04:20Z</time>
      </trkpt>
      <trkpt lat="46.11521" lon="6.74798">
        <ele>1154.418</ele>
        <time>2026-02-22T09:04:25Z</time>
      </trkpt>
      <trkpt lat="46.11526" lon="6.74797">
        <ele>1155.988</ele>
        <time>2026-02-22T09:04:30Z</time>
      </trkpt>
      <trkpt lat="46.11529" lon="6.74794">
        <ele>1157.017</ele>
        <time>2026-02-22T09:04:35Z</time>
      </trkpt>
      <trkpt lat="46.11533" lon="6.74792">
        <ele>1156.752</ele>
        <time>2026-02-22T09:04:40Z</time>
      </trkpt>
      <trkpt lat="46.11536" lon="6.74788">
        <ele>1157.84</ele>
        <time>2026-02-22T09:04:45Z</time>
      </trkpt>
      <trkpt lat="46.1154" lon="6.74786">
        <ele>1159.363</ele>
        <time>2026-02-22T09:04:50Z</time>
      </trkpt>
      <trkpt lat="46.11542" lon="6.74781">
        <ele>1160.044</ele>
        <time>2026-02-22T09:04:55Z</time>
      </trkpt>
      <trkpt lat="46.11546" lon="6.74776">
        <ele>1162.033</ele>
        <time>2026-02-22T09:05:00Z</time>
      </trkpt>
      <trkpt lat="46.11546" lon="6.74771">
        <ele>1160.9</ele>
        <time>2026-02-22T09:05:05Z</time>
      </trkpt>
      <trkpt lat="46.11549" lon="6.74767">
        <ele>1160.855</ele>
        <time>2026-02-22T09:05:10Z</time>
      </trkpt>
      <trkpt lat="46.11553" lon="6.74762">
        <ele>1160.404</ele>
        <time>2026-02-22T09:05:15Z</time>
      </trkpt>
      <trkpt lat="46.11555" lon="6.74757">
        <ele>1160.369</ele>
        <time>2026-02-22T09:05:20Z</time>
      </trkpt>
      <trkpt lat="46.11556" lon="6.74752">
        <ele>1160.05</ele>
        <time>2026-02-22T09:05:25Z</time>
      </trkpt>
      <trkpt lat="46.11558" lon="6.74749">
        <ele>1160.179</ele>
        <time>2026-02-22T09:05:30Z</time>
      </trkpt>
      <trkpt lat="46.11562" lon="6.74745">
        <ele>1162.203</ele>
        <time>2026-02-22T09:05:35Z</time>
      </trkpt>
      <trkpt lat="46.11564" lon="6.7474">
        <ele>1163.77</ele>
        <time>2026-02-22T09:05:40Z</time>
      </trkpt>
      <trkpt lat="46.11567" lon="6.74735">
        <ele>1165.164</ele>
        <time>2026-02-22T09:05:45Z</time>
      </trkpt>
      <trkpt lat="46.11568" lon="6.74731">
        <ele>1164.659</ele>
        <time>2026-02-22T09:05:50Z</time>
      </trkpt>
      <trkpt lat="46.11569" lon="6.74725">
        <ele>1164.701</ele>
        <time>2026-02-22T09:05:55Z</time>
      </trkpt>
      <trkpt lat="46.1157" lon="6.7472">
        <ele>1164.844</ele>
        <time>2026-02-22T09:06:00Z</time>
      </trkpt>
      <trkpt lat="46.11569" lon="6.74714">
        <ele>1165.038</ele>
        <time>2026-02-22T09:06:05Z</time>
      </trkpt>
      <trkpt lat="46.11569" lon="6.7471">
        <ele>1165.271</ele>
        <time>2026-02-22T09:06:10Z</time>
      </trkpt>
      <trkpt lat="46.1157" lon="6.74703">
        <ele>1162.982</ele>
        <time>2026-02-22T09:06:15Z</time>
      </trkpt>
      <trkpt lat="46.11572" lon="6.74697">
        <ele>1162.406</ele>
        <time>2026-02-22T09:06:20Z</time>
      </trkpt>
      <trkpt lat="46.11573" lon="6.7469">
        <ele>1161.426</ele>
        <time>2026-02-22T09:06:25Z</time>
      </trkpt>
      <trkpt lat="46.11571" lon="6.74684">
        <ele>1161.986</ele>
        <time>2026-02-22T09:06:30Z</time>
      </trkpt>
      <trkpt lat="46.11569" lon="6.74678">
        <ele>1163.689</ele>
        <time>2026-02-22T09:06:35Z</time>
      </trkpt>
      <trkpt lat="46.11568" lon="6.74673">
        <ele>1163.715</ele>
        <time>2026-02-22T09:06:40Z</time>
      </trkpt>
      <trkpt lat="46.11566" lon="6.74667">
        <ele>1165.831</ele>
        <time>2026-02-22T09:06:45Z</time>
      </trkpt>
      <trkpt lat="46.11564" lon="6.74661">
        <ele>1166.443</ele>
        <time>2026-02-22T09:06:50Z</time>
      </trkpt>
      <trkpt lat="46.11563" lon="6.74655">
        <ele>1167.893</ele>
        <time>2026-02-22T09:06:55Z</time>
      </trkpt>
      <trkpt lat="46.11564" lon="6.74647">
        <ele>1169.543</ele>
        <time>2026-02-22T09:07:00Z</time>
      </trkpt>
      <trkpt lat="46.11564" lon="6.74642">
        <ele>1170.313</ele>
        <time>2026-02-22T09:07:05Z</time>
      </trkpt>
      <trkpt lat="46.11563" lon="6.74634">
        <ele>1170.852</ele>
        <time>2026-02-22T09:07:10Z</time>
      </trkpt>
      <trkpt lat="46.11564" lon="6.74628">
        <ele>1167.837</ele>
        <time>2026-02-22T09:07:15Z</time>
      </trkpt>
      <trkpt lat="46.11563" lon="6.74623">
        <ele>1169.065</ele>
        <time>2026-02-22T09:07:20Z</time>
      </trkpt>
      <trkpt lat="46.11562" lon="6.74618">
        <ele>1169.439</ele>
        <time>2026-02-22T09:07:25Z</time>
      </trkpt>
      <trkpt lat="46.11564" lon="6.74614">
        <ele>1169.109</ele>
        <time>2026-02-22T09:07:30Z</time>
      </trkpt>
      <trkpt lat="46.11565" lon="6.7461">
        <ele>1167.923</ele>
        <time>2026-02-22T09:07:35Z</time>
      </trkpt>
      <trkpt lat="46.11564" lon="6.74605">
        <ele>1169.925</ele>
        <time>2026-02-22T09:07:40Z</time>
      </trkpt>
      <trkpt lat="46.11563" lon="6.74602">
        <ele>1173.453</ele>
        <time>2026-02-22T09:07:45Z</time>
      </trkpt>
      <trkpt lat="46.11562" lon="6.74596">
        <ele>1175.336</ele>
        <time>2026-02-22T09:07:50Z</time>
      </trkpt>
      <trkpt lat="46.11562" lon="6.74591">
        <ele>1175.889</ele>
        <time>2026-02-22T09:07:55Z</time>
      </trkpt>
      <trkpt lat="46.11563" lon="6.74586">
        <ele>1174.601</ele>
        <time>2026-02-22T09:08:00Z</time>
      </trkpt>
      <trkpt lat="46.11562" lon="6.74581">
        <ele>1177.099</ele>
        <time>2026-02-22T09:08:05Z</time>
      </trkpt>
      <trkpt lat="46.11562" lon="6.74576">
        <ele>1179.794</ele>
        <time>2026-02-22T09:08:10Z</time>
      </trkpt>
      <trkpt lat="46.1156" lon="6.74571">
        <ele>1181.161</ele>
        <time>2026-02-22T09:08:15Z</time>
      </trkpt>
      <trkpt lat="46.11556" lon="6.74569">
        <ele>1180.815</ele>
        <time>2026-02-22T09:08:20Z</time>
      </trkpt>
      <trkpt lat="46.1155" lon="6.74569">
        <ele>1187.216</ele>
        <time>2026-02-22T09:08:25Z</time>
      </trkpt>
      <trkpt lat="46.11542" lon="6.74567">
        <ele>1193.668</ele>
        <time>2026-02-22T09:08:30Z</time>
      </trkpt>
      <trkpt lat="46.11535" lon="6.7457">
        <ele>1194.899</ele>
        <time>2026-02-22T09:08:35Z</time>
      </trkpt>
      <trkpt lat="46.11528" lon="6.74569">
        <ele>1195.703</ele>
        <time>2026-02-22T09:08:40Z</time>
      </trkpt>
      <trkpt lat="46.11525" lon="6.74563">
        <ele>1193.379</ele>
        <time>2026-02-22T09:08:45Z</time>
      </trkpt>
      <trkpt lat="46.11525" lon="6.74554">
        <ele>1187.738</ele>
        <time>2026-02-22T09:08:50Z</time>
      </trkpt>
      <trkpt lat="46.11525" lon="6.74548">
        <ele>1185.078</ele>
        <time>2026-02-22T09:08:55Z</time>
      </trkpt>
      <trkpt lat="46.11527" lon="6.74541">
        <ele>1186.862</ele>
        <time>2026-02-22T09:09:00Z</time>
      </trkpt>
      <trkpt lat="46.11529" lon="6.74534">
        <ele>1185.176</ele>
        <time>2026-02-22T09:09:05Z</time>
      </trkpt>
      <trkpt lat="46.1153" lon="6.74527">
        <ele>1184.267</ele>
        <time>2026-02-22T09:09:10Z</time>
      </trkpt>
      <trkpt lat="46.11529" lon="6.74521">
        <ele>1184.341</ele>
        <time>2026-02-22T09:09:15Z</time>
      </trkpt>
      <trkpt lat="46.11526" lon="6.74517">
        <ele>1184.57</ele>
        <time>2026-02-22T09:09:20Z</time>
      </trkpt>
      <trkpt lat="46.11524" lon="6.74512">
        <ele>1183.948</ele>
        <time>2026-02-22T09:09:25Z</time>
      </trkpt>
      <trkpt lat="46.11523" lon="6.74506">
        <ele>1183.077</ele>
        <time>2026-02-22T09:09:30Z</time>
      </trkpt>
      <trkpt lat="46.11522" lon="6.74499">
        <ele>1184.604</ele>
        <time>2026-02-22T09:09:35Z</time>
      </trkpt>
      <trkpt lat="46.11521" lon="6.74495">
        <ele>1183.706</ele>
        <time>2026-02-22T09:09:40Z</time>
      </trkpt>
      <trkpt lat="46.11518" lon="6.7449">
        <ele>1185.794</ele>
        <time>2026-02-22T09:09:45Z</time>
      </trkpt>
      <trkpt lat="46.11515" lon="6.74485">
        <ele>1189.528</ele>
        <time>2026-02-22T09:09:50Z</time>
      </trkpt>
      <trkpt lat="46.11512" lon="6.74481">
        <ele>1189.057</ele>
        <time>2026-02-22T09:09:55Z</time>
      </trkpt>
      <trkpt lat="46.11513" lon="6.74475">
        <ele>1187.96</ele>
        <time>2026-02-22T09:10:00Z</time>
      </trkpt>
      <trkpt lat="46.11514" lon="6.74469">
        <ele>1184.412</ele>
        <time>2026-02-22T09:10:05Z</time>
      </trkpt>
      <trkpt lat="46.11514" lon="6.74465">
        <ele>1185.61</ele>
        <time>2026-02-22T09:10:10Z</time>
      </trkpt>
      <trkpt lat="46.11513" lon="6.74458">
        <ele>1187.991</ele>
        <time>2026-02-22T09:10:15Z</time>
      </trkpt>
      <trkpt lat="46.11513" lon="6.74452">
        <ele>1186.824</ele>
        <time>2026-02-22T09:10:20Z</time>
      </trkpt>
      <trkpt lat="46.11513" lon="6.74446">
        <ele>1187.878</ele>
        <time>2026-02-22T09:10:25Z</time>
      </trkpt>
      <trkpt lat="46.11513" lon="6.74441">
        <ele>1189.55</ele>
        <time>2026-02-22T09:10:30Z</time>
      </trkpt>
      <trkpt lat="46.11513" lon="6.74435">
        <ele>1191.611</ele>
        <time>2026-02-22T09:10:35Z</time>
      </trkpt>
      <trkpt lat="46.11511" lon="6.74431">
        <ele>1191.989</ele>
        <time>2026-02-22T09:10:40Z</time>
      </trkpt>
      <trkpt lat="46.11511" lon="6.74426">
        <ele>1191.448</ele>
        <time>2026-02-22T09:10:45Z</time>
      </trkpt>
      <trkpt lat="46.11507" lon="6.74424">
        <ele>1193.752</ele>
        <time>2026-02-22T09:10:50Z</time>
      </trkpt>
      <trkpt lat="46.11503" lon="6.7442">
        <ele>1193.07</ele>
        <time>2026-02-22T09:10:55Z</time>
      </trkpt>
      <trkpt lat="46.115" lon="6.74415">
        <ele>1195.378</ele>
        <time>2026-02-22T09:11:00Z</time>
      </trkpt>
      <trkpt lat="46.11497" lon="6.7441">
        <ele>1198.297</ele>
        <time>2026-02-22T09:11:05Z</time>
      </trkpt>
      <trkpt lat="46.11494" lon="6.74405">
        <ele>1198.196</ele>
        <time>2026-02-22T09:11:10Z</time>
      </trkpt>
      <trkpt lat="46.11494" lon="6.74399">
        <ele>1196.535</ele>
        <time>2026-02-22T09:11:15Z</time>
      </trkpt>
      <trkpt lat="46.11493" lon="6.74395">
        <ele>1197.136</ele>
        <time>2026-02-22T09:11:20Z</time>
      </trkpt>
      <trkpt lat="46.11493" lon="6.7439">
        <ele>1194.23</ele>
        <time>2026-02-22T09:11:25Z</time>
      </trkpt>
      <trkpt lat="46.11492" lon="6.74384">
        <ele>1195.639</ele>
        <time>2026-02-22T09:11:30Z</time>
      </trkpt>
      <trkpt lat="46.11489" lon="6.74379">
        <ele>1197.034</ele>
        <time>2026-02-22T09:11:35Z</time>
      </trkpt>
      <trkpt lat="46.11488" lon="6.74372">
        <ele>1195.493</ele>
        <time>2026-02-22T09:11:40Z</time>
      </trkpt>
      <trkpt lat="46.11488" lon="6.74366">
        <ele>1195.22</ele>
        <time>2026-02-22T09:11:45Z</time>
      </trkpt>
      <trkpt lat="46.11489" lon="6.74361">
        <ele>1196.804</ele>
        <time>2026-02-22T09:11:50Z</time>
      </trkpt>
      <trkpt lat="46.11489" lon="6.74355">
        <ele>1198.013</ele>
        <time>2026-02-22T09:11:55Z</time>
      </trkpt>
      <trkpt lat="46.11487" lon="6.74351">
        <ele>1201.317</ele>
        <time>2026-02-22T09:12:00Z</time>
      </trkpt>
      <trkpt lat="46.11485" lon="6.74345">
        <ele>1201.699</ele>
        <time>2026-02-22T09:12:05Z</time>
      </trkpt>
      <trkpt lat="46.1148" lon="6.74342">
        <ele>1201.981</ele>
        <time>2026-02-22T09:12:10Z</time>
      </trkpt>
      <trkpt lat="46.11481" lon="6.74334">
        <ele>1202.603</ele>
        <time>2026-02-22T09:12:15Z</time>
      </trkpt>
      <trkpt lat="46.1148" lon="6.74329">
        <ele>1202.648</ele>
        <time>2026-02-22T09:12:20Z</time>
      </trkpt>
      <trkpt lat="46.11478" lon="6.74323">
        <ele>1202.156</ele>
        <time>2026-02-22T09:12:25Z</time>
      </trkpt>
      <trkpt lat="46.11477" lon="6.74316">
        <ele>1202.588</ele>
        <time>2026-02-22T09:12:30Z</time>
      </trkpt>
      <trkpt lat="46.11476" lon="6.7431">
        <ele>1201.87</ele>
        <time>2026-02-22T09:12:35Z</time>
      </trkpt>
      <trkpt lat="46.11476" lon="6.74304">
        <ele>1202.03</ele>
        <time>2026-02-22T09:12:40Z</time>
      </trkpt>
      <trkpt lat="46.11476" lon="6.74298">
        <ele>1203.148</ele>
        <time>2026-02-22T09:12:45Z</time>
      </trkpt>
      <trkpt lat="46.11475" lon="6.74293">
        <ele>1204.604</ele>
        <time>2026-02-22T09:12:50Z</time>
      </trkpt>
      <trkpt lat="46.11476" lon="6.74288">
        <ele>1205.185</ele>
        <time>2026-02-22T09:12:55Z</time>
      </trkpt>
      <trkpt lat="46.11479" lon="6.74284">
        <ele>1205.943</ele>
        <time>2026-02-22T09:13:00Z</time>
      </trkpt>
      <trkpt lat="46.11482" lon="6.74283">
        <ele>1206.032</ele>
        <time>2026-02-22T09:13:05Z</time>
      </trkpt>
      <trkpt lat="46.11486" lon="6.74281">
        <ele>1207.071</ele>
        <time>2026-02-22T09:13:10Z</time>
      </trkpt>
      <trkpt lat="46.1149" lon="6.74282">
        <ele>1208.295</ele>
        <time>2026-02-22T09:13:15Z</time>
      </trkpt>
      <trkpt lat="46.11492" lon="6.7428">
        <ele>1211.529</ele>
        <time>2026-02-22T09:13:20Z</time>
      </trkpt>
      <trkpt lat="46.11495" lon="6.74281">
        <ele>1211.11</ele>
        <time>2026-02-22T09:13:25Z</time>
      </trkpt>
      <trkpt lat="46.11499" lon="6.74282">
        <ele>1210.747</ele>
        <time>2026-02-22T09:13:30Z</time>
      </trkpt>
      <trkpt lat="46.11504" lon="6.74282">
        <ele>1212.255</ele>
        <time>2026-02-22T09:13:35Z</time>
      </trkpt>
      <trkpt lat="46.11508" lon="6.74281">
        <ele>1215.072</ele>
        <time>2026-02-22T09:13:40Z</time>
      </trkpt>
      <trkpt lat="46.11511" lon="6.7428">
        <ele>1216.476</ele>
        <time>2026-02-22T09:13:45Z</time>
      </trkpt>
      <trkpt lat="46.11515" lon="6.74281">
        <ele>1216.65</ele>
        <time>2026-02-22T09:13:50Z</time>
      </trkpt>
      <trkpt lat="46.11519" lon="6.74281">
        <ele>1217.966</ele>
        <time>2026-02-22T09:13:55Z</time>
      </trkpt>
      <trkpt lat="46.11523" lon="6.7428">
        <ele>1220.456</ele>
        <time>2026-02-22T09:14:00Z</time>
      </trkpt>
      <trkpt lat="46.11529" lon="6.7428">
        <ele>1218.981</ele>
        <time>2026-02-22T09:14:05Z</time>
      </trkpt>
      <trkpt lat="46.11533" lon="6.74279">
        <ele>1220.39</ele>
        <time>2026-02-22T09:14:10Z</time>
      </trkpt>
      <trkpt lat="46.11536" lon="6.74281">
        <ele>1218.62</ele>
        <time>2026-02-22T09:14:15Z</time>
      </trkpt>
      <trkpt lat="46.1154" lon="6.74282">
        <ele>1217.141</ele>
        <time>2026-02-22T09:14:20Z</time>
      </trkpt>
      <trkpt lat="46.11544" lon="6.74286">
        <ele>1219.178</ele>
        <time>2026-02-22T09:14:25Z</time>
      </trkpt>
      <trkpt lat="46.11548" lon="6.74287">
        <ele>1221.866</ele>
        <time>2026-02-22T09:14:30Z</time>
      </trkpt>
      <trkpt lat="46.11553" lon="6.74286">
        <ele>1224.016</ele>
        <time>2026-02-22T09:14:35Z</time>
      </trkpt>
      <trkpt lat="46.11557" lon="6.74286">
        <ele>1222.372</ele>
        <time>2026-02-22T09:14:40Z</time>
      </trkpt>
      <trkpt lat="46.11561" lon="6.74284">
        <ele>1221.964</ele>
        <time>2026-02-22T09:14:45Z</time>
      </trkpt>
      <trkpt lat="46.11564" lon="6.74285">
        <ele>1220.616</ele>
        <time>2026-02-22T09:14:50Z</time>
      </trkpt>
      <trkpt lat="46.11568" lon="6.74284">
        <ele>1221.595</ele>
        <time>2026-02-22T09:14:55Z</time>
      </trkpt>
      <trkpt lat="46.11573" lon="6.74282">
        <ele>1222.42</ele>
        <time>2026-02-22T09:15:00Z</time>
      </trkpt>
      <trkpt lat="46.11577" lon="6.7428">
        <ele>1222.012</ele>
        <time>2026-02-22T09:15:05Z</time>
      </trkpt>
      <trkpt lat="46.11581" lon="6.74275">
        <ele>1223.538</ele>
        <time>2026-02-22T09:15:10Z</time>
      </trkpt>
      <trkpt lat="46.11584" lon="6.7427">
        <ele>1224.803</ele>
        <time>2026-02-22T09:15:15Z</time>
      </trkpt>
      <trkpt lat="46.11586" lon="6.74264">
        <ele>1222.925</ele>
        <time>2026-02-22T09:15:20Z</time>
      </trkpt>
      <trkpt lat="46.11589" lon="6.74258">
        <ele>1224.073</ele>
        <time>2026-02-22T09:15:25Z</time>
      </trkpt>
      <trkpt lat="46.11591" lon="6.74252">
        <ele>1223.832</ele>
        <time>2026-02-22T09:15:30Z</time>
      </trkpt>
      <trkpt lat="46.11594" lon="6.74246">
        <ele>1223.966</ele>
        <time>2026-02-22T09:15:35Z</time>
      </trkpt>
      <trkpt lat="46.11598" lon="6.74241">
        <ele>1225.01</ele>
        <time>2026-02-22T09:15:40Z</time>
      </trkpt>
      <trkpt lat="46.116" lon="6.74235">
        <ele>1225.559</ele>
        <time>2026-02-22T09:15:45Z</time>
      </trkpt>
      <trkpt lat="46.11603" lon="6.74231">
        <ele>1225.649</ele>
        <time>2026-02-22T09:15:50Z</time>
      </trkpt>
      <trkpt lat="46.11606" lon="6.74227">
        <ele>1227.767</ele>
        <time>2026-02-22T09:15:55Z</time>
      </trkpt>
      <trkpt lat="46.11608" lon="6.74223">
        <ele>1227.149</ele>
        <time>2026-02-22T09:16:00Z</time>
      </trkpt>
      <trkpt lat="46.1161" lon="6.74218">
        <ele>1227.171</ele>
        <time>2026-02-22T09:16:05Z</time>
      </trkpt>
      <trkpt lat="46.11611" lon="6.74214">
        <ele>1227.165</ele>
        <time>2026-02-22T09:16:10Z</time>
      </trkpt>
      <trkpt lat="46.11614" lon="6.74211">
        <ele>1228.585</ele>
        <time>2026-02-22T09:16:15Z</time>
      </trkpt>
      <trkpt lat="46.11616" lon="6.74209">
        <ele>1229.553</ele>
        <time>2026-02-22T09:16:20Z</time>
      </trkpt>
      <trkpt lat="46.1162" lon="6.74208">
        <ele>1229.501</ele>
        <time>2026-02-22T09:16:25Z</time>
      </trkpt>
      <trkpt lat="46.11624" lon="6.74208">
        <ele>1230.219</ele>
        <time>2026-02-22T09:16:30Z</time>
      </trkpt>
      <trkpt lat="46.11628" lon="6.74208">
        <ele>1233.197</ele>
        <time>2026-02-22T09:16:35Z</time>
      </trkpt>
      <trkpt lat="46.11632" lon="6.74209">
        <ele>1232.835</ele>
        <time>2026-02-22T09:16:40Z</time>
      </trkpt>
      <trkpt lat="46.11636" lon="6.74209">
        <ele>1234.022</ele>
        <time>2026-02-22T09:16:45Z</time>
      </trkpt>
      <trkpt lat="46.11639" lon="6.74209">
        <ele>1235.586</ele>
        <time>2026-02-22T09:16:50Z</time>
      </trkpt>
      <trkpt lat="46.11643" lon="6.74209">
        <ele>1235.431</ele>
        <time>2026-02-22T09:16:55Z</time>
      </trkpt>
      <trkpt lat="46.11646" lon="6.7421">
        <ele>1237.137</ele>
        <time>2026-02-22T09:17:00Z</time>
      </trkpt>
      <trkpt lat="46.1165" lon="6.74212">
        <ele>1235.914</ele>
        <time>2026-02-22T09:17:05Z</time>
      </trkpt>
      <trkpt lat="46.11653" lon="6.74214">
        <ele>1236.377</ele>
        <time>2026-02-22T09:17:10Z</time>
      </trkpt>
      <trkpt lat="46.11656" lon="6.74218">
        <ele>1236.878</ele>
        <time>2026-02-22T09:17:15Z</time>
      </trkpt>
      <trkpt lat="46.11658" lon="6.74222">
        <ele>1235.799</ele>
        <time>2026-02-22T09:17:20Z</time>
      </trkpt>
      <trkpt lat="46.1166" lon="6.74226">
        <ele>1235.479</ele>
        <time>2026-02-22T09:17:25Z</time>
      </trkpt>
      <trkpt lat="46.11662" lon="6.7423">
        <ele>1236.645</ele>
        <time>2026-02-22T09:17:30Z</time>
      </trkpt>
      <trkpt lat="46.11664" lon="6.74234">
        <ele>1238.29</ele>
        <time>2026-02-22T09:17:35Z</time>
      </trkpt>
      <trkpt lat="46.11667" lon="6.74238">
        <ele>1238.494</ele>
        <time>2026-02-22T09:17:40Z</time>
      </trkpt>
      <trkpt lat="46.11672" lon="6.74241">
        <ele>1239.407</ele>
        <time>2026-02-22T09:17:45Z</time>
      </trkpt>
      <trkpt lat="46.11676" lon="6.74242">
        <ele>1238.989</ele>
        <time>2026-02-22T09:17:50Z</time>
      </trkpt>
      <trkpt lat="46.11681" lon="6.74239">
        <ele>1239.73</ele>
        <time>2026-02-22T09:17:55Z</time>
      </trkpt>
      <trkpt lat="46.11686" lon="6.74234">
        <ele>1239.81</ele>
        <time>2026-02-22T09:18:00Z</time>
      </trkpt>
      <trkpt lat="46.11688" lon="6.74228">
        <ele>1240.846</ele>
        <time>2026-02-22T09:18:05Z</time>
      </trkpt>
      <trkpt lat="46.1169" lon="6.74222">
        <ele>1242.585</ele>
        <time>2026-02-22T09:18:10Z</time>
      </trkpt>
      <trkpt lat="46.11691" lon="6.74217">
        <ele>1242.097</ele>
        <time>2026-02-22T09:18:15Z</time>
      </trkpt>
      <trkpt lat="46.11692" lon="6.74211">
        <ele>1242.683</ele>
        <time>2026-02-22T09:18:20Z</time>
      </trkpt>
      <trkpt lat="46.11693" lon="6.74206">
        <ele>1243.215</ele>
        <time>2026-02-22T09:18:25Z</time>
      </trkpt>
      <trkpt lat="46.11694" lon="6.74201">
        <ele>1241.652</ele>
        <time>2026-02-22T09:18:30Z</time>
      </trkpt>
      <trkpt lat="46.11696" lon="6.74197">
        <ele>1242.154</ele>
        <time>2026-02-22T09:18:35Z</time>
      </trkpt>
      <trkpt lat="46.11696" lon="6.74192">
        <ele>1242.677</ele>
        <time>2026-02-22T09:18:40Z</time>
      </trkpt>
      <trkpt lat="46.11698" lon="6.74186">
        <ele>1242.663</ele>
        <time>2026-02-22T09:18:45Z</time>
      </trkpt>
      <trkpt lat="46.11699" lon="6.74181">
        <ele>1242.568</ele>
        <time>2026-02-22T09:18:50Z</time>
      </trkpt>
      <trkpt lat="46.11701" lon="6.74174">
        <ele>1244.242</ele>
        <time>2026-02-22T09:18:55Z</time>
      </trkpt>
      <trkpt lat="46.11703" lon="6.74169">
        <ele>1243.111</ele>
        <time>2026-02-22T09:19:00Z</time>
      </trkpt>
      <trkpt lat="46.11706" lon="6.74165">
        <ele>1243.419</ele>
        <time>2026-02-22T09:19:05Z</time>
      </trkpt>
      <trkpt lat="46.11709" lon="6.74161">
        <ele>1242.291</ele>
        <time>2026-02-22T09:19:10Z</time>
      </trkpt>
      <trkpt lat="46.11717" lon="6.74151">
        <ele>1247.789</ele>
        <time>2026-02-22T09:19:14Z</time>
      </trkpt>
      <trkpt lat="46.11719" lon="6.74147">
        <ele>1245.354</ele>
        <time>2026-02-22T09:19:20Z</time>
      </trkpt>
      <trkpt lat="46.11724" lon="6.74145">
        <ele>1243.484</ele>
        <time>2026-02-22T09:19:24Z</time>
      </trkpt>
      <trkpt lat="46.11727" lon="6.7414">
        <ele>1242.866</ele>
        <time>2026-02-22T09:19:30Z</time>
      </trkpt>
      <trkpt lat="46.11729" lon="6.74135">
        <ele>1241.657</ele>
        <time>2026-02-22T09:19:35Z</time>
      </trkpt>
      <trkpt lat="46.1173" lon="6.74131">
        <ele>1243.718</ele>
        <time>2026-02-22T09:19:40Z</time>
      </trkpt>
      <trkpt lat="46.11732" lon="6.74126">
        <ele>1243.808</ele>
        <time>2026-02-22T09:19:45Z</time>
      </trkpt>
      <trkpt lat="46.11734" lon="6.74124">
        <ele>1243.112</ele>
        <time>2026-02-22T09:19:50Z</time>
      </trkpt>
      <trkpt lat="46.11736" lon="6.7412">
        <ele>1246.084</ele>
        <time>2026-02-22T09:19:55Z</time>
      </trkpt>
      <trkpt lat="46.11739" lon="6.74116">
        <ele>1248.715</ele>
        <time>2026-02-22T09:20:00Z</time>
      </trkpt>
      <trkpt lat="46.11741" lon="6.74116">
        <ele>1249.501</ele>
        <time>2026-02-22T09:20:05Z</time>
      </trkpt>
      <trkpt lat="46.11742" lon="6.74115">
        <ele>1250.101</ele>
        <time>2026-02-22T09:20:10Z</time>
      </trkpt>
      <trkpt lat="46.11742" lon="6.74115">
        <ele>1250.506</ele>
        <time>2026-02-22T09:20:15Z</time>
      </trkpt>
      <trkpt lat="46.11742" lon="6.74115">
        <ele>1250.621</ele>
        <time>2026-02-22T09:20:20Z</time>
      </trkpt>
      <trkpt lat="46.11745" lon="6.74112">
        <ele>1250.804</ele>
        <time>2026-02-22T09:20:25Z</time>
      </trkpt>
      <trkpt lat="46.11753" lon="6.74108">
        <ele>1255.162</ele>
        <time>2026-02-22T09:20:30Z</time>
      </trkpt>
      <trkpt lat="46.11755" lon="6.74106">
        <ele>1257.291</ele>
        <time>2026-02-22T09:20:35Z</time>
      </trkpt>
      <trkpt lat="46.11759" lon="6.74105">
        <ele>1259.695</ele>
        <time>2026-02-22T09:20:40Z</time>
      </trkpt>
      <trkpt lat="46.11761" lon="6.74105">
        <ele>1261.562</ele>
        <time>2026-02-22T09:20:45Z</time>
      </trkpt>
      <trkpt lat="46.11762" lon="6.74105">
        <ele>1261.77</ele>
        <time>2026-02-22T09:20:50Z</time>
      </trkpt>
      <trkpt lat="46.11763" lon="6.74104">
        <ele>1263.035</ele>
        <time>2026-02-22T09:20:55Z</time>
      </trkpt>
      <trkpt lat="46.11768" lon="6.74104">
        <ele>1267.764</ele>
        <time>2026-02-22T09:21:00Z</time>
      </trkpt>
      <trkpt lat="46.11775" lon="6.74103">
        <ele>1263.087</ele>
        <time>2026-02-22T09:21:05Z</time>
      </trkpt>
      <trkpt lat="46.11781" lon="6.74099">
        <ele>1261.715</ele>
        <time>2026-02-22T09:21:10Z</time>
      </trkpt>
      <trkpt lat="46.11785" lon="6.74095">
        <ele>1263.771</ele>
        <time>2026-02-22T09:21:15Z</time>
      </trkpt>
      <trkpt lat="46.11788" lon="6.7409">
        <ele>1261.809</ele>
        <time>2026-02-22T09:21:20Z</time>
      </trkpt>
      <trkpt lat="46.11791" lon="6.74086">
        <ele>1259.804</ele>
        <time>2026-02-22T09:21:25Z</time>
      </trkpt>
      <trkpt lat="46.11793" lon="6.74081">
        <ele>1263.772</ele>
        <time>2026-02-22T09:21:30Z</time>
      </trkpt>
      <trkpt lat="46.11796" lon="6.74075">
        <ele>1265.386</ele>
        <time>2026-02-22T09:21:35Z</time>
      </trkpt>
      <trkpt lat="46.11799" lon="6.74072">
        <ele>1266.191</ele>
        <time>2026-02-22T09:21:40Z</time>
      </trkpt>
      <trkpt lat="46.11803" lon="6.74071">
        <ele>1267.875</ele>
        <time>2026-02-22T09:21:45Z</time>
      </trkpt>
      <trkpt lat="46.11806" lon="6.7407">
        <ele>1269.991</ele>
        <time>2026-02-22T09:21:50Z</time>
      </trkpt>
      <trkpt lat="46.11811" lon="6.74069">
        <ele>1270.696</ele>
        <time>2026-02-22T09:21:55Z</time>
      </trkpt>
      <trkpt lat="46.11814" lon="6.74068">
        <ele>1269.705</ele>
        <time>2026-02-22T09:22:00Z</time>
      </trkpt>
      <trkpt lat="46.11818" lon="6.74067">
        <ele>1271.071</ele>
        <time>2026-02-22T09:22:05Z</time>
      </trkpt>
      <trkpt lat="46.11823" lon="6.74066">
        <ele>1271.76</ele>
        <time>2026-02-22T09:22:10Z</time>
      </trkpt>
      <trkpt lat="46.11827" lon="6.74063">
        <ele>1270.597</ele>
        <time>2026-02-22T09:22:15Z</time>
      </trkpt>
      <trkpt lat="46.11831" lon="6.7406">
        <ele>1269.731</ele>
        <time>2026-02-22T09:22:20Z</time>
      </trkpt>
      <trkpt lat="46.11836" lon="6.74057">
        <ele>1268.959</ele>
        <time>2026-02-22T09:22:25Z</time>
      </trkpt>
      <trkpt lat="46.1184" lon="6.74053">
        <ele>1266.411</ele>
        <time>2026-02-22T09:22:30Z</time>
      </trkpt>
      <trkpt lat="46.11844" lon="6.74049">
        <ele>1266.832</ele>
        <time>2026-02-22T09:22:35Z</time>
      </trkpt>
      <trkpt lat="46.11847" lon="6.74045">
        <ele>1267.007</ele>
        <time>2026-02-22T09:22:40Z</time>
      </trkpt>
      <trkpt lat="46.1185" lon="6.7404">
        <ele>1267.194</ele>
        <time>2026-02-22T09:22:45Z</time>
      </trkpt>
      <trkpt lat="46.11853" lon="6.74034">
        <ele>1268.03</ele>
        <time>2026-02-22T09:22:50Z</time>
      </trkpt>
      <trkpt lat="46.11856" lon="6.7403">
        <ele>1269.154</ele>
        <time>2026-02-22T09:22:55Z</time>
      </trkpt>
      <trkpt lat="46.11859" lon="6.74026">
        <ele>1269.247</ele>
        <time>2026-02-22T09:23:00Z</time>
      </trkpt>
      <trkpt lat="46.11862" lon="6.74023">
        <ele>1270.982</ele>
        <time>2026-02-22T09:23:05Z</time>
      </trkpt>
      <trkpt lat="46.11866" lon="6.74021">
        <ele>1271.692</ele>
        <time>2026-02-22T09:23:10Z</time>
      </trkpt>
      <trkpt lat="46.1187" lon="6.74018">
        <ele>1271.071</ele>
        <time>2026-02-22T09:23:15Z</time>
      </trkpt>
      <trkpt lat="46.11874" lon="6.74015">
        <ele>1271.916</ele>
        <time>2026-02-22T09:23:20Z</time>
      </trkpt>
      <trkpt lat="46.11877" lon="6.74013">
        <ele>1272.614</ele>
        <time>2026-02-22T09:23:25Z</time>
      </trkpt>
      <trkpt lat="46.11881" lon="6.74011">
        <ele>1273.314</ele>
        <time>2026-02-22T09:23:30Z</time>
      </trkpt>
      <trkpt lat="46.11884" lon="6.7401">
        <ele>1275.452</ele>
        <time>2026-02-22T09:23:35Z</time>
      </trkpt>
      <trkpt lat="46.11887" lon="6.74009">
        <ele>1275.969</ele>
        <time>2026-02-22T09:23:40Z</time>
      </trkpt>
      <trkpt lat="46.11889" lon="6.7401">
        <ele>1276.468</ele>
        <time>2026-02-22T09:23:45Z</time>
      </trkpt>
      <trkpt lat="46.1189" lon="6.74014">
        <ele>1277.233</ele>
        <time>2026-02-22T09:23:50Z</time>
      </trkpt>
      <trkpt lat="46.11889" lon="6.74017">
        <ele>1277.552</ele>
        <time>2026-02-22T09:23:55Z</time>
      </trkpt>
      <trkpt lat="46.11888" lon="6.74021">
        <ele>1276.871</ele>
        <time>2026-02-22T09:24:00Z</time>
      </trkpt>
      <trkpt lat="46.11886" lon="6.74023">
        <ele>1275.944</ele>
        <time>2026-02-22T09:24:05Z</time>
      </trkpt>
      <trkpt lat="46.11884" lon="6.74027">
        <ele>1276.069</ele>
        <time>2026-02-22T09:24:10Z</time>
      </trkpt>
      <trkpt lat="46.11883" lon="6.74031">
        <ele>1276.826</ele>
        <time>2026-02-22T09:24:15Z</time>
      </trkpt>
      <trkpt lat="46.11882" lon="6.74034">
        <ele>1276.944</ele>
        <time>2026-02-22T09:24:20Z</time>
      </trkpt>
      <trkpt lat="46.11882" lon="6.74039">
        <ele>1276.907</ele>
        <time>2026-02-22T09:24:25Z</time>
      </trkpt>
      <trkpt lat="46.11882" lon="6.74044">
        <ele>1278.387</ele>
        <time>2026-02-22T09:24:30Z</time>
      </trkpt>
      <trkpt lat="46.11882" lon="6.74048">
        <ele>1279.272</ele>
        <time>2026-02-22T09:24:35Z</time>
      </trkpt>
      <trkpt lat="46.11882" lon="6.74051">
        <ele>1279.213</ele>
        <time>2026-02-22T09:24:40Z</time>
      </trkpt>
      <trkpt lat="46.11882" lon="6.74056">
        <ele>1280.385</ele>
        <time>2026-02-22T09:24:45Z</time>
      </trkpt>
      <trkpt lat="46.11882" lon="6.7406">
        <ele>1281.313</ele>
        <time>2026-02-22T09:24:50Z</time>
      </trkpt>
      <trkpt lat="46.11883" lon="6.74063">
        <ele>1281.406</ele>
        <time>2026-02-22T09:24:55Z</time>
      </trkpt>
      <trkpt lat="46.11883" lon="6.74067">
        <ele>1282.058</ele>
        <time>2026-02-22T09:25:00Z</time>
      </trkpt>
      <trkpt lat="46.11882" lon="6.74071">
        <ele>1283.381</ele>
        <time>2026-02-22T09:25:05Z</time>
      </trkpt>
      <trkpt lat="46.11882" lon="6.74074">
        <ele>1284.507</ele>
        <time>2026-02-22T09:25:10Z</time>
      </trkpt>
      <trkpt lat="46.11883" lon="6.74077">
        <ele>1285.056</ele>
        <time>2026-02-22T09:25:15Z</time>
      </trkpt>
      <trkpt lat="46.11883" lon="6.7408">
        <ele>1285.918</ele>
        <time>2026-02-22T09:25:20Z</time>
      </trkpt>
      <trkpt lat="46.11883" lon="6.74083">
        <ele>1286.843</ele>
        <time>2026-02-22T09:25:25Z</time>
      </trkpt>
      <trkpt lat="46.11883" lon="6.74087">
        <ele>1288.267</ele>
        <time>2026-02-22T09:25:30Z</time>
      </trkpt>
      <trkpt lat="46.11883" lon="6.7409">
        <ele>1288.908</ele>
        <time>2026-02-22T09:25:35Z</time>
      </trkpt>
      <trkpt lat="46.11883" lon="6.74093">
        <ele>1289.586</ele>
        <time>2026-02-22T09:25:40Z</time>
      </trkpt>
      <trkpt lat="46.11883" lon="6.74097">
        <ele>1290.64</ele>
        <time>2026-02-22T09:25:45Z</time>
      </trkpt>
      <trkpt lat="46.11883" lon="6.741">
        <ele>1289.891</ele>
        <time>2026-02-22T09:25:50Z</time>
      </trkpt>
      <trkpt lat="46.11884" lon="6.74103">
        <ele>1290.85</ele>
        <time>2026-02-22T09:25:55Z</time>
      </trkpt>
      <trkpt lat="46.11884" lon="6.74107">
        <ele>1291.571</ele>
        <time>2026-02-22T09:26:00Z</time>
      </trkpt>
      <trkpt lat="46.11886" lon="6.74111">
        <ele>1291.973</ele>
        <time>2026-02-22T09:26:05Z</time>
      </trkpt>
      <trkpt lat="46.11886" lon="6.74116">
        <ele>1292.74</ele>
        <time>2026-02-22T09:26:10Z</time>
      </trkpt>
      <trkpt lat="46.11887" lon="6.74119">
        <ele>1294.119</ele>
        <time>2026-02-22T09:26:15Z</time>
      </trkpt>
      <trkpt lat="46.11889" lon="6.74122">
        <ele>1294.453</ele>
        <time>2026-02-22T09:26:20Z</time>
      </trkpt>
      <trkpt lat="46.1189" lon="6.74126">
        <ele>1295.23</ele>
        <time>2026-02-22T09:26:25Z</time>
      </trkpt>
      <trkpt lat="46.11891" lon="6.74129">
        <ele>1295.212</ele>
        <time>2026-02-22T09:26:30Z</time>
      </trkpt>
      <trkpt lat="46.11892" lon="6.74133">
        <ele>1296.756</ele>
        <time>2026-02-22T09:26:35Z</time>
      </trkpt>
      <trkpt lat="46.11893" lon="6.74137">
        <ele>1297.365</ele>
        <time>2026-02-22T09:26:40Z</time>
      </trkpt>
      <trkpt lat="46.11895" lon="6.7414">
        <ele>1296.22</ele>
        <time>2026-02-22T09:26:45Z</time>
      </trkpt>
      <trkpt lat="46.11897" lon="6.74143">
        <ele>1296.511</ele>
        <time>2026-02-22T09:26:50Z</time>
      </trkpt>
      <trkpt lat="46.11897" lon="6.74147">
        <ele>1297.91</ele>
        <time>2026-02-22T09:26:55Z</time>
      </trkpt>
      <trkpt lat="46.11898" lon="6.74151">
        <ele>1297.679</ele>
        <time>2026-02-22T09:27:00Z</time>
      </trkpt>
      <trkpt lat="46.11899" lon="6.74155">
        <ele>1298.415</ele>
        <time>2026-02-22T09:27:05Z</time>
      </trkpt>
      <trkpt lat="46.119" lon="6.74159">
        <ele>1300.518</ele>
        <time>2026-02-22T09:27:10Z</time>
      </trkpt>
      <trkpt lat="46.11901" lon="6.74163">
        <ele>1301.73</ele>
        <time>2026-02-22T09:27:15Z</time>
      </trkpt>
      <trkpt lat="46.11902" lon="6.74167">
        <ele>1302.727</ele>
        <time>2026-02-22T09:27:20Z</time>
      </trkpt>
      <trkpt lat="46.11904" lon="6.74172">
        <ele>1303.528</ele>
        <time>2026-02-22T09:27:25Z</time>
      </trkpt>
      <trkpt lat="46.11905" lon="6.74176">
        <ele>1303.958</ele>
        <time>2026-02-22T09:27:30Z</time>
      </trkpt>
      <trkpt lat="46.11906" lon="6.74181">
        <ele>1306.257</ele>
        <time>2026-02-22T09:27:35Z</time>
      </trkpt>
      <trkpt lat="46.11907" lon="6.74186">
        <ele>1307.865</ele>
        <time>2026-02-22T09:27:40Z</time>
      </trkpt>
      <trkpt lat="46.11908" lon="6.74189">
        <ele>1308.365</ele>
        <time>2026-02-22T09:27:45Z</time>
      </trkpt>
      <trkpt lat="46.11911" lon="6.74192">
        <ele>1308.096</ele>
        <time>2026-02-22T09:27:50Z</time>
      </trkpt>
      <trkpt lat="46.11913" lon="6.74195">
        <ele>1306.967</ele>
        <time>2026-02-22T09:27:55Z</time>
      </trkpt>
      <trkpt lat="46.11916" lon="6.74197">
        <ele>1306.92</ele>
        <time>2026-02-22T09:28:00Z</time>
      </trkpt>
      <trkpt lat="46.11918" lon="6.74198">
        <ele>1306.808</ele>
        <time>2026-02-22T09:28:05Z</time>
      </trkpt>
      <trkpt lat="46.11921" lon="6.74201">
        <ele>1309.473</ele>
        <time>2026-02-22T09:28:10Z</time>
      </trkpt>
      <trkpt lat="46.11923" lon="6.74203">
        <ele>1310.751</ele>
        <time>2026-02-22T09:28:15Z</time>
      </trkpt>
      <trkpt lat="46.11925" lon="6.74205">
        <ele>1312.736</ele>
        <time>2026-02-22T09:28:20Z</time>
      </trkpt>
      <trkpt lat="46.11926" lon="6.74209">
        <ele>1312.004</ele>
        <time>2026-02-22T09:28:25Z</time>
      </trkpt>
      <trkpt lat="46.11925" lon="6.74212">
        <ele>1312.139</ele>
        <time>2026-02-22T09:28:30Z</time>
      </trkpt>
      <trkpt lat="46.11924" lon="6.74216">
        <ele>1312.092</ele>
        <time>2026-02-22T09:28:35Z</time>
      </trkpt>
      <trkpt lat="46.11923" lon="6.74216">
        <ele>1311.587</ele>
        <time>2026-02-22T09:28:40Z</time>
      </trkpt>
      <trkpt lat="46.11923" lon="6.74216">
        <ele>1311.592</ele>
        <time>2026-02-22T09:28:45Z</time>
      </trkpt>
      <trkpt lat="46.11923" lon="6.74216">
        <ele>1311.737</ele>
        <time>2026-02-22T09:28:50Z</time>
      </trkpt>
      <trkpt lat="46.11923" lon="6.74216">
        <ele>1312.155</ele>
        <time>2026-02-22T09:28:55Z</time>
      </trkpt>
      <trkpt lat="46.11923" lon="6.74216">
        <ele>1312.16</ele>
        <time>2026-02-22T09:29:00Z</time>
      </trkpt>
      <trkpt lat="46.11923" lon="6.74216">
        <ele>1312.145</ele>
        <time>2026-02-22T09:29:05Z</time>
      </trkpt>
      <trkpt lat="46.11923" lon="6.74216">
        <ele>1312.158</ele>
        <time>2026-02-22T09:29:10Z</time>
      </trkpt>
      <trkpt lat="46.11923" lon="6.74216">
        <ele>1312.837</ele>
        <time>2026-02-22T09:29:15Z</time>
      </trkpt>
      <trkpt lat="46.11923" lon="6.74216">
        <ele>1313.333</ele>
        <time>2026-02-22T09:29:20Z</time>
      </trkpt>
      <trkpt lat="46.11923" lon="6.74216">
        <ele>1313.516</ele>
        <time>2026-02-22T09:29:25Z</time>
      </trkpt>
      <trkpt lat="46.11923" lon="6.74216">
        <ele>1313.509</ele>
        <time>2026-02-22T09:29:30Z</time>
      </trkpt>
      <trkpt lat="46.11923" lon="6.74216">
        <ele>1313.516</ele>
        <time>2026-02-22T09:29:35Z</time>
      </trkpt>
      <trkpt lat="46.11923" lon="6.74216">
        <ele>1313.524</ele>
        <time>2026-02-22T09:29:40Z</time>
      </trkpt>
      <trkpt lat="46.11923" lon="6.74216">
        <ele>1313.288</ele>
        <time>2026-02-22T09:29:45Z</time>
      </trkpt>
      <trkpt lat="46.11923" lon="6.74216">
        <ele>1313.305</ele>
        <time>2026-02-22T09:29:50Z</time>
      </trkpt>
      <trkpt lat="46.11923" lon="6.74216">
        <ele>1313.322</ele>
        <time>2026-02-22T09:29:55Z</time>
      </trkpt>
      <trkpt lat="46.11923" lon="6.74216">
        <ele>1313.334</ele>
        <time>2026-02-22T09:30:00Z</time>
      </trkpt>
      <trkpt lat="46.11923" lon="6.74216">
        <ele>1313.472</ele>
        <time>2026-02-22T09:30:05Z</time>
      </trkpt>
      <trkpt lat="46.11923" lon="6.74216">
        <ele>1313.405</ele>
        <time>2026-02-22T09:30:10Z</time>
      </trkpt>
      <trkpt lat="46.11923" lon="6.74216">
        <ele>1313.395</ele>
        <time>2026-02-22T09:30:15Z</time>
      </trkpt>
      <trkpt lat="46.11923" lon="6.74216">
        <ele>1313.38</ele>
        <time>2026-02-22T09:30:20Z</time>
      </trkpt>
      <trkpt lat="46.11923" lon="6.74216">
        <ele>1313.371</ele>
        <time>2026-02-22T09:30:25Z</time>
      </trkpt>
      <trkpt lat="46.11923" lon="6.74216">
        <ele>1313.367</ele>
        <time>2026-02-22T09:30:30Z</time>
      </trkpt>
      <trkpt lat="46.11923" lon="6.74216">
        <ele>1313.367</ele>
        <time>2026-02-22T09:30:35Z</time>
      </trkpt>
      <trkpt lat="46.11923" lon="6.74216">
        <ele>1313.374</ele>
        <time>2026-02-22T09:30:40Z</time>
      </trkpt>
      <trkpt lat="46.11923" lon="6.74216">
        <ele>1313.38</ele>
        <time>2026-02-22T09:30:45Z</time>
      </trkpt>
      <trkpt lat="46.11923" lon="6.74216">
        <ele>1313.387</ele>
        <time>2026-02-22T09:30:50Z</time>
      </trkpt>
      <trkpt lat="46.11923" lon="6.74216">
        <ele>1313.402</ele>
        <time>2026-02-22T09:30:55Z</time>
      </trkpt>
      <trkpt lat="46.11923" lon="6.74216">
        <ele>1313.394</ele>
        <time>2026-02-22T09:31:00Z</time>
      </trkpt>
      <trkpt lat="46.11923" lon="6.74216">
        <ele>1313.621</ele>
        <time>2026-02-22T09:31:05Z</time>
      </trkpt>
      <trkpt lat="46.11923" lon="6.74216">
        <ele>1313.636</ele>
        <time>2026-02-22T09:31:10Z</time>
      </trkpt>
      <trkpt lat="46.11923" lon="6.74216">
        <ele>1312.451</ele>
        <time>2026-02-22T09:31:15Z</time>
      </trkpt>
      <trkpt lat="46.11923" lon="6.74216">
        <ele>1312.482</ele>
        <time>2026-02-22T09:31:20Z</time>
      </trkpt>
      <trkpt lat="46.11923" lon="6.74216">
        <ele>1312.487</ele>
        <time>2026-02-22T09:31:25Z</time>
      </trkpt>
      <trkpt lat="46.11923" lon="6.74216">
        <ele>1312.496</ele>
        <time>2026-02-22T09:31:30Z</time>
      </trkpt>
      <trkpt lat="46.11923" lon="6.74216">
        <ele>1312.497</ele>
        <time>2026-02-22T09:31:35Z</time>
      </trkpt>
      <trkpt lat="46.11923" lon="6.74216">
        <ele>1312.493</ele>
        <time>2026-02-22T09:31:40Z</time>
      </trkpt>
      <trkpt lat="46.11923" lon="6.74216">
        <ele>1312.5</ele>
        <time>2026-02-22T09:31:45Z</time>
      </trkpt>
      <trkpt lat="46.11923" lon="6.74216">
        <ele>1312.503</ele>
        <time>2026-02-22T09:31:50Z</time>
      </trkpt>
      <trkpt lat="46.11923" lon="6.74216">
        <ele>1312.511</ele>
        <time>2026-02-22T09:31:55Z</time>
      </trkpt>
      <trkpt lat="46.11923" lon="6.74216">
        <ele>1312.159</ele>
        <time>2026-02-22T09:32:00Z</time>
      </trkpt>
      <trkpt lat="46.11923" lon="6.74216">
        <ele>1311.956</ele>
        <time>2026-02-22T09:32:05Z</time>
      </trkpt>
      <trkpt lat="46.11923" lon="6.74216">
        <ele>1312.055</ele>
        <time>2026-02-22T09:32:10Z</time>
      </trkpt>
      <trkpt lat="46.11923" lon="6.74216">
        <ele>1312.05</ele>
        <time>2026-02-22T09:32:15Z</time>
      </trkpt>
      <trkpt lat="46.11923" lon="6.74216">
        <ele>1312.056</ele>
        <time>2026-02-22T09:32:20Z</time>
      </trkpt>
      <trkpt lat="46.11923" lon="6.74216">
        <ele>1312.228</ele>
        <time>2026-02-22T09:32:25Z</time>
      </trkpt>
      <trkpt lat="46.11923" lon="6.74216">
        <ele>1312.087</ele>
        <time>2026-02-22T09:32:30Z</time>
      </trkpt>
      <trkpt lat="46.11923" lon="6.74216">
        <ele>1312.086</ele>
        <time>2026-02-22T09:32:35Z</time>
      </trkpt>
      <trkpt lat="46.11923" lon="6.74216">
        <ele>1312.096</ele>
        <time>2026-02-22T09:32:40Z</time>
      </trkpt>
      <trkpt lat="46.11923" lon="6.74216">
        <ele>1312.102</ele>
        <time>2026-02-22T09:32:45Z</time>
      </trkpt>
      <trkpt lat="46.11924" lon="6.74217">
        <ele>1312.001</ele>
        <time>2026-02-22T09:32:50Z</time>
      </trkpt>
      <trkpt lat="46.11924" lon="6.74217">
        <ele>1311.997</ele>
        <time>2026-02-22T09:32:55Z</time>
      </trkpt>
      <trkpt lat="46.11924" lon="6.74217">
        <ele>1311.996</ele>
        <time>2026-02-22T09:33:00Z</time>
      </trkpt>
      <trkpt lat="46.11924" lon="6.74217">
        <ele>1311.994</ele>
        <time>2026-02-22T09:33:05Z</time>
      </trkpt>
      <trkpt lat="46.11924" lon="6.74217">
        <ele>1312.463</ele>
        <time>2026-02-22T09:33:10Z</time>
      </trkpt>
      <trkpt lat="46.11921" lon="6.74223">
        <ele>1312.282</ele>
        <time>2026-02-22T09:33:15Z</time>
      </trkpt>
      <trkpt lat="46.11919" lon="6.74228">
        <ele>1313.632</ele>
        <time>2026-02-22T09:33:20Z</time>
      </trkpt>
      <trkpt lat="46.11916" lon="6.74234">
        <ele>1314.567</ele>
        <time>2026-02-22T09:33:25Z</time>
      </trkpt>
      <trkpt lat="46.11914" lon="6.7424">
        <ele>1316.423</ele>
        <time>2026-02-22T09:33:30Z</time>
      </trkpt>
      <trkpt lat="46.11913" lon="6.74246">
        <ele>1317.606</ele>
        <time>2026-02-22T09:33:35Z</time>
      </trkpt>
      <trkpt lat="46.11912" lon="6.74252">
        <ele>1318.974</ele>
        <time>2026-02-22T09:33:40Z</time>
      </trkpt>
      <trkpt lat="46.11911" lon="6.74259">
        <ele>1319.079</ele>
        <time>2026-02-22T09:33:45Z</time>
      </trkpt>
      <trkpt lat="46.11912" lon="6.74264">
        <ele>1319.58</ele>
        <time>2026-02-22T09:33:50Z</time>
      </trkpt>
      <trkpt lat="46.11911" lon="6.7427">
        <ele>1320.097</ele>
        <time>2026-02-22T09:33:55Z</time>
      </trkpt>
      <trkpt lat="46.11911" lon="6.74275">
        <ele>1321.291</ele>
        <time>2026-02-22T09:34:00Z</time>
      </trkpt>
      <trkpt lat="46.11911" lon="6.7428">
        <ele>1322.461</ele>
        <time>2026-02-22T09:34:05Z</time>
      </trkpt>
      <trkpt lat="46.1191" lon="6.74286">
        <ele>1325.115</ele>
        <time>2026-02-22T09:34:10Z</time>
      </trkpt>
      <trkpt lat="46.11909" lon="6.74292">
        <ele>1326.491</ele>
        <time>2026-02-22T09:34:15Z</time>
      </trkpt>
      <trkpt lat="46.11909" lon="6.74296">
        <ele>1327.063</ele>
        <time>2026-02-22T09:34:20Z</time>
      </trkpt>
      <trkpt lat="46.11908" lon="6.743">
        <ele>1326.494</ele>
        <time>2026-02-22T09:34:25Z</time>
      </trkpt>
      <trkpt lat="46.11908" lon="6.74303">
        <ele>1325.582</ele>
        <time>2026-02-22T09:34:30Z</time>
      </trkpt>
      <trkpt lat="46.11907" lon="6.74307">
        <ele>1327.097</ele>
        <time>2026-02-22T09:34:35Z</time>
      </trkpt>
      <trkpt lat="46.11906" lon="6.74313">
        <ele>1327.438</ele>
        <time>2026-02-22T09:34:40Z</time>
      </trkpt>
      <trkpt lat="46.11904" lon="6.74319">
        <ele>1328.716</ele>
        <time>2026-02-22T09:34:45Z</time>
      </trkpt>
      <trkpt lat="46.11901" lon="6.74324">
        <ele>1330.357</ele>
        <time>2026-02-22T09:34:50Z</time>
      </trkpt>
      <trkpt lat="46.11898" lon="6.74329">
        <ele>1330.788</ele>
        <time>2026-02-22T09:34:55Z</time>
      </trkpt>
      <trkpt lat="46.11897" lon="6.74334">
        <ele>1332.295</ele>
        <time>2026-02-22T09:35:00Z</time>
      </trkpt>
      <trkpt lat="46.11895" lon="6.74339">
        <ele>1333.541</ele>
        <time>2026-02-22T09:35:05Z</time>
      </trkpt>
      <trkpt lat="46.11893" lon="6.74344">
        <ele>1334.343</ele>
        <time>2026-02-22T09:35:10Z</time>
      </trkpt>
      <trkpt lat="46.11892" lon="6.74349">
        <ele>1334.976</ele>
        <time>2026-02-22T09:35:15Z</time>
      </trkpt>
      <trkpt lat="46.1189" lon="6.74354">
        <ele>1336.549</ele>
        <time>2026-02-22T09:35:20Z</time>
      </trkpt>
      <trkpt lat="46.11889" lon="6.7436">
        <ele>1338.254</ele>
        <time>2026-02-22T09:35:25Z</time>
      </trkpt>
      <trkpt lat="46.11888" lon="6.74367">
        <ele>1338.209</ele>
        <time>2026-02-22T09:35:30Z</time>
      </trkpt>
      <trkpt lat="46.11888" lon="6.74373">
        <ele>1339.241</ele>
        <time>2026-02-22T09:35:35Z</time>
      </trkpt>
      <trkpt lat="46.1189" lon="6.7438">
        <ele>1340.16</ele>
        <time>2026-02-22T09:35:40Z</time>
      </trkpt>
      <trkpt lat="46.11893" lon="6.74384">
        <ele>1341.679</ele>
        <time>2026-02-22T09:35:45Z</time>
      </trkpt>
      <trkpt lat="46.11896" lon="6.74388">
        <ele>1342.951</ele>
        <time>2026-02-22T09:35:50Z</time>
      </trkpt>
      <trkpt lat="46.119" lon="6.74392">
        <ele>1343.63</ele>
        <time>2026-02-22T09:35:55Z</time>
      </trkpt>
      <trkpt lat="46.11903" lon="6.74396">
        <ele>1344.47</ele>
        <time>2026-02-22T09:36:00Z</time>
      </trkpt>
      <trkpt lat="46.11906" lon="6.74401">
        <ele>1344.904</ele>
        <time>2026-02-22T09:36:05Z</time>
      </trkpt>
      <trkpt lat="46.11909" lon="6.74405">
        <ele>1345.801</ele>
        <time>2026-02-22T09:36:10Z</time>
      </trkpt>
      <trkpt lat="46.11912" lon="6.74408">
        <ele>1346.218</ele>
        <time>2026-02-22T09:36:15Z</time>
      </trkpt>
      <trkpt lat="46.11914" lon="6.74412">
        <ele>1348.598</ele>
        <time>2026-02-22T09:36:20Z</time>
      </trkpt>
      <trkpt lat="46.11917" lon="6.74416">
        <ele>1350.085</ele>
        <time>2026-02-22T09:36:25Z</time>
      </trkpt>
      <trkpt lat="46.1192" lon="6.74421">
        <ele>1350.84</ele>
        <time>2026-02-22T09:36:30Z</time>
      </trkpt>
      <trkpt lat="46.11922" lon="6.74426">
        <ele>1353.207</ele>
        <time>2026-02-22T09:36:35Z</time>
      </trkpt>
      <trkpt lat="46.11926" lon="6.74431">
        <ele>1354.266</ele>
        <time>2026-02-22T09:36:40Z</time>
      </trkpt>
      <trkpt lat="46.11929" lon="6.74435">
        <ele>1354.156</ele>
        <time>2026-02-22T09:36:45Z</time>
      </trkpt>
      <trkpt lat="46.11931" lon="6.7444">
        <ele>1354.596</ele>
        <time>2026-02-22T09:36:50Z</time>
      </trkpt>
      <trkpt lat="46.11934" lon="6.74444">
        <ele>1354.737</ele>
        <time>2026-02-22T09:36:55Z</time>
      </trkpt>
      <trkpt lat="46.11936" lon="6.7445">
        <ele>1355.804</ele>
        <time>2026-02-22T09:37:00Z</time>
      </trkpt>
      <trkpt lat="46.11938" lon="6.74456">
        <ele>1358.703</ele>
        <time>2026-02-22T09:37:05Z</time>
      </trkpt>
      <trkpt lat="46.11939" lon="6.74462">
        <ele>1360.381</ele>
        <time>2026-02-22T09:37:10Z</time>
      </trkpt>
      <trkpt lat="46.1194" lon="6.74467">
        <ele>1360.561</ele>
        <time>2026-02-22T09:37:15Z</time>
      </trkpt>
      <trkpt lat="46.11941" lon="6.74472">
        <ele>1360.376</ele>
        <time>2026-02-22T09:37:20Z</time>
      </trkpt>
      <trkpt lat="46.11942" lon="6.74478">
        <ele>1361.951</ele>
        <time>2026-02-22T09:37:25Z</time>
      </trkpt>
      <trkpt lat="46.11943" lon="6.74485">
        <ele>1363.025</ele>
        <time>2026-02-22T09:37:30Z</time>
      </trkpt>
      <trkpt lat="46.11945" lon="6.74491">
        <ele>1364.673</ele>
        <time>2026-02-22T09:37:35Z</time>
      </trkpt>
      <trkpt lat="46.11947" lon="6.74498">
        <ele>1365.904</ele>
        <time>2026-02-22T09:37:40Z</time>
      </trkpt>
      <trkpt lat="46.11949" lon="6.74503">
        <ele>1366.377</ele>
        <time>2026-02-22T09:37:45Z</time>
      </trkpt>
      <trkpt lat="46.11951" lon="6.74509">
        <ele>1367.261</ele>
        <time>2026-02-22T09:37:50Z</time>
      </trkpt>
      <trkpt lat="46.11952" lon="6.74516">
        <ele>1368.614</ele>
        <time>2026-02-22T09:37:55Z</time>
      </trkpt>
      <trkpt lat="46.11952" lon="6.74523">
        <ele>1367.619</ele>
        <time>2026-02-22T09:38:00Z</time>
      </trkpt>
      <trkpt lat="46.11952" lon="6.74529">
        <ele>1367.69</ele>
        <time>2026-02-22T09:38:05Z</time>
      </trkpt>
      <trkpt lat="46.11952" lon="6.74535">
        <ele>1367.703</ele>
        <time>2026-02-22T09:38:10Z</time>
      </trkpt>
      <trkpt lat="46.11952" lon="6.7454">
        <ele>1369.305</ele>
        <time>2026-02-22T09:38:15Z</time>
      </trkpt>
      <trkpt lat="46.1195" lon="6.74545">
        <ele>1370.126</ele>
        <time>2026-02-22T09:38:20Z</time>
      </trkpt>
      <trkpt lat="46.11949" lon="6.7455">
        <ele>1369.571</ele>
        <time>2026-02-22T09:38:25Z</time>
      </trkpt>
      <trkpt lat="46.11949" lon="6.74554">
        <ele>1368.721</ele>
        <time>2026-02-22T09:38:30Z</time>
      </trkpt>
      <trkpt lat="46.11948" lon="6.74558">
        <ele>1367.929</ele>
        <time>2026-02-22T09:38:35Z</time>
      </trkpt>
      <trkpt lat="46.11947" lon="6.74561">
        <ele>1369.171</ele>
        <time>2026-02-22T09:38:40Z</time>
      </trkpt>
      <trkpt lat="46.11945" lon="6.74566">
        <ele>1369.003</ele>
        <time>2026-02-22T09:38:45Z</time>
      </trkpt>
      <trkpt lat="46.11943" lon="6.74573">
        <ele>1370.826</ele>
        <time>2026-02-22T09:38:50Z</time>
      </trkpt>
      <trkpt lat="46.11943" lon="6.74579">
        <ele>1371.748</ele>
        <time>2026-02-22T09:38:55Z</time>
      </trkpt>
      <trkpt lat="46.11942" lon="6.74585">
        <ele>1373.058</ele>
        <time>2026-02-22T09:39:00Z</time>
      </trkpt>
      <trkpt lat="46.11943" lon="6.74591">
        <ele>1373.753</ele>
        <time>2026-02-22T09:39:05Z</time>
      </trkpt>
      <trkpt lat="46.11943" lon="6.74597">
        <ele>1376.652</ele>
        <time>2026-02-22T09:39:10Z</time>
      </trkpt>
      <trkpt lat="46.11944" lon="6.74603">
        <ele>1378.203</ele>
        <time>2026-02-22T09:39:15Z</time>
      </trkpt>
      <trkpt lat="46.11945" lon="6.74608">
        <ele>1379.223</ele>
        <time>2026-02-22T09:39:20Z</time>
      </trkpt>
      <trkpt lat="46.11946" lon="6.74613">
        <ele>1379.832</ele>
        <time>2026-02-22T09:39:25Z</time>
      </trkpt>
      <trkpt lat="46.11947" lon="6.74617">
        <ele>1379.186</ele>
        <time>2026-02-22T09:39:30Z</time>
      </trkpt>
      <trkpt lat="46.11948" lon="6.74622">
        <ele>1379.539</ele>
        <time>2026-02-22T09:39:35Z</time>
      </trkpt>
      <trkpt lat="46.11948" lon="6.74627">
        <ele>1380.647</ele>
        <time>2026-02-22T09:39:40Z</time>
      </trkpt>
      <trkpt lat="46.11949" lon="6.74631">
        <ele>1382.75</ele>
        <time>2026-02-22T09:39:45Z</time>
      </trkpt>
      <trkpt lat="46.11949" lon="6.74635">
        <ele>1383.041</ele>
        <time>2026-02-22T09:39:50Z</time>
      </trkpt>
      <trkpt lat="46.11949" lon="6.7464">
        <ele>1383.017</ele>
        <time>2026-02-22T09:39:55Z</time>
      </trkpt>
      <trkpt lat="46.11948" lon="6.74644">
        <ele>1383.827</ele>
        <time>2026-02-22T09:40:00Z</time>
      </trkpt>
      <trkpt lat="46.11949" lon="6.74649">
        <ele>1386.154</ele>
        <time>2026-02-22T09:40:05Z</time>
      </trkpt>
      <trkpt lat="46.11948" lon="6.74655">
        <ele>1387.266</ele>
        <time>2026-02-22T09:40:10Z</time>
      </trkpt>
      <trkpt lat="46.11947" lon="6.7466">
        <ele>1387.992</ele>
        <time>2026-02-22T09:40:15Z</time>
      </trkpt>
      <trkpt lat="46.11946" lon="6.74665">
        <ele>1385.978</ele>
        <time>2026-02-22T09:40:20Z</time>
      </trkpt>
      <trkpt lat="46.11946" lon="6.74669">
        <ele>1385.218</ele>
        <time>2026-02-22T09:40:25Z</time>
      </trkpt>
      <trkpt lat="46.11947" lon="6.74673">
        <ele>1385.323</ele>
        <time>2026-02-22T09:40:30Z</time>
      </trkpt>
      <trkpt lat="46.11946" lon="6.74678">
        <ele>1385.623</ele>
        <time>2026-02-22T09:40:35Z</time>
      </trkpt>
      <trkpt lat="46.11946" lon="6.74682">
        <ele>1387.585</ele>
        <time>2026-02-22T09:40:40Z</time>
      </trkpt>
      <trkpt lat="46.11946" lon="6.74688">
        <ele>1387.701</ele>
        <time>2026-02-22T09:40:45Z</time>
      </trkpt>
      <trkpt lat="46.11947" lon="6.74694">
        <ele>1390.03</ele>
        <time>2026-02-22T09:40:50Z</time>
      </trkpt>
      <trkpt lat="46.11949" lon="6.74699">
        <ele>1393.218</ele>
        <time>2026-02-22T09:40:55Z</time>
      </trkpt>
      <trkpt lat="46.11952" lon="6.74703">
        <ele>1393.991</ele>
        <time>2026-02-22T09:41:00Z</time>
      </trkpt>
      <trkpt lat="46.11955" lon="6.74707">
        <ele>1394.095</ele>
        <time>2026-02-22T09:41:05Z</time>
      </trkpt>
      <trkpt lat="46.11957" lon="6.74711">
        <ele>1396.43</ele>
        <time>2026-02-22T09:41:10Z</time>
      </trkpt>
      <trkpt lat="46.1196" lon="6.74715">
        <ele>1399.316</ele>
        <time>2026-02-22T09:41:15Z</time>
      </trkpt>
      <trkpt lat="46.11962" lon="6.7472">
        <ele>1400.232</ele>
        <time>2026-02-22T09:41:20Z</time>
      </trkpt>
      <trkpt lat="46.11965" lon="6.74725">
        <ele>1401.389</ele>
        <time>2026-02-22T09:41:25Z</time>
      </trkpt>
      <trkpt lat="46.11968" lon="6.74729">
        <ele>1403.428</ele>
        <time>2026-02-22T09:41:30Z</time>
      </trkpt>
      <trkpt lat="46.1197" lon="6.74733">
        <ele>1402.397</ele>
        <time>2026-02-22T09:41:35Z</time>
      </trkpt>
      <trkpt lat="46.11972" lon="6.74736">
        <ele>1401.315</ele>
        <time>2026-02-22T09:41:40Z</time>
      </trkpt>
      <trkpt lat="46.11973" lon="6.74741">
        <ele>1401.977</ele>
        <time>2026-02-22T09:41:45Z</time>
      </trkpt>
      <trkpt lat="46.11975" lon="6.74746">
        <ele>1402.97</ele>
        <time>2026-02-22T09:41:50Z</time>
      </trkpt>
      <trkpt lat="46.11977" lon="6.74751">
        <ele>1405.111</ele>
        <time>2026-02-22T09:41:55Z</time>
      </trkpt>
      <trkpt lat="46.11978" lon="6.74756">
        <ele>1406.159</ele>
        <time>2026-02-22T09:42:00Z</time>
      </trkpt>
      <trkpt lat="46.11979" lon="6.74762">
        <ele>1406.584</ele>
        <time>2026-02-22T09:42:05Z</time>
      </trkpt>
      <trkpt lat="46.11979" lon="6.74766">
        <ele>1407.094</ele>
        <time>2026-02-22T09:42:10Z</time>
      </trkpt>
      <trkpt lat="46.11979" lon="6.74771">
        <ele>1404.693</ele>
        <time>2026-02-22T09:42:15Z</time>
      </trkpt>
      <trkpt lat="46.1198" lon="6.74775">
        <ele>1406.216</ele>
        <time>2026-02-22T09:42:20Z</time>
      </trkpt>
      <trkpt lat="46.1198" lon="6.7478">
        <ele>1406.772</ele>
        <time>2026-02-22T09:42:25Z</time>
      </trkpt>
      <trkpt lat="46.11981" lon="6.74782">
        <ele>1407.551</ele>
        <time>2026-02-22T09:42:30Z</time>
      </trkpt>
      <trkpt lat="46.11981" lon="6.74782">
        <ele>1407.362</ele>
        <time>2026-02-22T09:42:35Z</time>
      </trkpt>
      <trkpt lat="46.11981" lon="6.74782">
        <ele>1402.127</ele>
        <time>2026-02-22T09:42:40Z</time>
      </trkpt>
      <trkpt lat="46.11981" lon="6.74782">
        <ele>1403.202</ele>
        <time>2026-02-22T09:42:45Z</time>
      </trkpt>
      <trkpt lat="46.11981" lon="6.74782">
        <ele>1402.753</ele>
        <time>2026-02-22T09:42:50Z</time>
      </trkpt>
      <trkpt lat="46.11982" lon="6.74787">
        <ele>1404.797</ele>
        <time>2026-02-22T09:42:55Z</time>
      </trkpt>
      <trkpt lat="46.11982" lon="6.7479">
        <ele>1404.836</ele>
        <time>2026-02-22T09:43:00Z</time>
      </trkpt>
      <trkpt lat="46.11983" lon="6.748">
        <ele>1407.274</ele>
        <time>2026-02-22T09:43:05Z</time>
      </trkpt>
      <trkpt lat="46.11984" lon="6.74805">
        <ele>1407.33</ele>
        <time>2026-02-22T09:43:10Z</time>
      </trkpt>
      <trkpt lat="46.11984" lon="6.74805">
        <ele>1404.066</ele>
        <time>2026-02-22T09:43:14Z</time>
      </trkpt>
      <trkpt lat="46.11991" lon="6.74811">
        <ele>1408.67</ele>
        <time>2026-02-22T09:43:20Z</time>
      </trkpt>
      <trkpt lat="46.11992" lon="6.74817">
        <ele>1410.599</ele>
        <time>2026-02-22T09:43:25Z</time>
      </trkpt>
      <trkpt lat="46.11994" lon="6.74822">
        <ele>1412.707</ele>
        <time>2026-02-22T09:43:30Z</time>
      </trkpt>
      <trkpt lat="46.11996" lon="6.74825">
        <ele>1414.462</ele>
        <time>2026-02-22T09:43:35Z</time>
      </trkpt>
      <trkpt lat="46.11998" lon="6.74828">
        <ele>1415.314</ele>
        <time>2026-02-22T09:43:40Z</time>
      </trkpt>
      <trkpt lat="46.12" lon="6.74831">
        <ele>1417.508</ele>
        <time>2026-02-22T09:43:45Z</time>
      </trkpt>
      <trkpt lat="46.12003" lon="6.74835">
        <ele>1417.91</ele>
        <time>2026-02-22T09:43:50Z</time>
      </trkpt>
      <trkpt lat="46.12006" lon="6.74837">
        <ele>1418.176</ele>
        <time>2026-02-22T09:43:55Z</time>
      </trkpt>
      <trkpt lat="46.12008" lon="6.74839">
        <ele>1417.206</ele>
        <time>2026-02-22T09:44:00Z</time>
      </trkpt>
      <trkpt lat="46.12011" lon="6.74839">
        <ele>1417.885</ele>
        <time>2026-02-22T09:44:05Z</time>
      </trkpt>
      <trkpt lat="46.12013" lon="6.74836">
        <ele>1418.509</ele>
        <time>2026-02-22T09:44:10Z</time>
      </trkpt>
      <trkpt lat="46.12016" lon="6.74834">
        <ele>1419.524</ele>
        <time>2026-02-22T09:44:15Z</time>
      </trkpt>
      <trkpt lat="46.12019" lon="6.74833">
        <ele>1419.574</ele>
        <time>2026-02-22T09:44:20Z</time>
      </trkpt>
      <trkpt lat="46.12022" lon="6.74832">
        <ele>1420.638</ele>
        <time>2026-02-22T09:44:25Z</time>
      </trkpt>
      <trkpt lat="46.12025" lon="6.7483">
        <ele>1421.603</ele>
        <time>2026-02-22T09:44:30Z</time>
      </trkpt>
      <trkpt lat="46.12028" lon="6.74829">
        <ele>1422.808</ele>
        <time>2026-02-22T09:44:35Z</time>
      </trkpt>
      <trkpt lat="46.12031" lon="6.7483">
        <ele>1424.953</ele>
        <time>2026-02-22T09:44:40Z</time>
      </trkpt>
      <trkpt lat="46.12033" lon="6.74831">
        <ele>1427.733</ele>
        <time>2026-02-22T09:44:45Z</time>
      </trkpt>
      <trkpt lat="46.12037" lon="6.74831">
        <ele>1428.8</ele>
        <time>2026-02-22T09:44:50Z</time>
      </trkpt>
      <trkpt lat="46.1204" lon="6.74832">
        <ele>1428.626</ele>
        <time>2026-02-22T09:44:55Z</time>
      </trkpt>
      <trkpt lat="46.12044" lon="6.74831">
        <ele>1427.887</ele>
        <time>2026-02-22T09:45:00Z</time>
      </trkpt>
      <trkpt lat="46.12047" lon="6.7483">
        <ele>1427.153</ele>
        <time>2026-02-22T09:45:05Z</time>
      </trkpt>
      <trkpt lat="46.1205" lon="6.74828">
        <ele>1425.746</ele>
        <time>2026-02-22T09:45:10Z</time>
      </trkpt>
      <trkpt lat="46.12052" lon="6.74827">
        <ele>1424.821</ele>
        <time>2026-02-22T09:45:15Z</time>
      </trkpt>
      <trkpt lat="46.12055" lon="6.74826">
        <ele>1424.97</ele>
        <time>2026-02-22T09:45:20Z</time>
      </trkpt>
      <trkpt lat="46.12057" lon="6.74827">
        <ele>1426.103</ele>
        <time>2026-02-22T09:45:25Z</time>
      </trkpt>
      <trkpt lat="46.1206" lon="6.74826">
        <ele>1427.72</ele>
        <time>2026-02-22T09:45:30Z</time>
      </trkpt>
      <trkpt lat="46.12062" lon="6.74826">
        <ele>1428.647</ele>
        <time>2026-02-22T09:45:35Z</time>
      </trkpt>
      <trkpt lat="46.12064" lon="6.74828">
        <ele>1430.324</ele>
        <time>2026-02-22T09:45:40Z</time>
      </trkpt>
      <trkpt lat="46.12066" lon="6.74832">
        <ele>1431.369</ele>
        <time>2026-02-22T09:45:45Z</time>
      </trkpt>
      <trkpt lat="46.12067" lon="6.74837">
        <ele>1432.79</ele>
        <time>2026-02-22T09:45:50Z</time>
      </trkpt>
      <trkpt lat="46.12067" lon="6.74841">
        <ele>1433.987</ele>
        <time>2026-02-22T09:45:55Z</time>
      </trkpt>
      <trkpt lat="46.12066" lon="6.74844">
        <ele>1434.699</ele>
        <time>2026-02-22T09:46:00Z</time>
      </trkpt>
      <trkpt lat="46.12066" lon="6.74848">
        <ele>1434.559</ele>
        <time>2026-02-22T09:46:05Z</time>
      </trkpt>
      <trkpt lat="46.12066" lon="6.74852">
        <ele>1435.528</ele>
        <time>2026-02-22T09:46:10Z</time>
      </trkpt>
      <trkpt lat="46.12066" lon="6.74856">
        <ele>1436.405</ele>
        <time>2026-02-22T09:46:15Z</time>
      </trkpt>
      <trkpt lat="46.12066" lon="6.74861">
        <ele>1436.61</ele>
        <time>2026-02-22T09:46:20Z</time>
      </trkpt>
      <trkpt lat="46.12066" lon="6.74865">
        <ele>1437.825</ele>
        <time>2026-02-22T09:46:25Z</time>
      </trkpt>
      <trkpt lat="46.12066" lon="6.7487">
        <ele>1438.831</ele>
        <time>2026-02-22T09:46:30Z</time>
      </trkpt>
      <trkpt lat="46.12067" lon="6.74874">
        <ele>1441.12</ele>
        <time>2026-02-22T09:46:35Z</time>
      </trkpt>
      <trkpt lat="46.12068" lon="6.74879">
        <ele>1441.518</ele>
        <time>2026-02-22T09:46:40Z</time>
      </trkpt>
      <trkpt lat="46.12069" lon="6.74883">
        <ele>1440.696</ele>
        <time>2026-02-22T09:46:45Z</time>
      </trkpt>
      <trkpt lat="46.1207" lon="6.74888">
        <ele>1440.464</ele>
        <time>2026-02-22T09:46:50Z</time>
      </trkpt>
      <trkpt lat="46.12071" lon="6.74893">
        <ele>1441.138</ele>
        <time>2026-02-22T09:46:55Z</time>
      </trkpt>
      <trkpt lat="46.12073" lon="6.74897">
        <ele>1442.589</ele>
        <time>2026-02-22T09:47:00Z</time>
      </trkpt>
      <trkpt lat="46.12074" lon="6.749">
        <ele>1443.6</ele>
        <time>2026-02-22T09:47:05Z</time>
      </trkpt>
      <trkpt lat="46.12076" lon="6.74904">
        <ele>1445.108</ele>
        <time>2026-02-22T09:47:10Z</time>
      </trkpt>
      <trkpt lat="46.12078" lon="6.74908">
        <ele>1444.989</ele>
        <time>2026-02-22T09:47:15Z</time>
      </trkpt>
      <trkpt lat="46.12081" lon="6.74911">
        <ele>1445.414</ele>
        <time>2026-02-22T09:47:20Z</time>
      </trkpt>
      <trkpt lat="46.12083" lon="6.74915">
        <ele>1445.164</ele>
        <time>2026-02-22T09:47:25Z</time>
      </trkpt>
      <trkpt lat="46.12085" lon="6.74919">
        <ele>1445.605</ele>
        <time>2026-02-22T09:47:30Z</time>
      </trkpt>
      <trkpt lat="46.12086" lon="6.74923">
        <ele>1447.026</ele>
        <time>2026-02-22T09:47:35Z</time>
      </trkpt>
      <trkpt lat="46.12088" lon="6.74927">
        <ele>1446.919</ele>
        <time>2026-02-22T09:47:40Z</time>
      </trkpt>
      <trkpt lat="46.12089" lon="6.74931">
        <ele>1447.772</ele>
        <time>2026-02-22T09:47:45Z</time>
      </trkpt>
      <trkpt lat="46.12091" lon="6.74936">
        <ele>1447.694</ele>
        <time>2026-02-22T09:47:50Z</time>
      </trkpt>
      <trkpt lat="46.12092" lon="6.7494">
        <ele>1449.4</ele>
        <time>2026-02-22T09:47:55Z</time>
      </trkpt>
      <trkpt lat="46.12092" lon="6.74946">
        <ele>1451.015</ele>
        <time>2026-02-22T09:48:00Z</time>
      </trkpt>
      <trkpt lat="46.1209" lon="6.7495">
        <ele>1451.782</ele>
        <time>2026-02-22T09:48:05Z</time>
      </trkpt>
      <trkpt lat="46.12088" lon="6.74954">
        <ele>1451.308</ele>
        <time>2026-02-22T09:48:10Z</time>
      </trkpt>
      <trkpt lat="46.12087" lon="6.74961">
        <ele>1452.325</ele>
        <time>2026-02-22T09:48:15Z</time>
      </trkpt>
      <trkpt lat="46.12087" lon="6.74968">
        <ele>1453.838</ele>
        <time>2026-02-22T09:48:20Z</time>
      </trkpt>
      <trkpt lat="46.12087" lon="6.74975">
        <ele>1455.463</ele>
        <time>2026-02-22T09:48:25Z</time>
      </trkpt>
      <trkpt lat="46.12086" lon="6.74983">
        <ele>1456.254</ele>
        <time>2026-02-22T09:48:30Z</time>
      </trkpt>
      <trkpt lat="46.12086" lon="6.7499">
        <ele>1456.76</ele>
        <time>2026-02-22T09:48:35Z</time>
      </trkpt>
      <trkpt lat="46.12084" lon="6.74996">
        <ele>1458.125</ele>
        <time>2026-02-22T09:48:40Z</time>
      </trkpt>
      <trkpt lat="46.12084" lon="6.75002">
        <ele>1459.639</ele>
        <time>2026-02-22T09:48:45Z</time>
      </trkpt>
      <trkpt lat="46.12083" lon="6.75007">
        <ele>1459.869</ele>
        <time>2026-02-22T09:48:50Z</time>
      </trkpt>
      <trkpt lat="46.12082" lon="6.75011">
        <ele>1459.59</ele>
        <time>2026-02-22T09:48:55Z</time>
      </trkpt>
      <trkpt lat="46.12082" lon="6.75016">
        <ele>1459.527</ele>
        <time>2026-02-22T09:49:00Z</time>
      </trkpt>
      <trkpt lat="46.12082" lon="6.7502">
        <ele>1460.836</ele>
        <time>2026-02-22T09:49:05Z</time>
      </trkpt>
      <trkpt lat="46.12082" lon="6.75025">
        <ele>1461.281</ele>
        <time>2026-02-22T09:49:10Z</time>
      </trkpt>
      <trkpt lat="46.12081" lon="6.75029">
        <ele>1461.105</ele>
        <time>2026-02-22T09:49:15Z</time>
      </trkpt>
      <trkpt lat="46.12081" lon="6.75033">
        <ele>1460.686</ele>
        <time>2026-02-22T09:49:20Z</time>
      </trkpt>
      <trkpt lat="46.12081" lon="6.75038">
        <ele>1461.604</ele>
        <time>2026-02-22T09:49:25Z</time>
      </trkpt>
      <trkpt lat="46.12081" lon="6.75042">
        <ele>1461.637</ele>
        <time>2026-02-22T09:49:30Z</time>
      </trkpt>
      <trkpt lat="46.12081" lon="6.75047">
        <ele>1461.913</ele>
        <time>2026-02-22T09:49:35Z</time>
      </trkpt>
      <trkpt lat="46.12081" lon="6.75052">
        <ele>1461.855</ele>
        <time>2026-02-22T09:49:40Z</time>
      </trkpt>
      <trkpt lat="46.12081" lon="6.75057">
        <ele>1460.396</ele>
        <time>2026-02-22T09:49:45Z</time>
      </trkpt>
      <trkpt lat="46.1208" lon="6.75061">
        <ele>1461.9</ele>
        <time>2026-02-22T09:49:50Z</time>
      </trkpt>
      <trkpt lat="46.12079" lon="6.75065">
        <ele>1462.37</ele>
        <time>2026-02-22T09:49:55Z</time>
      </trkpt>
      <trkpt lat="46.12079" lon="6.75068">
        <ele>1463.095</ele>
        <time>2026-02-22T09:50:00Z</time>
      </trkpt>
      <trkpt lat="46.12078" lon="6.75072">
        <ele>1464.908</ele>
        <time>2026-02-22T09:50:05Z</time>
      </trkpt>
      <trkpt lat="46.12077" lon="6.75076">
        <ele>1465.605</ele>
        <time>2026-02-22T09:50:10Z</time>
      </trkpt>
      <trkpt lat="46.12077" lon="6.75081">
        <ele>1465.965</ele>
        <time>2026-02-22T09:50:15Z</time>
      </trkpt>
      <trkpt lat="46.12077" lon="6.75085">
        <ele>1466.68</ele>
        <time>2026-02-22T09:50:20Z</time>
      </trkpt>
      <trkpt lat="46.12077" lon="6.75089">
        <ele>1469.751</ele>
        <time>2026-02-22T09:50:25Z</time>
      </trkpt>
      <trkpt lat="46.12078" lon="6.75092">
        <ele>1470.509</ele>
        <time>2026-02-22T09:50:30Z</time>
      </trkpt>
      <trkpt lat="46.1208" lon="6.75096">
        <ele>1471.22</ele>
        <time>2026-02-22T09:50:35Z</time>
      </trkpt>
      <trkpt lat="46.12082" lon="6.751">
        <ele>1472.414</ele>
        <time>2026-02-22T09:50:40Z</time>
      </trkpt>
      <trkpt lat="46.12084" lon="6.75103">
        <ele>1473.318</ele>
        <time>2026-02-22T09:50:45Z</time>
      </trkpt>
      <trkpt lat="46.12087" lon="6.75106">
        <ele>1474.143</ele>
        <time>2026-02-22T09:50:50Z</time>
      </trkpt>
      <trkpt lat="46.12088" lon="6.75109">
        <ele>1476.66</ele>
        <time>2026-02-22T09:50:55Z</time>
      </trkpt>
      <trkpt lat="46.1209" lon="6.75112">
        <ele>1478.957</ele>
        <time>2026-02-22T09:51:00Z</time>
      </trkpt>
      <trkpt lat="46.12092" lon="6.75115">
        <ele>1481.755</ele>
        <time>2026-02-22T09:51:05Z</time>
      </trkpt>
      <trkpt lat="46.12094" lon="6.75117">
        <ele>1481.564</ele>
        <time>2026-02-22T09:51:10Z</time>
      </trkpt>
      <trkpt lat="46.12097" lon="6.75117">
        <ele>1483.547</ele>
        <time>2026-02-22T09:51:15Z</time>
      </trkpt>
      <trkpt lat="46.12101" lon="6.75116">
        <ele>1480.86</ele>
        <time>2026-02-22T09:51:20Z</time>
      </trkpt>
      <trkpt lat="46.12105" lon="6.75116">
        <ele>1479.933</ele>
        <time>2026-02-22T09:51:25Z</time>
      </trkpt>
      <trkpt lat="46.12107" lon="6.75113">
        <ele>1478.329</ele>
        <time>2026-02-22T09:51:30Z</time>
      </trkpt>
      <trkpt lat="46.12111" lon="6.75111">
        <ele>1479.767</ele>
        <time>2026-02-22T09:51:35Z</time>
      </trkpt>
      <trkpt lat="46.12114" lon="6.75111">
        <ele>1480.361</ele>
        <time>2026-02-22T09:51:40Z</time>
      </trkpt>
      <trkpt lat="46.12116" lon="6.75111">
        <ele>1480.269</ele>
        <time>2026-02-22T09:51:45Z</time>
      </trkpt>
      <trkpt lat="46.1212" lon="6.75112">
        <ele>1480.878</ele>
        <time>2026-02-22T09:51:50Z</time>
      </trkpt>
      <trkpt lat="46.12123" lon="6.75113">
        <ele>1482.183</ele>
        <time>2026-02-22T09:51:55Z</time>
      </trkpt>
      <trkpt lat="46.12125" lon="6.75117">
        <ele>1482.97</ele>
        <time>2026-02-22T09:52:00Z</time>
      </trkpt>
      <trkpt lat="46.12127" lon="6.7512">
        <ele>1483.251</ele>
        <time>2026-02-22T09:52:05Z</time>
      </trkpt>
      <trkpt lat="46.12127" lon="6.75124">
        <ele>1484.352</ele>
        <time>2026-02-22T09:52:10Z</time>
      </trkpt>
      <trkpt lat="46.12126" lon="6.75128">
        <ele>1484.66</ele>
        <time>2026-02-22T09:52:15Z</time>
      </trkpt>
      <trkpt lat="46.12125" lon="6.75132">
        <ele>1484.623</ele>
        <time>2026-02-22T09:52:20Z</time>
      </trkpt>
      <trkpt lat="46.12124" lon="6.75136">
        <ele>1485.983</ele>
        <time>2026-02-22T09:52:25Z</time>
      </trkpt>
      <trkpt lat="46.12123" lon="6.75142">
        <ele>1488.368</ele>
        <time>2026-02-22T09:52:30Z</time>
      </trkpt>
      <trkpt lat="46.12123" lon="6.75147">
        <ele>1489.94</ele>
        <time>2026-02-22T09:52:35Z</time>
      </trkpt>
      <trkpt lat="46.12124" lon="6.75149">
        <ele>1491.457</ele>
        <time>2026-02-22T09:52:40Z</time>
      </trkpt>
      <trkpt lat="46.12124" lon="6.75154">
        <ele>1493.101</ele>
        <time>2026-02-22T09:52:45Z</time>
      </trkpt>
      <trkpt lat="46.12124" lon="6.75159">
        <ele>1495.433</ele>
        <time>2026-02-22T09:52:50Z</time>
      </trkpt>
      <trkpt lat="46.12125" lon="6.75164">
        <ele>1496.244</ele>
        <time>2026-02-22T09:52:55Z</time>
      </trkpt>
      <trkpt lat="46.12127" lon="6.75168">
        <ele>1496.822</ele>
        <time>2026-02-22T09:53:00Z</time>
      </trkpt>
      <trkpt lat="46.12129" lon="6.75172">
        <ele>1497.383</ele>
        <time>2026-02-22T09:53:05Z</time>
      </trkpt>
      <trkpt lat="46.12131" lon="6.75176">
        <ele>1497.921</ele>
        <time>2026-02-22T09:53:10Z</time>
      </trkpt>
      <trkpt lat="46.12133" lon="6.7518">
        <ele>1499.244</ele>
        <time>2026-02-22T09:53:15Z</time>
      </trkpt>
      <trkpt lat="46.12134" lon="6.75184">
        <ele>1500.542</ele>
        <time>2026-02-22T09:53:20Z</time>
      </trkpt>
      <trkpt lat="46.12136" lon="6.75189">
        <ele>1500.924</ele>
        <time>2026-02-22T09:53:25Z</time>
      </trkpt>
      <trkpt lat="46.12138" lon="6.75192">
        <ele>1502.265</ele>
        <time>2026-02-22T09:53:30Z</time>
      </trkpt>
      <trkpt lat="46.12141" lon="6.75196">
        <ele>1503.835</ele>
        <time>2026-02-22T09:53:35Z</time>
      </trkpt>
      <trkpt lat="46.12143" lon="6.752">
        <ele>1503.341</ele>
        <time>2026-02-22T09:53:40Z</time>
      </trkpt>
      <trkpt lat="46.12145" lon="6.75204">
        <ele>1504.646</ele>
        <time>2026-02-22T09:53:45Z</time>
      </trkpt>
      <trkpt lat="46.12147" lon="6.75207">
        <ele>1504.427</ele>
        <time>2026-02-22T09:53:50Z</time>
      </trkpt>
      <trkpt lat="46.1215" lon="6.7521">
        <ele>1504.295</ele>
        <time>2026-02-22T09:53:55Z</time>
      </trkpt>
      <trkpt lat="46.12152" lon="6.75213">
        <ele>1504.692</ele>
        <time>2026-02-22T09:54:00Z</time>
      </trkpt>
      <trkpt lat="46.12155" lon="6.75216">
        <ele>1504.592</ele>
        <time>2026-02-22T09:54:05Z</time>
      </trkpt>
      <trkpt lat="46.12158" lon="6.75217">
        <ele>1504.448</ele>
        <time>2026-02-22T09:54:10Z</time>
      </trkpt>
      <trkpt lat="46.12161" lon="6.75219">
        <ele>1505.1</ele>
        <time>2026-02-22T09:54:15Z</time>
      </trkpt>
      <trkpt lat="46.12164" lon="6.75222">
        <ele>1504.819</ele>
        <time>2026-02-22T09:54:20Z</time>
      </trkpt>
      <trkpt lat="46.12166" lon="6.75224">
        <ele>1505.002</ele>
        <time>2026-02-22T09:54:25Z</time>
      </trkpt>
      <trkpt lat="46.12169" lon="6.75226">
        <ele>1505.547</ele>
        <time>2026-02-22T09:54:30Z</time>
      </trkpt>
      <trkpt lat="46.12171" lon="6.75229">
        <ele>1505.906</ele>
        <time>2026-02-22T09:54:35Z</time>
      </trkpt>
      <trkpt lat="46.12174" lon="6.75231">
        <ele>1506.732</ele>
        <time>2026-02-22T09:54:40Z</time>
      </trkpt>
      <trkpt lat="46.12177" lon="6.75234">
        <ele>1507.92</ele>
        <time>2026-02-22T09:54:45Z</time>
      </trkpt>
      <trkpt lat="46.12179" lon="6.75237">
        <ele>1508.99</ele>
        <time>2026-02-22T09:54:50Z</time>
      </trkpt>
      <trkpt lat="46.12181" lon="6.75239">
        <ele>1511.01</ele>
        <time>2026-02-22T09:54:55Z</time>
      </trkpt>
      <trkpt lat="46.12183" lon="6.75242">
        <ele>1510.717</ele>
        <time>2026-02-22T09:55:00Z</time>
      </trkpt>
      <trkpt lat="46.12186" lon="6.75245">
        <ele>1511.934</ele>
        <time>2026-02-22T09:55:05Z</time>
      </trkpt>
      <trkpt lat="46.12188" lon="6.75247">
        <ele>1512.59</ele>
        <time>2026-02-22T09:55:10Z</time>
      </trkpt>
      <trkpt lat="46.12191" lon="6.75249">
        <ele>1513.569</ele>
        <time>2026-02-22T09:55:15Z</time>
      </trkpt>
      <trkpt lat="46.12193" lon="6.75251">
        <ele>1514.201</ele>
        <time>2026-02-22T09:55:20Z</time>
      </trkpt>
      <trkpt lat="46.12195" lon="6.75253">
        <ele>1514.734</ele>
        <time>2026-02-22T09:55:25Z</time>
      </trkpt>
      <trkpt lat="46.12198" lon="6.75256">
        <ele>1516.073</ele>
        <time>2026-02-22T09:55:30Z</time>
      </trkpt>
      <trkpt lat="46.12201" lon="6.75258">
        <ele>1514.752</ele>
        <time>2026-02-22T09:55:35Z</time>
      </trkpt>
      <trkpt lat="46.12204" lon="6.75261">
        <ele>1515.154</ele>
        <time>2026-02-22T09:55:40Z</time>
      </trkpt>
      <trkpt lat="46.12208" lon="6.75262">
        <ele>1515.326</ele>
        <time>2026-02-22T09:55:45Z</time>
      </trkpt>
      <trkpt lat="46.12211" lon="6.75265">
        <ele>1516.397</ele>
        <time>2026-02-22T09:55:50Z</time>
      </trkpt>
      <trkpt lat="46.12214" lon="6.75268">
        <ele>1515.847</ele>
        <time>2026-02-22T09:55:55Z</time>
      </trkpt>
      <trkpt lat="46.12218" lon="6.7527">
        <ele>1515.925</ele>
        <time>2026-02-22T09:56:00Z</time>
      </trkpt>
      <trkpt lat="46.12222" lon="6.75271">
        <ele>1516.577</ele>
        <time>2026-02-22T09:56:05Z</time>
      </trkpt>
      <trkpt lat="46.12226" lon="6.75273">
        <ele>1517.488</ele>
        <time>2026-02-22T09:56:10Z</time>
      </trkpt>
      <trkpt lat="46.1223" lon="6.75275">
        <ele>1517.452</ele>
        <time>2026-02-22T09:56:15Z</time>
      </trkpt>
      <trkpt lat="46.12233" lon="6.75276">
        <ele>1517.606</ele>
        <time>2026-02-22T09:56:20Z</time>
      </trkpt>
      <trkpt lat="46.12236" lon="6.75277">
        <ele>1516.767</ele>
        <time>2026-02-22T09:56:25Z</time>
      </trkpt>
      <trkpt lat="46.12239" lon="6.75278">
        <ele>1516.232</ele>
        <time>2026-02-22T09:56:30Z</time>
      </trkpt>
      <trkpt lat="46.12242" lon="6.7528">
        <ele>1517.361</ele>
        <time>2026-02-22T09:56:35Z</time>
      </trkpt>
      <trkpt lat="46.12245" lon="6.75281">
        <ele>1518.812</ele>
        <time>2026-02-22T09:56:40Z</time>
      </trkpt>
      <trkpt lat="46.12248" lon="6.75283">
        <ele>1518.804</ele>
        <time>2026-02-22T09:56:45Z</time>
      </trkpt>
      <trkpt lat="46.12251" lon="6.75286">
        <ele>1520.786</ele>
        <time>2026-02-22T09:56:50Z</time>
      </trkpt>
      <trkpt lat="46.12252" lon="6.75289">
        <ele>1521.538</ele>
        <time>2026-02-22T09:56:55Z</time>
      </trkpt>
      <trkpt lat="46.12254" lon="6.75293">
        <ele>1522.721</ele>
        <time>2026-02-22T09:57:00Z</time>
      </trkpt>
      <trkpt lat="46.12255" lon="6.75296">
        <ele>1523.561</ele>
        <time>2026-02-22T09:57:05Z</time>
      </trkpt>
      <trkpt lat="46.12255" lon="6.75301">
        <ele>1525.652</ele>
        <time>2026-02-22T09:57:10Z</time>
      </trkpt>
      <trkpt lat="46.12256" lon="6.75306">
        <ele>1527.904</ele>
        <time>2026-02-22T09:57:15Z</time>
      </trkpt>
      <trkpt lat="46.12257" lon="6.75311">
        <ele>1527.928</ele>
        <time>2026-02-22T09:57:20Z</time>
      </trkpt>
      <trkpt lat="46.12259" lon="6.75314">
        <ele>1528.429</ele>
        <time>2026-02-22T09:57:25Z</time>
      </trkpt>
      <trkpt lat="46.12262" lon="6.75318">
        <ele>1528.635</ele>
        <time>2026-02-22T09:57:30Z</time>
      </trkpt>
      <trkpt lat="46.12264" lon="6.75323">
        <ele>1529.075</ele>
        <time>2026-02-22T09:57:35Z</time>
      </trkpt>
      <trkpt lat="46.12264" lon="6.75323">
        <ele>1529.104</ele>
        <time>2026-02-22T09:57:40Z</time>
      </trkpt>
      <trkpt lat="46.12264" lon="6.75323">
        <ele>1529.092</ele>
        <time>2026-02-22T09:57:45Z</time>
      </trkpt>
      <trkpt lat="46.12264" lon="6.75323">
        <ele>1529.085</ele>
        <time>2026-02-22T09:57:50Z</time>
      </trkpt>
      <trkpt lat="46.12264" lon="6.75323">
        <ele>1529.075</ele>
        <time>2026-02-22T09:57:55Z</time>
      </trkpt>
      <trkpt lat="46.12265" lon="6.75324">
        <ele>1528.68</ele>
        <time>2026-02-22T09:58:00Z</time>
      </trkpt>
      <trkpt lat="46.1227" lon="6.75324">
        <ele>1528.614</ele>
        <time>2026-02-22T09:58:05Z</time>
      </trkpt>
      <trkpt lat="46.12275" lon="6.75326">
        <ele>1527.823</ele>
        <time>2026-02-22T09:58:10Z</time>
      </trkpt>
      <trkpt lat="46.12279" lon="6.75329">
        <ele>1527.667</ele>
        <time>2026-02-22T09:58:15Z</time>
      </trkpt>
      <trkpt lat="46.12283" lon="6.75332">
        <ele>1528.09</ele>
        <time>2026-02-22T09:58:20Z</time>
      </trkpt>
      <trkpt lat="46.12283" lon="6.75333">
        <ele>1528.171</ele>
        <time>2026-02-22T09:58:25Z</time>
      </trkpt>
      <trkpt lat="46.12283" lon="6.75333">
        <ele>1528.148</ele>
        <time>2026-02-22T09:58:30Z</time>
      </trkpt>
      <trkpt lat="46.12283" lon="6.75333">
        <ele>1528.149</ele>
        <time>2026-02-22T09:58:35Z</time>
      </trkpt>
      <trkpt lat="46.12283" lon="6.75333">
        <ele>1528.149</ele>
        <time>2026-02-22T09:58:40Z</time>
      </trkpt>
      <trkpt lat="46.12283" lon="6.75333">
        <ele>1528.148</ele>
        <time>2026-02-22T09:58:45Z</time>
      </trkpt>
      <trkpt lat="46.12283" lon="6.75333">
        <ele>1528.151</ele>
        <time>2026-02-22T09:58:50Z</time>
      </trkpt>
      <trkpt lat="46.12285" lon="6.75334">
        <ele>1528.708</ele>
        <time>2026-02-22T09:58:55Z</time>
      </trkpt>
      <trkpt lat="46.1229" lon="6.75337">
        <ele>1529.272</ele>
        <time>2026-02-22T09:59:00Z</time>
      </trkpt>
      <trkpt lat="46.12295" lon="6.7534">
        <ele>1529.816</ele>
        <time>2026-02-22T09:59:05Z</time>
      </trkpt>
      <trkpt lat="46.12299" lon="6.75343">
        <ele>1530.872</ele>
        <time>2026-02-22T09:59:10Z</time>
      </trkpt>
      <trkpt lat="46.12303" lon="6.75346">
        <ele>1531.297</ele>
        <time>2026-02-22T09:59:15Z</time>
      </trkpt>
      <trkpt lat="46.12307" lon="6.75349">
        <ele>1531.427</ele>
        <time>2026-02-22T09:59:20Z</time>
      </trkpt>
      <trkpt lat="46.12312" lon="6.75352">
        <ele>1532.287</ele>
        <time>2026-02-22T09:59:25Z</time>
      </trkpt>
      <trkpt lat="46.12315" lon="6.75356">
        <ele>1533.775</ele>
        <time>2026-02-22T09:59:30Z</time>
      </trkpt>
      <trkpt lat="46.12318" lon="6.75358">
        <ele>1532.795</ele>
        <time>2026-02-22T09:59:35Z</time>
      </trkpt>
      <trkpt lat="46.12321" lon="6.75359">
        <ele>1532.744</ele>
        <time>2026-02-22T09:59:40Z</time>
      </trkpt>
      <trkpt lat="46.12324" lon="6.75361">
        <ele>1533.477</ele>
        <time>2026-02-22T09:59:45Z</time>
      </trkpt>
      <trkpt lat="46.12327" lon="6.75365">
        <ele>1534.353</ele>
        <time>2026-02-22T09:59:50Z</time>
      </trkpt>
      <trkpt lat="46.1233" lon="6.75368">
        <ele>1535.209</ele>
        <time>2026-02-22T09:59:55Z</time>
      </trkpt>
      <trkpt lat="46.12333" lon="6.75373">
        <ele>1535.323</ele>
        <time>2026-02-22T10:00:00Z</time>
      </trkpt>
      <trkpt lat="46.12335" lon="6.75379">
        <ele>1536.593</ele>
        <time>2026-02-22T10:00:05Z</time>
      </trkpt>
      <trkpt lat="46.12337" lon="6.75385">
        <ele>1538.387</ele>
        <time>2026-02-22T10:00:10Z</time>
      </trkpt>
      <trkpt lat="46.12339" lon="6.75389">
        <ele>1539.867</ele>
        <time>2026-02-22T10:00:15Z</time>
      </trkpt>
      <trkpt lat="46.12339" lon="6.75389">
        <ele>1539.922</ele>
        <time>2026-02-22T10:00:20Z</time>
      </trkpt>
      <trkpt lat="46.12339" lon="6.75389">
        <ele>1539.899</ele>
        <time>2026-02-22T10:00:25Z</time>
      </trkpt>
      <trkpt lat="46.1234" lon="6.75391">
        <ele>1540.104</ele>
        <time>2026-02-22T10:00:30Z</time>
      </trkpt>
      <trkpt lat="46.12342" lon="6.75398">
        <ele>1540.577</ele>
        <time>2026-02-22T10:00:35Z</time>
      </trkpt>
      <trkpt lat="46.12344" lon="6.75405">
        <ele>1540.744</ele>
        <time>2026-02-22T10:00:40Z</time>
      </trkpt>
      <trkpt lat="46.12347" lon="6.75412">
        <ele>1541.38</ele>
        <time>2026-02-22T10:00:45Z</time>
      </trkpt>
      <trkpt lat="46.1235" lon="6.75419">
        <ele>1542.942</ele>
        <time>2026-02-22T10:00:50Z</time>
      </trkpt>
      <trkpt lat="46.12353" lon="6.75424">
        <ele>1543.174</ele>
        <time>2026-02-22T10:00:55Z</time>
      </trkpt>
      <trkpt lat="46.12356" lon="6.7543">
        <ele>1541.158</ele>
        <time>2026-02-22T10:01:00Z</time>
      </trkpt>
      <trkpt lat="46.12359" lon="6.75435">
        <ele>1541.595</ele>
        <time>2026-02-22T10:01:05Z</time>
      </trkpt>
      <trkpt lat="46.12362" lon="6.75439">
        <ele>1541.45</ele>
        <time>2026-02-22T10:01:10Z</time>
      </trkpt>
      <trkpt lat="46.12366" lon="6.75444">
        <ele>1542.367</ele>
        <time>2026-02-22T10:01:15Z</time>
      </trkpt>
      <trkpt lat="46.12369" lon="6.75448">
        <ele>1541.412</ele>
        <time>2026-02-22T10:01:20Z</time>
      </trkpt>
      <trkpt lat="46.12374" lon="6.75452">
        <ele>1541.782</ele>
        <time>2026-02-22T10:01:25Z</time>
      </trkpt>
      <trkpt lat="46.12378" lon="6.75456">
        <ele>1542.17</ele>
        <time>2026-02-22T10:01:30Z</time>
      </trkpt>
      <trkpt lat="46.12382" lon="6.75461">
        <ele>1542.761</ele>
        <time>2026-02-22T10:01:35Z</time>
      </trkpt>
      <trkpt lat="46.12386" lon="6.75468">
        <ele>1542.657</ele>
        <time>2026-02-22T10:01:40Z</time>
      </trkpt>
      <trkpt lat="46.12389" lon="6.75476">
        <ele>1543.68</ele>
        <time>2026-02-22T10:01:45Z</time>
      </trkpt>
      <trkpt lat="46.12392" lon="6.75482">
        <ele>1543.165</ele>
        <time>2026-02-22T10:01:50Z</time>
      </trkpt>
      <trkpt lat="46.12395" lon="6.75489">
        <ele>1542.945</ele>
        <time>2026-02-22T10:01:55Z</time>
      </trkpt>
      <trkpt lat="46.12397" lon="6.75496">
        <ele>1542.339</ele>
        <time>2026-02-22T10:02:00Z</time>
      </trkpt>
      <trkpt lat="46.12398" lon="6.75504">
        <ele>1542.976</ele>
        <time>2026-02-22T10:02:05Z</time>
      </trkpt>
      <trkpt lat="46.124" lon="6.75511">
        <ele>1542.472</ele>
        <time>2026-02-22T10:02:10Z</time>
      </trkpt>
      <trkpt lat="46.12401" lon="6.75518">
        <ele>1541.946</ele>
        <time>2026-02-22T10:02:15Z</time>
      </trkpt>
      <trkpt lat="46.124" lon="6.75525">
        <ele>1542.13</ele>
        <time>2026-02-22T10:02:20Z</time>
      </trkpt>
      <trkpt lat="46.124" lon="6.75532">
        <ele>1543.265</ele>
        <time>2026-02-22T10:02:25Z</time>
      </trkpt>
      <trkpt lat="46.12401" lon="6.75539">
        <ele>1543.138</ele>
        <time>2026-02-22T10:02:30Z</time>
      </trkpt>
      <trkpt lat="46.12401" lon="6.75544">
        <ele>1544.09</ele>
        <time>2026-02-22T10:02:35Z</time>
      </trkpt>
      <trkpt lat="46.12402" lon="6.7555">
        <ele>1544.297</ele>
        <time>2026-02-22T10:02:40Z</time>
      </trkpt>
      <trkpt lat="46.12404" lon="6.75557">
        <ele>1544.64</ele>
        <time>2026-02-22T10:02:45Z</time>
      </trkpt>
      <trkpt lat="46.12405" lon="6.75563">
        <ele>1544.825</ele>
        <time>2026-02-22T10:02:50Z</time>
      </trkpt>
      <trkpt lat="46.12406" lon="6.75569">
        <ele>1544.536</ele>
        <time>2026-02-22T10:02:55Z</time>
      </trkpt>
      <trkpt lat="46.12408" lon="6.75573">
        <ele>1544.854</ele>
        <time>2026-02-22T10:03:00Z</time>
      </trkpt>
      <trkpt lat="46.12409" lon="6.75575">
        <ele>1544.278</ele>
        <time>2026-02-22T10:03:05Z</time>
      </trkpt>
      <trkpt lat="46.12409" lon="6.75574">
        <ele>1544.26</ele>
        <time>2026-02-22T10:03:10Z</time>
      </trkpt>
      <trkpt lat="46.12409" lon="6.75574">
        <ele>1544.25</ele>
        <time>2026-02-22T10:03:15Z</time>
      </trkpt>
      <trkpt lat="46.12409" lon="6.75574">
        <ele>1544.244</ele>
        <time>2026-02-22T10:03:20Z</time>
      </trkpt>
      <trkpt lat="46.12409" lon="6.75575">
        <ele>1544.235</ele>
        <time>2026-02-22T10:03:25Z</time>
      </trkpt>
      <trkpt lat="46.12409" lon="6.75575">
        <ele>1544.236</ele>
        <time>2026-02-22T10:03:30Z</time>
      </trkpt>
      <trkpt lat="46.12409" lon="6.75575">
        <ele>1544.241</ele>
        <time>2026-02-22T10:03:35Z</time>
      </trkpt>
      <trkpt lat="46.12409" lon="6.75575">
        <ele>1544.256</ele>
        <time>2026-02-22T10:03:40Z</time>
      </trkpt>
      <trkpt lat="46.12409" lon="6.75575">
        <ele>1544.265</ele>
        <time>2026-02-22T10:03:45Z</time>
      </trkpt>
      <trkpt lat="46.12409" lon="6.75575">
        <ele>1544.264</ele>
        <time>2026-02-22T10:03:50Z</time>
      </trkpt>
      <trkpt lat="46.1241" lon="6.75577">
        <ele>1544.154</ele>
        <time>2026-02-22T10:03:55Z</time>
      </trkpt>
      <trkpt lat="46.12412" lon="6.75585">
        <ele>1543.756</ele>
        <time>2026-02-22T10:04:00Z</time>
      </trkpt>
      <trkpt lat="46.12413" lon="6.75592">
        <ele>1542.906</ele>
        <time>2026-02-22T10:04:05Z</time>
      </trkpt>
      <trkpt lat="46.12416" lon="6.75599">
        <ele>1541.728</ele>
        <time>2026-02-22T10:04:10Z</time>
      </trkpt>
      <trkpt lat="46.1242" lon="6.75614">
        <ele>1537.634</ele>
        <time>2026-02-22T10:04:15Z</time>
      </trkpt>
      <trkpt lat="46.1242" lon="6.75619">
        <ele>1535.694</ele>
        <time>2026-02-22T10:04:20Z</time>
      </trkpt>
      <trkpt lat="46.12415" lon="6.75634">
        <ele>1533.005</ele>
        <time>2026-02-22T10:04:25Z</time>
      </trkpt>
      <trkpt lat="46.12412" lon="6.7564">
        <ele>1532.162</ele>
        <time>2026-02-22T10:04:30Z</time>
      </trkpt>
      <trkpt lat="46.12408" lon="6.75645">
        <ele>1531.016</ele>
        <time>2026-02-22T10:04:35Z</time>
      </trkpt>
      <trkpt lat="46.12405" lon="6.75648">
        <ele>1530.587</ele>
        <time>2026-02-22T10:04:40Z</time>
      </trkpt>
      <trkpt lat="46.12402" lon="6.75652">
        <ele>1529.927</ele>
        <time>2026-02-22T10:04:45Z</time>
      </trkpt>
      <trkpt lat="46.12399" lon="6.75654">
        <ele>1530.517</ele>
        <time>2026-02-22T10:04:50Z</time>
      </trkpt>
      <trkpt lat="46.12398" lon="6.75655">
        <ele>1530.756</ele>
        <time>2026-02-22T10:04:55Z</time>
      </trkpt>
      <trkpt lat="46.12398" lon="6.75655">
        <ele>1530.684</ele>
        <time>2026-02-22T10:05:00Z</time>
      </trkpt>
      <trkpt lat="46.12396" lon="6.75657">
        <ele>1530.441</ele>
        <time>2026-02-22T10:05:05Z</time>
      </trkpt>
      <trkpt lat="46.12394" lon="6.75659">
        <ele>1530.54</ele>
        <time>2026-02-22T10:05:10Z</time>
      </trkpt>
      <trkpt lat="46.12394" lon="6.75659">
        <ele>1530.797</ele>
        <time>2026-02-22T10:05:15Z</time>
      </trkpt>
      <trkpt lat="46.12394" lon="6.75659">
        <ele>1530.812</ele>
        <time>2026-02-22T10:05:20Z</time>
      </trkpt>
      <trkpt lat="46.12394" lon="6.75659">
        <ele>1530.827</ele>
        <time>2026-02-22T10:05:25Z</time>
      </trkpt>
      <trkpt lat="46.12394" lon="6.75659">
        <ele>1530.839</ele>
        <time>2026-02-22T10:05:30Z</time>
      </trkpt>
      <trkpt lat="46.12392" lon="6.7566">
        <ele>1530.927</ele>
        <time>2026-02-22T10:05:35Z</time>
      </trkpt>
      <trkpt lat="46.12392" lon="6.7566">
        <ele>1530.935</ele>
        <time>2026-02-22T10:05:40Z</time>
      </trkpt>
      <trkpt lat="46.12391" lon="6.75661">
        <ele>1531.542</ele>
        <time>2026-02-22T10:05:45Z</time>
      </trkpt>
      <trkpt lat="46.12388" lon="6.75664">
        <ele>1531.613</ele>
        <time>2026-02-22T10:05:50Z</time>
      </trkpt>
      <trkpt lat="46.12384" lon="6.75666">
        <ele>1532.048</ele>
        <time>2026-02-22T10:05:55Z</time>
      </trkpt>
      <trkpt lat="46.12381" lon="6.75669">
        <ele>1532.787</ele>
        <time>2026-02-22T10:06:00Z</time>
      </trkpt>
      <trkpt lat="46.12377" lon="6.75673">
        <ele>1532.934</ele>
        <time>2026-02-22T10:06:05Z</time>
      </trkpt>
      <trkpt lat="46.12374" lon="6.75675">
        <ele>1533.712</ele>
        <time>2026-02-22T10:06:10Z</time>
      </trkpt>
      <trkpt lat="46.12371" lon="6.75679">
        <ele>1534.295</ele>
        <time>2026-02-22T10:06:15Z</time>
      </trkpt>
      <trkpt lat="46.12368" lon="6.75681">
        <ele>1535.208</ele>
        <time>2026-02-22T10:06:20Z</time>
      </trkpt>
      <trkpt lat="46.12366" lon="6.75682">
        <ele>1535.623</ele>
        <time>2026-02-22T10:06:25Z</time>
      </trkpt>
      <trkpt lat="46.12364" lon="6.75684">
        <ele>1536.159</ele>
        <time>2026-02-22T10:06:30Z</time>
      </trkpt>
      <trkpt lat="46.12362" lon="6.75686">
        <ele>1536.668</ele>
        <time>2026-02-22T10:06:35Z</time>
      </trkpt>
      <trkpt lat="46.12359" lon="6.75688">
        <ele>1537.549</ele>
        <time>2026-02-22T10:06:40Z</time>
      </trkpt>
      <trkpt lat="46.12357" lon="6.75691">
        <ele>1537.831</ele>
        <time>2026-02-22T10:06:45Z</time>
      </trkpt>
      <trkpt lat="46.12355" lon="6.75694">
        <ele>1538.636</ele>
        <time>2026-02-22T10:06:50Z</time>
      </trkpt>
      <trkpt lat="46.12354" lon="6.75698">
        <ele>1539.706</ele>
        <time>2026-02-22T10:06:55Z</time>
      </trkpt>
      <trkpt lat="46.12353" lon="6.75701">
        <ele>1540.03</ele>
        <time>2026-02-22T10:07:00Z</time>
      </trkpt>
      <trkpt lat="46.12352" lon="6.75704">
        <ele>1541.339</ele>
        <time>2026-02-22T10:07:05Z</time>
      </trkpt>
      <trkpt lat="46.12352" lon="6.75709">
        <ele>1541.892</ele>
        <time>2026-02-22T10:07:10Z</time>
      </trkpt>
      <trkpt lat="46.12352" lon="6.75713">
        <ele>1542.804</ele>
        <time>2026-02-22T10:07:15Z</time>
      </trkpt>
      <trkpt lat="46.12352" lon="6.75714">
        <ele>1543.295</ele>
        <time>2026-02-22T10:07:20Z</time>
      </trkpt>
      <trkpt lat="46.12354" lon="6.75715">
        <ele>1542.885</ele>
        <time>2026-02-22T10:07:25Z</time>
      </trkpt>
      <trkpt lat="46.12355" lon="6.75719">
        <ele>1543.944</ele>
        <time>2026-02-22T10:07:30Z</time>
      </trkpt>
      <trkpt lat="46.12356" lon="6.75723">
        <ele>1545.44</ele>
        <time>2026-02-22T10:07:35Z</time>
      </trkpt>
      <trkpt lat="46.12358" lon="6.75726">
        <ele>1546.205</ele>
        <time>2026-02-22T10:07:40Z</time>
      </trkpt>
      <trkpt lat="46.1236" lon="6.75729">
        <ele>1547.11</ele>
        <time>2026-02-22T10:07:45Z</time>
      </trkpt>
      <trkpt lat="46.12363" lon="6.75731">
        <ele>1549.064</ele>
        <time>2026-02-22T10:07:50Z</time>
      </trkpt>
      <trkpt lat="46.12365" lon="6.75732">
        <ele>1549.868</ele>
        <time>2026-02-22T10:07:55Z</time>
      </trkpt>
      <trkpt lat="46.12367" lon="6.75734">
        <ele>1550.386</ele>
        <time>2026-02-22T10:08:00Z</time>
      </trkpt>
      <trkpt lat="46.12369" lon="6.75735">
        <ele>1550.43</ele>
        <time>2026-02-22T10:08:05Z</time>
      </trkpt>
      <trkpt lat="46.12371" lon="6.75737">
        <ele>1551.899</ele>
        <time>2026-02-22T10:08:10Z</time>
      </trkpt>
      <trkpt lat="46.12374" lon="6.7574">
        <ele>1552.425</ele>
        <time>2026-02-22T10:08:15Z</time>
      </trkpt>
      <trkpt lat="46.12377" lon="6.75742">
        <ele>1552.725</ele>
        <time>2026-02-22T10:08:20Z</time>
      </trkpt>
      <trkpt lat="46.1238" lon="6.75744">
        <ele>1553.474</ele>
        <time>2026-02-22T10:08:25Z</time>
      </trkpt>
      <trkpt lat="46.12382" lon="6.75747">
        <ele>1553.94</ele>
        <time>2026-02-22T10:08:30Z</time>
      </trkpt>
      <trkpt lat="46.12385" lon="6.75749">
        <ele>1555.745</ele>
        <time>2026-02-22T10:08:35Z</time>
      </trkpt>
      <trkpt lat="46.12388" lon="6.75752">
        <ele>1556.971</ele>
        <time>2026-02-22T10:08:40Z</time>
      </trkpt>
      <trkpt lat="46.12391" lon="6.75753">
        <ele>1556.879</ele>
        <time>2026-02-22T10:08:45Z</time>
      </trkpt>
      <trkpt lat="46.12394" lon="6.75755">
        <ele>1556.478</ele>
        <time>2026-02-22T10:08:50Z</time>
      </trkpt>
      <trkpt lat="46.12397" lon="6.75756">
        <ele>1557.145</ele>
        <time>2026-02-22T10:08:55Z</time>
      </trkpt>
      <trkpt lat="46.12401" lon="6.75757">
        <ele>1557.521</ele>
        <time>2026-02-22T10:09:00Z</time>
      </trkpt>
      <trkpt lat="46.12405" lon="6.75758">
        <ele>1558.237</ele>
        <time>2026-02-22T10:09:05Z</time>
      </trkpt>
      <trkpt lat="46.1241" lon="6.7576">
        <ele>1559.345</ele>
        <time>2026-02-22T10:09:10Z</time>
      </trkpt>
      <trkpt lat="46.12414" lon="6.75763">
        <ele>1560.595</ele>
        <time>2026-02-22T10:09:15Z</time>
      </trkpt>
      <trkpt lat="46.12418" lon="6.75765">
        <ele>1560.873</ele>
        <time>2026-02-22T10:09:20Z</time>
      </trkpt>
      <trkpt lat="46.12423" lon="6.75766">
        <ele>1559.955</ele>
        <time>2026-02-22T10:09:25Z</time>
      </trkpt>
      <trkpt lat="46.12427" lon="6.75768">
        <ele>1560.441</ele>
        <time>2026-02-22T10:09:30Z</time>
      </trkpt>
      <trkpt lat="46.12434" lon="6.75772">
        <ele>1561.113</ele>
        <time>2026-02-22T10:09:35Z</time>
      </trkpt>
      <trkpt lat="46.12439" lon="6.75774">
        <ele>1560.771</ele>
        <time>2026-02-22T10:09:40Z</time>
      </trkpt>
      <trkpt lat="46.12444" lon="6.75774">
        <ele>1560.38</ele>
        <time>2026-02-22T10:09:45Z</time>
      </trkpt>
      <trkpt lat="46.12449" lon="6.75777">
        <ele>1560.43</ele>
        <time>2026-02-22T10:09:50Z</time>
      </trkpt>
      <trkpt lat="46.12454" lon="6.7578">
        <ele>1561.289</ele>
        <time>2026-02-22T10:09:55Z</time>
      </trkpt>
      <trkpt lat="46.12459" lon="6.75783">
        <ele>1560.525</ele>
        <time>2026-02-22T10:10:00Z</time>
      </trkpt>
      <trkpt lat="46.12464" lon="6.75785">
        <ele>1560.987</ele>
        <time>2026-02-22T10:10:05Z</time>
      </trkpt>
      <trkpt lat="46.12468" lon="6.75786">
        <ele>1560.352</ele>
        <time>2026-02-22T10:10:10Z</time>
      </trkpt>
      <trkpt lat="46.12471" lon="6.75788">
        <ele>1561.304</ele>
        <time>2026-02-22T10:10:15Z</time>
      </trkpt>
      <trkpt lat="46.12474" lon="6.75788">
        <ele>1561.429</ele>
        <time>2026-02-22T10:10:20Z</time>
      </trkpt>
      <trkpt lat="46.12477" lon="6.75789">
        <ele>1562.509</ele>
        <time>2026-02-22T10:10:25Z</time>
      </trkpt>
      <trkpt lat="46.12479" lon="6.7579">
        <ele>1562.953</ele>
        <time>2026-02-22T10:10:30Z</time>
      </trkpt>
      <trkpt lat="46.12482" lon="6.7579">
        <ele>1562.665</ele>
        <time>2026-02-22T10:10:35Z</time>
      </trkpt>
      <trkpt lat="46.12486" lon="6.75791">
        <ele>1563.615</ele>
        <time>2026-02-22T10:10:40Z</time>
      </trkpt>
      <trkpt lat="46.12489" lon="6.75791">
        <ele>1564.606</ele>
        <time>2026-02-22T10:10:45Z</time>
      </trkpt>
      <trkpt lat="46.12492" lon="6.75792">
        <ele>1565.359</ele>
        <time>2026-02-22T10:10:50Z</time>
      </trkpt>
      <trkpt lat="46.12495" lon="6.75793">
        <ele>1565.475</ele>
        <time>2026-02-22T10:10:55Z</time>
      </trkpt>
      <trkpt lat="46.12497" lon="6.75793">
        <ele>1566.072</ele>
        <time>2026-02-22T10:11:00Z</time>
      </trkpt>
      <trkpt lat="46.12501" lon="6.75795">
        <ele>1567.122</ele>
        <time>2026-02-22T10:11:05Z</time>
      </trkpt>
      <trkpt lat="46.12504" lon="6.75797">
        <ele>1567.75</ele>
        <time>2026-02-22T10:11:10Z</time>
      </trkpt>
      <trkpt lat="46.12507" lon="6.75798">
        <ele>1568.51</ele>
        <time>2026-02-22T10:11:15Z</time>
      </trkpt>
      <trkpt lat="46.1251" lon="6.758">
        <ele>1569.157</ele>
        <time>2026-02-22T10:11:20Z</time>
      </trkpt>
      <trkpt lat="46.12513" lon="6.75801">
        <ele>1570.078</ele>
        <time>2026-02-22T10:11:25Z</time>
      </trkpt>
      <trkpt lat="46.12515" lon="6.75803">
        <ele>1570.569</ele>
        <time>2026-02-22T10:11:30Z</time>
      </trkpt>
      <trkpt lat="46.12517" lon="6.75803">
        <ele>1570.819</ele>
        <time>2026-02-22T10:11:35Z</time>
      </trkpt>
      <trkpt lat="46.12519" lon="6.75804">
        <ele>1571.055</ele>
        <time>2026-02-22T10:11:40Z</time>
      </trkpt>
      <trkpt lat="46.12522" lon="6.75806">
        <ele>1571.595</ele>
        <time>2026-02-22T10:11:45Z</time>
      </trkpt>
      <trkpt lat="46.12524" lon="6.75808">
        <ele>1572.97</ele>
        <time>2026-02-22T10:11:50Z</time>
      </trkpt>
      <trkpt lat="46.12526" lon="6.75811">
        <ele>1574.087</ele>
        <time>2026-02-22T10:11:55Z</time>
      </trkpt>
      <trkpt lat="46.12527" lon="6.75813">
        <ele>1574.835</ele>
        <time>2026-02-22T10:12:00Z</time>
      </trkpt>
      <trkpt lat="46.1253" lon="6.75816">
        <ele>1576.641</ele>
        <time>2026-02-22T10:12:05Z</time>
      </trkpt>
      <trkpt lat="46.12533" lon="6.75819">
        <ele>1577.841</ele>
        <time>2026-02-22T10:12:10Z</time>
      </trkpt>
      <trkpt lat="46.12535" lon="6.75821">
        <ele>1578.924</ele>
        <time>2026-02-22T10:12:15Z</time>
      </trkpt>
      <trkpt lat="46.12537" lon="6.75826">
        <ele>1579.499</ele>
        <time>2026-02-22T10:12:20Z</time>
      </trkpt>
      <trkpt lat="46.12538" lon="6.75829">
        <ele>1580.454</ele>
        <time>2026-02-22T10:12:25Z</time>
      </trkpt>
      <trkpt lat="46.12541" lon="6.75832">
        <ele>1581.759</ele>
        <time>2026-02-22T10:12:30Z</time>
      </trkpt>
      <trkpt lat="46.12543" lon="6.75835">
        <ele>1581.774</ele>
        <time>2026-02-22T10:12:35Z</time>
      </trkpt>
      <trkpt lat="46.12545" lon="6.75838">
        <ele>1582.464</ele>
        <time>2026-02-22T10:12:40Z</time>
      </trkpt>
      <trkpt lat="46.12547" lon="6.75842">
        <ele>1582.671</ele>
        <time>2026-02-22T10:12:45Z</time>
      </trkpt>
      <trkpt lat="46.12549" lon="6.75844">
        <ele>1582.959</ele>
        <time>2026-02-22T10:12:50Z</time>
      </trkpt>
      <trkpt lat="46.12551" lon="6.75847">
        <ele>1584.041</ele>
        <time>2026-02-22T10:12:55Z</time>
      </trkpt>
      <trkpt lat="46.12553" lon="6.75851">
        <ele>1584.265</ele>
        <time>2026-02-22T10:13:00Z</time>
      </trkpt>
      <trkpt lat="46.12555" lon="6.75854">
        <ele>1584.54</ele>
        <time>2026-02-22T10:13:05Z</time>
      </trkpt>
      <trkpt lat="46.12556" lon="6.75858">
        <ele>1584.383</ele>
        <time>2026-02-22T10:13:10Z</time>
      </trkpt>
      <trkpt lat="46.12558" lon="6.75863">
        <ele>1585.015</ele>
        <time>2026-02-22T10:13:15Z</time>
      </trkpt>
      <trkpt lat="46.1256" lon="6.75867">
        <ele>1585.715</ele>
        <time>2026-02-22T10:13:20Z</time>
      </trkpt>
      <trkpt lat="46.12562" lon="6.75871">
        <ele>1587.19</ele>
        <time>2026-02-22T10:13:25Z</time>
      </trkpt>
      <trkpt lat="46.12564" lon="6.75875">
        <ele>1588.248</ele>
        <time>2026-02-22T10:13:30Z</time>
      </trkpt>
      <trkpt lat="46.12565" lon="6.75878">
        <ele>1588.911</ele>
        <time>2026-02-22T10:13:35Z</time>
      </trkpt>
      <trkpt lat="46.12566" lon="6.75881">
        <ele>1589.448</ele>
        <time>2026-02-22T10:13:40Z</time>
      </trkpt>
      <trkpt lat="46.12568" lon="6.75885">
        <ele>1590.194</ele>
        <time>2026-02-22T10:13:45Z</time>
      </trkpt>
      <trkpt lat="46.12569" lon="6.75889">
        <ele>1591.08</ele>
        <time>2026-02-22T10:13:50Z</time>
      </trkpt>
      <trkpt lat="46.12571" lon="6.75891">
        <ele>1591.245</ele>
        <time>2026-02-22T10:13:55Z</time>
      </trkpt>
      <trkpt lat="46.12571" lon="6.75892">
        <ele>1591.234</ele>
        <time>2026-02-22T10:14:00Z</time>
      </trkpt>
      <trkpt lat="46.12572" lon="6.75894">
        <ele>1592.111</ele>
        <time>2026-02-22T10:14:05Z</time>
      </trkpt>
      <trkpt lat="46.12573" lon="6.75897">
        <ele>1592.552</ele>
        <time>2026-02-22T10:14:10Z</time>
      </trkpt>
      <trkpt lat="46.12573" lon="6.75898">
        <ele>1592.589</ele>
        <time>2026-02-22T10:14:15Z</time>
      </trkpt>
      <trkpt lat="46.12575" lon="6.759">
        <ele>1592.895</ele>
        <time>2026-02-22T10:14:20Z</time>
      </trkpt>
      <trkpt lat="46.12577" lon="6.75903">
        <ele>1592.329</ele>
        <time>2026-02-22T10:14:25Z</time>
      </trkpt>
      <trkpt lat="46.12579" lon="6.75906">
        <ele>1593.049</ele>
        <time>2026-02-22T10:14:30Z</time>
      </trkpt>
      <trkpt lat="46.12581" lon="6.75909">
        <ele>1593.736</ele>
        <time>2026-02-22T10:14:35Z</time>
      </trkpt>
      <trkpt lat="46.12582" lon="6.75912">
        <ele>1594.92</ele>
        <time>2026-02-22T10:14:40Z</time>
      </trkpt>
      <trkpt lat="46.12585" lon="6.75913">
        <ele>1595.333</ele>
        <time>2026-02-22T10:14:45Z</time>
      </trkpt>
      <trkpt lat="46.12587" lon="6.75915">
        <ele>1596.628</ele>
        <time>2026-02-22T10:14:50Z</time>
      </trkpt>
      <trkpt lat="46.12589" lon="6.75916">
        <ele>1596.821</ele>
        <time>2026-02-22T10:14:55Z</time>
      </trkpt>
      <trkpt lat="46.12592" lon="6.75919">
        <ele>1597.735</ele>
        <time>2026-02-22T10:15:00Z</time>
      </trkpt>
      <trkpt lat="46.12594" lon="6.75921">
        <ele>1598.273</ele>
        <time>2026-02-22T10:15:05Z</time>
      </trkpt>
      <trkpt lat="46.12597" lon="6.75923">
        <ele>1599.239</ele>
        <time>2026-02-22T10:15:10Z</time>
      </trkpt>
      <trkpt lat="46.126" lon="6.75926">
        <ele>1599.417</ele>
        <time>2026-02-22T10:15:15Z</time>
      </trkpt>
      <trkpt lat="46.12603" lon="6.75927">
        <ele>1601.242</ele>
        <time>2026-02-22T10:15:20Z</time>
      </trkpt>
      <trkpt lat="46.12605" lon="6.75928">
        <ele>1601.499</ele>
        <time>2026-02-22T10:15:25Z</time>
      </trkpt>
      <trkpt lat="46.12608" lon="6.75929">
        <ele>1603.028</ele>
        <time>2026-02-22T10:15:30Z</time>
      </trkpt>
      <trkpt lat="46.12612" lon="6.75931">
        <ele>1603.783</ele>
        <time>2026-02-22T10:15:35Z</time>
      </trkpt>
      <trkpt lat="46.12615" lon="6.75931">
        <ele>1604.121</ele>
        <time>2026-02-22T10:15:40Z</time>
      </trkpt>
      <trkpt lat="46.12618" lon="6.75932">
        <ele>1604.643</ele>
        <time>2026-02-22T10:15:45Z</time>
      </trkpt>
      <trkpt lat="46.12622" lon="6.75934">
        <ele>1604.914</ele>
        <time>2026-02-22T10:15:50Z</time>
      </trkpt>
      <trkpt lat="46.12625" lon="6.75936">
        <ele>1605.576</ele>
        <time>2026-02-22T10:15:55Z</time>
      </trkpt>
      <trkpt lat="46.12628" lon="6.75937">
        <ele>1605.879</ele>
        <time>2026-02-22T10:16:00Z</time>
      </trkpt>
      <trkpt lat="46.1263" lon="6.75938">
        <ele>1606.86</ele>
        <time>2026-02-22T10:16:05Z</time>
      </trkpt>
      <trkpt lat="46.12634" lon="6.75939">
        <ele>1607.068</ele>
        <time>2026-02-22T10:16:10Z</time>
      </trkpt>
      <trkpt lat="46.12638" lon="6.75941">
        <ele>1607.526</ele>
        <time>2026-02-22T10:16:15Z</time>
      </trkpt>
      <trkpt lat="46.12643" lon="6.75943">
        <ele>1608.005</ele>
        <time>2026-02-22T10:16:20Z</time>
      </trkpt>
      <trkpt lat="46.12647" lon="6.75945">
        <ele>1608.248</ele>
        <time>2026-02-22T10:16:25Z</time>
      </trkpt>
      <trkpt lat="46.12651" lon="6.75946">
        <ele>1607.675</ele>
        <time>2026-02-22T10:16:30Z</time>
      </trkpt>
      <trkpt lat="46.12656" lon="6.75949">
        <ele>1608.478</ele>
        <time>2026-02-22T10:16:35Z</time>
      </trkpt>
      <trkpt lat="46.1266" lon="6.75951">
        <ele>1608.686</ele>
        <time>2026-02-22T10:16:40Z</time>
      </trkpt>
      <trkpt lat="46.12664" lon="6.75953">
        <ele>1609.563</ele>
        <time>2026-02-22T10:16:45Z</time>
      </trkpt>
      <trkpt lat="46.12669" lon="6.75955">
        <ele>1610.344</ele>
        <time>2026-02-22T10:16:50Z</time>
      </trkpt>
      <trkpt lat="46.12673" lon="6.75957">
        <ele>1610.018</ele>
        <time>2026-02-22T10:16:55Z</time>
      </trkpt>
      <trkpt lat="46.12676" lon="6.75959">
        <ele>1609.898</ele>
        <time>2026-02-22T10:17:00Z</time>
      </trkpt>
      <trkpt lat="46.12681" lon="6.75962">
        <ele>1609.825</ele>
        <time>2026-02-22T10:17:05Z</time>
      </trkpt>
      <trkpt lat="46.12685" lon="6.75966">
        <ele>1609.795</ele>
        <time>2026-02-22T10:17:10Z</time>
      </trkpt>
      <trkpt lat="46.12688" lon="6.75969">
        <ele>1609.944</ele>
        <time>2026-02-22T10:17:15Z</time>
      </trkpt>
      <trkpt lat="46.1269" lon="6.75974">
        <ele>1609.547</ele>
        <time>2026-02-22T10:17:20Z</time>
      </trkpt>
      <trkpt lat="46.1269" lon="6.75976">
        <ele>1609.087</ele>
        <time>2026-02-22T10:17:25Z</time>
      </trkpt>
      <trkpt lat="46.1269" lon="6.75979">
        <ele>1609.608</ele>
        <time>2026-02-22T10:17:30Z</time>
      </trkpt>
      <trkpt lat="46.12691" lon="6.75983">
        <ele>1609.144</ele>
        <time>2026-02-22T10:17:35Z</time>
      </trkpt>
      <trkpt lat="46.12692" lon="6.75989">
        <ele>1608.827</ele>
        <time>2026-02-22T10:17:40Z</time>
      </trkpt>
      <trkpt lat="46.12693" lon="6.75992">
        <ele>1608.971</ele>
        <time>2026-02-22T10:17:45Z</time>
      </trkpt>
      <trkpt lat="46.12694" lon="6.75997">
        <ele>1609.629</ele>
        <time>2026-02-22T10:17:50Z</time>
      </trkpt>
      <trkpt lat="46.12695" lon="6.76003">
        <ele>1610.305</ele>
        <time>2026-02-22T10:17:55Z</time>
      </trkpt>
      <trkpt lat="46.12696" lon="6.76008">
        <ele>1610.121</ele>
        <time>2026-02-22T10:18:00Z</time>
      </trkpt>
      <trkpt lat="46.12696" lon="6.76012">
        <ele>1610.962</ele>
        <time>2026-02-22T10:18:05Z</time>
      </trkpt>
      <trkpt lat="46.12697" lon="6.76016">
        <ele>1611.376</ele>
        <time>2026-02-22T10:18:10Z</time>
      </trkpt>
      <trkpt lat="46.12697" lon="6.7602">
        <ele>1612.215</ele>
        <time>2026-02-22T10:18:15Z</time>
      </trkpt>
      <trkpt lat="46.12698" lon="6.76024">
        <ele>1611.61</ele>
        <time>2026-02-22T10:18:20Z</time>
      </trkpt>
      <trkpt lat="46.12698" lon="6.76025">
        <ele>1611.641</ele>
        <time>2026-02-22T10:18:25Z</time>
      </trkpt>
      <trkpt lat="46.12699" lon="6.76028">
        <ele>1612.484</ele>
        <time>2026-02-22T10:18:30Z</time>
      </trkpt>
      <trkpt lat="46.12699" lon="6.76032">
        <ele>1613.717</ele>
        <time>2026-02-22T10:18:35Z</time>
      </trkpt>
      <trkpt lat="46.127" lon="6.76034">
        <ele>1614.504</ele>
        <time>2026-02-22T10:18:40Z</time>
      </trkpt>
      <trkpt lat="46.12701" lon="6.76037">
        <ele>1615.469</ele>
        <time>2026-02-22T10:18:45Z</time>
      </trkpt>
      <trkpt lat="46.12702" lon="6.7604">
        <ele>1616.383</ele>
        <time>2026-02-22T10:18:50Z</time>
      </trkpt>
      <trkpt lat="46.12702" lon="6.76042">
        <ele>1617.091</ele>
        <time>2026-02-22T10:18:55Z</time>
      </trkpt>
      <trkpt lat="46.12703" lon="6.76045">
        <ele>1618.584</ele>
        <time>2026-02-22T10:19:00Z</time>
      </trkpt>
      <trkpt lat="46.12703" lon="6.76047">
        <ele>1619.404</ele>
        <time>2026-02-22T10:19:05Z</time>
      </trkpt>
      <trkpt lat="46.12704" lon="6.76049">
        <ele>1620.112</ele>
        <time>2026-02-22T10:19:10Z</time>
      </trkpt>
      <trkpt lat="46.12704" lon="6.76052">
        <ele>1620.735</ele>
        <time>2026-02-22T10:19:15Z</time>
      </trkpt>
      <trkpt lat="46.12705" lon="6.76055">
        <ele>1621.504</ele>
        <time>2026-02-22T10:19:20Z</time>
      </trkpt>
      <trkpt lat="46.12706" lon="6.76059">
        <ele>1621.801</ele>
        <time>2026-02-22T10:19:25Z</time>
      </trkpt>
      <trkpt lat="46.12706" lon="6.76062">
        <ele>1622.148</ele>
        <time>2026-02-22T10:19:30Z</time>
      </trkpt>
      <trkpt lat="46.12708" lon="6.76066">
        <ele>1623.092</ele>
        <time>2026-02-22T10:19:35Z</time>
      </trkpt>
      <trkpt lat="46.12709" lon="6.76069">
        <ele>1623.534</ele>
        <time>2026-02-22T10:19:40Z</time>
      </trkpt>
      <trkpt lat="46.1271" lon="6.76072">
        <ele>1624.397</ele>
        <time>2026-02-22T10:19:45Z</time>
      </trkpt>
      <trkpt lat="46.12712" lon="6.76076">
        <ele>1624.867</ele>
        <time>2026-02-22T10:19:50Z</time>
      </trkpt>
      <trkpt lat="46.12717" lon="6.76076">
        <ele>1624.195</ele>
        <time>2026-02-22T10:19:55Z</time>
      </trkpt>
      <trkpt lat="46.1272" lon="6.76077">
        <ele>1624.245</ele>
        <time>2026-02-22T10:20:00Z</time>
      </trkpt>
      <trkpt lat="46.12724" lon="6.76079">
        <ele>1625.56</ele>
        <time>2026-02-22T10:20:05Z</time>
      </trkpt>
      <trkpt lat="46.12729" lon="6.7608">
        <ele>1625.974</ele>
        <time>2026-02-22T10:20:10Z</time>
      </trkpt>
      <trkpt lat="46.12734" lon="6.7608">
        <ele>1626.129</ele>
        <time>2026-02-22T10:20:15Z</time>
      </trkpt>
      <trkpt lat="46.12738" lon="6.76081">
        <ele>1626.395</ele>
        <time>2026-02-22T10:20:20Z</time>
      </trkpt>
      <trkpt lat="46.12743" lon="6.76082">
        <ele>1626.573</ele>
        <time>2026-02-22T10:20:25Z</time>
      </trkpt>
      <trkpt lat="46.12747" lon="6.76083">
        <ele>1627.284</ele>
        <time>2026-02-22T10:20:30Z</time>
      </trkpt>
      <trkpt lat="46.12752" lon="6.76084">
        <ele>1626.698</ele>
        <time>2026-02-22T10:20:35Z</time>
      </trkpt>
      <trkpt lat="46.12756" lon="6.76087">
        <ele>1627.792</ele>
        <time>2026-02-22T10:20:40Z</time>
      </trkpt>
      <trkpt lat="46.1276" lon="6.76089">
        <ele>1628.901</ele>
        <time>2026-02-22T10:20:45Z</time>
      </trkpt>
      <trkpt lat="46.12765" lon="6.76092">
        <ele>1628.833</ele>
        <time>2026-02-22T10:20:50Z</time>
      </trkpt>
      <trkpt lat="46.12768" lon="6.76095">
        <ele>1628.598</ele>
        <time>2026-02-22T10:20:55Z</time>
      </trkpt>
      <trkpt lat="46.12772" lon="6.76098">
        <ele>1629.277</ele>
        <time>2026-02-22T10:21:00Z</time>
      </trkpt>
      <trkpt lat="46.12776" lon="6.76102">
        <ele>1629.995</ele>
        <time>2026-02-22T10:21:05Z</time>
      </trkpt>
      <trkpt lat="46.1278" lon="6.76105">
        <ele>1630.287</ele>
        <time>2026-02-22T10:21:10Z</time>
      </trkpt>
      <trkpt lat="46.12784" lon="6.76108">
        <ele>1630.822</ele>
        <time>2026-02-22T10:21:15Z</time>
      </trkpt>
      <trkpt lat="46.12788" lon="6.76111">
        <ele>1631.055</ele>
        <time>2026-02-22T10:21:20Z</time>
      </trkpt>
      <trkpt lat="46.12791" lon="6.76113">
        <ele>1632.851</ele>
        <time>2026-02-22T10:21:25Z</time>
      </trkpt>
      <trkpt lat="46.12795" lon="6.76117">
        <ele>1632.075</ele>
        <time>2026-02-22T10:21:30Z</time>
      </trkpt>
      <trkpt lat="46.12799" lon="6.76121">
        <ele>1631.69</ele>
        <time>2026-02-22T10:21:35Z</time>
      </trkpt>
      <trkpt lat="46.12803" lon="6.76124">
        <ele>1632.713</ele>
        <time>2026-02-22T10:21:40Z</time>
      </trkpt>
      <trkpt lat="46.12805" lon="6.76128">
        <ele>1632.681</ele>
        <time>2026-02-22T10:21:45Z</time>
      </trkpt>
      <trkpt lat="46.12809" lon="6.76132">
        <ele>1633.681</ele>
        <time>2026-02-22T10:21:50Z</time>
      </trkpt>
      <trkpt lat="46.12812" lon="6.76137">
        <ele>1634.539</ele>
        <time>2026-02-22T10:21:55Z</time>
      </trkpt>
      <trkpt lat="46.12815" lon="6.76141">
        <ele>1633.575</ele>
        <time>2026-02-22T10:22:00Z</time>
      </trkpt>
      <trkpt lat="46.12818" lon="6.76145">
        <ele>1634.076</ele>
        <time>2026-02-22T10:22:05Z</time>
      </trkpt>
      <trkpt lat="46.12821" lon="6.76149">
        <ele>1633.843</ele>
        <time>2026-02-22T10:22:10Z</time>
      </trkpt>
      <trkpt lat="46.12824" lon="6.76153">
        <ele>1634.818</ele>
        <time>2026-02-22T10:22:15Z</time>
      </trkpt>
      <trkpt lat="46.12827" lon="6.76157">
        <ele>1635.836</ele>
        <time>2026-02-22T10:22:20Z</time>
      </trkpt>
      <trkpt lat="46.1283" lon="6.76161">
        <ele>1635.667</ele>
        <time>2026-02-22T10:22:25Z</time>
      </trkpt>
      <trkpt lat="46.12833" lon="6.76165">
        <ele>1636.953</ele>
        <time>2026-02-22T10:22:30Z</time>
      </trkpt>
      <trkpt lat="46.12836" lon="6.76169">
        <ele>1636.526</ele>
        <time>2026-02-22T10:22:35Z</time>
      </trkpt>
      <trkpt lat="46.12839" lon="6.76173">
        <ele>1636.913</ele>
        <time>2026-02-22T10:22:40Z</time>
      </trkpt>
      <trkpt lat="46.12842" lon="6.76177">
        <ele>1637.432</ele>
        <time>2026-02-22T10:22:45Z</time>
      </trkpt>
      <trkpt lat="46.12845" lon="6.7618">
        <ele>1637.712</ele>
        <time>2026-02-22T10:22:50Z</time>
      </trkpt>
      <trkpt lat="46.12848" lon="6.76184">
        <ele>1637.697</ele>
        <time>2026-02-22T10:22:55Z</time>
      </trkpt>
      <trkpt lat="46.12851" lon="6.76186">
        <ele>1639.247</ele>
        <time>2026-02-22T10:23:00Z</time>
      </trkpt>
      <trkpt lat="46.12855" lon="6.76189">
        <ele>1640.789</ele>
        <time>2026-02-22T10:23:05Z</time>
      </trkpt>
      <trkpt lat="46.12857" lon="6.76191">
        <ele>1641.075</ele>
        <time>2026-02-22T10:23:10Z</time>
      </trkpt>
      <trkpt lat="46.1286" lon="6.76193">
        <ele>1641.562</ele>
        <time>2026-02-22T10:23:15Z</time>
      </trkpt>
      <trkpt lat="46.12862" lon="6.76194">
        <ele>1641.461</ele>
        <time>2026-02-22T10:23:20Z</time>
      </trkpt>
      <trkpt lat="46.12865" lon="6.76197">
        <ele>1642.001</ele>
        <time>2026-02-22T10:23:25Z</time>
      </trkpt>
      <trkpt lat="46.12869" lon="6.762">
        <ele>1643.015</ele>
        <time>2026-02-22T10:23:30Z</time>
      </trkpt>
      <trkpt lat="46.12872" lon="6.76203">
        <ele>1642.997</ele>
        <time>2026-02-22T10:23:35Z</time>
      </trkpt>
      <trkpt lat="46.12875" lon="6.76206">
        <ele>1644.199</ele>
        <time>2026-02-22T10:23:40Z</time>
      </trkpt>
      <trkpt lat="46.12878" lon="6.76209">
        <ele>1645.096</ele>
        <time>2026-02-22T10:23:45Z</time>
      </trkpt>
      <trkpt lat="46.12882" lon="6.76212">
        <ele>1644.571</ele>
        <time>2026-02-22T10:23:50Z</time>
      </trkpt>
      <trkpt lat="46.12885" lon="6.76216">
        <ele>1644.709</ele>
        <time>2026-02-22T10:23:55Z</time>
      </trkpt>
      <trkpt lat="46.12889" lon="6.7622">
        <ele>1645.556</ele>
        <time>2026-02-22T10:24:00Z</time>
      </trkpt>
      <trkpt lat="46.12892" lon="6.76223">
        <ele>1644.91</ele>
        <time>2026-02-22T10:24:05Z</time>
      </trkpt>
      <trkpt lat="46.12895" lon="6.76226">
        <ele>1645.644</ele>
        <time>2026-02-22T10:24:10Z</time>
      </trkpt>
      <trkpt lat="46.12899" lon="6.7623">
        <ele>1646.554</ele>
        <time>2026-02-22T10:24:15Z</time>
      </trkpt>
      <trkpt lat="46.12902" lon="6.76234">
        <ele>1646.695</ele>
        <time>2026-02-22T10:24:20Z</time>
      </trkpt>
      <trkpt lat="46.12907" lon="6.76239">
        <ele>1647.488</ele>
        <time>2026-02-22T10:24:25Z</time>
      </trkpt>
      <trkpt lat="46.12911" lon="6.76243">
        <ele>1647.84</ele>
        <time>2026-02-22T10:24:30Z</time>
      </trkpt>
      <trkpt lat="46.12914" lon="6.76247">
        <ele>1648.658</ele>
        <time>2026-02-22T10:24:35Z</time>
      </trkpt>
      <trkpt lat="46.12918" lon="6.76249">
        <ele>1648.56</ele>
        <time>2026-02-22T10:24:40Z</time>
      </trkpt>
      <trkpt lat="46.12921" lon="6.76251">
        <ele>1648.677</ele>
        <time>2026-02-22T10:24:45Z</time>
      </trkpt>
      <trkpt lat="46.12925" lon="6.76253">
        <ele>1647.298</ele>
        <time>2026-02-22T10:24:50Z</time>
      </trkpt>
      <trkpt lat="46.12929" lon="6.76255">
        <ele>1646.697</ele>
        <time>2026-02-22T10:24:55Z</time>
      </trkpt>
      <trkpt lat="46.12933" lon="6.76257">
        <ele>1646.942</ele>
        <time>2026-02-22T10:25:00Z</time>
      </trkpt>
      <trkpt lat="46.12937" lon="6.76258">
        <ele>1647.218</ele>
        <time>2026-02-22T10:25:05Z</time>
      </trkpt>
      <trkpt lat="46.12939" lon="6.7626">
        <ele>1648.201</ele>
        <time>2026-02-22T10:25:10Z</time>
      </trkpt>
      <trkpt lat="46.12943" lon="6.7626">
        <ele>1648.934</ele>
        <time>2026-02-22T10:25:15Z</time>
      </trkpt>
      <trkpt lat="46.12946" lon="6.76261">
        <ele>1649.789</ele>
        <time>2026-02-22T10:25:20Z</time>
      </trkpt>
      <trkpt lat="46.12949" lon="6.76262">
        <ele>1651.957</ele>
        <time>2026-02-22T10:25:25Z</time>
      </trkpt>
      <trkpt lat="46.12953" lon="6.76263">
        <ele>1652.363</ele>
        <time>2026-02-22T10:25:30Z</time>
      </trkpt>
      <trkpt lat="46.12956" lon="6.76264">
        <ele>1653.277</ele>
        <time>2026-02-22T10:25:35Z</time>
      </trkpt>
      <trkpt lat="46.12958" lon="6.76266">
        <ele>1653.561</ele>
        <time>2026-02-22T10:25:40Z</time>
      </trkpt>
      <trkpt lat="46.12961" lon="6.76268">
        <ele>1653.203</ele>
        <time>2026-02-22T10:25:45Z</time>
      </trkpt>
      <trkpt lat="46.12963" lon="6.76269">
        <ele>1653.168</ele>
        <time>2026-02-22T10:25:50Z</time>
      </trkpt>
      <trkpt lat="46.12967" lon="6.76272">
        <ele>1652.898</ele>
        <time>2026-02-22T10:25:55Z</time>
      </trkpt>
      <trkpt lat="46.1297" lon="6.76274">
        <ele>1653.383</ele>
        <time>2026-02-22T10:26:00Z</time>
      </trkpt>
      <trkpt lat="46.12972" lon="6.76278">
        <ele>1653.671</ele>
        <time>2026-02-22T10:26:05Z</time>
      </trkpt>
      <trkpt lat="46.12974" lon="6.76282">
        <ele>1654.644</ele>
        <time>2026-02-22T10:26:10Z</time>
      </trkpt>
      <trkpt lat="46.12974" lon="6.76287">
        <ele>1656.051</ele>
        <time>2026-02-22T10:26:15Z</time>
      </trkpt>
      <trkpt lat="46.12974" lon="6.76292">
        <ele>1656.592</ele>
        <time>2026-02-22T10:26:20Z</time>
      </trkpt>
      <trkpt lat="46.12972" lon="6.76296">
        <ele>1656.897</ele>
        <time>2026-02-22T10:26:25Z</time>
      </trkpt>
      <trkpt lat="46.12971" lon="6.76299">
        <ele>1657.369</ele>
        <time>2026-02-22T10:26:30Z</time>
      </trkpt>
      <trkpt lat="46.1297" lon="6.76302">
        <ele>1658.389</ele>
        <time>2026-02-22T10:26:35Z</time>
      </trkpt>
      <trkpt lat="46.1297" lon="6.76302">
        <ele>1658.371</ele>
        <time>2026-02-22T10:26:40Z</time>
      </trkpt>
      <trkpt lat="46.1297" lon="6.76302">
        <ele>1658.351</ele>
        <time>2026-02-22T10:26:45Z</time>
      </trkpt>
      <trkpt lat="46.1297" lon="6.76302">
        <ele>1658.309</ele>
        <time>2026-02-22T10:26:50Z</time>
      </trkpt>
      <trkpt lat="46.1297" lon="6.76302">
        <ele>1658.306</ele>
        <time>2026-02-22T10:26:55Z</time>
      </trkpt>
      <trkpt lat="46.1297" lon="6.76302">
        <ele>1658.303</ele>
        <time>2026-02-22T10:27:00Z</time>
      </trkpt>
      <trkpt lat="46.1297" lon="6.76302">
        <ele>1658.402</ele>
        <time>2026-02-22T10:27:05Z</time>
      </trkpt>
      <trkpt lat="46.1297" lon="6.76302">
        <ele>1658.338</ele>
        <time>2026-02-22T10:27:10Z</time>
      </trkpt>
      <trkpt lat="46.1297" lon="6.76302">
        <ele>1658.342</ele>
        <time>2026-02-22T10:27:15Z</time>
      </trkpt>
      <trkpt lat="46.1297" lon="6.76305">
        <ele>1658.362</ele>
        <time>2026-02-22T10:27:20Z</time>
      </trkpt>
      <trkpt lat="46.12969" lon="6.76309">
        <ele>1658.594</ele>
        <time>2026-02-22T10:27:25Z</time>
      </trkpt>
      <trkpt lat="46.12968" lon="6.76313">
        <ele>1659.97</ele>
        <time>2026-02-22T10:27:30Z</time>
      </trkpt>
      <trkpt lat="46.12967" lon="6.76318">
        <ele>1661.244</ele>
        <time>2026-02-22T10:27:35Z</time>
      </trkpt>
      <trkpt lat="46.12965" lon="6.76323">
        <ele>1661.742</ele>
        <time>2026-02-22T10:27:40Z</time>
      </trkpt>
      <trkpt lat="46.12965" lon="6.76327">
        <ele>1662.425</ele>
        <time>2026-02-22T10:27:45Z</time>
      </trkpt>
      <trkpt lat="46.12964" lon="6.76331">
        <ele>1662.968</ele>
        <time>2026-02-22T10:27:50Z</time>
      </trkpt>
      <trkpt lat="46.12964" lon="6.76335">
        <ele>1663.964</ele>
        <time>2026-02-22T10:27:55Z</time>
      </trkpt>
      <trkpt lat="46.12965" lon="6.76339">
        <ele>1664.76</ele>
        <time>2026-02-22T10:28:00Z</time>
      </trkpt>
      <trkpt lat="46.12966" lon="6.76342">
        <ele>1665.893</ele>
        <time>2026-02-22T10:28:05Z</time>
      </trkpt>
      <trkpt lat="46.12967" lon="6.76344">
        <ele>1666.75</ele>
        <time>2026-02-22T10:28:10Z</time>
      </trkpt>
      <trkpt lat="46.12967" lon="6.76348">
        <ele>1668.035</ele>
        <time>2026-02-22T10:28:15Z</time>
      </trkpt>
      <trkpt lat="46.12968" lon="6.76352">
        <ele>1668.954</ele>
        <time>2026-02-22T10:28:20Z</time>
      </trkpt>
      <trkpt lat="46.12969" lon="6.76354">
        <ele>1669.647</ele>
        <time>2026-02-22T10:28:25Z</time>
      </trkpt>
      <trkpt lat="46.12972" lon="6.76356">
        <ele>1670.716</ele>
        <time>2026-02-22T10:28:30Z</time>
      </trkpt>
      <trkpt lat="46.12974" lon="6.76359">
        <ele>1671.665</ele>
        <time>2026-02-22T10:28:35Z</time>
      </trkpt>
      <trkpt lat="46.12975" lon="6.76363">
        <ele>1672.182</ele>
        <time>2026-02-22T10:28:40Z</time>
      </trkpt>
      <trkpt lat="46.12976" lon="6.76366">
        <ele>1672.709</ele>
        <time>2026-02-22T10:28:45Z</time>
      </trkpt>
      <trkpt lat="46.12977" lon="6.76368">
        <ele>1672.855</ele>
        <time>2026-02-22T10:28:50Z</time>
      </trkpt>
      <trkpt lat="46.12979" lon="6.76372">
        <ele>1673.405</ele>
        <time>2026-02-22T10:28:55Z</time>
      </trkpt>
      <trkpt lat="46.1298" lon="6.76377">
        <ele>1673.821</ele>
        <time>2026-02-22T10:29:00Z</time>
      </trkpt>
      <trkpt lat="46.12982" lon="6.76381">
        <ele>1674.637</ele>
        <time>2026-02-22T10:29:05Z</time>
      </trkpt>
      <trkpt lat="46.12984" lon="6.76384">
        <ele>1675.075</ele>
        <time>2026-02-22T10:29:10Z</time>
      </trkpt>
      <trkpt lat="46.12985" lon="6.76387">
        <ele>1675.209</ele>
        <time>2026-02-22T10:29:15Z</time>
      </trkpt>
      <trkpt lat="46.12986" lon="6.76389">
        <ele>1675.485</ele>
        <time>2026-02-22T10:29:20Z</time>
      </trkpt>
      <trkpt lat="46.12987" lon="6.76393">
        <ele>1676.269</ele>
        <time>2026-02-22T10:29:25Z</time>
      </trkpt>
      <trkpt lat="46.12988" lon="6.76396">
        <ele>1677.18</ele>
        <time>2026-02-22T10:29:30Z</time>
      </trkpt>
      <trkpt lat="46.12989" lon="6.764">
        <ele>1677.54</ele>
        <time>2026-02-22T10:29:35Z</time>
      </trkpt>
      <trkpt lat="46.12989" lon="6.764">
        <ele>1677.532</ele>
        <time>2026-02-22T10:29:40Z</time>
      </trkpt>
      <trkpt lat="46.12989" lon="6.764">
        <ele>1677.527</ele>
        <time>2026-02-22T10:29:45Z</time>
      </trkpt>
      <trkpt lat="46.12989" lon="6.764">
        <ele>1678.121</ele>
        <time>2026-02-22T10:29:50Z</time>
      </trkpt>
      <trkpt lat="46.12989" lon="6.764">
        <ele>1678.812</ele>
        <time>2026-02-22T10:29:55Z</time>
      </trkpt>
      <trkpt lat="46.12989" lon="6.764">
        <ele>1679.354</ele>
        <time>2026-02-22T10:30:00Z</time>
      </trkpt>
      <trkpt lat="46.12989" lon="6.764">
        <ele>1679.399</ele>
        <time>2026-02-22T10:30:05Z</time>
      </trkpt>
      <trkpt lat="46.12989" lon="6.764">
        <ele>1679.386</ele>
        <time>2026-02-22T10:30:10Z</time>
      </trkpt>
      <trkpt lat="46.12989" lon="6.764">
        <ele>1679.383</ele>
        <time>2026-02-22T10:30:15Z</time>
      </trkpt>
      <trkpt lat="46.12989" lon="6.764">
        <ele>1679.387</ele>
        <time>2026-02-22T10:30:20Z</time>
      </trkpt>
      <trkpt lat="46.12989" lon="6.764">
        <ele>1679.39</ele>
        <time>2026-02-22T10:30:25Z</time>
      </trkpt>
      <trkpt lat="46.12989" lon="6.764">
        <ele>1679.379</ele>
        <time>2026-02-22T10:30:30Z</time>
      </trkpt>
      <trkpt lat="46.12989" lon="6.764">
        <ele>1678.819</ele>
        <time>2026-02-22T10:30:35Z</time>
      </trkpt>
      <trkpt lat="46.12989" lon="6.764">
        <ele>1678.792</ele>
        <time>2026-02-22T10:30:40Z</time>
      </trkpt>
      <trkpt lat="46.12989" lon="6.764">
        <ele>1679.137</ele>
        <time>2026-02-22T10:30:45Z</time>
      </trkpt>
      <trkpt lat="46.12989" lon="6.764">
        <ele>1679.139</ele>
        <time>2026-02-22T10:30:50Z</time>
      </trkpt>
      <trkpt lat="46.12989" lon="6.764">
        <ele>1679.151</ele>
        <time>2026-02-22T10:30:55Z</time>
      </trkpt>
      <trkpt lat="46.12989" lon="6.764">
        <ele>1679.155</ele>
        <time>2026-02-22T10:31:00Z</time>
      </trkpt>
      <trkpt lat="46.12989" lon="6.764">
        <ele>1679.151</ele>
        <time>2026-02-22T10:31:05Z</time>
      </trkpt>
      <trkpt lat="46.12989" lon="6.764">
        <ele>1679.15</ele>
        <time>2026-02-22T10:31:10Z</time>
      </trkpt>
      <trkpt lat="46.12989" lon="6.764">
        <ele>1679.154</ele>
        <time>2026-02-22T10:31:15Z</time>
      </trkpt>
      <trkpt lat="46.12989" lon="6.764">
        <ele>1679.152</ele>
        <time>2026-02-22T10:31:20Z</time>
      </trkpt>
      <trkpt lat="46.12989" lon="6.764">
        <ele>1679.149</ele>
        <time>2026-02-22T10:31:25Z</time>
      </trkpt>
      <trkpt lat="46.12989" lon="6.764">
        <ele>1679.152</ele>
        <time>2026-02-22T10:31:30Z</time>
      </trkpt>
      <trkpt lat="46.12989" lon="6.764">
        <ele>1679.152</ele>
        <time>2026-02-22T10:31:35Z</time>
      </trkpt>
      <trkpt lat="46.12989" lon="6.764">
        <ele>1679.156</ele>
        <time>2026-02-22T10:31:40Z</time>
      </trkpt>
      <trkpt lat="46.12989" lon="6.764">
        <ele>1679.165</ele>
        <time>2026-02-22T10:31:45Z</time>
      </trkpt>
      <trkpt lat="46.12989" lon="6.764">
        <ele>1679.167</ele>
        <time>2026-02-22T10:31:50Z</time>
      </trkpt>
      <trkpt lat="46.12989" lon="6.764">
        <ele>1679.166</ele>
        <time>2026-02-22T10:31:55Z</time>
      </trkpt>
      <trkpt lat="46.12989" lon="6.764">
        <ele>1679.173</ele>
        <time>2026-02-22T10:32:00Z</time>
      </trkpt>
      <trkpt lat="46.12989" lon="6.764">
        <ele>1679.245</ele>
        <time>2026-02-22T10:32:05Z</time>
      </trkpt>
      <trkpt lat="46.12989" lon="6.764">
        <ele>1679.255</ele>
        <time>2026-02-22T10:32:10Z</time>
      </trkpt>
      <trkpt lat="46.12989" lon="6.764">
        <ele>1679.262</ele>
        <time>2026-02-22T10:32:15Z</time>
      </trkpt>
      <trkpt lat="46.12989" lon="6.764">
        <ele>1679.27</ele>
        <time>2026-02-22T10:32:20Z</time>
      </trkpt>
      <trkpt lat="46.12989" lon="6.764">
        <ele>1679.274</ele>
        <time>2026-02-22T10:32:25Z</time>
      </trkpt>
      <trkpt lat="46.12989" lon="6.764">
        <ele>1679.276</ele>
        <time>2026-02-22T10:32:30Z</time>
      </trkpt>
      <trkpt lat="46.12989" lon="6.764">
        <ele>1679.283</ele>
        <time>2026-02-22T10:32:35Z</time>
      </trkpt>
      <trkpt lat="46.12989" lon="6.764">
        <ele>1679.326</ele>
        <time>2026-02-22T10:32:40Z</time>
      </trkpt>
      <trkpt lat="46.12989" lon="6.764">
        <ele>1679.325</ele>
        <time>2026-02-22T10:32:45Z</time>
      </trkpt>
      <trkpt lat="46.12989" lon="6.764">
        <ele>1679.319</ele>
        <time>2026-02-22T10:32:50Z</time>
      </trkpt>
      <trkpt lat="46.12989" lon="6.764">
        <ele>1679.321</ele>
        <time>2026-02-22T10:32:55Z</time>
      </trkpt>
      <trkpt lat="46.12989" lon="6.764">
        <ele>1679.325</ele>
        <time>2026-02-22T10:33:00Z</time>
      </trkpt>
      <trkpt lat="46.12989" lon="6.764">
        <ele>1679.374</ele>
        <time>2026-02-22T10:33:05Z</time>
      </trkpt>
      <trkpt lat="46.12989" lon="6.764">
        <ele>1679.525</ele>
        <time>2026-02-22T10:33:10Z</time>
      </trkpt>
      <trkpt lat="46.12989" lon="6.764">
        <ele>1679.534</ele>
        <time>2026-02-22T10:33:15Z</time>
      </trkpt>
      <trkpt lat="46.12989" lon="6.764">
        <ele>1679.312</ele>
        <time>2026-02-22T10:33:20Z</time>
      </trkpt>
      <trkpt lat="46.12989" lon="6.764">
        <ele>1679.291</ele>
        <time>2026-02-22T10:33:25Z</time>
      </trkpt>
      <trkpt lat="46.12989" lon="6.764">
        <ele>1679.465</ele>
        <time>2026-02-22T10:33:30Z</time>
      </trkpt>
      <trkpt lat="46.12989" lon="6.764">
        <ele>1679.474</ele>
        <time>2026-02-22T10:33:35Z</time>
      </trkpt>
      <trkpt lat="46.12989" lon="6.764">
        <ele>1679.482</ele>
        <time>2026-02-22T10:33:40Z</time>
      </trkpt>
      <trkpt lat="46.12989" lon="6.764">
        <ele>1679.489</ele>
        <time>2026-02-22T10:33:45Z</time>
      </trkpt>
      <trkpt lat="46.12989" lon="6.764">
        <ele>1679.486</ele>
        <time>2026-02-22T10:33:50Z</time>
      </trkpt>
      <trkpt lat="46.12989" lon="6.764">
        <ele>1679.491</ele>
        <time>2026-02-22T10:33:55Z</time>
      </trkpt>
      <trkpt lat="46.12989" lon="6.764">
        <ele>1679.493</ele>
        <time>2026-02-22T10:34:00Z</time>
      </trkpt>
      <trkpt lat="46.12989" lon="6.764">
        <ele>1679.492</ele>
        <time>2026-02-22T10:34:05Z</time>
      </trkpt>
      <trkpt lat="46.12989" lon="6.764">
        <ele>1679.491</ele>
        <time>2026-02-22T10:34:10Z</time>
      </trkpt>
      <trkpt lat="46.12989" lon="6.764">
        <ele>1679.486</ele>
        <time>2026-02-22T10:34:15Z</time>
      </trkpt>
      <trkpt lat="46.12989" lon="6.764">
        <ele>1679.485</ele>
        <time>2026-02-22T10:34:20Z</time>
      </trkpt>
      <trkpt lat="46.12989" lon="6.764">
        <ele>1679.482</ele>
        <time>2026-02-22T10:34:25Z</time>
      </trkpt>
      <trkpt lat="46.12989" lon="6.764">
        <ele>1679.485</ele>
        <time>2026-02-22T10:34:30Z</time>
      </trkpt>
      <trkpt lat="46.12989" lon="6.764">
        <ele>1679.496</ele>
        <time>2026-02-22T10:34:35Z</time>
      </trkpt>
      <trkpt lat="46.12989" lon="6.764">
        <ele>1679.512</ele>
        <time>2026-02-22T10:34:40Z</time>
      </trkpt>
      <trkpt lat="46.12989" lon="6.764">
        <ele>1679.521</ele>
        <time>2026-02-22T10:34:45Z</time>
      </trkpt>
      <trkpt lat="46.12989" lon="6.764">
        <ele>1679.526</ele>
        <time>2026-02-22T10:34:50Z</time>
      </trkpt>
      <trkpt lat="46.12989" lon="6.764">
        <ele>1679.53</ele>
        <time>2026-02-22T10:34:55Z</time>
      </trkpt>
      <trkpt lat="46.12989" lon="6.764">
        <ele>1679.526</ele>
        <time>2026-02-22T10:35:00Z</time>
      </trkpt>
      <trkpt lat="46.12989" lon="6.764">
        <ele>1679.523</ele>
        <time>2026-02-22T10:35:05Z</time>
      </trkpt>
      <trkpt lat="46.12989" lon="6.764">
        <ele>1679.512</ele>
        <time>2026-02-22T10:35:10Z</time>
      </trkpt>
      <trkpt lat="46.12989" lon="6.764">
        <ele>1679.512</ele>
        <time>2026-02-22T10:35:15Z</time>
      </trkpt>
      <trkpt lat="46.12989" lon="6.764">
        <ele>1679.512</ele>
        <time>2026-02-22T10:35:20Z</time>
      </trkpt>
      <trkpt lat="46.12989" lon="6.764">
        <ele>1679.513</ele>
        <time>2026-02-22T10:35:25Z</time>
      </trkpt>
      <trkpt lat="46.12989" lon="6.764">
        <ele>1679.514</ele>
        <time>2026-02-22T10:35:30Z</time>
      </trkpt>
      <trkpt lat="46.12989" lon="6.764">
        <ele>1679.514</ele>
        <time>2026-02-22T10:35:35Z</time>
      </trkpt>
      <trkpt lat="46.12989" lon="6.764">
        <ele>1679.52</ele>
        <time>2026-02-22T10:35:40Z</time>
      </trkpt>
      <trkpt lat="46.12989" lon="6.764">
        <ele>1679.52</ele>
        <time>2026-02-22T10:35:45Z</time>
      </trkpt>
      <trkpt lat="46.12989" lon="6.764">
        <ele>1679.517</ele>
        <time>2026-02-22T10:35:50Z</time>
      </trkpt>
      <trkpt lat="46.12989" lon="6.764">
        <ele>1679.521</ele>
        <time>2026-02-22T10:35:55Z</time>
      </trkpt>
      <trkpt lat="46.12989" lon="6.764">
        <ele>1679.52</ele>
        <time>2026-02-22T10:36:00Z</time>
      </trkpt>
      <trkpt lat="46.12989" lon="6.764">
        <ele>1679.517</ele>
        <time>2026-02-22T10:36:05Z</time>
      </trkpt>
      <trkpt lat="46.12989" lon="6.764">
        <ele>1679.525</ele>
        <time>2026-02-22T10:36:10Z</time>
      </trkpt>
      <trkpt lat="46.12989" lon="6.764">
        <ele>1679.533</ele>
        <time>2026-02-22T10:36:15Z</time>
      </trkpt>
      <trkpt lat="46.12989" lon="6.764">
        <ele>1679.545</ele>
        <time>2026-02-22T10:36:20Z</time>
      </trkpt>
      <trkpt lat="46.12989" lon="6.764">
        <ele>1679.557</ele>
        <time>2026-02-22T10:36:25Z</time>
      </trkpt>
      <trkpt lat="46.12989" lon="6.764">
        <ele>1679.565</ele>
        <time>2026-02-22T10:36:30Z</time>
      </trkpt>
      <trkpt lat="46.12989" lon="6.764">
        <ele>1679.574</ele>
        <time>2026-02-22T10:36:35Z</time>
      </trkpt>
      <trkpt lat="46.12989" lon="6.764">
        <ele>1679.584</ele>
        <time>2026-02-22T10:36:40Z</time>
      </trkpt>
      <trkpt lat="46.12989" lon="6.764">
        <ele>1679.605</ele>
        <time>2026-02-22T10:36:45Z</time>
      </trkpt>
      <trkpt lat="46.12989" lon="6.764">
        <ele>1679.923</ele>
        <time>2026-02-22T10:36:50Z</time>
      </trkpt>
      <trkpt lat="46.12989" lon="6.764">
        <ele>1680.033</ele>
        <time>2026-02-22T10:36:55Z</time>
      </trkpt>
      <trkpt lat="46.12989" lon="6.764">
        <ele>1680.035</ele>
        <time>2026-02-22T10:37:00Z</time>
      </trkpt>
      <trkpt lat="46.12989" lon="6.764">
        <ele>1680.033</ele>
        <time>2026-02-22T10:37:05Z</time>
      </trkpt>
      <trkpt lat="46.12989" lon="6.764">
        <ele>1680.034</ele>
        <time>2026-02-22T10:37:10Z</time>
      </trkpt>
      <trkpt lat="46.12989" lon="6.764">
        <ele>1680.018</ele>
        <time>2026-02-22T10:37:15Z</time>
      </trkpt>
      <trkpt lat="46.12989" lon="6.764">
        <ele>1680.012</ele>
        <time>2026-02-22T10:37:20Z</time>
      </trkpt>
      <trkpt lat="46.12989" lon="6.764">
        <ele>1680</ele>
        <time>2026-02-22T10:37:25Z</time>
      </trkpt>
      <trkpt lat="46.12989" lon="6.764">
        <ele>1680.133</ele>
        <time>2026-02-22T10:37:30Z</time>
      </trkpt>
      <trkpt lat="46.12989" lon="6.764">
        <ele>1680.11</ele>
        <time>2026-02-22T10:37:35Z</time>
      </trkpt>
      <trkpt lat="46.12989" lon="6.764">
        <ele>1680.1</ele>
        <time>2026-02-22T10:37:40Z</time>
      </trkpt>
      <trkpt lat="46.12989" lon="6.764">
        <ele>1680.084</ele>
        <time>2026-02-22T10:37:45Z</time>
      </trkpt>
      <trkpt lat="46.12989" lon="6.764">
        <ele>1680.07</ele>
        <time>2026-02-22T10:37:50Z</time>
      </trkpt>
      <trkpt lat="46.12989" lon="6.764">
        <ele>1680.063</ele>
        <time>2026-02-22T10:37:55Z</time>
      </trkpt>
      <trkpt lat="46.12989" lon="6.764">
        <ele>1680.05</ele>
        <time>2026-02-22T10:38:00Z</time>
      </trkpt>
      <trkpt lat="46.12989" lon="6.764">
        <ele>1680.034</ele>
        <time>2026-02-22T10:38:05Z</time>
      </trkpt>
      <trkpt lat="46.12989" lon="6.764">
        <ele>1679.325</ele>
        <time>2026-02-22T10:38:10Z</time>
      </trkpt>
      <trkpt lat="46.12989" lon="6.764">
        <ele>1679.219</ele>
        <time>2026-02-22T10:38:15Z</time>
      </trkpt>
      <trkpt lat="46.12989" lon="6.764">
        <ele>1679.211</ele>
        <time>2026-02-22T10:38:20Z</time>
      </trkpt>
      <trkpt lat="46.12989" lon="6.764">
        <ele>1679.202</ele>
        <time>2026-02-22T10:38:25Z</time>
      </trkpt>
      <trkpt lat="46.12989" lon="6.764">
        <ele>1678.781</ele>
        <time>2026-02-22T10:38:30Z</time>
      </trkpt>
      <trkpt lat="46.12989" lon="6.764">
        <ele>1678.19</ele>
        <time>2026-02-22T10:38:35Z</time>
      </trkpt>
      <trkpt lat="46.12989" lon="6.764">
        <ele>1677.748</ele>
        <time>2026-02-22T10:38:40Z</time>
      </trkpt>
      <trkpt lat="46.12989" lon="6.764">
        <ele>1677.616</ele>
        <time>2026-02-22T10:38:45Z</time>
      </trkpt>
      <trkpt lat="46.12989" lon="6.764">
        <ele>1678.141</ele>
        <time>2026-02-22T10:38:50Z</time>
      </trkpt>
      <trkpt lat="46.12989" lon="6.764">
        <ele>1678.128</ele>
        <time>2026-02-22T10:38:55Z</time>
      </trkpt>
      <trkpt lat="46.12989" lon="6.764">
        <ele>1678.124</ele>
        <time>2026-02-22T10:39:00Z</time>
      </trkpt>
      <trkpt lat="46.12989" lon="6.764">
        <ele>1678.114</ele>
        <time>2026-02-22T10:39:05Z</time>
      </trkpt>
      <trkpt lat="46.12989" lon="6.764">
        <ele>1678.108</ele>
        <time>2026-02-22T10:39:10Z</time>
      </trkpt>
      <trkpt lat="46.12989" lon="6.764">
        <ele>1678.105</ele>
        <time>2026-02-22T10:39:15Z</time>
      </trkpt>
      <trkpt lat="46.12989" lon="6.764">
        <ele>1678.097</ele>
        <time>2026-02-22T10:39:20Z</time>
      </trkpt>
      <trkpt lat="46.12989" lon="6.764">
        <ele>1678.083</ele>
        <time>2026-02-22T10:39:25Z</time>
      </trkpt>
      <trkpt lat="46.12989" lon="6.764">
        <ele>1678.057</ele>
        <time>2026-02-22T10:39:30Z</time>
      </trkpt>
      <trkpt lat="46.12989" lon="6.764">
        <ele>1678.053</ele>
        <time>2026-02-22T10:39:35Z</time>
      </trkpt>
      <trkpt lat="46.12989" lon="6.764">
        <ele>1678.048</ele>
        <time>2026-02-22T10:39:40Z</time>
      </trkpt>
      <trkpt lat="46.12989" lon="6.764">
        <ele>1678.043</ele>
        <time>2026-02-22T10:39:45Z</time>
      </trkpt>
      <trkpt lat="46.12989" lon="6.764">
        <ele>1678.037</ele>
        <time>2026-02-22T10:39:50Z</time>
      </trkpt>
      <trkpt lat="46.12989" lon="6.764">
        <ele>1678.025</ele>
        <time>2026-02-22T10:39:55Z</time>
      </trkpt>
      <trkpt lat="46.12989" lon="6.764">
        <ele>1678.024</ele>
        <time>2026-02-22T10:40:00Z</time>
      </trkpt>
      <trkpt lat="46.12989" lon="6.764">
        <ele>1678.02</ele>
        <time>2026-02-22T10:40:05Z</time>
      </trkpt>
      <trkpt lat="46.12989" lon="6.764">
        <ele>1677.326</ele>
        <time>2026-02-22T10:40:10Z</time>
      </trkpt>
      <trkpt lat="46.12989" lon="6.764">
        <ele>1678.011</ele>
        <time>2026-02-22T10:40:15Z</time>
      </trkpt>
      <trkpt lat="46.1299" lon="6.76406">
        <ele>1679.052</ele>
        <time>2026-02-22T10:40:20Z</time>
      </trkpt>
      <trkpt lat="46.12992" lon="6.76413">
        <ele>1679.847</ele>
        <time>2026-02-22T10:40:25Z</time>
      </trkpt>
      <trkpt lat="46.12991" lon="6.76419">
        <ele>1679.796</ele>
        <time>2026-02-22T10:40:30Z</time>
      </trkpt>
      <trkpt lat="46.12987" lon="6.76422">
        <ele>1679.818</ele>
        <time>2026-02-22T10:40:35Z</time>
      </trkpt>
      <trkpt lat="46.12983" lon="6.76425">
        <ele>1679.254</ele>
        <time>2026-02-22T10:40:40Z</time>
      </trkpt>
      <trkpt lat="46.12982" lon="6.76431">
        <ele>1679.919</ele>
        <time>2026-02-22T10:40:45Z</time>
      </trkpt>
      <trkpt lat="46.12982" lon="6.76436">
        <ele>1681.303</ele>
        <time>2026-02-22T10:40:50Z</time>
      </trkpt>
      <trkpt lat="46.1298" lon="6.7644">
        <ele>1682.481</ele>
        <time>2026-02-22T10:40:55Z</time>
      </trkpt>
      <trkpt lat="46.12979" lon="6.76442">
        <ele>1682.759</ele>
        <time>2026-02-22T10:41:00Z</time>
      </trkpt>
      <trkpt lat="46.12978" lon="6.76443">
        <ele>1682.574</ele>
        <time>2026-02-22T10:41:05Z</time>
      </trkpt>
      <trkpt lat="46.12975" lon="6.76443">
        <ele>1683.834</ele>
        <time>2026-02-22T10:41:10Z</time>
      </trkpt>
      <trkpt lat="46.12972" lon="6.76443">
        <ele>1684.11</ele>
        <time>2026-02-22T10:41:15Z</time>
      </trkpt>
      <trkpt lat="46.12969" lon="6.76441">
        <ele>1685.721</ele>
        <time>2026-02-22T10:41:20Z</time>
      </trkpt>
      <trkpt lat="46.12966" lon="6.76441">
        <ele>1686.298</ele>
        <time>2026-02-22T10:41:25Z</time>
      </trkpt>
      <trkpt lat="46.12964" lon="6.76441">
        <ele>1688.321</ele>
        <time>2026-02-22T10:41:30Z</time>
      </trkpt>
      <trkpt lat="46.12961" lon="6.76439">
        <ele>1689.65</ele>
        <time>2026-02-22T10:41:35Z</time>
      </trkpt>
      <trkpt lat="46.12958" lon="6.76438">
        <ele>1689.644</ele>
        <time>2026-02-22T10:41:40Z</time>
      </trkpt>
      <trkpt lat="46.12956" lon="6.76438">
        <ele>1690.663</ele>
        <time>2026-02-22T10:41:45Z</time>
      </trkpt>
      <trkpt lat="46.12953" lon="6.76437">
        <ele>1691.288</ele>
        <time>2026-02-22T10:41:50Z</time>
      </trkpt>
      <trkpt lat="46.12951" lon="6.76436">
        <ele>1691.396</ele>
        <time>2026-02-22T10:41:55Z</time>
      </trkpt>
      <trkpt lat="46.12948" lon="6.76436">
        <ele>1692.887</ele>
        <time>2026-02-22T10:42:00Z</time>
      </trkpt>
      <trkpt lat="46.12945" lon="6.76435">
        <ele>1694.13</ele>
        <time>2026-02-22T10:42:05Z</time>
      </trkpt>
      <trkpt lat="46.12943" lon="6.76435">
        <ele>1695.283</ele>
        <time>2026-02-22T10:42:10Z</time>
      </trkpt>
      <trkpt lat="46.1294" lon="6.76435">
        <ele>1696.083</ele>
        <time>2026-02-22T10:42:15Z</time>
      </trkpt>
      <trkpt lat="46.12937" lon="6.76435">
        <ele>1696.47</ele>
        <time>2026-02-22T10:42:20Z</time>
      </trkpt>
      <trkpt lat="46.12934" lon="6.76433">
        <ele>1696.804</ele>
        <time>2026-02-22T10:42:25Z</time>
      </trkpt>
      <trkpt lat="46.1293" lon="6.76431">
        <ele>1697.657</ele>
        <time>2026-02-22T10:42:30Z</time>
      </trkpt>
      <trkpt lat="46.12927" lon="6.76429">
        <ele>1697.818</ele>
        <time>2026-02-22T10:42:35Z</time>
      </trkpt>
      <trkpt lat="46.12923" lon="6.76427">
        <ele>1698.051</ele>
        <time>2026-02-22T10:42:40Z</time>
      </trkpt>
      <trkpt lat="46.1292" lon="6.76424">
        <ele>1698.652</ele>
        <time>2026-02-22T10:42:45Z</time>
      </trkpt>
      <trkpt lat="46.12916" lon="6.76421">
        <ele>1698.727</ele>
        <time>2026-02-22T10:42:50Z</time>
      </trkpt>
      <trkpt lat="46.12913" lon="6.76418">
        <ele>1699.199</ele>
        <time>2026-02-22T10:42:55Z</time>
      </trkpt>
      <trkpt lat="46.1291" lon="6.76416">
        <ele>1699.544</ele>
        <time>2026-02-22T10:43:00Z</time>
      </trkpt>
      <trkpt lat="46.12907" lon="6.76416">
        <ele>1699.571</ele>
        <time>2026-02-22T10:43:05Z</time>
      </trkpt>
      <trkpt lat="46.12904" lon="6.76415">
        <ele>1701.483</ele>
        <time>2026-02-22T10:43:10Z</time>
      </trkpt>
      <trkpt lat="46.12901" lon="6.76415">
        <ele>1702.526</ele>
        <time>2026-02-22T10:43:15Z</time>
      </trkpt>
      <trkpt lat="46.12898" lon="6.76415">
        <ele>1703.131</ele>
        <time>2026-02-22T10:43:20Z</time>
      </trkpt>
      <trkpt lat="46.12895" lon="6.76414">
        <ele>1704.349</ele>
        <time>2026-02-22T10:43:25Z</time>
      </trkpt>
      <trkpt lat="46.12892" lon="6.76413">
        <ele>1704.34</ele>
        <time>2026-02-22T10:43:30Z</time>
      </trkpt>
      <trkpt lat="46.12889" lon="6.76412">
        <ele>1704.805</ele>
        <time>2026-02-22T10:43:35Z</time>
      </trkpt>
      <trkpt lat="46.12887" lon="6.76412">
        <ele>1705.064</ele>
        <time>2026-02-22T10:43:40Z</time>
      </trkpt>
      <trkpt lat="46.12884" lon="6.76413">
        <ele>1706.068</ele>
        <time>2026-02-22T10:43:45Z</time>
      </trkpt>
      <trkpt lat="46.12881" lon="6.76414">
        <ele>1706.666</ele>
        <time>2026-02-22T10:43:50Z</time>
      </trkpt>
      <trkpt lat="46.12879" lon="6.76415">
        <ele>1707.708</ele>
        <time>2026-02-22T10:43:55Z</time>
      </trkpt>
      <trkpt lat="46.12877" lon="6.76416">
        <ele>1707.961</ele>
        <time>2026-02-22T10:44:00Z</time>
      </trkpt>
      <trkpt lat="46.12875" lon="6.76417">
        <ele>1708.531</ele>
        <time>2026-02-22T10:44:05Z</time>
      </trkpt>
      <trkpt lat="46.12872" lon="6.76419">
        <ele>1708.548</ele>
        <time>2026-02-22T10:44:10Z</time>
      </trkpt>
      <trkpt lat="46.12869" lon="6.7642">
        <ele>1708.399</ele>
        <time>2026-02-22T10:44:15Z</time>
      </trkpt>
      <trkpt lat="46.12866" lon="6.76421">
        <ele>1708.489</ele>
        <time>2026-02-22T10:44:20Z</time>
      </trkpt>
      <trkpt lat="46.12862" lon="6.76421">
        <ele>1708.398</ele>
        <time>2026-02-22T10:44:25Z</time>
      </trkpt>
      <trkpt lat="46.12859" lon="6.7642">
        <ele>1709.257</ele>
        <time>2026-02-22T10:44:30Z</time>
      </trkpt>
      <trkpt lat="46.12857" lon="6.7642">
        <ele>1709.279</ele>
        <time>2026-02-22T10:44:35Z</time>
      </trkpt>
      <trkpt lat="46.12855" lon="6.7642">
        <ele>1710.765</ele>
        <time>2026-02-22T10:44:40Z</time>
      </trkpt>
      <trkpt lat="46.12854" lon="6.76421">
        <ele>1711.203</ele>
        <time>2026-02-22T10:44:45Z</time>
      </trkpt>
      <trkpt lat="46.12853" lon="6.76426">
        <ele>1712.916</ele>
        <time>2026-02-22T10:44:50Z</time>
      </trkpt>
      <trkpt lat="46.12854" lon="6.76431">
        <ele>1714.952</ele>
        <time>2026-02-22T10:44:55Z</time>
      </trkpt>
      <trkpt lat="46.12856" lon="6.76435">
        <ele>1715.412</ele>
        <time>2026-02-22T10:45:00Z</time>
      </trkpt>
      <trkpt lat="46.12856" lon="6.76436">
        <ele>1716.17</ele>
        <time>2026-02-22T10:45:05Z</time>
      </trkpt>
      <trkpt lat="46.12853" lon="6.76435">
        <ele>1716.594</ele>
        <time>2026-02-22T10:45:10Z</time>
      </trkpt>
      <trkpt lat="46.1285" lon="6.76434">
        <ele>1717.654</ele>
        <time>2026-02-22T10:45:15Z</time>
      </trkpt>
      <trkpt lat="46.12848" lon="6.76434">
        <ele>1718.511</ele>
        <time>2026-02-22T10:45:20Z</time>
      </trkpt>
      <trkpt lat="46.12845" lon="6.76436">
        <ele>1719.537</ele>
        <time>2026-02-22T10:45:25Z</time>
      </trkpt>
      <trkpt lat="46.12843" lon="6.76437">
        <ele>1720.81</ele>
        <time>2026-02-22T10:45:30Z</time>
      </trkpt>
      <trkpt lat="46.12841" lon="6.76438">
        <ele>1721.143</ele>
        <time>2026-02-22T10:45:35Z</time>
      </trkpt>
      <trkpt lat="46.12838" lon="6.7644">
        <ele>1721.729</ele>
        <time>2026-02-22T10:45:40Z</time>
      </trkpt>
      <trkpt lat="46.12835" lon="6.76442">
        <ele>1722.298</ele>
        <time>2026-02-22T10:45:45Z</time>
      </trkpt>
      <trkpt lat="46.12832" lon="6.76443">
        <ele>1722.336</ele>
        <time>2026-02-22T10:45:50Z</time>
      </trkpt>
      <trkpt lat="46.1283" lon="6.76445">
        <ele>1722.673</ele>
        <time>2026-02-22T10:45:55Z</time>
      </trkpt>
      <trkpt lat="46.12828" lon="6.76446">
        <ele>1723.459</ele>
        <time>2026-02-22T10:46:00Z</time>
      </trkpt>
      <trkpt lat="46.12826" lon="6.76448">
        <ele>1724.642</ele>
        <time>2026-02-22T10:46:05Z</time>
      </trkpt>
      <trkpt lat="46.12823" lon="6.76449">
        <ele>1724.773</ele>
        <time>2026-02-22T10:46:10Z</time>
      </trkpt>
      <trkpt lat="46.12822" lon="6.7645">
        <ele>1726.235</ele>
        <time>2026-02-22T10:46:15Z</time>
      </trkpt>
      <trkpt lat="46.1282" lon="6.76451">
        <ele>1726.726</ele>
        <time>2026-02-22T10:46:20Z</time>
      </trkpt>
      <trkpt lat="46.12819" lon="6.76452">
        <ele>1726.971</ele>
        <time>2026-02-22T10:46:25Z</time>
      </trkpt>
      <trkpt lat="46.12816" lon="6.76453">
        <ele>1727.574</ele>
        <time>2026-02-22T10:46:30Z</time>
      </trkpt>
      <trkpt lat="46.12814" lon="6.76456">
        <ele>1727.789</ele>
        <time>2026-02-22T10:46:35Z</time>
      </trkpt>
      <trkpt lat="46.12812" lon="6.76458">
        <ele>1727.719</ele>
        <time>2026-02-22T10:46:40Z</time>
      </trkpt>
      <trkpt lat="46.1281" lon="6.76462">
        <ele>1728.411</ele>
        <time>2026-02-22T10:46:45Z</time>
      </trkpt>
      <trkpt lat="46.12809" lon="6.76465">
        <ele>1728.63</ele>
        <time>2026-02-22T10:46:50Z</time>
      </trkpt>
      <trkpt lat="46.12807" lon="6.76467">
        <ele>1729.04</ele>
        <time>2026-02-22T10:46:55Z</time>
      </trkpt>
      <trkpt lat="46.12805" lon="6.76471">
        <ele>1730.529</ele>
        <time>2026-02-22T10:47:00Z</time>
      </trkpt>
      <trkpt lat="46.12803" lon="6.76475">
        <ele>1730.854</ele>
        <time>2026-02-22T10:47:05Z</time>
      </trkpt>
      <trkpt lat="46.12801" lon="6.76478">
        <ele>1731.813</ele>
        <time>2026-02-22T10:47:10Z</time>
      </trkpt>
      <trkpt lat="46.12799" lon="6.76482">
        <ele>1731.945</ele>
        <time>2026-02-22T10:47:15Z</time>
      </trkpt>
      <trkpt lat="46.12796" lon="6.76486">
        <ele>1732.416</ele>
        <time>2026-02-22T10:47:20Z</time>
      </trkpt>
      <trkpt lat="46.12794" lon="6.76488">
        <ele>1732.889</ele>
        <time>2026-02-22T10:47:25Z</time>
      </trkpt>
      <trkpt lat="46.12792" lon="6.76491">
        <ele>1734.408</ele>
        <time>2026-02-22T10:47:30Z</time>
      </trkpt>
      <trkpt lat="46.1279" lon="6.76492">
        <ele>1735.752</ele>
        <time>2026-02-22T10:47:35Z</time>
      </trkpt>
      <trkpt lat="46.12788" lon="6.76494">
        <ele>1736.76</ele>
        <time>2026-02-22T10:47:40Z</time>
      </trkpt>
      <trkpt lat="46.12786" lon="6.76496">
        <ele>1737.614</ele>
        <time>2026-02-22T10:47:45Z</time>
      </trkpt>
      <trkpt lat="46.12784" lon="6.76499">
        <ele>1737.933</ele>
        <time>2026-02-22T10:47:50Z</time>
      </trkpt>
      <trkpt lat="46.12782" lon="6.76503">
        <ele>1738.707</ele>
        <time>2026-02-22T10:47:55Z</time>
      </trkpt>
      <trkpt lat="46.1278" lon="6.76507">
        <ele>1739.363</ele>
        <time>2026-02-22T10:48:00Z</time>
      </trkpt>
      <trkpt lat="46.12778" lon="6.76512">
        <ele>1740.087</ele>
        <time>2026-02-22T10:48:05Z</time>
      </trkpt>
      <trkpt lat="46.12777" lon="6.76517">
        <ele>1740.891</ele>
        <time>2026-02-22T10:48:10Z</time>
      </trkpt>
      <trkpt lat="46.12775" lon="6.76522">
        <ele>1740.497</ele>
        <time>2026-02-22T10:48:15Z</time>
      </trkpt>
      <trkpt lat="46.12773" lon="6.76527">
        <ele>1740.06</ele>
        <time>2026-02-22T10:48:20Z</time>
      </trkpt>
      <trkpt lat="46.1277" lon="6.7653">
        <ele>1739.897</ele>
        <time>2026-02-22T10:48:25Z</time>
      </trkpt>
      <trkpt lat="46.12767" lon="6.76533">
        <ele>1740.666</ele>
        <time>2026-02-22T10:48:30Z</time>
      </trkpt>
      <trkpt lat="46.12765" lon="6.76536">
        <ele>1741.646</ele>
        <time>2026-02-22T10:48:35Z</time>
      </trkpt>
      <trkpt lat="46.12762" lon="6.76538">
        <ele>1742.196</ele>
        <time>2026-02-22T10:48:40Z</time>
      </trkpt>
      <trkpt lat="46.1276" lon="6.7654">
        <ele>1742.145</ele>
        <time>2026-02-22T10:48:45Z</time>
      </trkpt>
      <trkpt lat="46.12757" lon="6.76541">
        <ele>1742.834</ele>
        <time>2026-02-22T10:48:50Z</time>
      </trkpt>
      <trkpt lat="46.12755" lon="6.76543">
        <ele>1743.681</ele>
        <time>2026-02-22T10:48:55Z</time>
      </trkpt>
      <trkpt lat="46.12753" lon="6.76545">
        <ele>1744.461</ele>
        <time>2026-02-22T10:49:00Z</time>
      </trkpt>
      <trkpt lat="46.1275" lon="6.76546">
        <ele>1745.298</ele>
        <time>2026-02-22T10:49:05Z</time>
      </trkpt>
      <trkpt lat="46.12747" lon="6.76546">
        <ele>1746.512</ele>
        <time>2026-02-22T10:49:10Z</time>
      </trkpt>
      <trkpt lat="46.12744" lon="6.76547">
        <ele>1746.951</ele>
        <time>2026-02-22T10:49:15Z</time>
      </trkpt>
      <trkpt lat="46.12741" lon="6.76547">
        <ele>1748.067</ele>
        <time>2026-02-22T10:49:20Z</time>
      </trkpt>
      <trkpt lat="46.12738" lon="6.76548">
        <ele>1748.792</ele>
        <time>2026-02-22T10:49:25Z</time>
      </trkpt>
      <trkpt lat="46.12737" lon="6.7655">
        <ele>1748.955</ele>
        <time>2026-02-22T10:49:30Z</time>
      </trkpt>
      <trkpt lat="46.12735" lon="6.76551">
        <ele>1749.077</ele>
        <time>2026-02-22T10:49:35Z</time>
      </trkpt>
      <trkpt lat="46.12732" lon="6.76554">
        <ele>1750.386</ele>
        <time>2026-02-22T10:49:40Z</time>
      </trkpt>
      <trkpt lat="46.12731" lon="6.76555">
        <ele>1750.819</ele>
        <time>2026-02-22T10:49:45Z</time>
      </trkpt>
      <trkpt lat="46.12729" lon="6.76557">
        <ele>1751.71</ele>
        <time>2026-02-22T10:49:50Z</time>
      </trkpt>
      <trkpt lat="46.12727" lon="6.76561">
        <ele>1753.325</ele>
        <time>2026-02-22T10:49:55Z</time>
      </trkpt>
      <trkpt lat="46.12725" lon="6.76565">
        <ele>1754.239</ele>
        <time>2026-02-22T10:50:00Z</time>
      </trkpt>
      <trkpt lat="46.12725" lon="6.76569">
        <ele>1754.505</ele>
        <time>2026-02-22T10:50:05Z</time>
      </trkpt>
      <trkpt lat="46.12724" lon="6.76573">
        <ele>1755.181</ele>
        <time>2026-02-22T10:50:10Z</time>
      </trkpt>
      <trkpt lat="46.12725" lon="6.76577">
        <ele>1756.135</ele>
        <time>2026-02-22T10:50:15Z</time>
      </trkpt>
      <trkpt lat="46.12726" lon="6.76582">
        <ele>1755.997</ele>
        <time>2026-02-22T10:50:20Z</time>
      </trkpt>
      <trkpt lat="46.12727" lon="6.76586">
        <ele>1755.668</ele>
        <time>2026-02-22T10:50:25Z</time>
      </trkpt>
      <trkpt lat="46.12728" lon="6.76591">
        <ele>1755.172</ele>
        <time>2026-02-22T10:50:30Z</time>
      </trkpt>
      <trkpt lat="46.1273" lon="6.76594">
        <ele>1756.155</ele>
        <time>2026-02-22T10:50:35Z</time>
      </trkpt>
      <trkpt lat="46.12732" lon="6.76597">
        <ele>1757.021</ele>
        <time>2026-02-22T10:50:40Z</time>
      </trkpt>
      <trkpt lat="46.12734" lon="6.76599">
        <ele>1757.27</ele>
        <time>2026-02-22T10:50:45Z</time>
      </trkpt>
      <trkpt lat="46.12736" lon="6.76601">
        <ele>1757.494</ele>
        <time>2026-02-22T10:50:50Z</time>
      </trkpt>
      <trkpt lat="46.12737" lon="6.76603">
        <ele>1757.72</ele>
        <time>2026-02-22T10:50:55Z</time>
      </trkpt>
      <trkpt lat="46.12739" lon="6.76604">
        <ele>1756.993</ele>
        <time>2026-02-22T10:51:00Z</time>
      </trkpt>
      <trkpt lat="46.1274" lon="6.76607">
        <ele>1757.392</ele>
        <time>2026-02-22T10:51:05Z</time>
      </trkpt>
      <trkpt lat="46.12742" lon="6.76609">
        <ele>1758.141</ele>
        <time>2026-02-22T10:51:10Z</time>
      </trkpt>
      <trkpt lat="46.12744" lon="6.76612">
        <ele>1758.788</ele>
        <time>2026-02-22T10:51:15Z</time>
      </trkpt>
      <trkpt lat="46.12743" lon="6.76614">
        <ele>1760.316</ele>
        <time>2026-02-22T10:51:20Z</time>
      </trkpt>
      <trkpt lat="46.12741" lon="6.76616">
        <ele>1761.961</ele>
        <time>2026-02-22T10:51:25Z</time>
      </trkpt>
      <trkpt lat="46.12739" lon="6.76619">
        <ele>1762.564</ele>
        <time>2026-02-22T10:51:30Z</time>
      </trkpt>
      <trkpt lat="46.12738" lon="6.76619">
        <ele>1763.066</ele>
        <time>2026-02-22T10:51:35Z</time>
      </trkpt>
      <trkpt lat="46.12736" lon="6.76621">
        <ele>1763.988</ele>
        <time>2026-02-22T10:51:40Z</time>
      </trkpt>
      <trkpt lat="46.12735" lon="6.76624">
        <ele>1765.152</ele>
        <time>2026-02-22T10:51:45Z</time>
      </trkpt>
      <trkpt lat="46.12733" lon="6.76627">
        <ele>1766.128</ele>
        <time>2026-02-22T10:51:50Z</time>
      </trkpt>
      <trkpt lat="46.12732" lon="6.76629">
        <ele>1767.076</ele>
        <time>2026-02-22T10:51:55Z</time>
      </trkpt>
      <trkpt lat="46.12731" lon="6.76633">
        <ele>1768.4</ele>
        <time>2026-02-22T10:52:00Z</time>
      </trkpt>
      <trkpt lat="46.12731" lon="6.76636">
        <ele>1770.225</ele>
        <time>2026-02-22T10:52:05Z</time>
      </trkpt>
      <trkpt lat="46.12731" lon="6.76638">
        <ele>1770.238</ele>
        <time>2026-02-22T10:52:10Z</time>
      </trkpt>
      <trkpt lat="46.12733" lon="6.7664">
        <ele>1770.649</ele>
        <time>2026-02-22T10:52:15Z</time>
      </trkpt>
      <trkpt lat="46.12736" lon="6.76641">
        <ele>1771.528</ele>
        <time>2026-02-22T10:52:20Z</time>
      </trkpt>
      <trkpt lat="46.12739" lon="6.76642">
        <ele>1771.514</ele>
        <time>2026-02-22T10:52:25Z</time>
      </trkpt>
      <trkpt lat="46.12741" lon="6.76644">
        <ele>1772.035</ele>
        <time>2026-02-22T10:52:30Z</time>
      </trkpt>
      <trkpt lat="46.12743" lon="6.76645">
        <ele>1772.145</ele>
        <time>2026-02-22T10:52:35Z</time>
      </trkpt>
      <trkpt lat="46.12745" lon="6.76647">
        <ele>1772.27</ele>
        <time>2026-02-22T10:52:40Z</time>
      </trkpt>
      <trkpt lat="46.12746" lon="6.7665">
        <ele>1772.643</ele>
        <time>2026-02-22T10:52:45Z</time>
      </trkpt>
      <trkpt lat="46.12747" lon="6.76653">
        <ele>1773.635</ele>
        <time>2026-02-22T10:52:50Z</time>
      </trkpt>
      <trkpt lat="46.12749" lon="6.76657">
        <ele>1775.148</ele>
        <time>2026-02-22T10:52:55Z</time>
      </trkpt>
      <trkpt lat="46.1275" lon="6.76659">
        <ele>1775.598</ele>
        <time>2026-02-22T10:53:00Z</time>
      </trkpt>
      <trkpt lat="46.12751" lon="6.76663">
        <ele>1776.285</ele>
        <time>2026-02-22T10:53:05Z</time>
      </trkpt>
      <trkpt lat="46.12751" lon="6.76663">
        <ele>1776.856</ele>
        <time>2026-02-22T10:53:10Z</time>
      </trkpt>
      <trkpt lat="46.12752" lon="6.76663">
        <ele>1776.865</ele>
        <time>2026-02-22T10:53:15Z</time>
      </trkpt>
      <trkpt lat="46.12752" lon="6.76663">
        <ele>1776.874</ele>
        <time>2026-02-22T10:53:20Z</time>
      </trkpt>
      <trkpt lat="46.12752" lon="6.76663">
        <ele>1776.885</ele>
        <time>2026-02-22T10:53:25Z</time>
      </trkpt>
      <trkpt lat="46.12752" lon="6.76663">
        <ele>1776.892</ele>
        <time>2026-02-22T10:53:30Z</time>
      </trkpt>
      <trkpt lat="46.12752" lon="6.76663">
        <ele>1776.899</ele>
        <time>2026-02-22T10:53:35Z</time>
      </trkpt>
      <trkpt lat="46.12752" lon="6.76663">
        <ele>1776.905</ele>
        <time>2026-02-22T10:53:40Z</time>
      </trkpt>
      <trkpt lat="46.12752" lon="6.76664">
        <ele>1777.321</ele>
        <time>2026-02-22T10:53:45Z</time>
      </trkpt>
      <trkpt lat="46.12752" lon="6.76664">
        <ele>1777.328</ele>
        <time>2026-02-22T10:53:50Z</time>
      </trkpt>
      <trkpt lat="46.12752" lon="6.76664">
        <ele>1777.334</ele>
        <time>2026-02-22T10:53:55Z</time>
      </trkpt>
      <trkpt lat="46.12754" lon="6.76666">
        <ele>1777.792</ele>
        <time>2026-02-22T10:54:00Z</time>
      </trkpt>
      <trkpt lat="46.12757" lon="6.76669">
        <ele>1778.939</ele>
        <time>2026-02-22T10:54:05Z</time>
      </trkpt>
      <trkpt lat="46.12759" lon="6.76672">
        <ele>1779.262</ele>
        <time>2026-02-22T10:54:10Z</time>
      </trkpt>
      <trkpt lat="46.12762" lon="6.76674">
        <ele>1780.078</ele>
        <time>2026-02-22T10:54:15Z</time>
      </trkpt>
      <trkpt lat="46.12765" lon="6.76677">
        <ele>1780.653</ele>
        <time>2026-02-22T10:54:20Z</time>
      </trkpt>
      <trkpt lat="46.12768" lon="6.7668">
        <ele>1781.181</ele>
        <time>2026-02-22T10:54:25Z</time>
      </trkpt>
      <trkpt lat="46.12771" lon="6.76683">
        <ele>1781.763</ele>
        <time>2026-02-22T10:54:30Z</time>
      </trkpt>
      <trkpt lat="46.12774" lon="6.76686">
        <ele>1782.633</ele>
        <time>2026-02-22T10:54:35Z</time>
      </trkpt>
      <trkpt lat="46.12777" lon="6.76688">
        <ele>1783.787</ele>
        <time>2026-02-22T10:54:40Z</time>
      </trkpt>
      <trkpt lat="46.1278" lon="6.76688">
        <ele>1784.01</ele>
        <time>2026-02-22T10:54:45Z</time>
      </trkpt>
      <trkpt lat="46.12783" lon="6.7669">
        <ele>1785.177</ele>
        <time>2026-02-22T10:54:50Z</time>
      </trkpt>
      <trkpt lat="46.12785" lon="6.76692">
        <ele>1785.629</ele>
        <time>2026-02-22T10:54:55Z</time>
      </trkpt>
      <trkpt lat="46.12787" lon="6.76694">
        <ele>1785.774</ele>
        <time>2026-02-22T10:55:00Z</time>
      </trkpt>
      <trkpt lat="46.1279" lon="6.76697">
        <ele>1786.394</ele>
        <time>2026-02-22T10:55:05Z</time>
      </trkpt>
      <trkpt lat="46.12791" lon="6.76701">
        <ele>1787.066</ele>
        <time>2026-02-22T10:55:10Z</time>
      </trkpt>
      <trkpt lat="46.12791" lon="6.76704">
        <ele>1788.076</ele>
        <time>2026-02-22T10:55:15Z</time>
      </trkpt>
      <trkpt lat="46.12792" lon="6.76707">
        <ele>1788.274</ele>
        <time>2026-02-22T10:55:20Z</time>
      </trkpt>
      <trkpt lat="46.12793" lon="6.76711">
        <ele>1789.253</ele>
        <time>2026-02-22T10:55:25Z</time>
      </trkpt>
      <trkpt lat="46.12794" lon="6.76715">
        <ele>1790.848</ele>
        <time>2026-02-22T10:55:30Z</time>
      </trkpt>
      <trkpt lat="46.12795" lon="6.76718">
        <ele>1791.418</ele>
        <time>2026-02-22T10:55:35Z</time>
      </trkpt>
      <trkpt lat="46.12796" lon="6.7672">
        <ele>1791.717</ele>
        <time>2026-02-22T10:55:40Z</time>
      </trkpt>
      <trkpt lat="46.12798" lon="6.76722">
        <ele>1792.335</ele>
        <time>2026-02-22T10:55:45Z</time>
      </trkpt>
      <trkpt lat="46.128" lon="6.76724">
        <ele>1792.398</ele>
        <time>2026-02-22T10:55:50Z</time>
      </trkpt>
      <trkpt lat="46.12802" lon="6.76727">
        <ele>1792.558</ele>
        <time>2026-02-22T10:55:55Z</time>
      </trkpt>
      <trkpt lat="46.12805" lon="6.7673">
        <ele>1792.424</ele>
        <time>2026-02-22T10:56:00Z</time>
      </trkpt>
      <trkpt lat="46.12807" lon="6.76733">
        <ele>1791.923</ele>
        <time>2026-02-22T10:56:05Z</time>
      </trkpt>
      <trkpt lat="46.1281" lon="6.76737">
        <ele>1792.202</ele>
        <time>2026-02-22T10:56:10Z</time>
      </trkpt>
      <trkpt lat="46.12812" lon="6.7674">
        <ele>1792.695</ele>
        <time>2026-02-22T10:56:15Z</time>
      </trkpt>
      <trkpt lat="46.12814" lon="6.76745">
        <ele>1793.66</ele>
        <time>2026-02-22T10:56:20Z</time>
      </trkpt>
      <trkpt lat="46.12816" lon="6.76749">
        <ele>1794.628</ele>
        <time>2026-02-22T10:56:25Z</time>
      </trkpt>
      <trkpt lat="46.12817" lon="6.76754">
        <ele>1795.545</ele>
        <time>2026-02-22T10:56:30Z</time>
      </trkpt>
      <trkpt lat="46.12818" lon="6.76759">
        <ele>1796.309</ele>
        <time>2026-02-22T10:56:35Z</time>
      </trkpt>
      <trkpt lat="46.1282" lon="6.76764">
        <ele>1795.926</ele>
        <time>2026-02-22T10:56:40Z</time>
      </trkpt>
      <trkpt lat="46.12821" lon="6.76769">
        <ele>1796.699</ele>
        <time>2026-02-22T10:56:45Z</time>
      </trkpt>
      <trkpt lat="46.12822" lon="6.76774">
        <ele>1797.712</ele>
        <time>2026-02-22T10:56:50Z</time>
      </trkpt>
      <trkpt lat="46.12822" lon="6.76778">
        <ele>1797.942</ele>
        <time>2026-02-22T10:56:55Z</time>
      </trkpt>
      <trkpt lat="46.1282" lon="6.7678">
        <ele>1799.443</ele>
        <time>2026-02-22T10:57:00Z</time>
      </trkpt>
      <trkpt lat="46.12817" lon="6.76782">
        <ele>1800.807</ele>
        <time>2026-02-22T10:57:05Z</time>
      </trkpt>
      <trkpt lat="46.12815" lon="6.76783">
        <ele>1802.024</ele>
        <time>2026-02-22T10:57:10Z</time>
      </trkpt>
      <trkpt lat="46.12814" lon="6.76784">
        <ele>1802.718</ele>
        <time>2026-02-22T10:57:15Z</time>
      </trkpt>
      <trkpt lat="46.12812" lon="6.76785">
        <ele>1803.139</ele>
        <time>2026-02-22T10:57:20Z</time>
      </trkpt>
      <trkpt lat="46.12809" lon="6.76786">
        <ele>1804.789</ele>
        <time>2026-02-22T10:57:25Z</time>
      </trkpt>
      <trkpt lat="46.12807" lon="6.76788">
        <ele>1806.32</ele>
        <time>2026-02-22T10:57:30Z</time>
      </trkpt>
      <trkpt lat="46.12805" lon="6.7679">
        <ele>1807.101</ele>
        <time>2026-02-22T10:57:35Z</time>
      </trkpt>
      <trkpt lat="46.12803" lon="6.76792">
        <ele>1807.608</ele>
        <time>2026-02-22T10:57:40Z</time>
      </trkpt>
      <trkpt lat="46.12802" lon="6.76794">
        <ele>1807.73</ele>
        <time>2026-02-22T10:57:45Z</time>
      </trkpt>
      <trkpt lat="46.12801" lon="6.76798">
        <ele>1808.552</ele>
        <time>2026-02-22T10:57:50Z</time>
      </trkpt>
      <trkpt lat="46.12801" lon="6.76803">
        <ele>1808.981</ele>
        <time>2026-02-22T10:57:55Z</time>
      </trkpt>
      <trkpt lat="46.12801" lon="6.76807">
        <ele>1809.58</ele>
        <time>2026-02-22T10:58:00Z</time>
      </trkpt>
      <trkpt lat="46.12801" lon="6.76812">
        <ele>1810.054</ele>
        <time>2026-02-22T10:58:05Z</time>
      </trkpt>
      <trkpt lat="46.128" lon="6.76817">
        <ele>1811.152</ele>
        <time>2026-02-22T10:58:10Z</time>
      </trkpt>
      <trkpt lat="46.128" lon="6.76822">
        <ele>1810.336</ele>
        <time>2026-02-22T10:58:15Z</time>
      </trkpt>
      <trkpt lat="46.12801" lon="6.76826">
        <ele>1810.589</ele>
        <time>2026-02-22T10:58:20Z</time>
      </trkpt>
      <trkpt lat="46.12802" lon="6.7683">
        <ele>1810.499</ele>
        <time>2026-02-22T10:58:25Z</time>
      </trkpt>
      <trkpt lat="46.12804" lon="6.76833">
        <ele>1810.778</ele>
        <time>2026-02-22T10:58:30Z</time>
      </trkpt>
      <trkpt lat="46.12806" lon="6.76835">
        <ele>1810.781</ele>
        <time>2026-02-22T10:58:35Z</time>
      </trkpt>
      <trkpt lat="46.12808" lon="6.76837">
        <ele>1811.866</ele>
        <time>2026-02-22T10:58:40Z</time>
      </trkpt>
      <trkpt lat="46.1281" lon="6.7684">
        <ele>1812.486</ele>
        <time>2026-02-22T10:58:45Z</time>
      </trkpt>
      <trkpt lat="46.12811" lon="6.76843">
        <ele>1814.048</ele>
        <time>2026-02-22T10:58:50Z</time>
      </trkpt>
      <trkpt lat="46.12812" lon="6.76847">
        <ele>1815.02</ele>
        <time>2026-02-22T10:58:55Z</time>
      </trkpt>
      <trkpt lat="46.12813" lon="6.7685">
        <ele>1815.561</ele>
        <time>2026-02-22T10:59:00Z</time>
      </trkpt>
      <trkpt lat="46.12813" lon="6.76853">
        <ele>1817.639</ele>
        <time>2026-02-22T10:59:05Z</time>
      </trkpt>
      <trkpt lat="46.12812" lon="6.76855">
        <ele>1818.766</ele>
        <time>2026-02-22T10:59:10Z</time>
      </trkpt>
      <trkpt lat="46.12809" lon="6.76854">
        <ele>1819.873</ele>
        <time>2026-02-22T10:59:15Z</time>
      </trkpt>
      <trkpt lat="46.12805" lon="6.76858">
        <ele>1819.681</ele>
        <time>2026-02-22T10:59:20Z</time>
      </trkpt>
      <trkpt lat="46.12801" lon="6.76866">
        <ele>1818.718</ele>
        <time>2026-02-22T10:59:25Z</time>
      </trkpt>
      <trkpt lat="46.12801" lon="6.7687">
        <ele>1818.718</ele>
        <time>2026-02-22T10:59:30Z</time>
      </trkpt>
      <trkpt lat="46.12802" lon="6.76873">
        <ele>1819.417</ele>
        <time>2026-02-22T10:59:35Z</time>
      </trkpt>
      <trkpt lat="46.12802" lon="6.76877">
        <ele>1819.504</ele>
        <time>2026-02-22T10:59:40Z</time>
      </trkpt>
      <trkpt lat="46.12802" lon="6.76881">
        <ele>1819.844</ele>
        <time>2026-02-22T10:59:45Z</time>
      </trkpt>
      <trkpt lat="46.12802" lon="6.76884">
        <ele>1820.442</ele>
        <time>2026-02-22T10:59:50Z</time>
      </trkpt>
      <trkpt lat="46.12803" lon="6.76886">
        <ele>1821.5</ele>
        <time>2026-02-22T10:59:55Z</time>
      </trkpt>
      <trkpt lat="46.12804" lon="6.76887">
        <ele>1822.085</ele>
        <time>2026-02-22T11:00:00Z</time>
      </trkpt>
      <trkpt lat="46.12805" lon="6.7689">
        <ele>1823.163</ele>
        <time>2026-02-22T11:00:05Z</time>
      </trkpt>
      <trkpt lat="46.12806" lon="6.76891">
        <ele>1823.897</ele>
        <time>2026-02-22T11:00:10Z</time>
      </trkpt>
      <trkpt lat="46.12806" lon="6.76893">
        <ele>1824.04</ele>
        <time>2026-02-22T11:00:15Z</time>
      </trkpt>
      <trkpt lat="46.12807" lon="6.76896">
        <ele>1824.249</ele>
        <time>2026-02-22T11:00:20Z</time>
      </trkpt>
      <trkpt lat="46.12808" lon="6.76899">
        <ele>1824.976</ele>
        <time>2026-02-22T11:00:25Z</time>
      </trkpt>
      <trkpt lat="46.12809" lon="6.76901">
        <ele>1825.522</ele>
        <time>2026-02-22T11:00:30Z</time>
      </trkpt>
      <trkpt lat="46.1281" lon="6.76904">
        <ele>1826.851</ele>
        <time>2026-02-22T11:00:35Z</time>
      </trkpt>
      <trkpt lat="46.12811" lon="6.76907">
        <ele>1827.506</ele>
        <time>2026-02-22T11:00:40Z</time>
      </trkpt>
      <trkpt lat="46.12813" lon="6.76909">
        <ele>1828.088</ele>
        <time>2026-02-22T11:00:45Z</time>
      </trkpt>
      <trkpt lat="46.12813" lon="6.76913">
        <ele>1828.675</ele>
        <time>2026-02-22T11:00:50Z</time>
      </trkpt>
      <trkpt lat="46.12814" lon="6.76916">
        <ele>1830.01</ele>
        <time>2026-02-22T11:00:55Z</time>
      </trkpt>
      <trkpt lat="46.12816" lon="6.76918">
        <ele>1830.889</ele>
        <time>2026-02-22T11:01:00Z</time>
      </trkpt>
      <trkpt lat="46.12816" lon="6.76921">
        <ele>1831.259</ele>
        <time>2026-02-22T11:01:05Z</time>
      </trkpt>
      <trkpt lat="46.12815" lon="6.76923">
        <ele>1831.797</ele>
        <time>2026-02-22T11:01:10Z</time>
      </trkpt>
      <trkpt lat="46.12815" lon="6.76925">
        <ele>1832.534</ele>
        <time>2026-02-22T11:01:15Z</time>
      </trkpt>
      <trkpt lat="46.12817" lon="6.76928">
        <ele>1833.212</ele>
        <time>2026-02-22T11:01:20Z</time>
      </trkpt>
      <trkpt lat="46.12818" lon="6.7693">
        <ele>1833.643</ele>
        <time>2026-02-22T11:01:25Z</time>
      </trkpt>
      <trkpt lat="46.1282" lon="6.76932">
        <ele>1834.632</ele>
        <time>2026-02-22T11:01:30Z</time>
      </trkpt>
      <trkpt lat="46.12822" lon="6.76936">
        <ele>1835.847</ele>
        <time>2026-02-22T11:01:35Z</time>
      </trkpt>
      <trkpt lat="46.12823" lon="6.76939">
        <ele>1836.563</ele>
        <time>2026-02-22T11:01:40Z</time>
      </trkpt>
      <trkpt lat="46.12825" lon="6.76943">
        <ele>1836.782</ele>
        <time>2026-02-22T11:01:45Z</time>
      </trkpt>
      <trkpt lat="46.12827" lon="6.76947">
        <ele>1836.457</ele>
        <time>2026-02-22T11:01:50Z</time>
      </trkpt>
      <trkpt lat="46.12829" lon="6.76952">
        <ele>1836.005</ele>
        <time>2026-02-22T11:01:55Z</time>
      </trkpt>
      <trkpt lat="46.1283" lon="6.76956">
        <ele>1836.226</ele>
        <time>2026-02-22T11:02:00Z</time>
      </trkpt>
      <trkpt lat="46.12832" lon="6.76961">
        <ele>1836.119</ele>
        <time>2026-02-22T11:02:05Z</time>
      </trkpt>
      <trkpt lat="46.12833" lon="6.76965">
        <ele>1836.176</ele>
        <time>2026-02-22T11:02:10Z</time>
      </trkpt>
      <trkpt lat="46.12833" lon="6.76968">
        <ele>1837.059</ele>
        <time>2026-02-22T11:02:15Z</time>
      </trkpt>
      <trkpt lat="46.12834" lon="6.76972">
        <ele>1836.893</ele>
        <time>2026-02-22T11:02:20Z</time>
      </trkpt>
      <trkpt lat="46.12835" lon="6.76975">
        <ele>1837.774</ele>
        <time>2026-02-22T11:02:25Z</time>
      </trkpt>
      <trkpt lat="46.12835" lon="6.76979">
        <ele>1838.784</ele>
        <time>2026-02-22T11:02:30Z</time>
      </trkpt>
      <trkpt lat="46.12837" lon="6.76983">
        <ele>1840.034</ele>
        <time>2026-02-22T11:02:35Z</time>
      </trkpt>
      <trkpt lat="46.12838" lon="6.76987">
        <ele>1841.23</ele>
        <time>2026-02-22T11:02:40Z</time>
      </trkpt>
      <trkpt lat="46.12839" lon="6.76991">
        <ele>1841.447</ele>
        <time>2026-02-22T11:02:45Z</time>
      </trkpt>
      <trkpt lat="46.12841" lon="6.76994">
        <ele>1842.218</ele>
        <time>2026-02-22T11:02:50Z</time>
      </trkpt>
      <trkpt lat="46.12843" lon="6.76998">
        <ele>1842.541</ele>
        <time>2026-02-22T11:02:55Z</time>
      </trkpt>
      <trkpt lat="46.12845" lon="6.77003">
        <ele>1842.967</ele>
        <time>2026-02-22T11:03:00Z</time>
      </trkpt>
      <trkpt lat="46.12847" lon="6.77008">
        <ele>1843.873</ele>
        <time>2026-02-22T11:03:05Z</time>
      </trkpt>
      <trkpt lat="46.12849" lon="6.77011">
        <ele>1844.162</ele>
        <time>2026-02-22T11:03:10Z</time>
      </trkpt>
      <trkpt lat="46.12852" lon="6.77013">
        <ele>1844.511</ele>
        <time>2026-02-22T11:03:15Z</time>
      </trkpt>
      <trkpt lat="46.12854" lon="6.77015">
        <ele>1844.296</ele>
        <time>2026-02-22T11:03:20Z</time>
      </trkpt>
      <trkpt lat="46.12857" lon="6.77017">
        <ele>1844.702</ele>
        <time>2026-02-22T11:03:25Z</time>
      </trkpt>
      <trkpt lat="46.1286" lon="6.77019">
        <ele>1844.415</ele>
        <time>2026-02-22T11:03:30Z</time>
      </trkpt>
      <trkpt lat="46.12863" lon="6.77024">
        <ele>1844.081</ele>
        <time>2026-02-22T11:03:35Z</time>
      </trkpt>
      <trkpt lat="46.12866" lon="6.77027">
        <ele>1843.557</ele>
        <time>2026-02-22T11:03:40Z</time>
      </trkpt>
      <trkpt lat="46.1287" lon="6.77031">
        <ele>1844.681</ele>
        <time>2026-02-22T11:03:45Z</time>
      </trkpt>
      <trkpt lat="46.12872" lon="6.77034">
        <ele>1844.392</ele>
        <time>2026-02-22T11:03:50Z</time>
      </trkpt>
      <trkpt lat="46.12875" lon="6.77036">
        <ele>1844.84</ele>
        <time>2026-02-22T11:03:55Z</time>
      </trkpt>
      <trkpt lat="46.12878" lon="6.7704">
        <ele>1845.301</ele>
        <time>2026-02-22T11:04:00Z</time>
      </trkpt>
      <trkpt lat="46.12878" lon="6.77045">
        <ele>1846.752</ele>
        <time>2026-02-22T11:04:05Z</time>
      </trkpt>
      <trkpt lat="46.12877" lon="6.77049">
        <ele>1847.682</ele>
        <time>2026-02-22T11:04:10Z</time>
      </trkpt>
      <trkpt lat="46.12877" lon="6.77052">
        <ele>1848.807</ele>
        <time>2026-02-22T11:04:15Z</time>
      </trkpt>
      <trkpt lat="46.12877" lon="6.77056">
        <ele>1849.446</ele>
        <time>2026-02-22T11:04:20Z</time>
      </trkpt>
      <trkpt lat="46.12877" lon="6.77058">
        <ele>1851.498</ele>
        <time>2026-02-22T11:04:25Z</time>
      </trkpt>
      <trkpt lat="46.12876" lon="6.77061">
        <ele>1852.908</ele>
        <time>2026-02-22T11:04:30Z</time>
      </trkpt>
      <trkpt lat="46.12875" lon="6.77064">
        <ele>1853.726</ele>
        <time>2026-02-22T11:04:35Z</time>
      </trkpt>
      <trkpt lat="46.12874" lon="6.77067">
        <ele>1855.527</ele>
        <time>2026-02-22T11:04:40Z</time>
      </trkpt>
      <trkpt lat="46.12875" lon="6.77069">
        <ele>1855.339</ele>
        <time>2026-02-22T11:04:45Z</time>
      </trkpt>
      <trkpt lat="46.12877" lon="6.7707">
        <ele>1854.446</ele>
        <time>2026-02-22T11:04:50Z</time>
      </trkpt>
      <trkpt lat="46.12879" lon="6.7707">
        <ele>1854.355</ele>
        <time>2026-02-22T11:04:55Z</time>
      </trkpt>
      <trkpt lat="46.12881" lon="6.77071">
        <ele>1855.432</ele>
        <time>2026-02-22T11:05:00Z</time>
      </trkpt>
      <trkpt lat="46.12882" lon="6.77072">
        <ele>1855.949</ele>
        <time>2026-02-22T11:05:05Z</time>
      </trkpt>
      <trkpt lat="46.12883" lon="6.77074">
        <ele>1855.878</ele>
        <time>2026-02-22T11:05:10Z</time>
      </trkpt>
      <trkpt lat="46.12884" lon="6.77075">
        <ele>1856.565</ele>
        <time>2026-02-22T11:05:15Z</time>
      </trkpt>
      <trkpt lat="46.12886" lon="6.77078">
        <ele>1857.702</ele>
        <time>2026-02-22T11:05:20Z</time>
      </trkpt>
      <trkpt lat="46.12888" lon="6.7708">
        <ele>1858.333</ele>
        <time>2026-02-22T11:05:25Z</time>
      </trkpt>
      <trkpt lat="46.1289" lon="6.77081">
        <ele>1858.991</ele>
        <time>2026-02-22T11:05:30Z</time>
      </trkpt>
      <trkpt lat="46.12892" lon="6.77086">
        <ele>1859.266</ele>
        <time>2026-02-22T11:05:35Z</time>
      </trkpt>
      <trkpt lat="46.12894" lon="6.7709">
        <ele>1859.745</ele>
        <time>2026-02-22T11:05:40Z</time>
      </trkpt>
      <trkpt lat="46.12896" lon="6.77093">
        <ele>1860.423</ele>
        <time>2026-02-22T11:05:45Z</time>
      </trkpt>
      <trkpt lat="46.12898" lon="6.77097">
        <ele>1860.646</ele>
        <time>2026-02-22T11:05:50Z</time>
      </trkpt>
      <trkpt lat="46.12898" lon="6.771">
        <ele>1860.561</ele>
        <time>2026-02-22T11:05:55Z</time>
      </trkpt>
      <trkpt lat="46.129" lon="6.77102">
        <ele>1859.979</ele>
        <time>2026-02-22T11:06:00Z</time>
      </trkpt>
      <trkpt lat="46.12901" lon="6.77105">
        <ele>1860.439</ele>
        <time>2026-02-22T11:06:05Z</time>
      </trkpt>
      <trkpt lat="46.12902" lon="6.77107">
        <ele>1861.293</ele>
        <time>2026-02-22T11:06:10Z</time>
      </trkpt>
      <trkpt lat="46.12902" lon="6.77107">
        <ele>1861.301</ele>
        <time>2026-02-22T11:06:15Z</time>
      </trkpt>
      <trkpt lat="46.12902" lon="6.77107">
        <ele>1861.325</ele>
        <time>2026-02-22T11:06:20Z</time>
      </trkpt>
      <trkpt lat="46.12902" lon="6.77107">
        <ele>1861.352</ele>
        <time>2026-02-22T11:06:25Z</time>
      </trkpt>
      <trkpt lat="46.12902" lon="6.77107">
        <ele>1861.484</ele>
        <time>2026-02-22T11:06:30Z</time>
      </trkpt>
      <trkpt lat="46.12902" lon="6.77107">
        <ele>1861.846</ele>
        <time>2026-02-22T11:06:35Z</time>
      </trkpt>
      <trkpt lat="46.12902" lon="6.77108">
        <ele>1861.855</ele>
        <time>2026-02-22T11:06:40Z</time>
      </trkpt>
      <trkpt lat="46.12902" lon="6.77108">
        <ele>1861.881</ele>
        <time>2026-02-22T11:06:45Z</time>
      </trkpt>
      <trkpt lat="46.12902" lon="6.77108">
        <ele>1861.914</ele>
        <time>2026-02-22T11:06:50Z</time>
      </trkpt>
      <trkpt lat="46.12902" lon="6.77108">
        <ele>1861.962</ele>
        <time>2026-02-22T11:06:55Z</time>
      </trkpt>
      <trkpt lat="46.12902" lon="6.77108">
        <ele>1862.012</ele>
        <time>2026-02-22T11:07:00Z</time>
      </trkpt>
      <trkpt lat="46.12902" lon="6.77108">
        <ele>1862.058</ele>
        <time>2026-02-22T11:07:05Z</time>
      </trkpt>
      <trkpt lat="46.12902" lon="6.77108">
        <ele>1862.103</ele>
        <time>2026-02-22T11:07:10Z</time>
      </trkpt>
      <trkpt lat="46.12902" lon="6.77108">
        <ele>1862.128</ele>
        <time>2026-02-22T11:07:15Z</time>
      </trkpt>
      <trkpt lat="46.12902" lon="6.77108">
        <ele>1862.139</ele>
        <time>2026-02-22T11:07:20Z</time>
      </trkpt>
      <trkpt lat="46.12902" lon="6.77108">
        <ele>1862.165</ele>
        <time>2026-02-22T11:07:25Z</time>
      </trkpt>
      <trkpt lat="46.12903" lon="6.77108">
        <ele>1862.204</ele>
        <time>2026-02-22T11:07:30Z</time>
      </trkpt>
      <trkpt lat="46.12903" lon="6.77108">
        <ele>1862.218</ele>
        <time>2026-02-22T11:07:35Z</time>
      </trkpt>
      <trkpt lat="46.12903" lon="6.77108">
        <ele>1862.227</ele>
        <time>2026-02-22T11:07:40Z</time>
      </trkpt>
      <trkpt lat="46.12903" lon="6.77109">
        <ele>1862.8</ele>
        <time>2026-02-22T11:07:45Z</time>
      </trkpt>
      <trkpt lat="46.12906" lon="6.77112">
        <ele>1863.86</ele>
        <time>2026-02-22T11:07:50Z</time>
      </trkpt>
      <trkpt lat="46.12908" lon="6.77115">
        <ele>1864.972</ele>
        <time>2026-02-22T11:07:55Z</time>
      </trkpt>
      <trkpt lat="46.1291" lon="6.77119">
        <ele>1866.437</ele>
        <time>2026-02-22T11:08:00Z</time>
      </trkpt>
      <trkpt lat="46.12912" lon="6.77122">
        <ele>1867.879</ele>
        <time>2026-02-22T11:08:05Z</time>
      </trkpt>
      <trkpt lat="46.12914" lon="6.77125">
        <ele>1869.121</ele>
        <time>2026-02-22T11:08:10Z</time>
      </trkpt>
      <trkpt lat="46.12916" lon="6.77128">
        <ele>1870.726</ele>
        <time>2026-02-22T11:08:15Z</time>
      </trkpt>
      <trkpt lat="46.12917" lon="6.77131">
        <ele>1871.913</ele>
        <time>2026-02-22T11:08:20Z</time>
      </trkpt>
      <trkpt lat="46.12918" lon="6.77134">
        <ele>1873.697</ele>
        <time>2026-02-22T11:08:25Z</time>
      </trkpt>
      <trkpt lat="46.12919" lon="6.77137">
        <ele>1874.373</ele>
        <time>2026-02-22T11:08:30Z</time>
      </trkpt>
      <trkpt lat="46.1292" lon="6.77139">
        <ele>1875.205</ele>
        <time>2026-02-22T11:08:35Z</time>
      </trkpt>
      <trkpt lat="46.1292" lon="6.77139">
        <ele>1875.162</ele>
        <time>2026-02-22T11:08:40Z</time>
      </trkpt>
      <trkpt lat="46.12919" lon="6.77141">
        <ele>1874.822</ele>
        <time>2026-02-22T11:08:45Z</time>
      </trkpt>
      <trkpt lat="46.12917" lon="6.77145">
        <ele>1874.198</ele>
        <time>2026-02-22T11:08:50Z</time>
      </trkpt>
      <trkpt lat="46.12915" lon="6.77149">
        <ele>1874.707</ele>
        <time>2026-02-22T11:08:55Z</time>
      </trkpt>
      <trkpt lat="46.12914" lon="6.77151">
        <ele>1875.948</ele>
        <time>2026-02-22T11:09:00Z</time>
      </trkpt>
      <trkpt lat="46.12913" lon="6.77154">
        <ele>1876.812</ele>
        <time>2026-02-22T11:09:05Z</time>
      </trkpt>
      <trkpt lat="46.12912" lon="6.77157">
        <ele>1877.481</ele>
        <time>2026-02-22T11:09:10Z</time>
      </trkpt>
      <trkpt lat="46.1291" lon="6.77161">
        <ele>1878.041</ele>
        <time>2026-02-22T11:09:15Z</time>
      </trkpt>
      <trkpt lat="46.12909" lon="6.77163">
        <ele>1878.955</ele>
        <time>2026-02-22T11:09:20Z</time>
      </trkpt>
      <trkpt lat="46.12908" lon="6.77166">
        <ele>1879.499</ele>
        <time>2026-02-22T11:09:25Z</time>
      </trkpt>
      <trkpt lat="46.12907" lon="6.77167">
        <ele>1880.252</ele>
        <time>2026-02-22T11:09:30Z</time>
      </trkpt>
      <trkpt lat="46.12906" lon="6.77168">
        <ele>1880.852</ele>
        <time>2026-02-22T11:09:35Z</time>
      </trkpt>
      <trkpt lat="46.12905" lon="6.77171">
        <ele>1881.301</ele>
        <time>2026-02-22T11:09:40Z</time>
      </trkpt>
      <trkpt lat="46.12902" lon="6.77175">
        <ele>1881.675</ele>
        <time>2026-02-22T11:09:45Z</time>
      </trkpt>
      <trkpt lat="46.129" lon="6.77177">
        <ele>1882.104</ele>
        <time>2026-02-22T11:09:50Z</time>
      </trkpt>
      <trkpt lat="46.12899" lon="6.7718">
        <ele>1882.633</ele>
        <time>2026-02-22T11:09:55Z</time>
      </trkpt>
      <trkpt lat="46.12897" lon="6.77182">
        <ele>1882.965</ele>
        <time>2026-02-22T11:10:00Z</time>
      </trkpt>
      <trkpt lat="46.12897" lon="6.77183">
        <ele>1883.845</ele>
        <time>2026-02-22T11:10:05Z</time>
      </trkpt>
      <trkpt lat="46.12895" lon="6.77185">
        <ele>1884.43</ele>
        <time>2026-02-22T11:10:10Z</time>
      </trkpt>
      <trkpt lat="46.12894" lon="6.77187">
        <ele>1885.326</ele>
        <time>2026-02-22T11:10:15Z</time>
      </trkpt>
      <trkpt lat="46.12893" lon="6.77189">
        <ele>1885.729</ele>
        <time>2026-02-22T11:10:20Z</time>
      </trkpt>
      <trkpt lat="46.12891" lon="6.77191">
        <ele>1885.69</ele>
        <time>2026-02-22T11:10:25Z</time>
      </trkpt>
      <trkpt lat="46.12889" lon="6.77193">
        <ele>1885.845</ele>
        <time>2026-02-22T11:10:30Z</time>
      </trkpt>
      <trkpt lat="46.12887" lon="6.77197">
        <ele>1887.377</ele>
        <time>2026-02-22T11:10:35Z</time>
      </trkpt>
      <trkpt lat="46.12886" lon="6.77199">
        <ele>1887.513</ele>
        <time>2026-02-22T11:10:40Z</time>
      </trkpt>
      <trkpt lat="46.12884" lon="6.77202">
        <ele>1888.083</ele>
        <time>2026-02-22T11:10:45Z</time>
      </trkpt>
      <trkpt lat="46.12882" lon="6.77204">
        <ele>1888.546</ele>
        <time>2026-02-22T11:10:50Z</time>
      </trkpt>
      <trkpt lat="46.1288" lon="6.77207">
        <ele>1888.721</ele>
        <time>2026-02-22T11:10:55Z</time>
      </trkpt>
      <trkpt lat="46.12879" lon="6.77209">
        <ele>1890.027</ele>
        <time>2026-02-22T11:11:00Z</time>
      </trkpt>
      <trkpt lat="46.12878" lon="6.77213">
        <ele>1891.041</ele>
        <time>2026-02-22T11:11:05Z</time>
      </trkpt>
      <trkpt lat="46.12876" lon="6.77216">
        <ele>1892.213</ele>
        <time>2026-02-22T11:11:10Z</time>
      </trkpt>
      <trkpt lat="46.12875" lon="6.77219">
        <ele>1893.117</ele>
        <time>2026-02-22T11:11:15Z</time>
      </trkpt>
      <trkpt lat="46.12874" lon="6.77222">
        <ele>1894.059</ele>
        <time>2026-02-22T11:11:20Z</time>
      </trkpt>
      <trkpt lat="46.12873" lon="6.77225">
        <ele>1895.428</ele>
        <time>2026-02-22T11:11:25Z</time>
      </trkpt>
      <trkpt lat="46.12873" lon="6.77228">
        <ele>1895.83</ele>
        <time>2026-02-22T11:11:30Z</time>
      </trkpt>
      <trkpt lat="46.12873" lon="6.7723">
        <ele>1896.649</ele>
        <time>2026-02-22T11:11:35Z</time>
      </trkpt>
      <trkpt lat="46.12873" lon="6.7723">
        <ele>1896.67</ele>
        <time>2026-02-22T11:11:40Z</time>
      </trkpt>
      <trkpt lat="46.12873" lon="6.7723">
        <ele>1896.682</ele>
        <time>2026-02-22T11:11:45Z</time>
      </trkpt>
      <trkpt lat="46.12873" lon="6.77231">
        <ele>1896.602</ele>
        <time>2026-02-22T11:11:50Z</time>
      </trkpt>
      <trkpt lat="46.12873" lon="6.77231">
        <ele>1896.607</ele>
        <time>2026-02-22T11:11:55Z</time>
      </trkpt>
      <trkpt lat="46.12873" lon="6.77231">
        <ele>1896.601</ele>
        <time>2026-02-22T11:12:00Z</time>
      </trkpt>
      <trkpt lat="46.12873" lon="6.77231">
        <ele>1896.599</ele>
        <time>2026-02-22T11:12:05Z</time>
      </trkpt>
      <trkpt lat="46.12873" lon="6.77231">
        <ele>1896.602</ele>
        <time>2026-02-22T11:12:10Z</time>
      </trkpt>
      <trkpt lat="46.12873" lon="6.77231">
        <ele>1896.613</ele>
        <time>2026-02-22T11:12:15Z</time>
      </trkpt>
      <trkpt lat="46.12873" lon="6.77231">
        <ele>1896.619</ele>
        <time>2026-02-22T11:12:20Z</time>
      </trkpt>
      <trkpt lat="46.12873" lon="6.77231">
        <ele>1896.621</ele>
        <time>2026-02-22T11:12:25Z</time>
      </trkpt>
      <trkpt lat="46.12873" lon="6.77231">
        <ele>1896.619</ele>
        <time>2026-02-22T11:12:30Z</time>
      </trkpt>
      <trkpt lat="46.12873" lon="6.77231">
        <ele>1896.62</ele>
        <time>2026-02-22T11:12:35Z</time>
      </trkpt>
      <trkpt lat="46.12873" lon="6.77231">
        <ele>1896.638</ele>
        <time>2026-02-22T11:12:40Z</time>
      </trkpt>
      <trkpt lat="46.12873" lon="6.77231">
        <ele>1896.815</ele>
        <time>2026-02-22T11:12:45Z</time>
      </trkpt>
      <trkpt lat="46.12873" lon="6.77231">
        <ele>1896.392</ele>
        <time>2026-02-22T11:12:50Z</time>
      </trkpt>
      <trkpt lat="46.12873" lon="6.77231">
        <ele>1896.376</ele>
        <time>2026-02-22T11:12:55Z</time>
      </trkpt>
      <trkpt lat="46.12873" lon="6.77231">
        <ele>1896.379</ele>
        <time>2026-02-22T11:13:00Z</time>
      </trkpt>
      <trkpt lat="46.12873" lon="6.77231">
        <ele>1896.386</ele>
        <time>2026-02-22T11:13:05Z</time>
      </trkpt>
      <trkpt lat="46.12873" lon="6.77231">
        <ele>1896.397</ele>
        <time>2026-02-22T11:13:10Z</time>
      </trkpt>
      <trkpt lat="46.12873" lon="6.77231">
        <ele>1896.401</ele>
        <time>2026-02-22T11:13:15Z</time>
      </trkpt>
      <trkpt lat="46.12873" lon="6.77231">
        <ele>1896.416</ele>
        <time>2026-02-22T11:13:20Z</time>
      </trkpt>
      <trkpt lat="46.12873" lon="6.77231">
        <ele>1896.44</ele>
        <time>2026-02-22T11:13:25Z</time>
      </trkpt>
      <trkpt lat="46.12873" lon="6.77231">
        <ele>1896.803</ele>
        <time>2026-02-22T11:13:30Z</time>
      </trkpt>
      <trkpt lat="46.12873" lon="6.77231">
        <ele>1897.614</ele>
        <time>2026-02-22T11:13:35Z</time>
      </trkpt>
      <trkpt lat="46.12873" lon="6.77231">
        <ele>1897.635</ele>
        <time>2026-02-22T11:13:40Z</time>
      </trkpt>
      <trkpt lat="46.12873" lon="6.77231">
        <ele>1898.571</ele>
        <time>2026-02-22T11:13:45Z</time>
      </trkpt>
      <trkpt lat="46.12873" lon="6.77231">
        <ele>1898.795</ele>
        <time>2026-02-22T11:13:50Z</time>
      </trkpt>
      <trkpt lat="46.12873" lon="6.77231">
        <ele>1897.453</ele>
        <time>2026-02-22T11:13:55Z</time>
      </trkpt>
      <trkpt lat="46.12873" lon="6.77231">
        <ele>1896.411</ele>
        <time>2026-02-22T11:14:00Z</time>
      </trkpt>
      <trkpt lat="46.12873" lon="6.77231">
        <ele>1896.77</ele>
        <time>2026-02-22T11:14:05Z</time>
      </trkpt>
      <trkpt lat="46.12873" lon="6.77231">
        <ele>1896.367</ele>
        <time>2026-02-22T11:14:10Z</time>
      </trkpt>
      <trkpt lat="46.12873" lon="6.77231">
        <ele>1896.496</ele>
        <time>2026-02-22T11:14:15Z</time>
      </trkpt>
      <trkpt lat="46.12873" lon="6.77231">
        <ele>1896.467</ele>
        <time>2026-02-22T11:14:20Z</time>
      </trkpt>
      <trkpt lat="46.12873" lon="6.77231">
        <ele>1896.512</ele>
        <time>2026-02-22T11:14:25Z</time>
      </trkpt>
      <trkpt lat="46.12873" lon="6.77231">
        <ele>1896.219</ele>
        <time>2026-02-22T11:14:30Z</time>
      </trkpt>
      <trkpt lat="46.12873" lon="6.77231">
        <ele>1896.204</ele>
        <time>2026-02-22T11:14:35Z</time>
      </trkpt>
      <trkpt lat="46.12873" lon="6.77231">
        <ele>1896.173</ele>
        <time>2026-02-22T11:14:40Z</time>
      </trkpt>
      <trkpt lat="46.12873" lon="6.77231">
        <ele>1896.155</ele>
        <time>2026-02-22T11:14:45Z</time>
      </trkpt>
      <trkpt lat="46.12873" lon="6.77231">
        <ele>1896.181</ele>
        <time>2026-02-22T11:14:50Z</time>
      </trkpt>
      <trkpt lat="46.12873" lon="6.77231">
        <ele>1896.152</ele>
        <time>2026-02-22T11:14:55Z</time>
      </trkpt>
      <trkpt lat="46.12873" lon="6.77231">
        <ele>1896.025</ele>
        <time>2026-02-22T11:15:00Z</time>
      </trkpt>
      <trkpt lat="46.12873" lon="6.77231">
        <ele>1896.029</ele>
        <time>2026-02-22T11:15:05Z</time>
      </trkpt>
      <trkpt lat="46.12873" lon="6.77231">
        <ele>1896.009</ele>
        <time>2026-02-22T11:15:10Z</time>
      </trkpt>
      <trkpt lat="46.12873" lon="6.77231">
        <ele>1896.152</ele>
        <time>2026-02-22T11:15:15Z</time>
      </trkpt>
      <trkpt lat="46.12873" lon="6.77231">
        <ele>1896.181</ele>
        <time>2026-02-22T11:15:20Z</time>
      </trkpt>
      <trkpt lat="46.12873" lon="6.77231">
        <ele>1896.197</ele>
        <time>2026-02-22T11:15:25Z</time>
      </trkpt>
      <trkpt lat="46.12873" lon="6.77231">
        <ele>1896.205</ele>
        <time>2026-02-22T11:15:30Z</time>
      </trkpt>
      <trkpt lat="46.12873" lon="6.77231">
        <ele>1896.236</ele>
        <time>2026-02-22T11:15:35Z</time>
      </trkpt>
      <trkpt lat="46.12873" lon="6.77231">
        <ele>1896.24</ele>
        <time>2026-02-22T11:15:40Z</time>
      </trkpt>
      <trkpt lat="46.12873" lon="6.77231">
        <ele>1896.235</ele>
        <time>2026-02-22T11:15:45Z</time>
      </trkpt>
      <trkpt lat="46.12873" lon="6.77231">
        <ele>1896.247</ele>
        <time>2026-02-22T11:15:50Z</time>
      </trkpt>
      <trkpt lat="46.12873" lon="6.77231">
        <ele>1896.244</ele>
        <time>2026-02-22T11:15:55Z</time>
      </trkpt>
      <trkpt lat="46.12873" lon="6.77231">
        <ele>1896.241</ele>
        <time>2026-02-22T11:16:00Z</time>
      </trkpt>
      <trkpt lat="46.12873" lon="6.77231">
        <ele>1896.24</ele>
        <time>2026-02-22T11:16:05Z</time>
      </trkpt>
      <trkpt lat="46.12873" lon="6.77231">
        <ele>1896.245</ele>
        <time>2026-02-22T11:16:10Z</time>
      </trkpt>
      <trkpt lat="46.12873" lon="6.77231">
        <ele>1896.309</ele>
        <time>2026-02-22T11:16:15Z</time>
      </trkpt>
      <trkpt lat="46.12873" lon="6.77231">
        <ele>1896.3</ele>
        <time>2026-02-22T11:16:20Z</time>
      </trkpt>
      <trkpt lat="46.12873" lon="6.77231">
        <ele>1896.287</ele>
        <time>2026-02-22T11:16:25Z</time>
      </trkpt>
      <trkpt lat="46.12873" lon="6.77231">
        <ele>1896.287</ele>
        <time>2026-02-22T11:16:30Z</time>
      </trkpt>
      <trkpt lat="46.12873" lon="6.77231">
        <ele>1896.274</ele>
        <time>2026-02-22T11:16:35Z</time>
      </trkpt>
      <trkpt lat="46.12873" lon="6.77231">
        <ele>1896.271</ele>
        <time>2026-02-22T11:16:40Z</time>
      </trkpt>
      <trkpt lat="46.12873" lon="6.77231">
        <ele>1896.27</ele>
        <time>2026-02-22T11:16:45Z</time>
      </trkpt>
      <trkpt lat="46.12873" lon="6.77231">
        <ele>1896.271</ele>
        <time>2026-02-22T11:16:50Z</time>
      </trkpt>
      <trkpt lat="46.12873" lon="6.77231">
        <ele>1896.262</ele>
        <time>2026-02-22T11:16:55Z</time>
      </trkpt>
      <trkpt lat="46.12873" lon="6.77231">
        <ele>1896.253</ele>
        <time>2026-02-22T11:17:00Z</time>
      </trkpt>
      <trkpt lat="46.12873" lon="6.77231">
        <ele>1896.266</ele>
        <time>2026-02-22T11:17:05Z</time>
      </trkpt>
      <trkpt lat="46.12873" lon="6.77231">
        <ele>1896.286</ele>
        <time>2026-02-22T11:17:10Z</time>
      </trkpt>
      <trkpt lat="46.12873" lon="6.77231">
        <ele>1896.285</ele>
        <time>2026-02-22T11:17:15Z</time>
      </trkpt>
      <trkpt lat="46.12873" lon="6.77231">
        <ele>1896.3</ele>
        <time>2026-02-22T11:17:20Z</time>
      </trkpt>
      <trkpt lat="46.12873" lon="6.77227">
        <ele>1896.305</ele>
        <time>2026-02-22T11:17:25Z</time>
      </trkpt>
      <trkpt lat="46.12873" lon="6.77227">
        <ele>1896.37</ele>
        <time>2026-02-22T11:17:30Z</time>
      </trkpt>
      <trkpt lat="46.12874" lon="6.77227">
        <ele>1897.14</ele>
        <time>2026-02-22T11:17:35Z</time>
      </trkpt>
      <trkpt lat="46.12874" lon="6.77227">
        <ele>1897.351</ele>
        <time>2026-02-22T11:17:40Z</time>
      </trkpt>
      <trkpt lat="46.12874" lon="6.77227">
        <ele>1897.382</ele>
        <time>2026-02-22T11:17:45Z</time>
      </trkpt>
      <trkpt lat="46.12874" lon="6.77227">
        <ele>1897.243</ele>
        <time>2026-02-22T11:17:50Z</time>
      </trkpt>
      <trkpt lat="46.12874" lon="6.77227">
        <ele>1897.271</ele>
        <time>2026-02-22T11:17:55Z</time>
      </trkpt>
      <trkpt lat="46.12874" lon="6.77227">
        <ele>1897.302</ele>
        <time>2026-02-22T11:18:00Z</time>
      </trkpt>
      <trkpt lat="46.12874" lon="6.77227">
        <ele>1897.267</ele>
        <time>2026-02-22T11:18:05Z</time>
      </trkpt>
      <trkpt lat="46.12874" lon="6.77227">
        <ele>1897.264</ele>
        <time>2026-02-22T11:18:10Z</time>
      </trkpt>
      <trkpt lat="46.12874" lon="6.77227">
        <ele>1897.269</ele>
        <time>2026-02-22T11:18:15Z</time>
      </trkpt>
      <trkpt lat="46.12874" lon="6.77227">
        <ele>1897.273</ele>
        <time>2026-02-22T11:18:20Z</time>
      </trkpt>
      <trkpt lat="46.12874" lon="6.77227">
        <ele>1897.263</ele>
        <time>2026-02-22T11:18:25Z</time>
      </trkpt>
      <trkpt lat="46.12874" lon="6.77227">
        <ele>1897.266</ele>
        <time>2026-02-22T11:18:30Z</time>
      </trkpt>
      <trkpt lat="46.12874" lon="6.77227">
        <ele>1897.267</ele>
        <time>2026-02-22T11:18:35Z</time>
      </trkpt>
      <trkpt lat="46.12874" lon="6.77227">
        <ele>1897.262</ele>
        <time>2026-02-22T11:18:40Z</time>
      </trkpt>
      <trkpt lat="46.12874" lon="6.77227">
        <ele>1897.257</ele>
        <time>2026-02-22T11:18:45Z</time>
      </trkpt>
      <trkpt lat="46.12874" lon="6.77227">
        <ele>1897.257</ele>
        <time>2026-02-22T11:18:50Z</time>
      </trkpt>
      <trkpt lat="46.12874" lon="6.77227">
        <ele>1897.263</ele>
        <time>2026-02-22T11:18:55Z</time>
      </trkpt>
      <trkpt lat="46.12874" lon="6.77227">
        <ele>1897.265</ele>
        <time>2026-02-22T11:19:00Z</time>
      </trkpt>
      <trkpt lat="46.12874" lon="6.77227">
        <ele>1897.263</ele>
        <time>2026-02-22T11:19:05Z</time>
      </trkpt>
      <trkpt lat="46.12874" lon="6.77227">
        <ele>1897.261</ele>
        <time>2026-02-22T11:19:10Z</time>
      </trkpt>
      <trkpt lat="46.12874" lon="6.77227">
        <ele>1897.269</ele>
        <time>2026-02-22T11:19:15Z</time>
      </trkpt>
      <trkpt lat="46.12875" lon="6.77229">
        <ele>1898.794</ele>
        <time>2026-02-22T11:19:20Z</time>
      </trkpt>
      <trkpt lat="46.12877" lon="6.7723">
        <ele>1899.746</ele>
        <time>2026-02-22T11:19:25Z</time>
      </trkpt>
      <trkpt lat="46.12879" lon="6.77236">
        <ele>1898.667</ele>
        <time>2026-02-22T11:19:30Z</time>
      </trkpt>
      <trkpt lat="46.12881" lon="6.77243">
        <ele>1898.206</ele>
        <time>2026-02-22T11:19:35Z</time>
      </trkpt>
      <trkpt lat="46.12883" lon="6.77247">
        <ele>1898.584</ele>
        <time>2026-02-22T11:19:40Z</time>
      </trkpt>
      <trkpt lat="46.12887" lon="6.77249">
        <ele>1898.75</ele>
        <time>2026-02-22T11:19:45Z</time>
      </trkpt>
      <trkpt lat="46.1289" lon="6.77251">
        <ele>1899.727</ele>
        <time>2026-02-22T11:19:50Z</time>
      </trkpt>
      <trkpt lat="46.12892" lon="6.77253">
        <ele>1900.089</ele>
        <time>2026-02-22T11:19:55Z</time>
      </trkpt>
      <trkpt lat="46.12895" lon="6.77254">
        <ele>1901.45</ele>
        <time>2026-02-22T11:20:00Z</time>
      </trkpt>
      <trkpt lat="46.12897" lon="6.77256">
        <ele>1902.378</ele>
        <time>2026-02-22T11:20:05Z</time>
      </trkpt>
      <trkpt lat="46.12899" lon="6.77257">
        <ele>1903.306</ele>
        <time>2026-02-22T11:20:10Z</time>
      </trkpt>
      <trkpt lat="46.12901" lon="6.77259">
        <ele>1903.847</ele>
        <time>2026-02-22T11:20:15Z</time>
      </trkpt>
      <trkpt lat="46.12902" lon="6.7726">
        <ele>1904.023</ele>
        <time>2026-02-22T11:20:20Z</time>
      </trkpt>
      <trkpt lat="46.12904" lon="6.77262">
        <ele>1904.492</ele>
        <time>2026-02-22T11:20:25Z</time>
      </trkpt>
      <trkpt lat="46.12906" lon="6.77264">
        <ele>1905.067</ele>
        <time>2026-02-22T11:20:30Z</time>
      </trkpt>
      <trkpt lat="46.12908" lon="6.77266">
        <ele>1905.428</ele>
        <time>2026-02-22T11:20:35Z</time>
      </trkpt>
      <trkpt lat="46.1291" lon="6.77267">
        <ele>1906.034</ele>
        <time>2026-02-22T11:20:40Z</time>
      </trkpt>
      <trkpt lat="46.12911" lon="6.77269">
        <ele>1907.265</ele>
        <time>2026-02-22T11:20:45Z</time>
      </trkpt>
      <trkpt lat="46.12913" lon="6.77271">
        <ele>1907.93</ele>
        <time>2026-02-22T11:20:50Z</time>
      </trkpt>
      <trkpt lat="46.12915" lon="6.77273">
        <ele>1908.44</ele>
        <time>2026-02-22T11:20:55Z</time>
      </trkpt>
      <trkpt lat="46.12916" lon="6.77275">
        <ele>1909.324</ele>
        <time>2026-02-22T11:21:00Z</time>
      </trkpt>
      <trkpt lat="46.12917" lon="6.77276">
        <ele>1909.677</ele>
        <time>2026-02-22T11:21:05Z</time>
      </trkpt>
      <trkpt lat="46.12918" lon="6.77278">
        <ele>1910.816</ele>
        <time>2026-02-22T11:21:10Z</time>
      </trkpt>
      <trkpt lat="46.1292" lon="6.77281">
        <ele>1910.986</ele>
        <time>2026-02-22T11:21:15Z</time>
      </trkpt>
      <trkpt lat="46.12922" lon="6.77283">
        <ele>1911.522</ele>
        <time>2026-02-22T11:21:20Z</time>
      </trkpt>
      <trkpt lat="46.12924" lon="6.77286">
        <ele>1912.353</ele>
        <time>2026-02-22T11:21:25Z</time>
      </trkpt>
      <trkpt lat="46.12925" lon="6.77288">
        <ele>1912.768</ele>
        <time>2026-02-22T11:21:30Z</time>
      </trkpt>
      <trkpt lat="46.12927" lon="6.7729">
        <ele>1913.681</ele>
        <time>2026-02-22T11:21:35Z</time>
      </trkpt>
      <trkpt lat="46.12929" lon="6.77293">
        <ele>1914.985</ele>
        <time>2026-02-22T11:21:40Z</time>
      </trkpt>
      <trkpt lat="46.12931" lon="6.77295">
        <ele>1916.345</ele>
        <time>2026-02-22T11:21:45Z</time>
      </trkpt>
      <trkpt lat="46.12932" lon="6.77297">
        <ele>1917.552</ele>
        <time>2026-02-22T11:21:50Z</time>
      </trkpt>
      <trkpt lat="46.12933" lon="6.77299">
        <ele>1918.057</ele>
        <time>2026-02-22T11:21:55Z</time>
      </trkpt>
      <trkpt lat="46.12933" lon="6.77302">
        <ele>1918.478</ele>
        <time>2026-02-22T11:22:00Z</time>
      </trkpt>
      <trkpt lat="46.12934" lon="6.77305">
        <ele>1920.034</ele>
        <time>2026-02-22T11:22:05Z</time>
      </trkpt>
      <trkpt lat="46.12934" lon="6.77309">
        <ele>1920.576</ele>
        <time>2026-02-22T11:22:10Z</time>
      </trkpt>
      <trkpt lat="46.12934" lon="6.77312">
        <ele>1921.018</ele>
        <time>2026-02-22T11:22:15Z</time>
      </trkpt>
      <trkpt lat="46.12935" lon="6.77315">
        <ele>1921.42</ele>
        <time>2026-02-22T11:22:20Z</time>
      </trkpt>
      <trkpt lat="46.12936" lon="6.77319">
        <ele>1922.673</ele>
        <time>2026-02-22T11:22:25Z</time>
      </trkpt>
      <trkpt lat="46.12937" lon="6.77323">
        <ele>1923.612</ele>
        <time>2026-02-22T11:22:30Z</time>
      </trkpt>
      <trkpt lat="46.12937" lon="6.77327">
        <ele>1923.817</ele>
        <time>2026-02-22T11:22:35Z</time>
      </trkpt>
      <trkpt lat="46.12938" lon="6.77331">
        <ele>1923.672</ele>
        <time>2026-02-22T11:22:40Z</time>
      </trkpt>
      <trkpt lat="46.12938" lon="6.77335">
        <ele>1924.273</ele>
        <time>2026-02-22T11:22:45Z</time>
      </trkpt>
      <trkpt lat="46.12939" lon="6.7734">
        <ele>1923.525</ele>
        <time>2026-02-22T11:22:50Z</time>
      </trkpt>
      <trkpt lat="46.1294" lon="6.77345">
        <ele>1923.755</ele>
        <time>2026-02-22T11:22:55Z</time>
      </trkpt>
      <trkpt lat="46.1294" lon="6.77348">
        <ele>1924.453</ele>
        <time>2026-02-22T11:23:00Z</time>
      </trkpt>
      <trkpt lat="46.12941" lon="6.7735">
        <ele>1924.765</ele>
        <time>2026-02-22T11:23:05Z</time>
      </trkpt>
      <trkpt lat="46.12941" lon="6.77353">
        <ele>1925.598</ele>
        <time>2026-02-22T11:23:10Z</time>
      </trkpt>
      <trkpt lat="46.12941" lon="6.77357">
        <ele>1926.729</ele>
        <time>2026-02-22T11:23:15Z</time>
      </trkpt>
      <trkpt lat="46.12941" lon="6.7736">
        <ele>1927.078</ele>
        <time>2026-02-22T11:23:20Z</time>
      </trkpt>
      <trkpt lat="46.12941" lon="6.77363">
        <ele>1927.958</ele>
        <time>2026-02-22T11:23:25Z</time>
      </trkpt>
      <trkpt lat="46.12941" lon="6.77366">
        <ele>1928.731</ele>
        <time>2026-02-22T11:23:30Z</time>
      </trkpt>
      <trkpt lat="46.12941" lon="6.7737">
        <ele>1929.599</ele>
        <time>2026-02-22T11:23:35Z</time>
      </trkpt>
      <trkpt lat="46.12941" lon="6.77373">
        <ele>1930.053</ele>
        <time>2026-02-22T11:23:40Z</time>
      </trkpt>
      <trkpt lat="46.12941" lon="6.77375">
        <ele>1930.543</ele>
        <time>2026-02-22T11:23:45Z</time>
      </trkpt>
      <trkpt lat="46.12942" lon="6.77378">
        <ele>1931.242</ele>
        <time>2026-02-22T11:23:50Z</time>
      </trkpt>
      <trkpt lat="46.12944" lon="6.77378">
        <ele>1931.588</ele>
        <time>2026-02-22T11:23:55Z</time>
      </trkpt>
      <trkpt lat="46.12946" lon="6.7738">
        <ele>1931.264</ele>
        <time>2026-02-22T11:24:00Z</time>
      </trkpt>
      <trkpt lat="46.12948" lon="6.77382">
        <ele>1932.488</ele>
        <time>2026-02-22T11:24:05Z</time>
      </trkpt>
      <trkpt lat="46.12951" lon="6.77383">
        <ele>1933.121</ele>
        <time>2026-02-22T11:24:10Z</time>
      </trkpt>
      <trkpt lat="46.12952" lon="6.77384">
        <ele>1933.757</ele>
        <time>2026-02-22T11:24:15Z</time>
      </trkpt>
      <trkpt lat="46.12954" lon="6.77386">
        <ele>1934.189</ele>
        <time>2026-02-22T11:24:20Z</time>
      </trkpt>
      <trkpt lat="46.12955" lon="6.77386">
        <ele>1934.541</ele>
        <time>2026-02-22T11:24:25Z</time>
      </trkpt>
      <trkpt lat="46.12955" lon="6.77387">
        <ele>1934.798</ele>
        <time>2026-02-22T11:24:30Z</time>
      </trkpt>
      <trkpt lat="46.12957" lon="6.77389">
        <ele>1935.843</ele>
        <time>2026-02-22T11:24:35Z</time>
      </trkpt>
      <trkpt lat="46.12958" lon="6.77391">
        <ele>1936.128</ele>
        <time>2026-02-22T11:24:40Z</time>
      </trkpt>
      <trkpt lat="46.1296" lon="6.77393">
        <ele>1936.441</ele>
        <time>2026-02-22T11:24:45Z</time>
      </trkpt>
      <trkpt lat="46.12962" lon="6.77396">
        <ele>1936.648</ele>
        <time>2026-02-22T11:24:50Z</time>
      </trkpt>
      <trkpt lat="46.12964" lon="6.77398">
        <ele>1937.101</ele>
        <time>2026-02-22T11:24:55Z</time>
      </trkpt>
      <trkpt lat="46.12965" lon="6.77399">
        <ele>1938.167</ele>
        <time>2026-02-22T11:25:00Z</time>
      </trkpt>
      <trkpt lat="46.12967" lon="6.77401">
        <ele>1939.093</ele>
        <time>2026-02-22T11:25:05Z</time>
      </trkpt>
      <trkpt lat="46.12968" lon="6.77402">
        <ele>1939.731</ele>
        <time>2026-02-22T11:25:10Z</time>
      </trkpt>
      <trkpt lat="46.12969" lon="6.77404">
        <ele>1940.511</ele>
        <time>2026-02-22T11:25:15Z</time>
      </trkpt>
      <trkpt lat="46.1297" lon="6.77405">
        <ele>1941.279</ele>
        <time>2026-02-22T11:25:20Z</time>
      </trkpt>
      <trkpt lat="46.12971" lon="6.77407">
        <ele>1942.005</ele>
        <time>2026-02-22T11:25:25Z</time>
      </trkpt>
      <trkpt lat="46.12973" lon="6.77407">
        <ele>1941.85</ele>
        <time>2026-02-22T11:25:30Z</time>
      </trkpt>
      <trkpt lat="46.12974" lon="6.77409">
        <ele>1942.06</ele>
        <time>2026-02-22T11:25:35Z</time>
      </trkpt>
      <trkpt lat="46.12976" lon="6.77411">
        <ele>1942.409</ele>
        <time>2026-02-22T11:25:40Z</time>
      </trkpt>
      <trkpt lat="46.12978" lon="6.77412">
        <ele>1943.06</ele>
        <time>2026-02-22T11:25:45Z</time>
      </trkpt>
      <trkpt lat="46.1298" lon="6.77415">
        <ele>1943.931</ele>
        <time>2026-02-22T11:25:50Z</time>
      </trkpt>
      <trkpt lat="46.12981" lon="6.77416">
        <ele>1945.057</ele>
        <time>2026-02-22T11:25:55Z</time>
      </trkpt>
      <trkpt lat="46.12983" lon="6.77418">
        <ele>1946.01</ele>
        <time>2026-02-22T11:26:00Z</time>
      </trkpt>
      <trkpt lat="46.12984" lon="6.7742">
        <ele>1946.532</ele>
        <time>2026-02-22T11:26:05Z</time>
      </trkpt>
      <trkpt lat="46.12986" lon="6.77421">
        <ele>1947.46</ele>
        <time>2026-02-22T11:26:10Z</time>
      </trkpt>
      <trkpt lat="46.12987" lon="6.77423">
        <ele>1948.23</ele>
        <time>2026-02-22T11:26:15Z</time>
      </trkpt>
      <trkpt lat="46.12989" lon="6.77426">
        <ele>1948.728</ele>
        <time>2026-02-22T11:26:20Z</time>
      </trkpt>
      <trkpt lat="46.1299" lon="6.77428">
        <ele>1950.481</ele>
        <time>2026-02-22T11:26:25Z</time>
      </trkpt>
      <trkpt lat="46.12991" lon="6.77431">
        <ele>1950.851</ele>
        <time>2026-02-22T11:26:30Z</time>
      </trkpt>
      <trkpt lat="46.12992" lon="6.77431">
        <ele>1951.059</ele>
        <time>2026-02-22T11:26:35Z</time>
      </trkpt>
      <trkpt lat="46.12992" lon="6.77434">
        <ele>1952.249</ele>
        <time>2026-02-22T11:26:40Z</time>
      </trkpt>
      <trkpt lat="46.12992" lon="6.77437">
        <ele>1953.037</ele>
        <time>2026-02-22T11:26:45Z</time>
      </trkpt>
      <trkpt lat="46.12992" lon="6.7744">
        <ele>1954.508</ele>
        <time>2026-02-22T11:26:50Z</time>
      </trkpt>
      <trkpt lat="46.1299" lon="6.77443">
        <ele>1955.357</ele>
        <time>2026-02-22T11:26:55Z</time>
      </trkpt>
      <trkpt lat="46.12989" lon="6.77445">
        <ele>1955.835</ele>
        <time>2026-02-22T11:27:00Z</time>
      </trkpt>
      <trkpt lat="46.12987" lon="6.77448">
        <ele>1957.068</ele>
        <time>2026-02-22T11:27:05Z</time>
      </trkpt>
      <trkpt lat="46.12986" lon="6.77451">
        <ele>1958.6</ele>
        <time>2026-02-22T11:27:10Z</time>
      </trkpt>
      <trkpt lat="46.12985" lon="6.77454">
        <ele>1959.715</ele>
        <time>2026-02-22T11:27:15Z</time>
      </trkpt>
      <trkpt lat="46.12984" lon="6.77456">
        <ele>1959.44</ele>
        <time>2026-02-22T11:27:20Z</time>
      </trkpt>
      <trkpt lat="46.12983" lon="6.77459">
        <ele>1959.836</ele>
        <time>2026-02-22T11:27:25Z</time>
      </trkpt>
      <trkpt lat="46.12981" lon="6.77462">
        <ele>1960.026</ele>
        <time>2026-02-22T11:27:30Z</time>
      </trkpt>
      <trkpt lat="46.12979" lon="6.77466">
        <ele>1961.391</ele>
        <time>2026-02-22T11:27:35Z</time>
      </trkpt>
      <trkpt lat="46.12977" lon="6.77469">
        <ele>1962.412</ele>
        <time>2026-02-22T11:27:40Z</time>
      </trkpt>
      <trkpt lat="46.12976" lon="6.77472">
        <ele>1963.056</ele>
        <time>2026-02-22T11:27:45Z</time>
      </trkpt>
      <trkpt lat="46.12975" lon="6.77476">
        <ele>1962.947</ele>
        <time>2026-02-22T11:27:50Z</time>
      </trkpt>
      <trkpt lat="46.12974" lon="6.7748">
        <ele>1963.498</ele>
        <time>2026-02-22T11:27:55Z</time>
      </trkpt>
      <trkpt lat="46.12974" lon="6.77484">
        <ele>1963.985</ele>
        <time>2026-02-22T11:28:00Z</time>
      </trkpt>
      <trkpt lat="46.12973" lon="6.77488">
        <ele>1964.628</ele>
        <time>2026-02-22T11:28:05Z</time>
      </trkpt>
      <trkpt lat="46.12973" lon="6.77491">
        <ele>1965.566</ele>
        <time>2026-02-22T11:28:10Z</time>
      </trkpt>
      <trkpt lat="46.12972" lon="6.77495">
        <ele>1966.397</ele>
        <time>2026-02-22T11:28:15Z</time>
      </trkpt>
      <trkpt lat="46.12971" lon="6.77501">
        <ele>1965.676</ele>
        <time>2026-02-22T11:28:20Z</time>
      </trkpt>
      <trkpt lat="46.12971" lon="6.77506">
        <ele>1966.397</ele>
        <time>2026-02-22T11:28:25Z</time>
      </trkpt>
      <trkpt lat="46.1297" lon="6.77509">
        <ele>1967.26</ele>
        <time>2026-02-22T11:28:30Z</time>
      </trkpt>
      <trkpt lat="46.12969" lon="6.77512">
        <ele>1967.72</ele>
        <time>2026-02-22T11:28:35Z</time>
      </trkpt>
      <trkpt lat="46.12969" lon="6.77515">
        <ele>1967.791</ele>
        <time>2026-02-22T11:28:40Z</time>
      </trkpt>
      <trkpt lat="46.12969" lon="6.77517">
        <ele>1968.145</ele>
        <time>2026-02-22T11:28:45Z</time>
      </trkpt>
      <trkpt lat="46.12968" lon="6.7752">
        <ele>1969.031</ele>
        <time>2026-02-22T11:28:50Z</time>
      </trkpt>
      <trkpt lat="46.12966" lon="6.77524">
        <ele>1969.664</ele>
        <time>2026-02-22T11:28:55Z</time>
      </trkpt>
      <trkpt lat="46.12965" lon="6.77528">
        <ele>1971.283</ele>
        <time>2026-02-22T11:29:00Z</time>
      </trkpt>
      <trkpt lat="46.12964" lon="6.77532">
        <ele>1972.296</ele>
        <time>2026-02-22T11:29:05Z</time>
      </trkpt>
      <trkpt lat="46.12963" lon="6.77535">
        <ele>1972.451</ele>
        <time>2026-02-22T11:29:10Z</time>
      </trkpt>
      <trkpt lat="46.12962" lon="6.77538">
        <ele>1972.744</ele>
        <time>2026-02-22T11:29:15Z</time>
      </trkpt>
      <trkpt lat="46.12961" lon="6.77541">
        <ele>1973.384</ele>
        <time>2026-02-22T11:29:20Z</time>
      </trkpt>
      <trkpt lat="46.1296" lon="6.77544">
        <ele>1974.148</ele>
        <time>2026-02-22T11:29:25Z</time>
      </trkpt>
      <trkpt lat="46.1296" lon="6.77548">
        <ele>1974.612</ele>
        <time>2026-02-22T11:29:30Z</time>
      </trkpt>
      <trkpt lat="46.12958" lon="6.77553">
        <ele>1976.086</ele>
        <time>2026-02-22T11:29:35Z</time>
      </trkpt>
      <trkpt lat="46.12957" lon="6.77557">
        <ele>1976.789</ele>
        <time>2026-02-22T11:29:40Z</time>
      </trkpt>
      <trkpt lat="46.12956" lon="6.77561">
        <ele>1977.17</ele>
        <time>2026-02-22T11:29:45Z</time>
      </trkpt>
      <trkpt lat="46.12956" lon="6.77565">
        <ele>1977.809</ele>
        <time>2026-02-22T11:29:50Z</time>
      </trkpt>
      <trkpt lat="46.12955" lon="6.77568">
        <ele>1977.931</ele>
        <time>2026-02-22T11:29:55Z</time>
      </trkpt>
      <trkpt lat="46.12955" lon="6.77572">
        <ele>1978.932</ele>
        <time>2026-02-22T11:30:00Z</time>
      </trkpt>
      <trkpt lat="46.12953" lon="6.77574">
        <ele>1979.517</ele>
        <time>2026-02-22T11:30:05Z</time>
      </trkpt>
      <trkpt lat="46.12953" lon="6.77578">
        <ele>1980.255</ele>
        <time>2026-02-22T11:30:10Z</time>
      </trkpt>
      <trkpt lat="46.12952" lon="6.77582">
        <ele>1981.814</ele>
        <time>2026-02-22T11:30:15Z</time>
      </trkpt>
      <trkpt lat="46.12951" lon="6.77585">
        <ele>1982.046</ele>
        <time>2026-02-22T11:30:20Z</time>
      </trkpt>
      <trkpt lat="46.1295" lon="6.77588">
        <ele>1982.22</ele>
        <time>2026-02-22T11:30:25Z</time>
      </trkpt>
      <trkpt lat="46.1295" lon="6.77591">
        <ele>1982.922</ele>
        <time>2026-02-22T11:30:30Z</time>
      </trkpt>
      <trkpt lat="46.12949" lon="6.77594">
        <ele>1983.887</ele>
        <time>2026-02-22T11:30:35Z</time>
      </trkpt>
      <trkpt lat="46.12947" lon="6.77597">
        <ele>1983.839</ele>
        <time>2026-02-22T11:30:40Z</time>
      </trkpt>
      <trkpt lat="46.12946" lon="6.776">
        <ele>1984.733</ele>
        <time>2026-02-22T11:30:45Z</time>
      </trkpt>
      <trkpt lat="46.12946" lon="6.77602">
        <ele>1985.609</ele>
        <time>2026-02-22T11:30:50Z</time>
      </trkpt>
      <trkpt lat="46.12945" lon="6.77605">
        <ele>1986.525</ele>
        <time>2026-02-22T11:30:55Z</time>
      </trkpt>
      <trkpt lat="46.12944" lon="6.77608">
        <ele>1986.544</ele>
        <time>2026-02-22T11:31:00Z</time>
      </trkpt>
      <trkpt lat="46.12943" lon="6.77612">
        <ele>1987.562</ele>
        <time>2026-02-22T11:31:05Z</time>
      </trkpt>
      <trkpt lat="46.12941" lon="6.77616">
        <ele>1988.299</ele>
        <time>2026-02-22T11:31:10Z</time>
      </trkpt>
      <trkpt lat="46.1294" lon="6.77618">
        <ele>1988.791</ele>
        <time>2026-02-22T11:31:15Z</time>
      </trkpt>
      <trkpt lat="46.12939" lon="6.7762">
        <ele>1988.949</ele>
        <time>2026-02-22T11:31:20Z</time>
      </trkpt>
      <trkpt lat="46.12937" lon="6.77623">
        <ele>1989.215</ele>
        <time>2026-02-22T11:31:25Z</time>
      </trkpt>
      <trkpt lat="46.12936" lon="6.77624">
        <ele>1989.119</ele>
        <time>2026-02-22T11:31:30Z</time>
      </trkpt>
      <trkpt lat="46.12935" lon="6.77627">
        <ele>1989.924</ele>
        <time>2026-02-22T11:31:35Z</time>
      </trkpt>
      <trkpt lat="46.12933" lon="6.77631">
        <ele>1989.892</ele>
        <time>2026-02-22T11:31:40Z</time>
      </trkpt>
      <trkpt lat="46.12931" lon="6.77634">
        <ele>1990.358</ele>
        <time>2026-02-22T11:31:45Z</time>
      </trkpt>
      <trkpt lat="46.1293" lon="6.77636">
        <ele>1990.796</ele>
        <time>2026-02-22T11:31:50Z</time>
      </trkpt>
      <trkpt lat="46.12929" lon="6.77639">
        <ele>1991.5</ele>
        <time>2026-02-22T11:31:55Z</time>
      </trkpt>
      <trkpt lat="46.12928" lon="6.77642">
        <ele>1992.709</ele>
        <time>2026-02-22T11:32:00Z</time>
      </trkpt>
      <trkpt lat="46.12928" lon="6.77645">
        <ele>1992.913</ele>
        <time>2026-02-22T11:32:05Z</time>
      </trkpt>
      <trkpt lat="46.12928" lon="6.77648">
        <ele>1993.519</ele>
        <time>2026-02-22T11:32:10Z</time>
      </trkpt>
      <trkpt lat="46.12928" lon="6.77652">
        <ele>1993.356</ele>
        <time>2026-02-22T11:32:15Z</time>
      </trkpt>
      <trkpt lat="46.12929" lon="6.77655">
        <ele>1994.124</ele>
        <time>2026-02-22T11:32:20Z</time>
      </trkpt>
      <trkpt lat="46.12929" lon="6.7766">
        <ele>1995.37</ele>
        <time>2026-02-22T11:32:25Z</time>
      </trkpt>
      <trkpt lat="46.12929" lon="6.77662">
        <ele>1995.806</ele>
        <time>2026-02-22T11:32:30Z</time>
      </trkpt>
      <trkpt lat="46.12929" lon="6.77665">
        <ele>1996.579</ele>
        <time>2026-02-22T11:32:35Z</time>
      </trkpt>
      <trkpt lat="46.12929" lon="6.77668">
        <ele>1997.122</ele>
        <time>2026-02-22T11:32:40Z</time>
      </trkpt>
      <trkpt lat="46.12929" lon="6.77671">
        <ele>1997.824</ele>
        <time>2026-02-22T11:32:45Z</time>
      </trkpt>
      <trkpt lat="46.12929" lon="6.77674">
        <ele>1998.316</ele>
        <time>2026-02-22T11:32:50Z</time>
      </trkpt>
      <trkpt lat="46.12929" lon="6.77677">
        <ele>1998.708</ele>
        <time>2026-02-22T11:32:55Z</time>
      </trkpt>
      <trkpt lat="46.12928" lon="6.77681">
        <ele>2000.062</ele>
        <time>2026-02-22T11:33:00Z</time>
      </trkpt>
      <trkpt lat="46.12928" lon="6.77685">
        <ele>2000.347</ele>
        <time>2026-02-22T11:33:05Z</time>
      </trkpt>
      <trkpt lat="46.12927" lon="6.77688">
        <ele>2001.229</ele>
        <time>2026-02-22T11:33:10Z</time>
      </trkpt>
      <trkpt lat="46.12927" lon="6.77691">
        <ele>2001.671</ele>
        <time>2026-02-22T11:33:15Z</time>
      </trkpt>
      <trkpt lat="46.12927" lon="6.77694">
        <ele>2001.422</ele>
        <time>2026-02-22T11:33:20Z</time>
      </trkpt>
      <trkpt lat="46.12926" lon="6.77697">
        <ele>2002.52</ele>
        <time>2026-02-22T11:33:25Z</time>
      </trkpt>
      <trkpt lat="46.12925" lon="6.777">
        <ele>2003.497</ele>
        <time>2026-02-22T11:33:30Z</time>
      </trkpt>
      <trkpt lat="46.12925" lon="6.77704">
        <ele>2004.968</ele>
        <time>2026-02-22T11:33:35Z</time>
      </trkpt>
      <trkpt lat="46.12924" lon="6.77706">
        <ele>2004.864</ele>
        <time>2026-02-22T11:33:40Z</time>
      </trkpt>
      <trkpt lat="46.12924" lon="6.77709">
        <ele>2005.048</ele>
        <time>2026-02-22T11:33:45Z</time>
      </trkpt>
      <trkpt lat="46.12924" lon="6.77713">
        <ele>2005.539</ele>
        <time>2026-02-22T11:33:50Z</time>
      </trkpt>
      <trkpt lat="46.12924" lon="6.77716">
        <ele>2004.641</ele>
        <time>2026-02-22T11:33:55Z</time>
      </trkpt>
      <trkpt lat="46.12924" lon="6.7772">
        <ele>2005.136</ele>
        <time>2026-02-22T11:34:00Z</time>
      </trkpt>
      <trkpt lat="46.12924" lon="6.77723">
        <ele>2005.609</ele>
        <time>2026-02-22T11:34:05Z</time>
      </trkpt>
      <trkpt lat="46.12924" lon="6.77726">
        <ele>2006.628</ele>
        <time>2026-02-22T11:34:10Z</time>
      </trkpt>
      <trkpt lat="46.12924" lon="6.77729">
        <ele>2006.845</ele>
        <time>2026-02-22T11:34:15Z</time>
      </trkpt>
      <trkpt lat="46.12924" lon="6.77734">
        <ele>2008.341</ele>
        <time>2026-02-22T11:34:20Z</time>
      </trkpt>
      <trkpt lat="46.12924" lon="6.77738">
        <ele>2008.234</ele>
        <time>2026-02-22T11:34:25Z</time>
      </trkpt>
      <trkpt lat="46.12924" lon="6.77742">
        <ele>2009.429</ele>
        <time>2026-02-22T11:34:30Z</time>
      </trkpt>
      <trkpt lat="46.12924" lon="6.77746">
        <ele>2009.939</ele>
        <time>2026-02-22T11:34:35Z</time>
      </trkpt>
      <trkpt lat="46.12925" lon="6.77748">
        <ele>2011.224</ele>
        <time>2026-02-22T11:34:40Z</time>
      </trkpt>
      <trkpt lat="46.12925" lon="6.77749">
        <ele>2011.464</ele>
        <time>2026-02-22T11:34:45Z</time>
      </trkpt>
      <trkpt lat="46.12925" lon="6.77751">
        <ele>2011.695</ele>
        <time>2026-02-22T11:34:50Z</time>
      </trkpt>
      <trkpt lat="46.12926" lon="6.77754">
        <ele>2011.763</ele>
        <time>2026-02-22T11:34:55Z</time>
      </trkpt>
      <trkpt lat="46.12926" lon="6.77755">
        <ele>2012.13</ele>
        <time>2026-02-22T11:35:00Z</time>
      </trkpt>
      <trkpt lat="46.12927" lon="6.77756">
        <ele>2012.427</ele>
        <time>2026-02-22T11:35:05Z</time>
      </trkpt>
      <trkpt lat="46.12927" lon="6.77756">
        <ele>2012.428</ele>
        <time>2026-02-22T11:35:10Z</time>
      </trkpt>
      <trkpt lat="46.12927" lon="6.77756">
        <ele>2012.435</ele>
        <time>2026-02-22T11:35:15Z</time>
      </trkpt>
      <trkpt lat="46.12927" lon="6.77756">
        <ele>2012.445</ele>
        <time>2026-02-22T11:35:20Z</time>
      </trkpt>
      <trkpt lat="46.12927" lon="6.77756">
        <ele>2012.085</ele>
        <time>2026-02-22T11:35:25Z</time>
      </trkpt>
      <trkpt lat="46.12927" lon="6.77756">
        <ele>2012.089</ele>
        <time>2026-02-22T11:35:30Z</time>
      </trkpt>
      <trkpt lat="46.12927" lon="6.77756">
        <ele>2012.084</ele>
        <time>2026-02-22T11:35:35Z</time>
      </trkpt>
      <trkpt lat="46.12927" lon="6.77756">
        <ele>2012.043</ele>
        <time>2026-02-22T11:35:40Z</time>
      </trkpt>
      <trkpt lat="46.12927" lon="6.77756">
        <ele>2011.974</ele>
        <time>2026-02-22T11:35:45Z</time>
      </trkpt>
      <trkpt lat="46.12927" lon="6.77756">
        <ele>2011.978</ele>
        <time>2026-02-22T11:35:50Z</time>
      </trkpt>
      <trkpt lat="46.12927" lon="6.77756">
        <ele>2011.989</ele>
        <time>2026-02-22T11:35:55Z</time>
      </trkpt>
      <trkpt lat="46.12927" lon="6.77756">
        <ele>2012.003</ele>
        <time>2026-02-22T11:36:00Z</time>
      </trkpt>
      <trkpt lat="46.12927" lon="6.77756">
        <ele>2012.026</ele>
        <time>2026-02-22T11:36:05Z</time>
      </trkpt>
      <trkpt lat="46.12927" lon="6.77756">
        <ele>2012.031</ele>
        <time>2026-02-22T11:36:10Z</time>
      </trkpt>
      <trkpt lat="46.12928" lon="6.77757">
        <ele>2011.983</ele>
        <time>2026-02-22T11:36:15Z</time>
      </trkpt>
      <trkpt lat="46.12928" lon="6.77757">
        <ele>2011.991</ele>
        <time>2026-02-22T11:36:20Z</time>
      </trkpt>
      <trkpt lat="46.12928" lon="6.77757">
        <ele>2011.91</ele>
        <time>2026-02-22T11:36:25Z</time>
      </trkpt>
      <trkpt lat="46.12928" lon="6.77757">
        <ele>2011.951</ele>
        <time>2026-02-22T11:36:30Z</time>
      </trkpt>
      <trkpt lat="46.12928" lon="6.77757">
        <ele>2011.981</ele>
        <time>2026-02-22T11:36:35Z</time>
      </trkpt>
      <trkpt lat="46.12928" lon="6.77757">
        <ele>2012.01</ele>
        <time>2026-02-22T11:36:40Z</time>
      </trkpt>
      <trkpt lat="46.12928" lon="6.77757">
        <ele>2012.116</ele>
        <time>2026-02-22T11:36:45Z</time>
      </trkpt>
      <trkpt lat="46.12928" lon="6.77757">
        <ele>2011.97</ele>
        <time>2026-02-22T11:36:50Z</time>
      </trkpt>
      <trkpt lat="46.12931" lon="6.77759">
        <ele>2012.563</ele>
        <time>2026-02-22T11:36:55Z</time>
      </trkpt>
      <trkpt lat="46.12934" lon="6.77761">
        <ele>2013.392</ele>
        <time>2026-02-22T11:37:00Z</time>
      </trkpt>
      <trkpt lat="46.12937" lon="6.77763">
        <ele>2013.904</ele>
        <time>2026-02-22T11:37:05Z</time>
      </trkpt>
      <trkpt lat="46.1294" lon="6.77765">
        <ele>2015.27</ele>
        <time>2026-02-22T11:37:10Z</time>
      </trkpt>
      <trkpt lat="46.12942" lon="6.77767">
        <ele>2016.266</ele>
        <time>2026-02-22T11:37:15Z</time>
      </trkpt>
      <trkpt lat="46.12944" lon="6.77769">
        <ele>2017.561</ele>
        <time>2026-02-22T11:37:20Z</time>
      </trkpt>
      <trkpt lat="46.12946" lon="6.7777">
        <ele>2018.62</ele>
        <time>2026-02-22T11:37:25Z</time>
      </trkpt>
      <trkpt lat="46.12948" lon="6.77771">
        <ele>2019.224</ele>
        <time>2026-02-22T11:37:30Z</time>
      </trkpt>
      <trkpt lat="46.1295" lon="6.77772">
        <ele>2019.491</ele>
        <time>2026-02-22T11:37:35Z</time>
      </trkpt>
      <trkpt lat="46.12952" lon="6.77774">
        <ele>2020.995</ele>
        <time>2026-02-22T11:37:40Z</time>
      </trkpt>
      <trkpt lat="46.12953" lon="6.77776">
        <ele>2021.653</ele>
        <time>2026-02-22T11:37:45Z</time>
      </trkpt>
      <trkpt lat="46.12953" lon="6.77779">
        <ele>2022.489</ele>
        <time>2026-02-22T11:37:50Z</time>
      </trkpt>
      <trkpt lat="46.12953" lon="6.77782">
        <ele>2023.41</ele>
        <time>2026-02-22T11:37:55Z</time>
      </trkpt>
      <trkpt lat="46.12954" lon="6.77784">
        <ele>2023.692</ele>
        <time>2026-02-22T11:38:00Z</time>
      </trkpt>
      <trkpt lat="46.12955" lon="6.77787">
        <ele>2025.106</ele>
        <time>2026-02-22T11:38:05Z</time>
      </trkpt>
      <trkpt lat="46.12955" lon="6.7779">
        <ele>2025.574</ele>
        <time>2026-02-22T11:38:10Z</time>
      </trkpt>
      <trkpt lat="46.12955" lon="6.77792">
        <ele>2026.53</ele>
        <time>2026-02-22T11:38:15Z</time>
      </trkpt>
      <trkpt lat="46.12955" lon="6.77795">
        <ele>2027.493</ele>
        <time>2026-02-22T11:38:20Z</time>
      </trkpt>
      <trkpt lat="46.12956" lon="6.77799">
        <ele>2028.034</ele>
        <time>2026-02-22T11:38:25Z</time>
      </trkpt>
      <trkpt lat="46.12957" lon="6.77802">
        <ele>2028.463</ele>
        <time>2026-02-22T11:38:30Z</time>
      </trkpt>
      <trkpt lat="46.12957" lon="6.77806">
        <ele>2029.452</ele>
        <time>2026-02-22T11:38:35Z</time>
      </trkpt>
      <trkpt lat="46.12958" lon="6.77808">
        <ele>2030.501</ele>
        <time>2026-02-22T11:38:40Z</time>
      </trkpt>
      <trkpt lat="46.12959" lon="6.77812">
        <ele>2031.419</ele>
        <time>2026-02-22T11:38:45Z</time>
      </trkpt>
      <trkpt lat="46.12962" lon="6.77814">
        <ele>2032.541</ele>
        <time>2026-02-22T11:38:50Z</time>
      </trkpt>
      <trkpt lat="46.12964" lon="6.77815">
        <ele>2032.707</ele>
        <time>2026-02-22T11:38:55Z</time>
      </trkpt>
      <trkpt lat="46.12966" lon="6.77814">
        <ele>2032.98</ele>
        <time>2026-02-22T11:39:00Z</time>
      </trkpt>
      <trkpt lat="46.12969" lon="6.77811">
        <ele>2033.426</ele>
        <time>2026-02-22T11:39:05Z</time>
      </trkpt>
      <trkpt lat="46.12972" lon="6.77809">
        <ele>2033.985</ele>
        <time>2026-02-22T11:39:10Z</time>
      </trkpt>
      <trkpt lat="46.12974" lon="6.77807">
        <ele>2035.238</ele>
        <time>2026-02-22T11:39:15Z</time>
      </trkpt>
      <trkpt lat="46.12976" lon="6.77804">
        <ele>2036.268</ele>
        <time>2026-02-22T11:39:20Z</time>
      </trkpt>
      <trkpt lat="46.12977" lon="6.77801">
        <ele>2037.125</ele>
        <time>2026-02-22T11:39:25Z</time>
      </trkpt>
      <trkpt lat="46.12978" lon="6.77798">
        <ele>2038.269</ele>
        <time>2026-02-22T11:39:30Z</time>
      </trkpt>
      <trkpt lat="46.1298" lon="6.77795">
        <ele>2039.33</ele>
        <time>2026-02-22T11:39:35Z</time>
      </trkpt>
      <trkpt lat="46.12982" lon="6.77792">
        <ele>2040.194</ele>
        <time>2026-02-22T11:39:40Z</time>
      </trkpt>
      <trkpt lat="46.12982" lon="6.77792">
        <ele>2040.388</ele>
        <time>2026-02-22T11:39:45Z</time>
      </trkpt>
      <trkpt lat="46.12983" lon="6.77795">
        <ele>2041.068</ele>
        <time>2026-02-22T11:39:50Z</time>
      </trkpt>
      <trkpt lat="46.12984" lon="6.77797">
        <ele>2041.99</ele>
        <time>2026-02-22T11:39:55Z</time>
      </trkpt>
      <trkpt lat="46.12985" lon="6.77799">
        <ele>2042.095</ele>
        <time>2026-02-22T11:40:00Z</time>
      </trkpt>
      <trkpt lat="46.12986" lon="6.77803">
        <ele>2042.522</ele>
        <time>2026-02-22T11:40:05Z</time>
      </trkpt>
      <trkpt lat="46.12987" lon="6.77805">
        <ele>2043.107</ele>
        <time>2026-02-22T11:40:10Z</time>
      </trkpt>
      <trkpt lat="46.12989" lon="6.77807">
        <ele>2043.807</ele>
        <time>2026-02-22T11:40:15Z</time>
      </trkpt>
      <trkpt lat="46.12991" lon="6.77809">
        <ele>2044.475</ele>
        <time>2026-02-22T11:40:20Z</time>
      </trkpt>
      <trkpt lat="46.12993" lon="6.77811">
        <ele>2045.112</ele>
        <time>2026-02-22T11:40:25Z</time>
      </trkpt>
      <trkpt lat="46.12994" lon="6.77813">
        <ele>2045.595</ele>
        <time>2026-02-22T11:40:30Z</time>
      </trkpt>
      <trkpt lat="46.12997" lon="6.77813">
        <ele>2045.942</ele>
        <time>2026-02-22T11:40:35Z</time>
      </trkpt>
      <trkpt lat="46.12998" lon="6.7781">
        <ele>2046.709</ele>
        <time>2026-02-22T11:40:40Z</time>
      </trkpt>
      <trkpt lat="46.12999" lon="6.77806">
        <ele>2046.876</ele>
        <time>2026-02-22T11:40:45Z</time>
      </trkpt>
      <trkpt lat="46.13" lon="6.77802">
        <ele>2047.883</ele>
        <time>2026-02-22T11:40:50Z</time>
      </trkpt>
      <trkpt lat="46.13" lon="6.77799">
        <ele>2047.913</ele>
        <time>2026-02-22T11:40:55Z</time>
      </trkpt>
      <trkpt lat="46.13001" lon="6.77796">
        <ele>2048.731</ele>
        <time>2026-02-22T11:41:00Z</time>
      </trkpt>
      <trkpt lat="46.13001" lon="6.77792">
        <ele>2049.323</ele>
        <time>2026-02-22T11:41:05Z</time>
      </trkpt>
      <trkpt lat="46.13001" lon="6.77789">
        <ele>2051.013</ele>
        <time>2026-02-22T11:41:10Z</time>
      </trkpt>
      <trkpt lat="46.13002" lon="6.77787">
        <ele>2051.854</ele>
        <time>2026-02-22T11:41:15Z</time>
      </trkpt>
      <trkpt lat="46.13003" lon="6.77784">
        <ele>2053.334</ele>
        <time>2026-02-22T11:41:20Z</time>
      </trkpt>
      <trkpt lat="46.13004" lon="6.77781">
        <ele>2053.538</ele>
        <time>2026-02-22T11:41:25Z</time>
      </trkpt>
      <trkpt lat="46.13005" lon="6.77779">
        <ele>2053.61</ele>
        <time>2026-02-22T11:41:30Z</time>
      </trkpt>
      <trkpt lat="46.13007" lon="6.77778">
        <ele>2053.495</ele>
        <time>2026-02-22T11:41:35Z</time>
      </trkpt>
      <trkpt lat="46.13008" lon="6.77776">
        <ele>2053.399</ele>
        <time>2026-02-22T11:41:40Z</time>
      </trkpt>
      <trkpt lat="46.13009" lon="6.77775">
        <ele>2054.139</ele>
        <time>2026-02-22T11:41:45Z</time>
      </trkpt>
      <trkpt lat="46.13011" lon="6.77774">
        <ele>2053.926</ele>
        <time>2026-02-22T11:41:50Z</time>
      </trkpt>
      <trkpt lat="46.13012" lon="6.77776">
        <ele>2054.723</ele>
        <time>2026-02-22T11:41:55Z</time>
      </trkpt>
      <trkpt lat="46.13012" lon="6.7778">
        <ele>2055.763</ele>
        <time>2026-02-22T11:42:00Z</time>
      </trkpt>
      <trkpt lat="46.13014" lon="6.77782">
        <ele>2056.116</ele>
        <time>2026-02-22T11:42:05Z</time>
      </trkpt>
      <trkpt lat="46.13015" lon="6.77785">
        <ele>2056.075</ele>
        <time>2026-02-22T11:42:10Z</time>
      </trkpt>
      <trkpt lat="46.13017" lon="6.77787">
        <ele>2056.502</ele>
        <time>2026-02-22T11:42:15Z</time>
      </trkpt>
      <trkpt lat="46.13019" lon="6.77787">
        <ele>2057.236</ele>
        <time>2026-02-22T11:42:20Z</time>
      </trkpt>
      <trkpt lat="46.1302" lon="6.77785">
        <ele>2058.399</ele>
        <time>2026-02-22T11:42:25Z</time>
      </trkpt>
      <trkpt lat="46.13023" lon="6.77784">
        <ele>2059.199</ele>
        <time>2026-02-22T11:42:30Z</time>
      </trkpt>
      <trkpt lat="46.13024" lon="6.77783">
        <ele>2060.562</ele>
        <time>2026-02-22T11:42:35Z</time>
      </trkpt>
      <trkpt lat="46.13026" lon="6.77781">
        <ele>2060.731</ele>
        <time>2026-02-22T11:42:40Z</time>
      </trkpt>
      <trkpt lat="46.13028" lon="6.7778">
        <ele>2061.344</ele>
        <time>2026-02-22T11:42:45Z</time>
      </trkpt>
      <trkpt lat="46.1303" lon="6.77779">
        <ele>2062.199</ele>
        <time>2026-02-22T11:42:50Z</time>
      </trkpt>
      <trkpt lat="46.13032" lon="6.77778">
        <ele>2062.963</ele>
        <time>2026-02-22T11:42:55Z</time>
      </trkpt>
      <trkpt lat="46.13034" lon="6.77777">
        <ele>2063.313</ele>
        <time>2026-02-22T11:43:00Z</time>
      </trkpt>
      <trkpt lat="46.13036" lon="6.77776">
        <ele>2063.383</ele>
        <time>2026-02-22T11:43:05Z</time>
      </trkpt>
      <trkpt lat="46.13037" lon="6.77775">
        <ele>2064.188</ele>
        <time>2026-02-22T11:43:10Z</time>
      </trkpt>
      <trkpt lat="46.13039" lon="6.77775">
        <ele>2064.825</ele>
        <time>2026-02-22T11:43:15Z</time>
      </trkpt>
      <trkpt lat="46.1304" lon="6.77776">
        <ele>2065.473</ele>
        <time>2026-02-22T11:43:20Z</time>
      </trkpt>
      <trkpt lat="46.13041" lon="6.77778">
        <ele>2066.145</ele>
        <time>2026-02-22T11:43:25Z</time>
      </trkpt>
      <trkpt lat="46.13041" lon="6.7778">
        <ele>2066.515</ele>
        <time>2026-02-22T11:43:30Z</time>
      </trkpt>
      <trkpt lat="46.13042" lon="6.77781">
        <ele>2067.026</ele>
        <time>2026-02-22T11:43:35Z</time>
      </trkpt>
      <trkpt lat="46.13042" lon="6.77782">
        <ele>2067.621</ele>
        <time>2026-02-22T11:43:40Z</time>
      </trkpt>
      <trkpt lat="46.13043" lon="6.77784">
        <ele>2068.213</ele>
        <time>2026-02-22T11:43:45Z</time>
      </trkpt>
      <trkpt lat="46.13044" lon="6.77787">
        <ele>2068.376</ele>
        <time>2026-02-22T11:43:50Z</time>
      </trkpt>
      <trkpt lat="46.13045" lon="6.77789">
        <ele>2069.403</ele>
        <time>2026-02-22T11:43:55Z</time>
      </trkpt>
      <trkpt lat="46.13046" lon="6.77792">
        <ele>2069.966</ele>
        <time>2026-02-22T11:44:00Z</time>
      </trkpt>
      <trkpt lat="46.13047" lon="6.77794">
        <ele>2070.987</ele>
        <time>2026-02-22T11:44:05Z</time>
      </trkpt>
      <trkpt lat="46.13048" lon="6.77797">
        <ele>2072.291</ele>
        <time>2026-02-22T11:44:10Z</time>
      </trkpt>
      <trkpt lat="46.1305" lon="6.77799">
        <ele>2072.703</ele>
        <time>2026-02-22T11:44:15Z</time>
      </trkpt>
      <trkpt lat="46.13051" lon="6.77802">
        <ele>2073.162</ele>
        <time>2026-02-22T11:44:20Z</time>
      </trkpt>
      <trkpt lat="46.13051" lon="6.77805">
        <ele>2074.113</ele>
        <time>2026-02-22T11:44:25Z</time>
      </trkpt>
      <trkpt lat="46.13053" lon="6.77807">
        <ele>2074.824</ele>
        <time>2026-02-22T11:44:30Z</time>
      </trkpt>
      <trkpt lat="46.13054" lon="6.7781">
        <ele>2076.26</ele>
        <time>2026-02-22T11:44:35Z</time>
      </trkpt>
      <trkpt lat="46.13055" lon="6.77812">
        <ele>2076.724</ele>
        <time>2026-02-22T11:44:40Z</time>
      </trkpt>
      <trkpt lat="46.13056" lon="6.77814">
        <ele>2077.398</ele>
        <time>2026-02-22T11:44:45Z</time>
      </trkpt>
      <trkpt lat="46.13057" lon="6.77816">
        <ele>2077.852</ele>
        <time>2026-02-22T11:44:50Z</time>
      </trkpt>
      <trkpt lat="46.13058" lon="6.77818">
        <ele>2078.567</ele>
        <time>2026-02-22T11:44:55Z</time>
      </trkpt>
      <trkpt lat="46.13059" lon="6.77821">
        <ele>2079.604</ele>
        <time>2026-02-22T11:45:00Z</time>
      </trkpt>
      <trkpt lat="46.1306" lon="6.77823">
        <ele>2080.519</ele>
        <time>2026-02-22T11:45:05Z</time>
      </trkpt>
      <trkpt lat="46.1306" lon="6.77826">
        <ele>2080.877</ele>
        <time>2026-02-22T11:45:10Z</time>
      </trkpt>
      <trkpt lat="46.13061" lon="6.77829">
        <ele>2082.065</ele>
        <time>2026-02-22T11:45:15Z</time>
      </trkpt>
      <trkpt lat="46.13063" lon="6.77832">
        <ele>2082.541</ele>
        <time>2026-02-22T11:45:20Z</time>
      </trkpt>
      <trkpt lat="46.13064" lon="6.77834">
        <ele>2083.28</ele>
        <time>2026-02-22T11:45:25Z</time>
      </trkpt>
      <trkpt lat="46.13064" lon="6.77837">
        <ele>2084.234</ele>
        <time>2026-02-22T11:45:30Z</time>
      </trkpt>
      <trkpt lat="46.13065" lon="6.77838">
        <ele>2084.694</ele>
        <time>2026-02-22T11:45:35Z</time>
      </trkpt>
      <trkpt lat="46.13066" lon="6.7784">
        <ele>2085.208</ele>
        <time>2026-02-22T11:45:40Z</time>
      </trkpt>
      <trkpt lat="46.13068" lon="6.77844">
        <ele>2085.484</ele>
        <time>2026-02-22T11:45:45Z</time>
      </trkpt>
      <trkpt lat="46.13068" lon="6.77845">
        <ele>2085.733</ele>
        <time>2026-02-22T11:45:50Z</time>
      </trkpt>
      <trkpt lat="46.13069" lon="6.77849">
        <ele>2086.071</ele>
        <time>2026-02-22T11:45:55Z</time>
      </trkpt>
      <trkpt lat="46.13071" lon="6.77852">
        <ele>2086.627</ele>
        <time>2026-02-22T11:46:00Z</time>
      </trkpt>
      <trkpt lat="46.13073" lon="6.77856">
        <ele>2086.77</ele>
        <time>2026-02-22T11:46:05Z</time>
      </trkpt>
      <trkpt lat="46.13074" lon="6.77859">
        <ele>2087.346</ele>
        <time>2026-02-22T11:46:10Z</time>
      </trkpt>
      <trkpt lat="46.13076" lon="6.77861">
        <ele>2088.427</ele>
        <time>2026-02-22T11:46:15Z</time>
      </trkpt>
      <trkpt lat="46.13077" lon="6.77862">
        <ele>2089.392</ele>
        <time>2026-02-22T11:46:20Z</time>
      </trkpt>
      <trkpt lat="46.13078" lon="6.77864">
        <ele>2090.148</ele>
        <time>2026-02-22T11:46:25Z</time>
      </trkpt>
      <trkpt lat="46.1308" lon="6.77867">
        <ele>2090.517</ele>
        <time>2026-02-22T11:46:30Z</time>
      </trkpt>
      <trkpt lat="46.13081" lon="6.77872">
        <ele>2090.687</ele>
        <time>2026-02-22T11:46:35Z</time>
      </trkpt>
      <trkpt lat="46.13082" lon="6.77877">
        <ele>2091.054</ele>
        <time>2026-02-22T11:46:40Z</time>
      </trkpt>
      <trkpt lat="46.13083" lon="6.77881">
        <ele>2091.506</ele>
        <time>2026-02-22T11:46:45Z</time>
      </trkpt>
      <trkpt lat="46.13084" lon="6.77884">
        <ele>2091.758</ele>
        <time>2026-02-22T11:46:50Z</time>
      </trkpt>
      <trkpt lat="46.13086" lon="6.77887">
        <ele>2091.239</ele>
        <time>2026-02-22T11:46:55Z</time>
      </trkpt>
      <trkpt lat="46.13087" lon="6.77891">
        <ele>2091.413</ele>
        <time>2026-02-22T11:47:00Z</time>
      </trkpt>
      <trkpt lat="46.13088" lon="6.77895">
        <ele>2092.047</ele>
        <time>2026-02-22T11:47:05Z</time>
      </trkpt>
      <trkpt lat="46.1309" lon="6.77899">
        <ele>2092.527</ele>
        <time>2026-02-22T11:47:10Z</time>
      </trkpt>
      <trkpt lat="46.13092" lon="6.77903">
        <ele>2093.011</ele>
        <time>2026-02-22T11:47:15Z</time>
      </trkpt>
      <trkpt lat="46.13093" lon="6.77907">
        <ele>2093.609</ele>
        <time>2026-02-22T11:47:20Z</time>
      </trkpt>
      <trkpt lat="46.13095" lon="6.77912">
        <ele>2093.677</ele>
        <time>2026-02-22T11:47:25Z</time>
      </trkpt>
      <trkpt lat="46.13096" lon="6.77915">
        <ele>2093.313</ele>
        <time>2026-02-22T11:47:30Z</time>
      </trkpt>
      <trkpt lat="46.13097" lon="6.7792">
        <ele>2094.19</ele>
        <time>2026-02-22T11:47:35Z</time>
      </trkpt>
      <trkpt lat="46.13098" lon="6.77924">
        <ele>2094.834</ele>
        <time>2026-02-22T11:47:40Z</time>
      </trkpt>
      <trkpt lat="46.131" lon="6.77927">
        <ele>2095.479</ele>
        <time>2026-02-22T11:47:45Z</time>
      </trkpt>
      <trkpt lat="46.13101" lon="6.77931">
        <ele>2095.108</ele>
        <time>2026-02-22T11:47:50Z</time>
      </trkpt>
      <trkpt lat="46.13102" lon="6.77935">
        <ele>2094.973</ele>
        <time>2026-02-22T11:47:55Z</time>
      </trkpt>
      <trkpt lat="46.13103" lon="6.7794">
        <ele>2095.588</ele>
        <time>2026-02-22T11:48:00Z</time>
      </trkpt>
      <trkpt lat="46.13104" lon="6.77945">
        <ele>2096.294</ele>
        <time>2026-02-22T11:48:05Z</time>
      </trkpt>
      <trkpt lat="46.13106" lon="6.77949">
        <ele>2096.456</ele>
        <time>2026-02-22T11:48:10Z</time>
      </trkpt>
      <trkpt lat="46.13107" lon="6.77953">
        <ele>2096.271</ele>
        <time>2026-02-22T11:48:15Z</time>
      </trkpt>
      <trkpt lat="46.13107" lon="6.77954">
        <ele>2096.518</ele>
        <time>2026-02-22T11:48:20Z</time>
      </trkpt>
      <trkpt lat="46.13107" lon="6.77955">
        <ele>2096.525</ele>
        <time>2026-02-22T11:48:25Z</time>
      </trkpt>
      <trkpt lat="46.13108" lon="6.7796">
        <ele>2096.284</ele>
        <time>2026-02-22T11:48:30Z</time>
      </trkpt>
      <trkpt lat="46.13109" lon="6.77963">
        <ele>2097.812</ele>
        <time>2026-02-22T11:48:35Z</time>
      </trkpt>
      <trkpt lat="46.1311" lon="6.77967">
        <ele>2098.181</ele>
        <time>2026-02-22T11:48:40Z</time>
      </trkpt>
      <trkpt lat="46.13111" lon="6.77971">
        <ele>2098.927</ele>
        <time>2026-02-22T11:48:45Z</time>
      </trkpt>
      <trkpt lat="46.13112" lon="6.77974">
        <ele>2098.7</ele>
        <time>2026-02-22T11:48:50Z</time>
      </trkpt>
      <trkpt lat="46.13113" lon="6.77977">
        <ele>2098.809</ele>
        <time>2026-02-22T11:48:55Z</time>
      </trkpt>
      <trkpt lat="46.13113" lon="6.77981">
        <ele>2099.418</ele>
        <time>2026-02-22T11:49:00Z</time>
      </trkpt>
      <trkpt lat="46.13114" lon="6.77984">
        <ele>2100.098</ele>
        <time>2026-02-22T11:49:05Z</time>
      </trkpt>
      <trkpt lat="46.13115" lon="6.77988">
        <ele>2100.728</ele>
        <time>2026-02-22T11:49:10Z</time>
      </trkpt>
      <trkpt lat="46.13115" lon="6.7799">
        <ele>2100.859</ele>
        <time>2026-02-22T11:49:15Z</time>
      </trkpt>
      <trkpt lat="46.13115" lon="6.77993">
        <ele>2100.824</ele>
        <time>2026-02-22T11:49:20Z</time>
      </trkpt>
      <trkpt lat="46.13116" lon="6.77997">
        <ele>2100.766</ele>
        <time>2026-02-22T11:49:25Z</time>
      </trkpt>
      <trkpt lat="46.13116" lon="6.78001">
        <ele>2100.762</ele>
        <time>2026-02-22T11:49:30Z</time>
      </trkpt>
      <trkpt lat="46.13116" lon="6.78006">
        <ele>2101.617</ele>
        <time>2026-02-22T11:49:35Z</time>
      </trkpt>
      <trkpt lat="46.13116" lon="6.78008">
        <ele>2101.503</ele>
        <time>2026-02-22T11:49:40Z</time>
      </trkpt>
      <trkpt lat="46.13116" lon="6.78013">
        <ele>2101.952</ele>
        <time>2026-02-22T11:49:45Z</time>
      </trkpt>
      <trkpt lat="46.13117" lon="6.78016">
        <ele>2102.375</ele>
        <time>2026-02-22T11:49:50Z</time>
      </trkpt>
      <trkpt lat="46.13118" lon="6.7802">
        <ele>2103.068</ele>
        <time>2026-02-22T11:49:55Z</time>
      </trkpt>
      <trkpt lat="46.13118" lon="6.78023">
        <ele>2103.846</ele>
        <time>2026-02-22T11:50:00Z</time>
      </trkpt>
      <trkpt lat="46.13119" lon="6.78027">
        <ele>2104.402</ele>
        <time>2026-02-22T11:50:05Z</time>
      </trkpt>
      <trkpt lat="46.13119" lon="6.7803">
        <ele>2105.514</ele>
        <time>2026-02-22T11:50:10Z</time>
      </trkpt>
      <trkpt lat="46.1312" lon="6.78033">
        <ele>2106.108</ele>
        <time>2026-02-22T11:50:15Z</time>
      </trkpt>
      <trkpt lat="46.13121" lon="6.78037">
        <ele>2106.918</ele>
        <time>2026-02-22T11:50:20Z</time>
      </trkpt>
      <trkpt lat="46.13122" lon="6.78041">
        <ele>2108.118</ele>
        <time>2026-02-22T11:50:25Z</time>
      </trkpt>
      <trkpt lat="46.13123" lon="6.78044">
        <ele>2108.388</ele>
        <time>2026-02-22T11:50:30Z</time>
      </trkpt>
      <trkpt lat="46.13124" lon="6.78048">
        <ele>2109.714</ele>
        <time>2026-02-22T11:50:35Z</time>
      </trkpt>
      <trkpt lat="46.13124" lon="6.78051">
        <ele>2110.092</ele>
        <time>2026-02-22T11:50:40Z</time>
      </trkpt>
      <trkpt lat="46.13125" lon="6.78054">
        <ele>2110.819</ele>
        <time>2026-02-22T11:50:45Z</time>
      </trkpt>
      <trkpt lat="46.13125" lon="6.78057">
        <ele>2110.953</ele>
        <time>2026-02-22T11:50:50Z</time>
      </trkpt>
      <trkpt lat="46.13126" lon="6.78061">
        <ele>2110.855</ele>
        <time>2026-02-22T11:50:55Z</time>
      </trkpt>
      <trkpt lat="46.13127" lon="6.78063">
        <ele>2111.068</ele>
        <time>2026-02-22T11:51:00Z</time>
      </trkpt>
      <trkpt lat="46.13127" lon="6.78067">
        <ele>2111.597</ele>
        <time>2026-02-22T11:51:05Z</time>
      </trkpt>
      <trkpt lat="46.13128" lon="6.78071">
        <ele>2112.632</ele>
        <time>2026-02-22T11:51:10Z</time>
      </trkpt>
      <trkpt lat="46.13129" lon="6.78075">
        <ele>2113.291</ele>
        <time>2026-02-22T11:51:15Z</time>
      </trkpt>
      <trkpt lat="46.13129" lon="6.78079">
        <ele>2113.734</ele>
        <time>2026-02-22T11:51:20Z</time>
      </trkpt>
      <trkpt lat="46.1313" lon="6.78082">
        <ele>2113.37</ele>
        <time>2026-02-22T11:51:25Z</time>
      </trkpt>
      <trkpt lat="46.1313" lon="6.78086">
        <ele>2114.105</ele>
        <time>2026-02-22T11:51:30Z</time>
      </trkpt>
      <trkpt lat="46.13131" lon="6.7809">
        <ele>2114.315</ele>
        <time>2026-02-22T11:51:35Z</time>
      </trkpt>
      <trkpt lat="46.13132" lon="6.78094">
        <ele>2115.258</ele>
        <time>2026-02-22T11:51:40Z</time>
      </trkpt>
      <trkpt lat="46.13132" lon="6.78097">
        <ele>2115.781</ele>
        <time>2026-02-22T11:51:45Z</time>
      </trkpt>
      <trkpt lat="46.13132" lon="6.78101">
        <ele>2115.983</ele>
        <time>2026-02-22T11:51:50Z</time>
      </trkpt>
      <trkpt lat="46.13132" lon="6.78105">
        <ele>2116.244</ele>
        <time>2026-02-22T11:51:55Z</time>
      </trkpt>
      <trkpt lat="46.13133" lon="6.78108">
        <ele>2116.577</ele>
        <time>2026-02-22T11:52:00Z</time>
      </trkpt>
      <trkpt lat="46.13133" lon="6.78111">
        <ele>2116.913</ele>
        <time>2026-02-22T11:52:05Z</time>
      </trkpt>
      <trkpt lat="46.13132" lon="6.78115">
        <ele>2116.973</ele>
        <time>2026-02-22T11:52:10Z</time>
      </trkpt>
      <trkpt lat="46.13132" lon="6.78119">
        <ele>2118.185</ele>
        <time>2026-02-22T11:52:15Z</time>
      </trkpt>
      <trkpt lat="46.13132" lon="6.78122">
        <ele>2118.468</ele>
        <time>2026-02-22T11:52:20Z</time>
      </trkpt>
      <trkpt lat="46.13133" lon="6.78126">
        <ele>2117.998</ele>
        <time>2026-02-22T11:52:25Z</time>
      </trkpt>
      <trkpt lat="46.13133" lon="6.78129">
        <ele>2119.023</ele>
        <time>2026-02-22T11:52:30Z</time>
      </trkpt>
      <trkpt lat="46.13133" lon="6.78133">
        <ele>2120.245</ele>
        <time>2026-02-22T11:52:35Z</time>
      </trkpt>
      <trkpt lat="46.13133" lon="6.78137">
        <ele>2120.173</ele>
        <time>2026-02-22T11:52:40Z</time>
      </trkpt>
      <trkpt lat="46.13133" lon="6.78141">
        <ele>2120.308</ele>
        <time>2026-02-22T11:52:45Z</time>
      </trkpt>
      <trkpt lat="46.13133" lon="6.78144">
        <ele>2121.571</ele>
        <time>2026-02-22T11:52:50Z</time>
      </trkpt>
      <trkpt lat="46.13133" lon="6.78148">
        <ele>2121.801</ele>
        <time>2026-02-22T11:52:55Z</time>
      </trkpt>
      <trkpt lat="46.13133" lon="6.78151">
        <ele>2122.266</ele>
        <time>2026-02-22T11:53:00Z</time>
      </trkpt>
      <trkpt lat="46.13133" lon="6.78154">
        <ele>2122.913</ele>
        <time>2026-02-22T11:53:05Z</time>
      </trkpt>
      <trkpt lat="46.13134" lon="6.78157">
        <ele>2123.865</ele>
        <time>2026-02-22T11:53:10Z</time>
      </trkpt>
      <trkpt lat="46.13135" lon="6.78161">
        <ele>2124.219</ele>
        <time>2026-02-22T11:53:15Z</time>
      </trkpt>
      <trkpt lat="46.13136" lon="6.78163">
        <ele>2124.21</ele>
        <time>2026-02-22T11:53:20Z</time>
      </trkpt>
      <trkpt lat="46.13136" lon="6.78167">
        <ele>2125.609</ele>
        <time>2026-02-22T11:53:25Z</time>
      </trkpt>
      <trkpt lat="46.13136" lon="6.78171">
        <ele>2126.892</ele>
        <time>2026-02-22T11:53:30Z</time>
      </trkpt>
      <trkpt lat="46.13136" lon="6.78175">
        <ele>2127.468</ele>
        <time>2026-02-22T11:53:35Z</time>
      </trkpt>
      <trkpt lat="46.13137" lon="6.78178">
        <ele>2128.725</ele>
        <time>2026-02-22T11:53:40Z</time>
      </trkpt>
      <trkpt lat="46.13137" lon="6.78182">
        <ele>2129.154</ele>
        <time>2026-02-22T11:53:45Z</time>
      </trkpt>
      <trkpt lat="46.13138" lon="6.78185">
        <ele>2129.409</ele>
        <time>2026-02-22T11:53:50Z</time>
      </trkpt>
      <trkpt lat="46.13138" lon="6.78188">
        <ele>2130.082</ele>
        <time>2026-02-22T11:53:55Z</time>
      </trkpt>
      <trkpt lat="46.13138" lon="6.78191">
        <ele>2130.434</ele>
        <time>2026-02-22T11:54:00Z</time>
      </trkpt>
      <trkpt lat="46.13139" lon="6.78194">
        <ele>2131.02</ele>
        <time>2026-02-22T11:54:05Z</time>
      </trkpt>
      <trkpt lat="46.13139" lon="6.78197">
        <ele>2131.73</ele>
        <time>2026-02-22T11:54:10Z</time>
      </trkpt>
      <trkpt lat="46.13139" lon="6.78201">
        <ele>2131.452</ele>
        <time>2026-02-22T11:54:15Z</time>
      </trkpt>
      <trkpt lat="46.13139" lon="6.78205">
        <ele>2132.287</ele>
        <time>2026-02-22T11:54:20Z</time>
      </trkpt>
      <trkpt lat="46.13139" lon="6.78208">
        <ele>2132.624</ele>
        <time>2026-02-22T11:54:25Z</time>
      </trkpt>
      <trkpt lat="46.13139" lon="6.78208">
        <ele>2132.618</ele>
        <time>2026-02-22T11:54:30Z</time>
      </trkpt>
      <trkpt lat="46.13139" lon="6.78212">
        <ele>2133.156</ele>
        <time>2026-02-22T11:54:35Z</time>
      </trkpt>
      <trkpt lat="46.13139" lon="6.78216">
        <ele>2133.414</ele>
        <time>2026-02-22T11:54:40Z</time>
      </trkpt>
      <trkpt lat="46.1314" lon="6.7822">
        <ele>2134.721</ele>
        <time>2026-02-22T11:54:45Z</time>
      </trkpt>
      <trkpt lat="46.1314" lon="6.78224">
        <ele>2135.536</ele>
        <time>2026-02-22T11:54:50Z</time>
      </trkpt>
      <trkpt lat="46.1314" lon="6.78227">
        <ele>2136.452</ele>
        <time>2026-02-22T11:54:55Z</time>
      </trkpt>
      <trkpt lat="46.1314" lon="6.7823">
        <ele>2136.526</ele>
        <time>2026-02-22T11:55:00Z</time>
      </trkpt>
      <trkpt lat="46.1314" lon="6.78234">
        <ele>2136.594</ele>
        <time>2026-02-22T11:55:05Z</time>
      </trkpt>
      <trkpt lat="46.1314" lon="6.78237">
        <ele>2136.854</ele>
        <time>2026-02-22T11:55:10Z</time>
      </trkpt>
      <trkpt lat="46.1314" lon="6.78241">
        <ele>2137.237</ele>
        <time>2026-02-22T11:55:15Z</time>
      </trkpt>
      <trkpt lat="46.13141" lon="6.78245">
        <ele>2137.965</ele>
        <time>2026-02-22T11:55:20Z</time>
      </trkpt>
      <trkpt lat="46.13141" lon="6.78249">
        <ele>2138.26</ele>
        <time>2026-02-22T11:55:25Z</time>
      </trkpt>
      <trkpt lat="46.13141" lon="6.78253">
        <ele>2138.562</ele>
        <time>2026-02-22T11:55:30Z</time>
      </trkpt>
      <trkpt lat="46.13141" lon="6.78257">
        <ele>2138.916</ele>
        <time>2026-02-22T11:55:35Z</time>
      </trkpt>
      <trkpt lat="46.13141" lon="6.78259">
        <ele>2139.128</ele>
        <time>2026-02-22T11:55:40Z</time>
      </trkpt>
      <trkpt lat="46.13142" lon="6.78263">
        <ele>2139.895</ele>
        <time>2026-02-22T11:55:45Z</time>
      </trkpt>
      <trkpt lat="46.13142" lon="6.78266">
        <ele>2139.833</ele>
        <time>2026-02-22T11:55:50Z</time>
      </trkpt>
      <trkpt lat="46.13143" lon="6.78269">
        <ele>2140.377</ele>
        <time>2026-02-22T11:55:55Z</time>
      </trkpt>
      <trkpt lat="46.13143" lon="6.78273">
        <ele>2141.583</ele>
        <time>2026-02-22T11:56:00Z</time>
      </trkpt>
      <trkpt lat="46.13144" lon="6.78278">
        <ele>2142.213</ele>
        <time>2026-02-22T11:56:05Z</time>
      </trkpt>
      <trkpt lat="46.13145" lon="6.78281">
        <ele>2144.047</ele>
        <time>2026-02-22T11:56:10Z</time>
      </trkpt>
      <trkpt lat="46.13146" lon="6.78283">
        <ele>2144.539</ele>
        <time>2026-02-22T11:56:15Z</time>
      </trkpt>
      <trkpt lat="46.13146" lon="6.78286">
        <ele>2145.1</ele>
        <time>2026-02-22T11:56:20Z</time>
      </trkpt>
      <trkpt lat="46.13147" lon="6.78289">
        <ele>2145.163</ele>
        <time>2026-02-22T11:56:25Z</time>
      </trkpt>
      <trkpt lat="46.13148" lon="6.78292">
        <ele>2145.473</ele>
        <time>2026-02-22T11:56:30Z</time>
      </trkpt>
      <trkpt lat="46.13149" lon="6.78296">
        <ele>2146.173</ele>
        <time>2026-02-22T11:56:35Z</time>
      </trkpt>
      <trkpt lat="46.13149" lon="6.78301">
        <ele>2147.415</ele>
        <time>2026-02-22T11:56:40Z</time>
      </trkpt>
      <trkpt lat="46.1315" lon="6.78304">
        <ele>2148.669</ele>
        <time>2026-02-22T11:56:45Z</time>
      </trkpt>
      <trkpt lat="46.13151" lon="6.78308">
        <ele>2149.107</ele>
        <time>2026-02-22T11:56:50Z</time>
      </trkpt>
      <trkpt lat="46.13152" lon="6.78311">
        <ele>2151.022</ele>
        <time>2026-02-22T11:56:55Z</time>
      </trkpt>
      <trkpt lat="46.13153" lon="6.78314">
        <ele>2151.09</ele>
        <time>2026-02-22T11:57:00Z</time>
      </trkpt>
      <trkpt lat="46.13154" lon="6.78318">
        <ele>2151.151</ele>
        <time>2026-02-22T11:57:05Z</time>
      </trkpt>
      <trkpt lat="46.13154" lon="6.78321">
        <ele>2151.108</ele>
        <time>2026-02-22T11:57:10Z</time>
      </trkpt>
      <trkpt lat="46.13156" lon="6.78324">
        <ele>2151.421</ele>
        <time>2026-02-22T11:57:15Z</time>
      </trkpt>
      <trkpt lat="46.13157" lon="6.78327">
        <ele>2151.286</ele>
        <time>2026-02-22T11:57:20Z</time>
      </trkpt>
      <trkpt lat="46.13158" lon="6.78329">
        <ele>2151.633</ele>
        <time>2026-02-22T11:57:25Z</time>
      </trkpt>
      <trkpt lat="46.13159" lon="6.78332">
        <ele>2153.019</ele>
        <time>2026-02-22T11:57:30Z</time>
      </trkpt>
      <trkpt lat="46.13161" lon="6.78335">
        <ele>2153.589</ele>
        <time>2026-02-22T11:57:35Z</time>
      </trkpt>
      <trkpt lat="46.13162" lon="6.78339">
        <ele>2154.756</ele>
        <time>2026-02-22T11:57:40Z</time>
      </trkpt>
      <trkpt lat="46.13164" lon="6.78342">
        <ele>2156.301</ele>
        <time>2026-02-22T11:57:45Z</time>
      </trkpt>
      <trkpt lat="46.13165" lon="6.78346">
        <ele>2157.022</ele>
        <time>2026-02-22T11:57:50Z</time>
      </trkpt>
      <trkpt lat="46.13166" lon="6.7835">
        <ele>2157.363</ele>
        <time>2026-02-22T11:57:55Z</time>
      </trkpt>
      <trkpt lat="46.13167" lon="6.78355">
        <ele>2157.871</ele>
        <time>2026-02-22T11:58:00Z</time>
      </trkpt>
      <trkpt lat="46.13169" lon="6.78358">
        <ele>2158.231</ele>
        <time>2026-02-22T11:58:05Z</time>
      </trkpt>
      <trkpt lat="46.1317" lon="6.78361">
        <ele>2158.449</ele>
        <time>2026-02-22T11:58:10Z</time>
      </trkpt>
      <trkpt lat="46.13172" lon="6.78363">
        <ele>2159.234</ele>
        <time>2026-02-22T11:58:15Z</time>
      </trkpt>
      <trkpt lat="46.13174" lon="6.78366">
        <ele>2160.564</ele>
        <time>2026-02-22T11:58:20Z</time>
      </trkpt>
      <trkpt lat="46.13176" lon="6.7837">
        <ele>2160.177</ele>
        <time>2026-02-22T11:58:25Z</time>
      </trkpt>
      <trkpt lat="46.13178" lon="6.78373">
        <ele>2160.918</ele>
        <time>2026-02-22T11:58:30Z</time>
      </trkpt>
      <trkpt lat="46.13179" lon="6.78376">
        <ele>2162.747</ele>
        <time>2026-02-22T11:58:35Z</time>
      </trkpt>
      <trkpt lat="46.13181" lon="6.7838">
        <ele>2163.041</ele>
        <time>2026-02-22T11:58:40Z</time>
      </trkpt>
      <trkpt lat="46.13182" lon="6.78384">
        <ele>2163.582</ele>
        <time>2026-02-22T11:58:45Z</time>
      </trkpt>
      <trkpt lat="46.13184" lon="6.78387">
        <ele>2164.264</ele>
        <time>2026-02-22T11:58:50Z</time>
      </trkpt>
      <trkpt lat="46.13186" lon="6.78389">
        <ele>2164.541</ele>
        <time>2026-02-22T11:58:55Z</time>
      </trkpt>
      <trkpt lat="46.13188" lon="6.78393">
        <ele>2165.065</ele>
        <time>2026-02-22T11:59:00Z</time>
      </trkpt>
      <trkpt lat="46.13189" lon="6.78397">
        <ele>2164.658</ele>
        <time>2026-02-22T11:59:05Z</time>
      </trkpt>
      <trkpt lat="46.13191" lon="6.784">
        <ele>2164.95</ele>
        <time>2026-02-22T11:59:10Z</time>
      </trkpt>
      <trkpt lat="46.13193" lon="6.78404">
        <ele>2164.746</ele>
        <time>2026-02-22T11:59:15Z</time>
      </trkpt>
      <trkpt lat="46.13195" lon="6.78409">
        <ele>2165.073</ele>
        <time>2026-02-22T11:59:20Z</time>
      </trkpt>
      <trkpt lat="46.13197" lon="6.78413">
        <ele>2164.886</ele>
        <time>2026-02-22T11:59:25Z</time>
      </trkpt>
      <trkpt lat="46.13199" lon="6.78418">
        <ele>2165.348</ele>
        <time>2026-02-22T11:59:30Z</time>
      </trkpt>
      <trkpt lat="46.132" lon="6.78422">
        <ele>2165.797</ele>
        <time>2026-02-22T11:59:35Z</time>
      </trkpt>
      <trkpt lat="46.13201" lon="6.78426">
        <ele>2167.132</ele>
        <time>2026-02-22T11:59:40Z</time>
      </trkpt>
      <trkpt lat="46.13203" lon="6.7843">
        <ele>2168.014</ele>
        <time>2026-02-22T11:59:45Z</time>
      </trkpt>
      <trkpt lat="46.13203" lon="6.78435">
        <ele>2168.99</ele>
        <time>2026-02-22T11:59:50Z</time>
      </trkpt>
      <trkpt lat="46.13204" lon="6.7844">
        <ele>2169.176</ele>
        <time>2026-02-22T11:59:55Z</time>
      </trkpt>
      <trkpt lat="46.13205" lon="6.78444">
        <ele>2168.793</ele>
        <time>2026-02-22T12:00:00Z</time>
      </trkpt>
      <trkpt lat="46.13206" lon="6.78449">
        <ele>2169.502</ele>
        <time>2026-02-22T12:00:05Z</time>
      </trkpt>
      <trkpt lat="46.13207" lon="6.78454">
        <ele>2169.874</ele>
        <time>2026-02-22T12:00:10Z</time>
      </trkpt>
      <trkpt lat="46.13208" lon="6.78457">
        <ele>2170.318</ele>
        <time>2026-02-22T12:00:15Z</time>
      </trkpt>
      <trkpt lat="46.13208" lon="6.78462">
        <ele>2170.785</ele>
        <time>2026-02-22T12:00:20Z</time>
      </trkpt>
      <trkpt lat="46.13209" lon="6.78466">
        <ele>2171.053</ele>
        <time>2026-02-22T12:00:25Z</time>
      </trkpt>
      <trkpt lat="46.13209" lon="6.78469">
        <ele>2171.184</ele>
        <time>2026-02-22T12:00:30Z</time>
      </trkpt>
      <trkpt lat="46.1321" lon="6.78473">
        <ele>2171.552</ele>
        <time>2026-02-22T12:00:35Z</time>
      </trkpt>
      <trkpt lat="46.13211" lon="6.78476">
        <ele>2172.207</ele>
        <time>2026-02-22T12:00:40Z</time>
      </trkpt>
      <trkpt lat="46.13211" lon="6.7848">
        <ele>2173.862</ele>
        <time>2026-02-22T12:00:45Z</time>
      </trkpt>
      <trkpt lat="46.13212" lon="6.78484">
        <ele>2174.323</ele>
        <time>2026-02-22T12:00:50Z</time>
      </trkpt>
      <trkpt lat="46.13212" lon="6.78488">
        <ele>2175.085</ele>
        <time>2026-02-22T12:00:55Z</time>
      </trkpt>
      <trkpt lat="46.13213" lon="6.78491">
        <ele>2174.91</ele>
        <time>2026-02-22T12:01:00Z</time>
      </trkpt>
      <trkpt lat="46.13214" lon="6.78494">
        <ele>2174.993</ele>
        <time>2026-02-22T12:01:05Z</time>
      </trkpt>
      <trkpt lat="46.13215" lon="6.78498">
        <ele>2176.294</ele>
        <time>2026-02-22T12:01:10Z</time>
      </trkpt>
      <trkpt lat="46.13216" lon="6.78503">
        <ele>2176.945</ele>
        <time>2026-02-22T12:01:15Z</time>
      </trkpt>
      <trkpt lat="46.13217" lon="6.78506">
        <ele>2177.662</ele>
        <time>2026-02-22T12:01:20Z</time>
      </trkpt>
      <trkpt lat="46.13217" lon="6.78509">
        <ele>2178.47</ele>
        <time>2026-02-22T12:01:25Z</time>
      </trkpt>
      <trkpt lat="46.13219" lon="6.78513">
        <ele>2179.039</ele>
        <time>2026-02-22T12:01:30Z</time>
      </trkpt>
      <trkpt lat="46.1322" lon="6.78516">
        <ele>2179.762</ele>
        <time>2026-02-22T12:01:35Z</time>
      </trkpt>
      <trkpt lat="46.13223" lon="6.7852">
        <ele>2179.856</ele>
        <time>2026-02-22T12:01:40Z</time>
      </trkpt>
      <trkpt lat="46.13224" lon="6.78523">
        <ele>2180.099</ele>
        <time>2026-02-22T12:01:45Z</time>
      </trkpt>
      <trkpt lat="46.13226" lon="6.78527">
        <ele>2181.018</ele>
        <time>2026-02-22T12:01:50Z</time>
      </trkpt>
      <trkpt lat="46.13228" lon="6.78529">
        <ele>2181.169</ele>
        <time>2026-02-22T12:01:55Z</time>
      </trkpt>
      <trkpt lat="46.13228" lon="6.78531">
        <ele>2181.031</ele>
        <time>2026-02-22T12:02:00Z</time>
      </trkpt>
      <trkpt lat="46.13228" lon="6.78531">
        <ele>2181.015</ele>
        <time>2026-02-22T12:02:05Z</time>
      </trkpt>
      <trkpt lat="46.13229" lon="6.78533">
        <ele>2180.482</ele>
        <time>2026-02-22T12:02:10Z</time>
      </trkpt>
      <trkpt lat="46.13229" lon="6.78534">
        <ele>2180.839</ele>
        <time>2026-02-22T12:02:15Z</time>
      </trkpt>
      <trkpt lat="46.13228" lon="6.78534">
        <ele>2180.525</ele>
        <time>2026-02-22T12:02:20Z</time>
      </trkpt>
      <trkpt lat="46.13228" lon="6.78534">
        <ele>2180.526</ele>
        <time>2026-02-22T12:02:25Z</time>
      </trkpt>
      <trkpt lat="46.13228" lon="6.78534">
        <ele>2180.67</ele>
        <time>2026-02-22T12:02:30Z</time>
      </trkpt>
      <trkpt lat="46.13228" lon="6.78534">
        <ele>2180.677</ele>
        <time>2026-02-22T12:02:35Z</time>
      </trkpt>
      <trkpt lat="46.13228" lon="6.78534">
        <ele>2180.678</ele>
        <time>2026-02-22T12:02:40Z</time>
      </trkpt>
      <trkpt lat="46.13228" lon="6.78534">
        <ele>2180.681</ele>
        <time>2026-02-22T12:02:45Z</time>
      </trkpt>
      <trkpt lat="46.13228" lon="6.78534">
        <ele>2180.691</ele>
        <time>2026-02-22T12:02:50Z</time>
      </trkpt>
      <trkpt lat="46.13228" lon="6.78534">
        <ele>2180.705</ele>
        <time>2026-02-22T12:02:55Z</time>
      </trkpt>
      <trkpt lat="46.13228" lon="6.78534">
        <ele>2180.717</ele>
        <time>2026-02-22T12:03:00Z</time>
      </trkpt>
      <trkpt lat="46.13228" lon="6.78534">
        <ele>2180.722</ele>
        <time>2026-02-22T12:03:05Z</time>
      </trkpt>
      <trkpt lat="46.13228" lon="6.78534">
        <ele>2180.504</ele>
        <time>2026-02-22T12:03:10Z</time>
      </trkpt>
      <trkpt lat="46.13228" lon="6.78534">
        <ele>2180.509</ele>
        <time>2026-02-22T12:03:15Z</time>
      </trkpt>
      <trkpt lat="46.13228" lon="6.78534">
        <ele>2180.513</ele>
        <time>2026-02-22T12:03:20Z</time>
      </trkpt>
      <trkpt lat="46.13228" lon="6.78534">
        <ele>2180.51</ele>
        <time>2026-02-22T12:03:25Z</time>
      </trkpt>
      <trkpt lat="46.13228" lon="6.78534">
        <ele>2180.512</ele>
        <time>2026-02-22T12:03:30Z</time>
      </trkpt>
      <trkpt lat="46.13228" lon="6.78534">
        <ele>2180.516</ele>
        <time>2026-02-22T12:03:35Z</time>
      </trkpt>
      <trkpt lat="46.13228" lon="6.78534">
        <ele>2180.521</ele>
        <time>2026-02-22T12:03:40Z</time>
      </trkpt>
      <trkpt lat="46.13228" lon="6.78534">
        <ele>2180.525</ele>
        <time>2026-02-22T12:03:45Z</time>
      </trkpt>
      <trkpt lat="46.13228" lon="6.78534">
        <ele>2180.528</ele>
        <time>2026-02-22T12:03:50Z</time>
      </trkpt>
      <trkpt lat="46.13228" lon="6.78534">
        <ele>2180.536</ele>
        <time>2026-02-22T12:03:55Z</time>
      </trkpt>
      <trkpt lat="46.13228" lon="6.78534">
        <ele>2180.552</ele>
        <time>2026-02-22T12:04:00Z</time>
      </trkpt>
      <trkpt lat="46.13228" lon="6.78534">
        <ele>2180.571</ele>
        <time>2026-02-22T12:04:05Z</time>
      </trkpt>
      <trkpt lat="46.13228" lon="6.78534">
        <ele>2180.584</ele>
        <time>2026-02-22T12:04:10Z</time>
      </trkpt>
      <trkpt lat="46.13228" lon="6.78534">
        <ele>2180.597</ele>
        <time>2026-02-22T12:04:15Z</time>
      </trkpt>
      <trkpt lat="46.13228" lon="6.78534">
        <ele>2180.614</ele>
        <time>2026-02-22T12:04:20Z</time>
      </trkpt>
      <trkpt lat="46.13228" lon="6.78534">
        <ele>2180.626</ele>
        <time>2026-02-22T12:04:25Z</time>
      </trkpt>
      <trkpt lat="46.13228" lon="6.78534">
        <ele>2180.744</ele>
        <time>2026-02-22T12:04:30Z</time>
      </trkpt>
      <trkpt lat="46.13228" lon="6.78534">
        <ele>2180.755</ele>
        <time>2026-02-22T12:04:35Z</time>
      </trkpt>
      <trkpt lat="46.13228" lon="6.78534">
        <ele>2180.766</ele>
        <time>2026-02-22T12:04:40Z</time>
      </trkpt>
      <trkpt lat="46.13228" lon="6.78534">
        <ele>2180.779</ele>
        <time>2026-02-22T12:04:45Z</time>
      </trkpt>
      <trkpt lat="46.13228" lon="6.78534">
        <ele>2180.791</ele>
        <time>2026-02-22T12:04:50Z</time>
      </trkpt>
      <trkpt lat="46.13228" lon="6.78534">
        <ele>2180.817</ele>
        <time>2026-02-22T12:04:55Z</time>
      </trkpt>
      <trkpt lat="46.13228" lon="6.78534">
        <ele>2180.83</ele>
        <time>2026-02-22T12:05:00Z</time>
      </trkpt>
      <trkpt lat="46.13228" lon="6.78534">
        <ele>2180.845</ele>
        <time>2026-02-22T12:05:05Z</time>
      </trkpt>
      <trkpt lat="46.13228" lon="6.78534">
        <ele>2180.858</ele>
        <time>2026-02-22T12:05:10Z</time>
      </trkpt>
      <trkpt lat="46.13228" lon="6.78534">
        <ele>2180.874</ele>
        <time>2026-02-22T12:05:15Z</time>
      </trkpt>
      <trkpt lat="46.13228" lon="6.78534">
        <ele>2180.889</ele>
        <time>2026-02-22T12:05:20Z</time>
      </trkpt>
      <trkpt lat="46.13228" lon="6.78534">
        <ele>2180.904</ele>
        <time>2026-02-22T12:05:25Z</time>
      </trkpt>
      <trkpt lat="46.13228" lon="6.78534">
        <ele>2180.917</ele>
        <time>2026-02-22T12:05:30Z</time>
      </trkpt>
      <trkpt lat="46.13228" lon="6.78534">
        <ele>2181.09</ele>
        <time>2026-02-22T12:05:35Z</time>
      </trkpt>
      <trkpt lat="46.13228" lon="6.78534">
        <ele>2181.524</ele>
        <time>2026-02-22T12:05:40Z</time>
      </trkpt>
      <trkpt lat="46.13228" lon="6.78534">
        <ele>2181.537</ele>
        <time>2026-02-22T12:05:45Z</time>
      </trkpt>
      <trkpt lat="46.13228" lon="6.78534">
        <ele>2181.551</ele>
        <time>2026-02-22T12:05:50Z</time>
      </trkpt>
      <trkpt lat="46.13228" lon="6.78534">
        <ele>2181.562</ele>
        <time>2026-02-22T12:05:55Z</time>
      </trkpt>
      <trkpt lat="46.13228" lon="6.78534">
        <ele>2181.568</ele>
        <time>2026-02-22T12:06:00Z</time>
      </trkpt>
      <trkpt lat="46.13228" lon="6.78534">
        <ele>2181.897</ele>
        <time>2026-02-22T12:06:05Z</time>
      </trkpt>
      <trkpt lat="46.13228" lon="6.78534">
        <ele>2181.598</ele>
        <time>2026-02-22T12:06:10Z</time>
      </trkpt>
      <trkpt lat="46.13228" lon="6.78534">
        <ele>2181.678</ele>
        <time>2026-02-22T12:06:15Z</time>
      </trkpt>
      <trkpt lat="46.13228" lon="6.78534">
        <ele>2181.675</ele>
        <time>2026-02-22T12:06:20Z</time>
      </trkpt>
      <trkpt lat="46.13228" lon="6.78534">
        <ele>2181.667</ele>
        <time>2026-02-22T12:06:25Z</time>
      </trkpt>
      <trkpt lat="46.13228" lon="6.78534">
        <ele>2181.671</ele>
        <time>2026-02-22T12:06:30Z</time>
      </trkpt>
      <trkpt lat="46.13228" lon="6.78534">
        <ele>2181.755</ele>
        <time>2026-02-22T12:06:35Z</time>
      </trkpt>
      <trkpt lat="46.13229" lon="6.78534">
        <ele>2181.747</ele>
        <time>2026-02-22T12:06:40Z</time>
      </trkpt>
      <trkpt lat="46.13231" lon="6.78537">
        <ele>2181.076</ele>
        <time>2026-02-22T12:06:45Z</time>
      </trkpt>
      <trkpt lat="46.13235" lon="6.7854">
        <ele>2180.46</ele>
        <time>2026-02-22T12:06:50Z</time>
      </trkpt>
      <trkpt lat="46.1324" lon="6.78547">
        <ele>2180.021</ele>
        <time>2026-02-22T12:06:55Z</time>
      </trkpt>
      <trkpt lat="46.13248" lon="6.78557">
        <ele>2179.061</ele>
        <time>2026-02-22T12:07:00Z</time>
      </trkpt>
      <trkpt lat="46.13248" lon="6.78563">
        <ele>2178.439</ele>
        <time>2026-02-22T12:07:05Z</time>
      </trkpt>
      <trkpt lat="46.13249" lon="6.78569">
        <ele>2179.525</ele>
        <time>2026-02-22T12:07:10Z</time>
      </trkpt>
      <trkpt lat="46.1325" lon="6.78573">
        <ele>2180.152</ele>
        <time>2026-02-22T12:07:15Z</time>
      </trkpt>
      <trkpt lat="46.1325" lon="6.78577">
        <ele>2181.375</ele>
        <time>2026-02-22T12:07:20Z</time>
      </trkpt>
      <trkpt lat="46.13251" lon="6.78579">
        <ele>2182.138</ele>
        <time>2026-02-22T12:07:25Z</time>
      </trkpt>
      <trkpt lat="46.13251" lon="6.78579">
        <ele>2182.121</ele>
        <time>2026-02-22T12:07:30Z</time>
      </trkpt>
      <trkpt lat="46.13251" lon="6.78579">
        <ele>2182.116</ele>
        <time>2026-02-22T12:07:35Z</time>
      </trkpt>
      <trkpt lat="46.13251" lon="6.78579">
        <ele>2182.363</ele>
        <time>2026-02-22T12:07:40Z</time>
      </trkpt>
      <trkpt lat="46.13251" lon="6.78579">
        <ele>2182.379</ele>
        <time>2026-02-22T12:07:45Z</time>
      </trkpt>
      <trkpt lat="46.13251" lon="6.78579">
        <ele>2182.389</ele>
        <time>2026-02-22T12:07:50Z</time>
      </trkpt>
      <trkpt lat="46.13251" lon="6.78579">
        <ele>2182.394</ele>
        <time>2026-02-22T12:07:55Z</time>
      </trkpt>
      <trkpt lat="46.13252" lon="6.7858">
        <ele>2182.402</ele>
        <time>2026-02-22T12:08:00Z</time>
      </trkpt>
      <trkpt lat="46.13252" lon="6.78581">
        <ele>2182.256</ele>
        <time>2026-02-22T12:08:05Z</time>
      </trkpt>
      <trkpt lat="46.13254" lon="6.78587">
        <ele>2181.891</ele>
        <time>2026-02-22T12:08:10Z</time>
      </trkpt>
      <trkpt lat="46.13256" lon="6.78593">
        <ele>2182.678</ele>
        <time>2026-02-22T12:08:15Z</time>
      </trkpt>
      <trkpt lat="46.13258" lon="6.78599">
        <ele>2183.608</ele>
        <time>2026-02-22T12:08:20Z</time>
      </trkpt>
      <trkpt lat="46.13259" lon="6.78604">
        <ele>2184.381</ele>
        <time>2026-02-22T12:08:25Z</time>
      </trkpt>
      <trkpt lat="46.1326" lon="6.78611">
        <ele>2184.897</ele>
        <time>2026-02-22T12:08:30Z</time>
      </trkpt>
      <trkpt lat="46.1326" lon="6.78619">
        <ele>2185.463</ele>
        <time>2026-02-22T12:08:35Z</time>
      </trkpt>
      <trkpt lat="46.1326" lon="6.78636">
        <ele>2183.15</ele>
        <time>2026-02-22T12:08:40Z</time>
      </trkpt>
      <trkpt lat="46.13257" lon="6.78653">
        <ele>2178.591</ele>
        <time>2026-02-22T12:08:45Z</time>
      </trkpt>
      <trkpt lat="46.13258" lon="6.78659">
        <ele>2180.499</ele>
        <time>2026-02-22T12:08:50Z</time>
      </trkpt>
      <trkpt lat="46.13259" lon="6.78663">
        <ele>2181.74</ele>
        <time>2026-02-22T12:08:55Z</time>
      </trkpt>
      <trkpt lat="46.1326" lon="6.78664">
        <ele>2182.348</ele>
        <time>2026-02-22T12:09:00Z</time>
      </trkpt>
      <trkpt lat="46.13259" lon="6.78669">
        <ele>2182.449</ele>
        <time>2026-02-22T12:09:05Z</time>
      </trkpt>
      <trkpt lat="46.13257" lon="6.78675">
        <ele>2182.331</ele>
        <time>2026-02-22T12:09:10Z</time>
      </trkpt>
      <trkpt lat="46.13254" lon="6.7868">
        <ele>2182.086</ele>
        <time>2026-02-22T12:09:15Z</time>
      </trkpt>
      <trkpt lat="46.13252" lon="6.78684">
        <ele>2182.089</ele>
        <time>2026-02-22T12:09:20Z</time>
      </trkpt>
      <trkpt lat="46.13251" lon="6.78687">
        <ele>2182.79</ele>
        <time>2026-02-22T12:09:25Z</time>
      </trkpt>
      <trkpt lat="46.13249" lon="6.78691">
        <ele>2182.926</ele>
        <time>2026-02-22T12:09:30Z</time>
      </trkpt>
      <trkpt lat="46.13248" lon="6.78695">
        <ele>2183.913</ele>
        <time>2026-02-22T12:09:35Z</time>
      </trkpt>
      <trkpt lat="46.13244" lon="6.78698">
        <ele>2182.66</ele>
        <time>2026-02-22T12:09:39Z</time>
      </trkpt>
      <trkpt lat="46.13247" lon="6.78702">
        <ele>2183.155</ele>
        <time>2026-02-22T12:09:45Z</time>
      </trkpt>
      <trkpt lat="46.13248" lon="6.78705">
        <ele>2186.867</ele>
        <time>2026-02-22T12:09:50Z</time>
      </trkpt>
      <trkpt lat="46.13249" lon="6.78708">
        <ele>2187.556</ele>
        <time>2026-02-22T12:09:55Z</time>
      </trkpt>
      <trkpt lat="46.1325" lon="6.78709">
        <ele>2187.711</ele>
        <time>2026-02-22T12:10:00Z</time>
      </trkpt>
      <trkpt lat="46.1325" lon="6.78709">
        <ele>2187.313</ele>
        <time>2026-02-22T12:10:05Z</time>
      </trkpt>
      <trkpt lat="46.13251" lon="6.78712">
        <ele>2189.087</ele>
        <time>2026-02-22T12:10:10Z</time>
      </trkpt>
      <trkpt lat="46.13251" lon="6.78712">
        <ele>2189.086</ele>
        <time>2026-02-22T12:10:15Z</time>
      </trkpt>
      <trkpt lat="46.13251" lon="6.78712">
        <ele>2189.091</ele>
        <time>2026-02-22T12:10:20Z</time>
      </trkpt>
      <trkpt lat="46.13251" lon="6.78712">
        <ele>2189.095</ele>
        <time>2026-02-22T12:10:25Z</time>
      </trkpt>
      <trkpt lat="46.13251" lon="6.78712">
        <ele>2189.097</ele>
        <time>2026-02-22T12:10:30Z</time>
      </trkpt>
      <trkpt lat="46.13251" lon="6.78712">
        <ele>2189.092</ele>
        <time>2026-02-22T12:10:35Z</time>
      </trkpt>
      <trkpt lat="46.13251" lon="6.78712">
        <ele>2189.099</ele>
        <time>2026-02-22T12:10:40Z</time>
      </trkpt>
      <trkpt lat="46.13251" lon="6.78712">
        <ele>2189.101</ele>
        <time>2026-02-22T12:10:45Z</time>
      </trkpt>
      <trkpt lat="46.13252" lon="6.78713">
        <ele>2189.461</ele>
        <time>2026-02-22T12:10:50Z</time>
      </trkpt>
      <trkpt lat="46.13252" lon="6.78717">
        <ele>2191.221</ele>
        <time>2026-02-22T12:10:55Z</time>
      </trkpt>
      <trkpt lat="46.13252" lon="6.78721">
        <ele>2192.686</ele>
        <time>2026-02-22T12:11:00Z</time>
      </trkpt>
      <trkpt lat="46.13253" lon="6.78725">
        <ele>2193.604</ele>
        <time>2026-02-22T12:11:05Z</time>
      </trkpt>
      <trkpt lat="46.13253" lon="6.78729">
        <ele>2194.421</ele>
        <time>2026-02-22T12:11:10Z</time>
      </trkpt>
      <trkpt lat="46.13254" lon="6.78733">
        <ele>2194.928</ele>
        <time>2026-02-22T12:11:15Z</time>
      </trkpt>
      <trkpt lat="46.13254" lon="6.78736">
        <ele>2195.899</ele>
        <time>2026-02-22T12:11:20Z</time>
      </trkpt>
      <trkpt lat="46.13254" lon="6.78739">
        <ele>2196.611</ele>
        <time>2026-02-22T12:11:25Z</time>
      </trkpt>
      <trkpt lat="46.13255" lon="6.78743">
        <ele>2197.72</ele>
        <time>2026-02-22T12:11:30Z</time>
      </trkpt>
      <trkpt lat="46.13255" lon="6.78747">
        <ele>2198.897</ele>
        <time>2026-02-22T12:11:35Z</time>
      </trkpt>
      <trkpt lat="46.13255" lon="6.7875">
        <ele>2199.871</ele>
        <time>2026-02-22T12:11:40Z</time>
      </trkpt>
      <trkpt lat="46.13255" lon="6.78753">
        <ele>2200.425</ele>
        <time>2026-02-22T12:11:45Z</time>
      </trkpt>
      <trkpt lat="46.13256" lon="6.78757">
        <ele>2200.406</ele>
        <time>2026-02-22T12:11:50Z</time>
      </trkpt>
      <trkpt lat="46.13256" lon="6.78762">
        <ele>2200.843</ele>
        <time>2026-02-22T12:11:55Z</time>
      </trkpt>
      <trkpt lat="46.13256" lon="6.78766">
        <ele>2200.883</ele>
        <time>2026-02-22T12:12:00Z</time>
      </trkpt>
      <trkpt lat="46.13257" lon="6.78771">
        <ele>2201.137</ele>
        <time>2026-02-22T12:12:05Z</time>
      </trkpt>
      <trkpt lat="46.13258" lon="6.78774">
        <ele>2201.388</ele>
        <time>2026-02-22T12:12:10Z</time>
      </trkpt>
      <trkpt lat="46.13258" lon="6.78779">
        <ele>2201.549</ele>
        <time>2026-02-22T12:12:15Z</time>
      </trkpt>
      <trkpt lat="46.13259" lon="6.78783">
        <ele>2201.661</ele>
        <time>2026-02-22T12:12:20Z</time>
      </trkpt>
      <trkpt lat="46.1326" lon="6.78789">
        <ele>2202.609</ele>
        <time>2026-02-22T12:12:25Z</time>
      </trkpt>
      <trkpt lat="46.13261" lon="6.78794">
        <ele>2202.768</ele>
        <time>2026-02-22T12:12:30Z</time>
      </trkpt>
      <trkpt lat="46.13262" lon="6.78798">
        <ele>2203.806</ele>
        <time>2026-02-22T12:12:35Z</time>
      </trkpt>
      <trkpt lat="46.13262" lon="6.788">
        <ele>2204.168</ele>
        <time>2026-02-22T12:12:40Z</time>
      </trkpt>
      <trkpt lat="46.13262" lon="6.788">
        <ele>2204.17</ele>
        <time>2026-02-22T12:12:45Z</time>
      </trkpt>
      <trkpt lat="46.13262" lon="6.788">
        <ele>2204.383</ele>
        <time>2026-02-22T12:12:50Z</time>
      </trkpt>
      <trkpt lat="46.13263" lon="6.78806">
        <ele>2204.197</ele>
        <time>2026-02-22T12:12:55Z</time>
      </trkpt>
      <trkpt lat="46.13265" lon="6.78812">
        <ele>2204.504</ele>
        <time>2026-02-22T12:13:00Z</time>
      </trkpt>
      <trkpt lat="46.13266" lon="6.78818">
        <ele>2204.512</ele>
        <time>2026-02-22T12:13:05Z</time>
      </trkpt>
      <trkpt lat="46.13268" lon="6.78823">
        <ele>2204.205</ele>
        <time>2026-02-22T12:13:10Z</time>
      </trkpt>
      <trkpt lat="46.13269" lon="6.78828">
        <ele>2204.197</ele>
        <time>2026-02-22T12:13:15Z</time>
      </trkpt>
      <trkpt lat="46.1327" lon="6.78833">
        <ele>2204.93</ele>
        <time>2026-02-22T12:13:20Z</time>
      </trkpt>
      <trkpt lat="46.13271" lon="6.78838">
        <ele>2205.042</ele>
        <time>2026-02-22T12:13:25Z</time>
      </trkpt>
      <trkpt lat="46.13272" lon="6.78844">
        <ele>2205.101</ele>
        <time>2026-02-22T12:13:30Z</time>
      </trkpt>
      <trkpt lat="46.13273" lon="6.78849">
        <ele>2206.565</ele>
        <time>2026-02-22T12:13:35Z</time>
      </trkpt>
      <trkpt lat="46.13273" lon="6.78854">
        <ele>2207.724</ele>
        <time>2026-02-22T12:13:40Z</time>
      </trkpt>
      <trkpt lat="46.13274" lon="6.78858">
        <ele>2208.825</ele>
        <time>2026-02-22T12:13:45Z</time>
      </trkpt>
      <trkpt lat="46.13276" lon="6.78863">
        <ele>2208.891</ele>
        <time>2026-02-22T12:13:50Z</time>
      </trkpt>
      <trkpt lat="46.13277" lon="6.78867">
        <ele>2209.139</ele>
        <time>2026-02-22T12:13:55Z</time>
      </trkpt>
      <trkpt lat="46.13277" lon="6.78871">
        <ele>2210.345</ele>
        <time>2026-02-22T12:14:00Z</time>
      </trkpt>
      <trkpt lat="46.13277" lon="6.78876">
        <ele>2211.632</ele>
        <time>2026-02-22T12:14:05Z</time>
      </trkpt>
      <trkpt lat="46.13277" lon="6.78878">
        <ele>2212.59</ele>
        <time>2026-02-22T12:14:10Z</time>
      </trkpt>
      <trkpt lat="46.13277" lon="6.78882">
        <ele>2213.121</ele>
        <time>2026-02-22T12:14:15Z</time>
      </trkpt>
      <trkpt lat="46.13278" lon="6.78888">
        <ele>2214.061</ele>
        <time>2026-02-22T12:14:20Z</time>
      </trkpt>
      <trkpt lat="46.13278" lon="6.78893">
        <ele>2214.66</ele>
        <time>2026-02-22T12:14:25Z</time>
      </trkpt>
      <trkpt lat="46.13278" lon="6.78897">
        <ele>2215.416</ele>
        <time>2026-02-22T12:14:30Z</time>
      </trkpt>
      <trkpt lat="46.13278" lon="6.78902">
        <ele>2215.319</ele>
        <time>2026-02-22T12:14:35Z</time>
      </trkpt>
      <trkpt lat="46.13278" lon="6.78906">
        <ele>2215.962</ele>
        <time>2026-02-22T12:14:40Z</time>
      </trkpt>
      <trkpt lat="46.13278" lon="6.7891">
        <ele>2216.465</ele>
        <time>2026-02-22T12:14:45Z</time>
      </trkpt>
      <trkpt lat="46.13278" lon="6.78916">
        <ele>2216.465</ele>
        <time>2026-02-22T12:14:50Z</time>
      </trkpt>
      <trkpt lat="46.13278" lon="6.78921">
        <ele>2216.552</ele>
        <time>2026-02-22T12:14:55Z</time>
      </trkpt>
      <trkpt lat="46.13278" lon="6.78925">
        <ele>2216.948</ele>
        <time>2026-02-22T12:15:00Z</time>
      </trkpt>
      <trkpt lat="46.13278" lon="6.78929">
        <ele>2217.638</ele>
        <time>2026-02-22T12:15:05Z</time>
      </trkpt>
      <trkpt lat="46.13279" lon="6.78933">
        <ele>2217.722</ele>
        <time>2026-02-22T12:15:10Z</time>
      </trkpt>
      <trkpt lat="46.13279" lon="6.78938">
        <ele>2217.714</ele>
        <time>2026-02-22T12:15:15Z</time>
      </trkpt>
      <trkpt lat="46.1328" lon="6.78942">
        <ele>2218.438</ele>
        <time>2026-02-22T12:15:20Z</time>
      </trkpt>
      <trkpt lat="46.1328" lon="6.78945">
        <ele>2219.013</ele>
        <time>2026-02-22T12:15:25Z</time>
      </trkpt>
      <trkpt lat="46.1328" lon="6.78949">
        <ele>2219.391</ele>
        <time>2026-02-22T12:15:30Z</time>
      </trkpt>
      <trkpt lat="46.13281" lon="6.78954">
        <ele>2220.316</ele>
        <time>2026-02-22T12:15:35Z</time>
      </trkpt>
      <trkpt lat="46.13282" lon="6.78959">
        <ele>2221.161</ele>
        <time>2026-02-22T12:15:40Z</time>
      </trkpt>
      <trkpt lat="46.13282" lon="6.78964">
        <ele>2221.441</ele>
        <time>2026-02-22T12:15:45Z</time>
      </trkpt>
      <trkpt lat="46.13283" lon="6.78969">
        <ele>2221.939</ele>
        <time>2026-02-22T12:15:50Z</time>
      </trkpt>
      <trkpt lat="46.13284" lon="6.78973">
        <ele>2222.627</ele>
        <time>2026-02-22T12:15:55Z</time>
      </trkpt>
      <trkpt lat="46.13284" lon="6.78977">
        <ele>2222.978</ele>
        <time>2026-02-22T12:16:00Z</time>
      </trkpt>
      <trkpt lat="46.13285" lon="6.78982">
        <ele>2223.362</ele>
        <time>2026-02-22T12:16:05Z</time>
      </trkpt>
      <trkpt lat="46.13286" lon="6.78986">
        <ele>2222.323</ele>
        <time>2026-02-22T12:16:10Z</time>
      </trkpt>
      <trkpt lat="46.13287" lon="6.78991">
        <ele>2222.077</ele>
        <time>2026-02-22T12:16:15Z</time>
      </trkpt>
      <trkpt lat="46.13289" lon="6.78996">
        <ele>2222.034</ele>
        <time>2026-02-22T12:16:20Z</time>
      </trkpt>
      <trkpt lat="46.1329" lon="6.79001">
        <ele>2223.123</ele>
        <time>2026-02-22T12:16:25Z</time>
      </trkpt>
      <trkpt lat="46.13291" lon="6.79005">
        <ele>2223.275</ele>
        <time>2026-02-22T12:16:30Z</time>
      </trkpt>
      <trkpt lat="46.13292" lon="6.79009">
        <ele>2223.773</ele>
        <time>2026-02-22T12:16:35Z</time>
      </trkpt>
      <trkpt lat="46.13293" lon="6.79014">
        <ele>2225.475</ele>
        <time>2026-02-22T12:16:40Z</time>
      </trkpt>
      <trkpt lat="46.13294" lon="6.79018">
        <ele>2226.697</ele>
        <time>2026-02-22T12:16:45Z</time>
      </trkpt>
      <trkpt lat="46.13294" lon="6.79021">
        <ele>2227.529</ele>
        <time>2026-02-22T12:16:50Z</time>
      </trkpt>
      <trkpt lat="46.13295" lon="6.79025">
        <ele>2227.901</ele>
        <time>2026-02-22T12:16:55Z</time>
      </trkpt>
      <trkpt lat="46.13296" lon="6.79029">
        <ele>2228.125</ele>
        <time>2026-02-22T12:17:00Z</time>
      </trkpt>
      <trkpt lat="46.13296" lon="6.79033">
        <ele>2228.486</ele>
        <time>2026-02-22T12:17:05Z</time>
      </trkpt>
      <trkpt lat="46.13297" lon="6.79038">
        <ele>2228.976</ele>
        <time>2026-02-22T12:17:10Z</time>
      </trkpt>
      <trkpt lat="46.13298" lon="6.79042">
        <ele>2228.76</ele>
        <time>2026-02-22T12:17:15Z</time>
      </trkpt>
      <trkpt lat="46.13299" lon="6.79047">
        <ele>2229.464</ele>
        <time>2026-02-22T12:17:20Z</time>
      </trkpt>
      <trkpt lat="46.13299" lon="6.7905">
        <ele>2230.009</ele>
        <time>2026-02-22T12:17:25Z</time>
      </trkpt>
      <trkpt lat="46.13298" lon="6.79052">
        <ele>2230.481</ele>
        <time>2026-02-22T12:17:30Z</time>
      </trkpt>
      <trkpt lat="46.13297" lon="6.79055">
        <ele>2231.822</ele>
        <time>2026-02-22T12:17:35Z</time>
      </trkpt>
      <trkpt lat="46.13297" lon="6.79058">
        <ele>2232.268</ele>
        <time>2026-02-22T12:17:40Z</time>
      </trkpt>
      <trkpt lat="46.13297" lon="6.79061">
        <ele>2232.572</ele>
        <time>2026-02-22T12:17:45Z</time>
      </trkpt>
      <trkpt lat="46.13297" lon="6.79063">
        <ele>2234.018</ele>
        <time>2026-02-22T12:17:50Z</time>
      </trkpt>
      <trkpt lat="46.13297" lon="6.79066">
        <ele>2234.013</ele>
        <time>2026-02-22T12:17:55Z</time>
      </trkpt>
      <trkpt lat="46.13297" lon="6.79068">
        <ele>2235.109</ele>
        <time>2026-02-22T12:18:00Z</time>
      </trkpt>
      <trkpt lat="46.13297" lon="6.79071">
        <ele>2235.48</ele>
        <time>2026-02-22T12:18:05Z</time>
      </trkpt>
      <trkpt lat="46.13298" lon="6.79074">
        <ele>2236.111</ele>
        <time>2026-02-22T12:18:10Z</time>
      </trkpt>
      <trkpt lat="46.13298" lon="6.79076">
        <ele>2236.413</ele>
        <time>2026-02-22T12:18:15Z</time>
      </trkpt>
      <trkpt lat="46.13298" lon="6.79079">
        <ele>2237.546</ele>
        <time>2026-02-22T12:18:20Z</time>
      </trkpt>
      <trkpt lat="46.13299" lon="6.79083">
        <ele>2238.19</ele>
        <time>2026-02-22T12:18:25Z</time>
      </trkpt>
      <trkpt lat="46.13301" lon="6.79086">
        <ele>2238.127</ele>
        <time>2026-02-22T12:18:30Z</time>
      </trkpt>
      <trkpt lat="46.13302" lon="6.79089">
        <ele>2239.045</ele>
        <time>2026-02-22T12:18:35Z</time>
      </trkpt>
      <trkpt lat="46.13303" lon="6.79091">
        <ele>2239.557</ele>
        <time>2026-02-22T12:18:40Z</time>
      </trkpt>
      <trkpt lat="46.13304" lon="6.79094">
        <ele>2240.114</ele>
        <time>2026-02-22T12:18:45Z</time>
      </trkpt>
      <trkpt lat="46.13306" lon="6.79097">
        <ele>2241.326</ele>
        <time>2026-02-22T12:18:50Z</time>
      </trkpt>
      <trkpt lat="46.13308" lon="6.79099">
        <ele>2242.209</ele>
        <time>2026-02-22T12:18:55Z</time>
      </trkpt>
      <trkpt lat="46.13309" lon="6.79102">
        <ele>2242.885</ele>
        <time>2026-02-22T12:19:00Z</time>
      </trkpt>
      <trkpt lat="46.13311" lon="6.79105">
        <ele>2243.084</ele>
        <time>2026-02-22T12:19:05Z</time>
      </trkpt>
      <trkpt lat="46.13312" lon="6.79107">
        <ele>2244.054</ele>
        <time>2026-02-22T12:19:10Z</time>
      </trkpt>
      <trkpt lat="46.13313" lon="6.7911">
        <ele>2244.865</ele>
        <time>2026-02-22T12:19:15Z</time>
      </trkpt>
      <trkpt lat="46.13315" lon="6.79112">
        <ele>2245.57</ele>
        <time>2026-02-22T12:19:20Z</time>
      </trkpt>
      <trkpt lat="46.13316" lon="6.79115">
        <ele>2246.167</ele>
        <time>2026-02-22T12:19:25Z</time>
      </trkpt>
      <trkpt lat="46.13318" lon="6.79117">
        <ele>2246.548</ele>
        <time>2026-02-22T12:19:30Z</time>
      </trkpt>
      <trkpt lat="46.13319" lon="6.79119">
        <ele>2247.352</ele>
        <time>2026-02-22T12:19:35Z</time>
      </trkpt>
      <trkpt lat="46.13321" lon="6.79122">
        <ele>2247.921</ele>
        <time>2026-02-22T12:19:40Z</time>
      </trkpt>
      <trkpt lat="46.13322" lon="6.79124">
        <ele>2249.257</ele>
        <time>2026-02-22T12:19:45Z</time>
      </trkpt>
      <trkpt lat="46.13324" lon="6.79125">
        <ele>2249.808</ele>
        <time>2026-02-22T12:19:50Z</time>
      </trkpt>
      <trkpt lat="46.13326" lon="6.79127">
        <ele>2250.158</ele>
        <time>2026-02-22T12:19:55Z</time>
      </trkpt>
      <trkpt lat="46.13327" lon="6.79129">
        <ele>2250.013</ele>
        <time>2026-02-22T12:20:00Z</time>
      </trkpt>
      <trkpt lat="46.13329" lon="6.79131">
        <ele>2251.176</ele>
        <time>2026-02-22T12:20:05Z</time>
      </trkpt>
      <trkpt lat="46.13331" lon="6.79133">
        <ele>2251.447</ele>
        <time>2026-02-22T12:20:10Z</time>
      </trkpt>
      <trkpt lat="46.13333" lon="6.79134">
        <ele>2252.535</ele>
        <time>2026-02-22T12:20:15Z</time>
      </trkpt>
      <trkpt lat="46.13335" lon="6.79136">
        <ele>2252.134</ele>
        <time>2026-02-22T12:20:20Z</time>
      </trkpt>
      <trkpt lat="46.13338" lon="6.79138">
        <ele>2253.27</ele>
        <time>2026-02-22T12:20:25Z</time>
      </trkpt>
      <trkpt lat="46.1334" lon="6.7914">
        <ele>2254.367</ele>
        <time>2026-02-22T12:20:30Z</time>
      </trkpt>
      <trkpt lat="46.13342" lon="6.79142">
        <ele>2254.579</ele>
        <time>2026-02-22T12:20:35Z</time>
      </trkpt>
      <trkpt lat="46.13343" lon="6.79144">
        <ele>2254.56</ele>
        <time>2026-02-22T12:20:40Z</time>
      </trkpt>
      <trkpt lat="46.13345" lon="6.79146">
        <ele>2255.429</ele>
        <time>2026-02-22T12:20:45Z</time>
      </trkpt>
      <trkpt lat="46.13347" lon="6.79149">
        <ele>2256.26</ele>
        <time>2026-02-22T12:20:50Z</time>
      </trkpt>
      <trkpt lat="46.13349" lon="6.7915">
        <ele>2256.223</ele>
        <time>2026-02-22T12:20:55Z</time>
      </trkpt>
      <trkpt lat="46.1335" lon="6.79151">
        <ele>2256.683</ele>
        <time>2026-02-22T12:21:00Z</time>
      </trkpt>
      <trkpt lat="46.13352" lon="6.79155">
        <ele>2257.33</ele>
        <time>2026-02-22T12:21:05Z</time>
      </trkpt>
      <trkpt lat="46.13354" lon="6.79158">
        <ele>2258.837</ele>
        <time>2026-02-22T12:21:10Z</time>
      </trkpt>
      <trkpt lat="46.13356" lon="6.79162">
        <ele>2259.845</ele>
        <time>2026-02-22T12:21:15Z</time>
      </trkpt>
      <trkpt lat="46.13358" lon="6.79165">
        <ele>2260.366</ele>
        <time>2026-02-22T12:21:20Z</time>
      </trkpt>
      <trkpt lat="46.1336" lon="6.79167">
        <ele>2260.126</ele>
        <time>2026-02-22T12:21:25Z</time>
      </trkpt>
      <trkpt lat="46.13362" lon="6.7917">
        <ele>2261.076</ele>
        <time>2026-02-22T12:21:30Z</time>
      </trkpt>
      <trkpt lat="46.13364" lon="6.79173">
        <ele>2262.026</ele>
        <time>2026-02-22T12:21:35Z</time>
      </trkpt>
      <trkpt lat="46.13366" lon="6.79176">
        <ele>2261.983</ele>
        <time>2026-02-22T12:21:40Z</time>
      </trkpt>
      <trkpt lat="46.13367" lon="6.79179">
        <ele>2262.921</ele>
        <time>2026-02-22T12:21:45Z</time>
      </trkpt>
      <trkpt lat="46.13368" lon="6.79183">
        <ele>2263.43</ele>
        <time>2026-02-22T12:21:50Z</time>
      </trkpt>
      <trkpt lat="46.1337" lon="6.79185">
        <ele>2263.72</ele>
        <time>2026-02-22T12:21:55Z</time>
      </trkpt>
      <trkpt lat="46.13371" lon="6.79188">
        <ele>2264.995</ele>
        <time>2026-02-22T12:22:00Z</time>
      </trkpt>
      <trkpt lat="46.13372" lon="6.7919">
        <ele>2265.276</ele>
        <time>2026-02-22T12:22:05Z</time>
      </trkpt>
      <trkpt lat="46.13374" lon="6.79192">
        <ele>2265.826</ele>
        <time>2026-02-22T12:22:10Z</time>
      </trkpt>
      <trkpt lat="46.13375" lon="6.79193">
        <ele>2265.911</ele>
        <time>2026-02-22T12:22:15Z</time>
      </trkpt>
      <trkpt lat="46.13376" lon="6.79195">
        <ele>2266.604</ele>
        <time>2026-02-22T12:22:20Z</time>
      </trkpt>
      <trkpt lat="46.13378" lon="6.79198">
        <ele>2267.519</ele>
        <time>2026-02-22T12:22:25Z</time>
      </trkpt>
      <trkpt lat="46.1338" lon="6.792">
        <ele>2267.948</ele>
        <time>2026-02-22T12:22:30Z</time>
      </trkpt>
      <trkpt lat="46.13381" lon="6.79201">
        <ele>2267.882</ele>
        <time>2026-02-22T12:22:35Z</time>
      </trkpt>
      <trkpt lat="46.13383" lon="6.79204">
        <ele>2269.073</ele>
        <time>2026-02-22T12:22:40Z</time>
      </trkpt>
      <trkpt lat="46.13384" lon="6.79207">
        <ele>2269.405</ele>
        <time>2026-02-22T12:22:45Z</time>
      </trkpt>
      <trkpt lat="46.13385" lon="6.79208">
        <ele>2269.268</ele>
        <time>2026-02-22T12:22:50Z</time>
      </trkpt>
      <trkpt lat="46.13387" lon="6.7921">
        <ele>2270.026</ele>
        <time>2026-02-22T12:22:55Z</time>
      </trkpt>
      <trkpt lat="46.13388" lon="6.79213">
        <ele>2270.901</ele>
        <time>2026-02-22T12:23:00Z</time>
      </trkpt>
      <trkpt lat="46.1339" lon="6.79215">
        <ele>2271.532</ele>
        <time>2026-02-22T12:23:05Z</time>
      </trkpt>
      <trkpt lat="46.13391" lon="6.79218">
        <ele>2272.506</ele>
        <time>2026-02-22T12:23:10Z</time>
      </trkpt>
      <trkpt lat="46.13392" lon="6.79221">
        <ele>2272.744</ele>
        <time>2026-02-22T12:23:15Z</time>
      </trkpt>
      <trkpt lat="46.13392" lon="6.79225">
        <ele>2273.311</ele>
        <time>2026-02-22T12:23:20Z</time>
      </trkpt>
      <trkpt lat="46.13393" lon="6.79228">
        <ele>2273.921</ele>
        <time>2026-02-22T12:23:25Z</time>
      </trkpt>
      <trkpt lat="46.13394" lon="6.79231">
        <ele>2275.04</ele>
        <time>2026-02-22T12:23:30Z</time>
      </trkpt>
      <trkpt lat="46.13395" lon="6.79234">
        <ele>2275.861</ele>
        <time>2026-02-22T12:23:35Z</time>
      </trkpt>
      <trkpt lat="46.13397" lon="6.79237">
        <ele>2276.091</ele>
        <time>2026-02-22T12:23:40Z</time>
      </trkpt>
      <trkpt lat="46.13398" lon="6.79241">
        <ele>2277.126</ele>
        <time>2026-02-22T12:23:45Z</time>
      </trkpt>
      <trkpt lat="46.134" lon="6.79244">
        <ele>2277.708</ele>
        <time>2026-02-22T12:23:50Z</time>
      </trkpt>
      <trkpt lat="46.13402" lon="6.79246">
        <ele>2278.259</ele>
        <time>2026-02-22T12:23:55Z</time>
      </trkpt>
      <trkpt lat="46.13403" lon="6.79249">
        <ele>2278.731</ele>
        <time>2026-02-22T12:24:00Z</time>
      </trkpt>
      <trkpt lat="46.13405" lon="6.79252">
        <ele>2279.706</ele>
        <time>2026-02-22T12:24:05Z</time>
      </trkpt>
      <trkpt lat="46.13406" lon="6.79255">
        <ele>2280.023</ele>
        <time>2026-02-22T12:24:10Z</time>
      </trkpt>
      <trkpt lat="46.13407" lon="6.79257">
        <ele>2280.39</ele>
        <time>2026-02-22T12:24:15Z</time>
      </trkpt>
      <trkpt lat="46.13408" lon="6.7926">
        <ele>2280.589</ele>
        <time>2026-02-22T12:24:20Z</time>
      </trkpt>
      <trkpt lat="46.1341" lon="6.79263">
        <ele>2281.199</ele>
        <time>2026-02-22T12:24:25Z</time>
      </trkpt>
      <trkpt lat="46.13411" lon="6.79266">
        <ele>2282.251</ele>
        <time>2026-02-22T12:24:30Z</time>
      </trkpt>
      <trkpt lat="46.13412" lon="6.79269">
        <ele>2283.546</ele>
        <time>2026-02-22T12:24:35Z</time>
      </trkpt>
      <trkpt lat="46.13413" lon="6.79271">
        <ele>2283.074</ele>
        <time>2026-02-22T12:24:40Z</time>
      </trkpt>
      <trkpt lat="46.13415" lon="6.79274">
        <ele>2283.887</ele>
        <time>2026-02-22T12:24:45Z</time>
      </trkpt>
      <trkpt lat="46.13416" lon="6.79275">
        <ele>2284.094</ele>
        <time>2026-02-22T12:24:50Z</time>
      </trkpt>
      <trkpt lat="46.13416" lon="6.79276">
        <ele>2283.952</ele>
        <time>2026-02-22T12:24:55Z</time>
      </trkpt>
      <trkpt lat="46.13418" lon="6.79279">
        <ele>2284.483</ele>
        <time>2026-02-22T12:25:00Z</time>
      </trkpt>
      <trkpt lat="46.13419" lon="6.79282">
        <ele>2285.23</ele>
        <time>2026-02-22T12:25:05Z</time>
      </trkpt>
      <trkpt lat="46.1342" lon="6.79285">
        <ele>2286.089</ele>
        <time>2026-02-22T12:25:10Z</time>
      </trkpt>
      <trkpt lat="46.13421" lon="6.79287">
        <ele>2286.064</ele>
        <time>2026-02-22T12:25:15Z</time>
      </trkpt>
      <trkpt lat="46.13422" lon="6.7929">
        <ele>2287.021</ele>
        <time>2026-02-22T12:25:20Z</time>
      </trkpt>
      <trkpt lat="46.13423" lon="6.79294">
        <ele>2287.885</ele>
        <time>2026-02-22T12:25:25Z</time>
      </trkpt>
      <trkpt lat="46.13424" lon="6.79298">
        <ele>2288.747</ele>
        <time>2026-02-22T12:25:30Z</time>
      </trkpt>
      <trkpt lat="46.13426" lon="6.79301">
        <ele>2289.315</ele>
        <time>2026-02-22T12:25:35Z</time>
      </trkpt>
      <trkpt lat="46.13427" lon="6.79303">
        <ele>2289.13</ele>
        <time>2026-02-22T12:25:40Z</time>
      </trkpt>
      <trkpt lat="46.13427" lon="6.79306">
        <ele>2289.466</ele>
        <time>2026-02-22T12:25:45Z</time>
      </trkpt>
      <trkpt lat="46.13428" lon="6.79308">
        <ele>2289.618</ele>
        <time>2026-02-22T12:25:50Z</time>
      </trkpt>
      <trkpt lat="46.1343" lon="6.79311">
        <ele>2289.944</ele>
        <time>2026-02-22T12:25:55Z</time>
      </trkpt>
      <trkpt lat="46.13431" lon="6.79312">
        <ele>2290.567</ele>
        <time>2026-02-22T12:26:00Z</time>
      </trkpt>
      <trkpt lat="46.13432" lon="6.79314">
        <ele>2291.578</ele>
        <time>2026-02-22T12:26:05Z</time>
      </trkpt>
      <trkpt lat="46.13434" lon="6.79317">
        <ele>2292.685</ele>
        <time>2026-02-22T12:26:10Z</time>
      </trkpt>
      <trkpt lat="46.13435" lon="6.7932">
        <ele>2292.972</ele>
        <time>2026-02-22T12:26:15Z</time>
      </trkpt>
      <trkpt lat="46.13437" lon="6.79322">
        <ele>2293.536</ele>
        <time>2026-02-22T12:26:20Z</time>
      </trkpt>
      <trkpt lat="46.13439" lon="6.79324">
        <ele>2293.946</ele>
        <time>2026-02-22T12:26:25Z</time>
      </trkpt>
      <trkpt lat="46.13441" lon="6.79327">
        <ele>2295.528</ele>
        <time>2026-02-22T12:26:30Z</time>
      </trkpt>
      <trkpt lat="46.13442" lon="6.79329">
        <ele>2296.184</ele>
        <time>2026-02-22T12:26:35Z</time>
      </trkpt>
      <trkpt lat="46.13444" lon="6.79331">
        <ele>2296.285</ele>
        <time>2026-02-22T12:26:40Z</time>
      </trkpt>
      <trkpt lat="46.13446" lon="6.79334">
        <ele>2297.141</ele>
        <time>2026-02-22T12:26:45Z</time>
      </trkpt>
      <trkpt lat="46.13447" lon="6.79337">
        <ele>2296.681</ele>
        <time>2026-02-22T12:26:50Z</time>
      </trkpt>
      <trkpt lat="46.13449" lon="6.79341">
        <ele>2296.884</ele>
        <time>2026-02-22T12:26:55Z</time>
      </trkpt>
      <trkpt lat="46.13451" lon="6.79343">
        <ele>2296.938</ele>
        <time>2026-02-22T12:27:00Z</time>
      </trkpt>
      <trkpt lat="46.13452" lon="6.79346">
        <ele>2297.452</ele>
        <time>2026-02-22T12:27:05Z</time>
      </trkpt>
      <trkpt lat="46.13454" lon="6.79349">
        <ele>2298.29</ele>
        <time>2026-02-22T12:27:10Z</time>
      </trkpt>
      <trkpt lat="46.13456" lon="6.79352">
        <ele>2298.728</ele>
        <time>2026-02-22T12:27:15Z</time>
      </trkpt>
      <trkpt lat="46.13458" lon="6.79355">
        <ele>2298.738</ele>
        <time>2026-02-22T12:27:20Z</time>
      </trkpt>
      <trkpt lat="46.1346" lon="6.79359">
        <ele>2299.142</ele>
        <time>2026-02-22T12:27:25Z</time>
      </trkpt>
      <trkpt lat="46.13462" lon="6.79362">
        <ele>2299.312</ele>
        <time>2026-02-22T12:27:30Z</time>
      </trkpt>
      <trkpt lat="46.13463" lon="6.79365">
        <ele>2299.905</ele>
        <time>2026-02-22T12:27:35Z</time>
      </trkpt>
      <trkpt lat="46.13465" lon="6.79369">
        <ele>2300.175</ele>
        <time>2026-02-22T12:27:40Z</time>
      </trkpt>
      <trkpt lat="46.13466" lon="6.79372">
        <ele>2301.04</ele>
        <time>2026-02-22T12:27:45Z</time>
      </trkpt>
      <trkpt lat="46.13467" lon="6.79376">
        <ele>2301.536</ele>
        <time>2026-02-22T12:27:50Z</time>
      </trkpt>
      <trkpt lat="46.13469" lon="6.79379">
        <ele>2302.009</ele>
        <time>2026-02-22T12:27:55Z</time>
      </trkpt>
      <trkpt lat="46.13471" lon="6.79382">
        <ele>2303.184</ele>
        <time>2026-02-22T12:28:00Z</time>
      </trkpt>
      <trkpt lat="46.13473" lon="6.79386">
        <ele>2303.603</ele>
        <time>2026-02-22T12:28:05Z</time>
      </trkpt>
      <trkpt lat="46.13474" lon="6.79388">
        <ele>2304.784</ele>
        <time>2026-02-22T12:28:10Z</time>
      </trkpt>
      <trkpt lat="46.13476" lon="6.79391">
        <ele>2304.664</ele>
        <time>2026-02-22T12:28:15Z</time>
      </trkpt>
      <trkpt lat="46.13477" lon="6.79394">
        <ele>2305.821</ele>
        <time>2026-02-22T12:28:20Z</time>
      </trkpt>
      <trkpt lat="46.13478" lon="6.79397">
        <ele>2306.62</ele>
        <time>2026-02-22T12:28:25Z</time>
      </trkpt>
      <trkpt lat="46.13479" lon="6.79401">
        <ele>2307.311</ele>
        <time>2026-02-22T12:28:30Z</time>
      </trkpt>
      <trkpt lat="46.1348" lon="6.79404">
        <ele>2307.736</ele>
        <time>2026-02-22T12:28:35Z</time>
      </trkpt>
      <trkpt lat="46.13481" lon="6.79407">
        <ele>2308.612</ele>
        <time>2026-02-22T12:28:40Z</time>
      </trkpt>
      <trkpt lat="46.13483" lon="6.7941">
        <ele>2307.786</ele>
        <time>2026-02-22T12:28:45Z</time>
      </trkpt>
      <trkpt lat="46.13484" lon="6.79414">
        <ele>2307.388</ele>
        <time>2026-02-22T12:28:50Z</time>
      </trkpt>
      <trkpt lat="46.13484" lon="6.79417">
        <ele>2307.574</ele>
        <time>2026-02-22T12:28:55Z</time>
      </trkpt>
      <trkpt lat="46.13485" lon="6.7942">
        <ele>2308.283</ele>
        <time>2026-02-22T12:29:00Z</time>
      </trkpt>
      <trkpt lat="46.13486" lon="6.79424">
        <ele>2308.994</ele>
        <time>2026-02-22T12:29:05Z</time>
      </trkpt>
      <trkpt lat="46.13486" lon="6.79427">
        <ele>2309.454</ele>
        <time>2026-02-22T12:29:10Z</time>
      </trkpt>
      <trkpt lat="46.13486" lon="6.7943">
        <ele>2309.791</ele>
        <time>2026-02-22T12:29:15Z</time>
      </trkpt>
      <trkpt lat="46.13486" lon="6.79434">
        <ele>2311.388</ele>
        <time>2026-02-22T12:29:20Z</time>
      </trkpt>
      <trkpt lat="46.13486" lon="6.79437">
        <ele>2312.517</ele>
        <time>2026-02-22T12:29:25Z</time>
      </trkpt>
      <trkpt lat="46.13486" lon="6.79439">
        <ele>2313.119</ele>
        <time>2026-02-22T12:29:30Z</time>
      </trkpt>
      <trkpt lat="46.13486" lon="6.79441">
        <ele>2314.009</ele>
        <time>2026-02-22T12:29:35Z</time>
      </trkpt>
      <trkpt lat="46.13486" lon="6.79444">
        <ele>2313.813</ele>
        <time>2026-02-22T12:29:40Z</time>
      </trkpt>
      <trkpt lat="46.13486" lon="6.79446">
        <ele>2314.186</ele>
        <time>2026-02-22T12:29:45Z</time>
      </trkpt>
      <trkpt lat="46.13486" lon="6.7945">
        <ele>2315.613</ele>
        <time>2026-02-22T12:29:50Z</time>
      </trkpt>
      <trkpt lat="46.13486" lon="6.79453">
        <ele>2315.755</ele>
        <time>2026-02-22T12:29:55Z</time>
      </trkpt>
      <trkpt lat="46.13486" lon="6.79456">
        <ele>2316.552</ele>
        <time>2026-02-22T12:30:00Z</time>
      </trkpt>
      <trkpt lat="46.13486" lon="6.79459">
        <ele>2317.778</ele>
        <time>2026-02-22T12:30:05Z</time>
      </trkpt>
      <trkpt lat="46.13486" lon="6.79462">
        <ele>2318.186</ele>
        <time>2026-02-22T12:30:10Z</time>
      </trkpt>
      <trkpt lat="46.13486" lon="6.79463">
        <ele>2318.555</ele>
        <time>2026-02-22T12:30:15Z</time>
      </trkpt>
      <trkpt lat="46.13486" lon="6.79466">
        <ele>2318.758</ele>
        <time>2026-02-22T12:30:20Z</time>
      </trkpt>
      <trkpt lat="46.13486" lon="6.79469">
        <ele>2318.884</ele>
        <time>2026-02-22T12:30:25Z</time>
      </trkpt>
      <trkpt lat="46.13486" lon="6.79471">
        <ele>2319.946</ele>
        <time>2026-02-22T12:30:30Z</time>
      </trkpt>
      <trkpt lat="46.13486" lon="6.79475">
        <ele>2320.878</ele>
        <time>2026-02-22T12:30:35Z</time>
      </trkpt>
      <trkpt lat="46.13486" lon="6.79477">
        <ele>2320.925</ele>
        <time>2026-02-22T12:30:40Z</time>
      </trkpt>
      <trkpt lat="46.13486" lon="6.79479">
        <ele>2321.965</ele>
        <time>2026-02-22T12:30:45Z</time>
      </trkpt>
      <trkpt lat="46.13486" lon="6.79482">
        <ele>2322.701</ele>
        <time>2026-02-22T12:30:50Z</time>
      </trkpt>
      <trkpt lat="46.13486" lon="6.79485">
        <ele>2322.738</ele>
        <time>2026-02-22T12:30:55Z</time>
      </trkpt>
      <trkpt lat="46.13485" lon="6.79488">
        <ele>2323.348</ele>
        <time>2026-02-22T12:31:00Z</time>
      </trkpt>
      <trkpt lat="46.13485" lon="6.79489">
        <ele>2323.21</ele>
        <time>2026-02-22T12:31:05Z</time>
      </trkpt>
      <trkpt lat="46.13485" lon="6.79491">
        <ele>2323.821</ele>
        <time>2026-02-22T12:31:10Z</time>
      </trkpt>
      <trkpt lat="46.13485" lon="6.79492">
        <ele>2323.823</ele>
        <time>2026-02-22T12:31:15Z</time>
      </trkpt>
      <trkpt lat="46.13485" lon="6.79494">
        <ele>2324.308</ele>
        <time>2026-02-22T12:31:20Z</time>
      </trkpt>
      <trkpt lat="46.13485" lon="6.79497">
        <ele>2324.253</ele>
        <time>2026-02-22T12:31:25Z</time>
      </trkpt>
      <trkpt lat="46.13484" lon="6.79499">
        <ele>2324.556</ele>
        <time>2026-02-22T12:31:30Z</time>
      </trkpt>
      <trkpt lat="46.13485" lon="6.79502">
        <ele>2324.832</ele>
        <time>2026-02-22T12:31:35Z</time>
      </trkpt>
      <trkpt lat="46.13485" lon="6.79505">
        <ele>2325.774</ele>
        <time>2026-02-22T12:31:40Z</time>
      </trkpt>
      <trkpt lat="46.13485" lon="6.79507">
        <ele>2326.663</ele>
        <time>2026-02-22T12:31:45Z</time>
      </trkpt>
      <trkpt lat="46.13485" lon="6.7951">
        <ele>2327.51</ele>
        <time>2026-02-22T12:31:50Z</time>
      </trkpt>
      <trkpt lat="46.13485" lon="6.79513">
        <ele>2327.561</ele>
        <time>2026-02-22T12:31:55Z</time>
      </trkpt>
      <trkpt lat="46.13485" lon="6.79515">
        <ele>2328.399</ele>
        <time>2026-02-22T12:32:00Z</time>
      </trkpt>
      <trkpt lat="46.13484" lon="6.79518">
        <ele>2329.466</ele>
        <time>2026-02-22T12:32:05Z</time>
      </trkpt>
      <trkpt lat="46.13484" lon="6.79521">
        <ele>2330.317</ele>
        <time>2026-02-22T12:32:10Z</time>
      </trkpt>
      <trkpt lat="46.13484" lon="6.79524">
        <ele>2330.1</ele>
        <time>2026-02-22T12:32:15Z</time>
      </trkpt>
      <trkpt lat="46.13484" lon="6.79525">
        <ele>2330.338</ele>
        <time>2026-02-22T12:32:20Z</time>
      </trkpt>
      <trkpt lat="46.13484" lon="6.79528">
        <ele>2331.182</ele>
        <time>2026-02-22T12:32:25Z</time>
      </trkpt>
      <trkpt lat="46.13483" lon="6.79532">
        <ele>2331.812</ele>
        <time>2026-02-22T12:32:30Z</time>
      </trkpt>
      <trkpt lat="46.13483" lon="6.79535">
        <ele>2332.945</ele>
        <time>2026-02-22T12:32:35Z</time>
      </trkpt>
      <trkpt lat="46.13482" lon="6.79538">
        <ele>2333.437</ele>
        <time>2026-02-22T12:32:40Z</time>
      </trkpt>
      <trkpt lat="46.13482" lon="6.79539">
        <ele>2333.751</ele>
        <time>2026-02-22T12:32:45Z</time>
      </trkpt>
      <trkpt lat="46.13482" lon="6.79539">
        <ele>2333.752</ele>
        <time>2026-02-22T12:32:50Z</time>
      </trkpt>
      <trkpt lat="46.13482" lon="6.7954">
        <ele>2334.543</ele>
        <time>2026-02-22T12:32:55Z</time>
      </trkpt>
      <trkpt lat="46.13482" lon="6.79545">
        <ele>2335.55</ele>
        <time>2026-02-22T12:33:00Z</time>
      </trkpt>
      <trkpt lat="46.13482" lon="6.79548">
        <ele>2336.4</ele>
        <time>2026-02-22T12:33:05Z</time>
      </trkpt>
      <trkpt lat="46.13482" lon="6.79552">
        <ele>2336.55</ele>
        <time>2026-02-22T12:33:10Z</time>
      </trkpt>
      <trkpt lat="46.13482" lon="6.79556">
        <ele>2337.689</ele>
        <time>2026-02-22T12:33:15Z</time>
      </trkpt>
      <trkpt lat="46.13482" lon="6.7956">
        <ele>2338.803</ele>
        <time>2026-02-22T12:33:20Z</time>
      </trkpt>
      <trkpt lat="46.13482" lon="6.79564">
        <ele>2339.53</ele>
        <time>2026-02-22T12:33:25Z</time>
      </trkpt>
      <trkpt lat="46.13482" lon="6.79568">
        <ele>2339.897</ele>
        <time>2026-02-22T12:33:30Z</time>
      </trkpt>
      <trkpt lat="46.13483" lon="6.79571">
        <ele>2340.654</ele>
        <time>2026-02-22T12:33:35Z</time>
      </trkpt>
      <trkpt lat="46.13483" lon="6.79575">
        <ele>2340.655</ele>
        <time>2026-02-22T12:33:40Z</time>
      </trkpt>
      <trkpt lat="46.13483" lon="6.79577">
        <ele>2341.387</ele>
        <time>2026-02-22T12:33:45Z</time>
      </trkpt>
      <trkpt lat="46.13484" lon="6.79581">
        <ele>2342.269</ele>
        <time>2026-02-22T12:33:50Z</time>
      </trkpt>
      <trkpt lat="46.13484" lon="6.79583">
        <ele>2343.012</ele>
        <time>2026-02-22T12:33:55Z</time>
      </trkpt>
      <trkpt lat="46.13485" lon="6.79587">
        <ele>2343.285</ele>
        <time>2026-02-22T12:34:00Z</time>
      </trkpt>
      <trkpt lat="46.13486" lon="6.79589">
        <ele>2343.537</ele>
        <time>2026-02-22T12:34:05Z</time>
      </trkpt>
      <trkpt lat="46.13488" lon="6.79592">
        <ele>2344.16</ele>
        <time>2026-02-22T12:34:10Z</time>
      </trkpt>
      <trkpt lat="46.13489" lon="6.79596">
        <ele>2345.223</ele>
        <time>2026-02-22T12:34:15Z</time>
      </trkpt>
      <trkpt lat="46.1349" lon="6.79599">
        <ele>2345.679</ele>
        <time>2026-02-22T12:34:20Z</time>
      </trkpt>
      <trkpt lat="46.13491" lon="6.79601">
        <ele>2344.516</ele>
        <time>2026-02-22T12:34:25Z</time>
      </trkpt>
      <trkpt lat="46.13492" lon="6.79603">
        <ele>2345.747</ele>
        <time>2026-02-22T12:34:30Z</time>
      </trkpt>
      <trkpt lat="46.13493" lon="6.79607">
        <ele>2345.628</ele>
        <time>2026-02-22T12:34:35Z</time>
      </trkpt>
      <trkpt lat="46.13494" lon="6.7961">
        <ele>2346.608</ele>
        <time>2026-02-22T12:34:40Z</time>
      </trkpt>
      <trkpt lat="46.13494" lon="6.79614">
        <ele>2347.63</ele>
        <time>2026-02-22T12:34:45Z</time>
      </trkpt>
      <trkpt lat="46.13495" lon="6.79617">
        <ele>2348.413</ele>
        <time>2026-02-22T12:34:50Z</time>
      </trkpt>
      <trkpt lat="46.13496" lon="6.7962">
        <ele>2348.992</ele>
        <time>2026-02-22T12:34:55Z</time>
      </trkpt>
      <trkpt lat="46.13497" lon="6.79624">
        <ele>2350.489</ele>
        <time>2026-02-22T12:35:00Z</time>
      </trkpt>
      <trkpt lat="46.13498" lon="6.79627">
        <ele>2350.8</ele>
        <time>2026-02-22T12:35:05Z</time>
      </trkpt>
      <trkpt lat="46.13498" lon="6.7963">
        <ele>2351.043</ele>
        <time>2026-02-22T12:35:10Z</time>
      </trkpt>
      <trkpt lat="46.13499" lon="6.79634">
        <ele>2351.629</ele>
        <time>2026-02-22T12:35:15Z</time>
      </trkpt>
      <trkpt lat="46.135" lon="6.79638">
        <ele>2351.547</ele>
        <time>2026-02-22T12:35:20Z</time>
      </trkpt>
      <trkpt lat="46.13501" lon="6.79641">
        <ele>2351.984</ele>
        <time>2026-02-22T12:35:25Z</time>
      </trkpt>
      <trkpt lat="46.13502" lon="6.79645">
        <ele>2352.503</ele>
        <time>2026-02-22T12:35:30Z</time>
      </trkpt>
      <trkpt lat="46.13504" lon="6.79648">
        <ele>2352.359</ele>
        <time>2026-02-22T12:35:35Z</time>
      </trkpt>
      <trkpt lat="46.13505" lon="6.79651">
        <ele>2352.918</ele>
        <time>2026-02-22T12:35:40Z</time>
      </trkpt>
      <trkpt lat="46.13507" lon="6.79654">
        <ele>2354.102</ele>
        <time>2026-02-22T12:35:45Z</time>
      </trkpt>
      <trkpt lat="46.13509" lon="6.79657">
        <ele>2354.255</ele>
        <time>2026-02-22T12:35:50Z</time>
      </trkpt>
      <trkpt lat="46.1351" lon="6.79661">
        <ele>2355.247</ele>
        <time>2026-02-22T12:35:55Z</time>
      </trkpt>
      <trkpt lat="46.13512" lon="6.79664">
        <ele>2355.035</ele>
        <time>2026-02-22T12:36:00Z</time>
      </trkpt>
      <trkpt lat="46.13513" lon="6.79667">
        <ele>2355.123</ele>
        <time>2026-02-22T12:36:05Z</time>
      </trkpt>
      <trkpt lat="46.13514" lon="6.7967">
        <ele>2356.244</ele>
        <time>2026-02-22T12:36:10Z</time>
      </trkpt>
      <trkpt lat="46.13515" lon="6.79674">
        <ele>2356.184</ele>
        <time>2026-02-22T12:36:15Z</time>
      </trkpt>
      <trkpt lat="46.13516" lon="6.79678">
        <ele>2356.388</ele>
        <time>2026-02-22T12:36:20Z</time>
      </trkpt>
      <trkpt lat="46.13518" lon="6.79681">
        <ele>2356.514</ele>
        <time>2026-02-22T12:36:25Z</time>
      </trkpt>
      <trkpt lat="46.1352" lon="6.79684">
        <ele>2357.564</ele>
        <time>2026-02-22T12:36:30Z</time>
      </trkpt>
      <trkpt lat="46.13521" lon="6.79688">
        <ele>2358.83</ele>
        <time>2026-02-22T12:36:36Z</time>
      </trkpt>
      <trkpt lat="46.13523" lon="6.7969">
        <ele>2359.161</ele>
        <time>2026-02-22T12:36:41Z</time>
      </trkpt>
      <trkpt lat="46.13524" lon="6.79693">
        <ele>2359.501</ele>
        <time>2026-02-22T12:36:46Z</time>
      </trkpt>
      <trkpt lat="46.13527" lon="6.79696">
        <ele>2360.258</ele>
        <time>2026-02-22T12:36:51Z</time>
      </trkpt>
      <trkpt lat="46.13529" lon="6.79699">
        <ele>2361.088</ele>
        <time>2026-02-22T12:36:56Z</time>
      </trkpt>
      <trkpt lat="46.1353" lon="6.79701">
        <ele>2361.017</ele>
        <time>2026-02-22T12:37:01Z</time>
      </trkpt>
      <trkpt lat="46.13531" lon="6.79705">
        <ele>2362.014</ele>
        <time>2026-02-22T12:37:06Z</time>
      </trkpt>
      <trkpt lat="46.13533" lon="6.79709">
        <ele>2361.666</ele>
        <time>2026-02-22T12:37:11Z</time>
      </trkpt>
      <trkpt lat="46.13534" lon="6.79712">
        <ele>2362.364</ele>
        <time>2026-02-22T12:37:16Z</time>
      </trkpt>
      <trkpt lat="46.13536" lon="6.79716">
        <ele>2362.913</ele>
        <time>2026-02-22T12:37:21Z</time>
      </trkpt>
      <trkpt lat="46.13537" lon="6.7972">
        <ele>2363.304</ele>
        <time>2026-02-22T12:37:26Z</time>
      </trkpt>
      <trkpt lat="46.13538" lon="6.79723">
        <ele>2363.689</ele>
        <time>2026-02-22T12:37:31Z</time>
      </trkpt>
      <trkpt lat="46.13539" lon="6.79727">
        <ele>2363.688</ele>
        <time>2026-02-22T12:37:36Z</time>
      </trkpt>
      <trkpt lat="46.1354" lon="6.79731">
        <ele>2363.814</ele>
        <time>2026-02-22T12:37:41Z</time>
      </trkpt>
      <trkpt lat="46.13541" lon="6.79734">
        <ele>2365.094</ele>
        <time>2026-02-22T12:37:46Z</time>
      </trkpt>
      <trkpt lat="46.13543" lon="6.79737">
        <ele>2366.386</ele>
        <time>2026-02-22T12:37:51Z</time>
      </trkpt>
      <trkpt lat="46.13544" lon="6.7974">
        <ele>2367.048</ele>
        <time>2026-02-22T12:37:56Z</time>
      </trkpt>
      <trkpt lat="46.13545" lon="6.79743">
        <ele>2367.472</ele>
        <time>2026-02-22T12:38:01Z</time>
      </trkpt>
      <trkpt lat="46.13546" lon="6.79747">
        <ele>2368.576</ele>
        <time>2026-02-22T12:38:06Z</time>
      </trkpt>
      <trkpt lat="46.13546" lon="6.79749">
        <ele>2368.831</ele>
        <time>2026-02-22T12:38:11Z</time>
      </trkpt>
      <trkpt lat="46.13547" lon="6.79753">
        <ele>2369.596</ele>
        <time>2026-02-22T12:38:16Z</time>
      </trkpt>
      <trkpt lat="46.13549" lon="6.79756">
        <ele>2370.252</ele>
        <time>2026-02-22T12:38:21Z</time>
      </trkpt>
      <trkpt lat="46.1355" lon="6.79759">
        <ele>2370.045</ele>
        <time>2026-02-22T12:38:26Z</time>
      </trkpt>
      <trkpt lat="46.13552" lon="6.79762">
        <ele>2370.842</ele>
        <time>2026-02-22T12:38:31Z</time>
      </trkpt>
      <trkpt lat="46.13552" lon="6.79764">
        <ele>2371.153</ele>
        <time>2026-02-22T12:38:36Z</time>
      </trkpt>
      <trkpt lat="46.13552" lon="6.79765">
        <ele>2372.248</ele>
        <time>2026-02-22T12:38:41Z</time>
      </trkpt>
      <trkpt lat="46.13552" lon="6.79767">
        <ele>2373.159</ele>
        <time>2026-02-22T12:38:46Z</time>
      </trkpt>
      <trkpt lat="46.13552" lon="6.79769">
        <ele>2373.816</ele>
        <time>2026-02-22T12:38:51Z</time>
      </trkpt>
      <trkpt lat="46.13552" lon="6.79772">
        <ele>2374.414</ele>
        <time>2026-02-22T12:38:56Z</time>
      </trkpt>
      <trkpt lat="46.13551" lon="6.79774">
        <ele>2375.392</ele>
        <time>2026-02-22T12:39:01Z</time>
      </trkpt>
      <trkpt lat="46.1355" lon="6.79775">
        <ele>2375.446</ele>
        <time>2026-02-22T12:39:06Z</time>
      </trkpt>
      <trkpt lat="46.1355" lon="6.79776">
        <ele>2375.787</ele>
        <time>2026-02-22T12:39:11Z</time>
      </trkpt>
      <trkpt lat="46.13548" lon="6.79778">
        <ele>2376.057</ele>
        <time>2026-02-22T12:39:16Z</time>
      </trkpt>
      <trkpt lat="46.13547" lon="6.79779">
        <ele>2376.244</ele>
        <time>2026-02-22T12:39:21Z</time>
      </trkpt>
      <trkpt lat="46.13547" lon="6.79779">
        <ele>2376.241</ele>
        <time>2026-02-22T12:39:26Z</time>
      </trkpt>
      <trkpt lat="46.13547" lon="6.79779">
        <ele>2376.237</ele>
        <time>2026-02-22T12:39:31Z</time>
      </trkpt>
      <trkpt lat="46.13547" lon="6.79779">
        <ele>2376.234</ele>
        <time>2026-02-22T12:39:36Z</time>
      </trkpt>
      <trkpt lat="46.13547" lon="6.79779">
        <ele>2376.233</ele>
        <time>2026-02-22T12:39:41Z</time>
      </trkpt>
      <trkpt lat="46.13547" lon="6.79779">
        <ele>2376.23</ele>
        <time>2026-02-22T12:39:46Z</time>
      </trkpt>
      <trkpt lat="46.13547" lon="6.79779">
        <ele>2376.23</ele>
        <time>2026-02-22T12:39:51Z</time>
      </trkpt>
      <trkpt lat="46.13547" lon="6.79779">
        <ele>2376.239</ele>
        <time>2026-02-22T12:39:56Z</time>
      </trkpt>
      <trkpt lat="46.13547" lon="6.79779">
        <ele>2376.249</ele>
        <time>2026-02-22T12:40:01Z</time>
      </trkpt>
      <trkpt lat="46.13547" lon="6.79779">
        <ele>2376.266</ele>
        <time>2026-02-22T12:40:06Z</time>
      </trkpt>
      <trkpt lat="46.13547" lon="6.79779">
        <ele>2376.294</ele>
        <time>2026-02-22T12:40:11Z</time>
      </trkpt>
      <trkpt lat="46.13547" lon="6.79779">
        <ele>2376.316</ele>
        <time>2026-02-22T12:40:16Z</time>
      </trkpt>
      <trkpt lat="46.13547" lon="6.79779">
        <ele>2376.342</ele>
        <time>2026-02-22T12:40:21Z</time>
      </trkpt>
      <trkpt lat="46.13547" lon="6.79779">
        <ele>2376.366</ele>
        <time>2026-02-22T12:40:26Z</time>
      </trkpt>
      <trkpt lat="46.13547" lon="6.79779">
        <ele>2376.394</ele>
        <time>2026-02-22T12:40:31Z</time>
      </trkpt>
      <trkpt lat="46.13547" lon="6.79779">
        <ele>2376.426</ele>
        <time>2026-02-22T12:40:36Z</time>
      </trkpt>
      <trkpt lat="46.13547" lon="6.7978">
        <ele>2377.063</ele>
        <time>2026-02-22T12:40:41Z</time>
      </trkpt>
      <trkpt lat="46.13545" lon="6.79783">
        <ele>2377.964</ele>
        <time>2026-02-22T12:40:46Z</time>
      </trkpt>
      <trkpt lat="46.13543" lon="6.79786">
        <ele>2378.402</ele>
        <time>2026-02-22T12:40:51Z</time>
      </trkpt>
      <trkpt lat="46.13541" lon="6.7979">
        <ele>2379.047</ele>
        <time>2026-02-22T12:40:56Z</time>
      </trkpt>
      <trkpt lat="46.13538" lon="6.79794">
        <ele>2379.215</ele>
        <time>2026-02-22T12:41:01Z</time>
      </trkpt>
      <trkpt lat="46.13537" lon="6.79798">
        <ele>2380.053</ele>
        <time>2026-02-22T12:41:06Z</time>
      </trkpt>
      <trkpt lat="46.13536" lon="6.79801">
        <ele>2380.123</ele>
        <time>2026-02-22T12:41:11Z</time>
      </trkpt>
      <trkpt lat="46.13537" lon="6.79804">
        <ele>2380.635</ele>
        <time>2026-02-22T12:41:16Z</time>
      </trkpt>
      <trkpt lat="46.13539" lon="6.79807">
        <ele>2381.061</ele>
        <time>2026-02-22T12:41:21Z</time>
      </trkpt>
      <trkpt lat="46.13541" lon="6.79809">
        <ele>2382.306</ele>
        <time>2026-02-22T12:41:26Z</time>
      </trkpt>
      <trkpt lat="46.13544" lon="6.79811">
        <ele>2384.148</ele>
        <time>2026-02-22T12:41:31Z</time>
      </trkpt>
      <trkpt lat="46.13545" lon="6.79812">
        <ele>2384.703</ele>
        <time>2026-02-22T12:41:36Z</time>
      </trkpt>
      <trkpt lat="46.13546" lon="6.79814">
        <ele>2385.492</ele>
        <time>2026-02-22T12:41:41Z</time>
      </trkpt>
      <trkpt lat="46.13548" lon="6.79816">
        <ele>2386.357</ele>
        <time>2026-02-22T12:41:46Z</time>
      </trkpt>
      <trkpt lat="46.13549" lon="6.79817">
        <ele>2386.687</ele>
        <time>2026-02-22T12:41:51Z</time>
      </trkpt>
      <trkpt lat="46.13551" lon="6.79819">
        <ele>2387.591</ele>
        <time>2026-02-22T12:41:56Z</time>
      </trkpt>
      <trkpt lat="46.13552" lon="6.79821">
        <ele>2388.321</ele>
        <time>2026-02-22T12:42:01Z</time>
      </trkpt>
      <trkpt lat="46.13554" lon="6.79823">
        <ele>2388.947</ele>
        <time>2026-02-22T12:42:06Z</time>
      </trkpt>
      <trkpt lat="46.13556" lon="6.79826">
        <ele>2390.168</ele>
        <time>2026-02-22T12:42:11Z</time>
      </trkpt>
      <trkpt lat="46.13556" lon="6.79829">
        <ele>2391.102</ele>
        <time>2026-02-22T12:42:16Z</time>
      </trkpt>
      <trkpt lat="46.13555" lon="6.79832">
        <ele>2392.359</ele>
        <time>2026-02-22T12:42:21Z</time>
      </trkpt>
      <trkpt lat="46.13554" lon="6.79835">
        <ele>2393.127</ele>
        <time>2026-02-22T12:42:26Z</time>
      </trkpt>
      <trkpt lat="46.13553" lon="6.79837">
        <ele>2394.011</ele>
        <time>2026-02-22T12:42:31Z</time>
      </trkpt>
      <trkpt lat="46.13551" lon="6.7984">
        <ele>2394.227</ele>
        <time>2026-02-22T12:42:36Z</time>
      </trkpt>
      <trkpt lat="46.1355" lon="6.79844">
        <ele>2394.166</ele>
        <time>2026-02-22T12:42:41Z</time>
      </trkpt>
      <trkpt lat="46.13547" lon="6.79847">
        <ele>2394.727</ele>
        <time>2026-02-22T12:42:46Z</time>
      </trkpt>
      <trkpt lat="46.13547" lon="6.79851">
        <ele>2394.824</ele>
        <time>2026-02-22T12:42:51Z</time>
      </trkpt>
      <trkpt lat="46.13547" lon="6.79854">
        <ele>2395.541</ele>
        <time>2026-02-22T12:42:56Z</time>
      </trkpt>
      <trkpt lat="46.13548" lon="6.79857">
        <ele>2396.365</ele>
        <time>2026-02-22T12:43:01Z</time>
      </trkpt>
      <trkpt lat="46.13549" lon="6.7986">
        <ele>2396.271</ele>
        <time>2026-02-22T12:43:06Z</time>
      </trkpt>
      <trkpt lat="46.13551" lon="6.79863">
        <ele>2396.344</ele>
        <time>2026-02-22T12:43:11Z</time>
      </trkpt>
      <trkpt lat="46.13552" lon="6.79866">
        <ele>2397.025</ele>
        <time>2026-02-22T12:43:16Z</time>
      </trkpt>
      <trkpt lat="46.13552" lon="6.79869">
        <ele>2397.194</ele>
        <time>2026-02-22T12:43:21Z</time>
      </trkpt>
      <trkpt lat="46.13553" lon="6.79873">
        <ele>2398.716</ele>
        <time>2026-02-22T12:43:26Z</time>
      </trkpt>
      <trkpt lat="46.13553" lon="6.79877">
        <ele>2399.991</ele>
        <time>2026-02-22T12:43:31Z</time>
      </trkpt>
      <trkpt lat="46.13553" lon="6.79881">
        <ele>2401.04</ele>
        <time>2026-02-22T12:43:36Z</time>
      </trkpt>
      <trkpt lat="46.13554" lon="6.79885">
        <ele>2401.684</ele>
        <time>2026-02-22T12:43:41Z</time>
      </trkpt>
      <trkpt lat="46.13554" lon="6.79888">
        <ele>2402.205</ele>
        <time>2026-02-22T12:43:46Z</time>
      </trkpt>
      <trkpt lat="46.13554" lon="6.79892">
        <ele>2402.733</ele>
        <time>2026-02-22T12:43:51Z</time>
      </trkpt>
      <trkpt lat="46.13554" lon="6.79896">
        <ele>2403.787</ele>
        <time>2026-02-22T12:43:56Z</time>
      </trkpt>
      <trkpt lat="46.13555" lon="6.799">
        <ele>2403.984</ele>
        <time>2026-02-22T12:44:01Z</time>
      </trkpt>
      <trkpt lat="46.13555" lon="6.79904">
        <ele>2405.345</ele>
        <time>2026-02-22T12:44:06Z</time>
      </trkpt>
      <trkpt lat="46.13556" lon="6.79907">
        <ele>2405.851</ele>
        <time>2026-02-22T12:44:11Z</time>
      </trkpt>
      <trkpt lat="46.13556" lon="6.7991">
        <ele>2406.754</ele>
        <time>2026-02-22T12:44:16Z</time>
      </trkpt>
      <trkpt lat="46.13556" lon="6.79914">
        <ele>2407.406</ele>
        <time>2026-02-22T12:44:21Z</time>
      </trkpt>
      <trkpt lat="46.13556" lon="6.79918">
        <ele>2408.092</ele>
        <time>2026-02-22T12:44:26Z</time>
      </trkpt>
      <trkpt lat="46.13556" lon="6.79921">
        <ele>2408.61</ele>
        <time>2026-02-22T12:44:31Z</time>
      </trkpt>
      <trkpt lat="46.13557" lon="6.79926">
        <ele>2409.205</ele>
        <time>2026-02-22T12:44:36Z</time>
      </trkpt>
      <trkpt lat="46.13557" lon="6.7993">
        <ele>2409.364</ele>
        <time>2026-02-22T12:44:41Z</time>
      </trkpt>
      <trkpt lat="46.13558" lon="6.79934">
        <ele>2409.905</ele>
        <time>2026-02-22T12:44:46Z</time>
      </trkpt>
      <trkpt lat="46.13557" lon="6.79938">
        <ele>2410.738</ele>
        <time>2026-02-22T12:44:51Z</time>
      </trkpt>
      <trkpt lat="46.13557" lon="6.79941">
        <ele>2411.625</ele>
        <time>2026-02-22T12:44:56Z</time>
      </trkpt>
      <trkpt lat="46.13558" lon="6.79945">
        <ele>2411.947</ele>
        <time>2026-02-22T12:45:01Z</time>
      </trkpt>
      <trkpt lat="46.13558" lon="6.7995">
        <ele>2412.337</ele>
        <time>2026-02-22T12:45:06Z</time>
      </trkpt>
      <trkpt lat="46.13558" lon="6.79953">
        <ele>2412.974</ele>
        <time>2026-02-22T12:45:11Z</time>
      </trkpt>
      <trkpt lat="46.13558" lon="6.79956">
        <ele>2413.548</ele>
        <time>2026-02-22T12:45:16Z</time>
      </trkpt>
      <trkpt lat="46.13558" lon="6.79961">
        <ele>2414.101</ele>
        <time>2026-02-22T12:45:21Z</time>
      </trkpt>
      <trkpt lat="46.13558" lon="6.79966">
        <ele>2414.562</ele>
        <time>2026-02-22T12:45:26Z</time>
      </trkpt>
      <trkpt lat="46.13557" lon="6.7997">
        <ele>2414.582</ele>
        <time>2026-02-22T12:45:31Z</time>
      </trkpt>
      <trkpt lat="46.13557" lon="6.79975">
        <ele>2414.956</ele>
        <time>2026-02-22T12:45:36Z</time>
      </trkpt>
      <trkpt lat="46.13557" lon="6.79978">
        <ele>2415.756</ele>
        <time>2026-02-22T12:45:41Z</time>
      </trkpt>
      <trkpt lat="46.13557" lon="6.79978">
        <ele>2415.761</ele>
        <time>2026-02-22T12:45:46Z</time>
      </trkpt>
      <trkpt lat="46.13556" lon="6.79981">
        <ele>2416.595</ele>
        <time>2026-02-22T12:45:51Z</time>
      </trkpt>
      <trkpt lat="46.13557" lon="6.79983">
        <ele>2416.557</ele>
        <time>2026-02-22T12:45:56Z</time>
      </trkpt>
      <trkpt lat="46.13557" lon="6.79983">
        <ele>2416.561</ele>
        <time>2026-02-22T12:46:01Z</time>
      </trkpt>
      <trkpt lat="46.13557" lon="6.79983">
        <ele>2416.567</ele>
        <time>2026-02-22T12:46:06Z</time>
      </trkpt>
      <trkpt lat="46.13557" lon="6.79983">
        <ele>2416.569</ele>
        <time>2026-02-22T12:46:11Z</time>
      </trkpt>
      <trkpt lat="46.13557" lon="6.79983">
        <ele>2416.582</ele>
        <time>2026-02-22T12:46:16Z</time>
      </trkpt>
      <trkpt lat="46.13557" lon="6.79983">
        <ele>2416.587</ele>
        <time>2026-02-22T12:46:21Z</time>
      </trkpt>
      <trkpt lat="46.13557" lon="6.79983">
        <ele>2416.597</ele>
        <time>2026-02-22T12:46:26Z</time>
      </trkpt>
      <trkpt lat="46.13557" lon="6.79983">
        <ele>2416.606</ele>
        <time>2026-02-22T12:46:31Z</time>
      </trkpt>
      <trkpt lat="46.13557" lon="6.79988">
        <ele>2417.308</ele>
        <time>2026-02-22T12:46:36Z</time>
      </trkpt>
      <trkpt lat="46.13556" lon="6.79994">
        <ele>2417.547</ele>
        <time>2026-02-22T12:46:41Z</time>
      </trkpt>
      <trkpt lat="46.13556" lon="6.8">
        <ele>2417.461</ele>
        <time>2026-02-22T12:46:46Z</time>
      </trkpt>
      <trkpt lat="46.13556" lon="6.80005">
        <ele>2417.814</ele>
        <time>2026-02-22T12:46:51Z</time>
      </trkpt>
      <trkpt lat="46.13556" lon="6.80005">
        <ele>2417.714</ele>
        <time>2026-02-22T12:46:56Z</time>
      </trkpt>
      <trkpt lat="46.13556" lon="6.80005">
        <ele>2417.721</ele>
        <time>2026-02-22T12:47:01Z</time>
      </trkpt>
      <trkpt lat="46.13556" lon="6.80005">
        <ele>2417.856</ele>
        <time>2026-02-22T12:47:06Z</time>
      </trkpt>
      <trkpt lat="46.13556" lon="6.80005">
        <ele>2417.85</ele>
        <time>2026-02-22T12:47:11Z</time>
      </trkpt>
      <trkpt lat="46.13556" lon="6.80005">
        <ele>2417.851</ele>
        <time>2026-02-22T12:47:16Z</time>
      </trkpt>
      <trkpt lat="46.13556" lon="6.80005">
        <ele>2417.848</ele>
        <time>2026-02-22T12:47:21Z</time>
      </trkpt>
      <trkpt lat="46.13556" lon="6.80005">
        <ele>2417.845</ele>
        <time>2026-02-22T12:47:26Z</time>
      </trkpt>
      <trkpt lat="46.13556" lon="6.80005">
        <ele>2417.847</ele>
        <time>2026-02-22T12:47:31Z</time>
      </trkpt>
      <trkpt lat="46.13556" lon="6.80005">
        <ele>2417.847</ele>
        <time>2026-02-22T12:47:36Z</time>
      </trkpt>
      <trkpt lat="46.13556" lon="6.80005">
        <ele>2417.843</ele>
        <time>2026-02-22T12:47:41Z</time>
      </trkpt>
      <trkpt lat="46.13556" lon="6.80005">
        <ele>2417.842</ele>
        <time>2026-02-22T12:47:46Z</time>
      </trkpt>
      <trkpt lat="46.13556" lon="6.80005">
        <ele>2417.835</ele>
        <time>2026-02-22T12:47:51Z</time>
      </trkpt>
      <trkpt lat="46.13556" lon="6.80005">
        <ele>2417.831</ele>
        <time>2026-02-22T12:47:56Z</time>
      </trkpt>
      <trkpt lat="46.13556" lon="6.80005">
        <ele>2417.833</ele>
        <time>2026-02-22T12:48:01Z</time>
      </trkpt>
      <trkpt lat="46.13556" lon="6.80005">
        <ele>2417.832</ele>
        <time>2026-02-22T12:48:06Z</time>
      </trkpt>
      <trkpt lat="46.13556" lon="6.80005">
        <ele>2417.831</ele>
        <time>2026-02-22T12:48:11Z</time>
      </trkpt>
      <trkpt lat="46.13556" lon="6.80005">
        <ele>2417.83</ele>
        <time>2026-02-22T12:48:16Z</time>
      </trkpt>
      <trkpt lat="46.13556" lon="6.80005">
        <ele>2417.843</ele>
        <time>2026-02-22T12:48:21Z</time>
      </trkpt>
      <trkpt lat="46.13556" lon="6.80005">
        <ele>2417.836</ele>
        <time>2026-02-22T12:48:26Z</time>
      </trkpt>
      <trkpt lat="46.13556" lon="6.80005">
        <ele>2417.834</ele>
        <time>2026-02-22T12:48:31Z</time>
      </trkpt>
      <trkpt lat="46.13556" lon="6.80005">
        <ele>2417.835</ele>
        <time>2026-02-22T12:48:36Z</time>
      </trkpt>
      <trkpt lat="46.13556" lon="6.80005">
        <ele>2417.841</ele>
        <time>2026-02-22T12:48:41Z</time>
      </trkpt>
      <trkpt lat="46.13556" lon="6.80005">
        <ele>2417.838</ele>
        <time>2026-02-22T12:48:46Z</time>
      </trkpt>
      <trkpt lat="46.13556" lon="6.80005">
        <ele>2417.835</ele>
        <time>2026-02-22T12:48:51Z</time>
      </trkpt>
      <trkpt lat="46.13556" lon="6.80005">
        <ele>2417.832</ele>
        <time>2026-02-22T12:48:56Z</time>
      </trkpt>
      <trkpt lat="46.13556" lon="6.80005">
        <ele>2417.832</ele>
        <time>2026-02-22T12:49:01Z</time>
      </trkpt>
      <trkpt lat="46.13556" lon="6.80005">
        <ele>2417.875</ele>
        <time>2026-02-22T12:49:06Z</time>
      </trkpt>
      <trkpt lat="46.13556" lon="6.80005">
        <ele>2417.874</ele>
        <time>2026-02-22T12:49:11Z</time>
      </trkpt>
      <trkpt lat="46.13556" lon="6.80005">
        <ele>2417.872</ele>
        <time>2026-02-22T12:49:16Z</time>
      </trkpt>
      <trkpt lat="46.13556" lon="6.80005">
        <ele>2417.872</ele>
        <time>2026-02-22T12:49:21Z</time>
      </trkpt>
      <trkpt lat="46.13556" lon="6.80005">
        <ele>2417.87</ele>
        <time>2026-02-22T12:49:26Z</time>
      </trkpt>
      <trkpt lat="46.13556" lon="6.80005">
        <ele>2417.864</ele>
        <time>2026-02-22T12:49:31Z</time>
      </trkpt>
      <trkpt lat="46.13556" lon="6.80005">
        <ele>2417.864</ele>
        <time>2026-02-22T12:49:36Z</time>
      </trkpt>
      <trkpt lat="46.13556" lon="6.80005">
        <ele>2417.863</ele>
        <time>2026-02-22T12:49:41Z</time>
      </trkpt>
      <trkpt lat="46.13556" lon="6.80005">
        <ele>2417.861</ele>
        <time>2026-02-22T12:49:46Z</time>
      </trkpt>
      <trkpt lat="46.13556" lon="6.80005">
        <ele>2417.858</ele>
        <time>2026-02-22T12:49:51Z</time>
      </trkpt>
      <trkpt lat="46.13556" lon="6.80005">
        <ele>2417.855</ele>
        <time>2026-02-22T12:49:56Z</time>
      </trkpt>
      <trkpt lat="46.13556" lon="6.80005">
        <ele>2417.854</ele>
        <time>2026-02-22T12:50:01Z</time>
      </trkpt>
      <trkpt lat="46.13556" lon="6.80005">
        <ele>2417.854</ele>
        <time>2026-02-22T12:50:06Z</time>
      </trkpt>
      <trkpt lat="46.13556" lon="6.80005">
        <ele>2417.854</ele>
        <time>2026-02-22T12:50:11Z</time>
      </trkpt>
      <trkpt lat="46.13556" lon="6.80005">
        <ele>2417.853</ele>
        <time>2026-02-22T12:50:16Z</time>
      </trkpt>
      <trkpt lat="46.13556" lon="6.80005">
        <ele>2417.854</ele>
        <time>2026-02-22T12:50:21Z</time>
      </trkpt>
      <trkpt lat="46.13556" lon="6.80005">
        <ele>2417.855</ele>
        <time>2026-02-22T12:50:26Z</time>
      </trkpt>
      <trkpt lat="46.13556" lon="6.80005">
        <ele>2417.853</ele>
        <time>2026-02-22T12:50:31Z</time>
      </trkpt>
      <trkpt lat="46.13556" lon="6.80005">
        <ele>2417.523</ele>
        <time>2026-02-22T12:50:36Z</time>
      </trkpt>
      <trkpt lat="46.13556" lon="6.80005">
        <ele>2417.564</ele>
        <time>2026-02-22T12:50:41Z</time>
      </trkpt>
      <trkpt lat="46.13556" lon="6.80005">
        <ele>2417.565</ele>
        <time>2026-02-22T12:50:46Z</time>
      </trkpt>
      <trkpt lat="46.13556" lon="6.80005">
        <ele>2417.565</ele>
        <time>2026-02-22T12:50:51Z</time>
      </trkpt>
      <trkpt lat="46.13556" lon="6.80005">
        <ele>2417.881</ele>
        <time>2026-02-22T12:50:56Z</time>
      </trkpt>
      <trkpt lat="46.13556" lon="6.80005">
        <ele>2414.103</ele>
        <time>2026-02-22T12:51:01Z</time>
      </trkpt>
      <trkpt lat="46.13556" lon="6.80005">
        <ele>2414.909</ele>
        <time>2026-02-22T12:51:06Z</time>
      </trkpt>
      <trkpt lat="46.13556" lon="6.80005">
        <ele>2415.382</ele>
        <time>2026-02-22T12:51:11Z</time>
      </trkpt>
      <trkpt lat="46.13556" lon="6.80005">
        <ele>2415.402</ele>
        <time>2026-02-22T12:51:16Z</time>
      </trkpt>
      <trkpt lat="46.13556" lon="6.80005">
        <ele>2415.399</ele>
        <time>2026-02-22T12:51:21Z</time>
      </trkpt>
      <trkpt lat="46.13556" lon="6.80005">
        <ele>2415.409</ele>
        <time>2026-02-22T12:51:26Z</time>
      </trkpt>
      <trkpt lat="46.13556" lon="6.80005">
        <ele>2415.413</ele>
        <time>2026-02-22T12:51:31Z</time>
      </trkpt>
      <trkpt lat="46.13556" lon="6.80005">
        <ele>2415.423</ele>
        <time>2026-02-22T12:51:36Z</time>
      </trkpt>
      <trkpt lat="46.13556" lon="6.80005">
        <ele>2415.429</ele>
        <time>2026-02-22T12:51:41Z</time>
      </trkpt>
      <trkpt lat="46.13556" lon="6.80005">
        <ele>2415.427</ele>
        <time>2026-02-22T12:51:46Z</time>
      </trkpt>
      <trkpt lat="46.13556" lon="6.80005">
        <ele>2415.437</ele>
        <time>2026-02-22T12:51:51Z</time>
      </trkpt>
      <trkpt lat="46.13556" lon="6.80005">
        <ele>2415.44</ele>
        <time>2026-02-22T12:51:56Z</time>
      </trkpt>
      <trkpt lat="46.13556" lon="6.80005">
        <ele>2415.446</ele>
        <time>2026-02-22T12:52:01Z</time>
      </trkpt>
      <trkpt lat="46.13556" lon="6.80005">
        <ele>2415.134</ele>
        <time>2026-02-22T12:52:06Z</time>
      </trkpt>
      <trkpt lat="46.13556" lon="6.80005">
        <ele>2415.942</ele>
        <time>2026-02-22T12:52:11Z</time>
      </trkpt>
      <trkpt lat="46.13556" lon="6.80005">
        <ele>2415.617</ele>
        <time>2026-02-22T12:52:16Z</time>
      </trkpt>
      <trkpt lat="46.13556" lon="6.80005">
        <ele>2415.728</ele>
        <time>2026-02-22T12:52:21Z</time>
      </trkpt>
      <trkpt lat="46.13556" lon="6.80005">
        <ele>2415.684</ele>
        <time>2026-02-22T12:52:26Z</time>
      </trkpt>
      <trkpt lat="46.13556" lon="6.80005">
        <ele>2415.844</ele>
        <time>2026-02-22T12:52:31Z</time>
      </trkpt>
      <trkpt lat="46.13556" lon="6.80005">
        <ele>2415.929</ele>
        <time>2026-02-22T12:52:36Z</time>
      </trkpt>
      <trkpt lat="46.13556" lon="6.80005">
        <ele>2415.945</ele>
        <time>2026-02-22T12:52:41Z</time>
      </trkpt>
      <trkpt lat="46.13556" lon="6.80005">
        <ele>2415.947</ele>
        <time>2026-02-22T12:52:46Z</time>
      </trkpt>
      <trkpt lat="46.13556" lon="6.80005">
        <ele>2415.958</ele>
        <time>2026-02-22T12:52:51Z</time>
      </trkpt>
      <trkpt lat="46.13556" lon="6.80005">
        <ele>2415.972</ele>
        <time>2026-02-22T12:52:56Z</time>
      </trkpt>
      <trkpt lat="46.13556" lon="6.80005">
        <ele>2415.983</ele>
        <time>2026-02-22T12:53:01Z</time>
      </trkpt>
      <trkpt lat="46.13556" lon="6.80005">
        <ele>2415.987</ele>
        <time>2026-02-22T12:53:06Z</time>
      </trkpt>
      <trkpt lat="46.13556" lon="6.80005">
        <ele>2415.981</ele>
        <time>2026-02-22T12:53:11Z</time>
      </trkpt>
      <trkpt lat="46.13556" lon="6.80005">
        <ele>2415.986</ele>
        <time>2026-02-22T12:53:16Z</time>
      </trkpt>
      <trkpt lat="46.13556" lon="6.80005">
        <ele>2415.981</ele>
        <time>2026-02-22T12:53:21Z</time>
      </trkpt>
      <trkpt lat="46.13556" lon="6.80005">
        <ele>2415.978</ele>
        <time>2026-02-22T12:53:26Z</time>
      </trkpt>
      <trkpt lat="46.13556" lon="6.80005">
        <ele>2415.979</ele>
        <time>2026-02-22T12:53:31Z</time>
      </trkpt>
      <trkpt lat="46.13556" lon="6.80005">
        <ele>2416.064</ele>
        <time>2026-02-22T12:53:36Z</time>
      </trkpt>
      <trkpt lat="46.13556" lon="6.80005">
        <ele>2417.023</ele>
        <time>2026-02-22T12:53:41Z</time>
      </trkpt>
      <trkpt lat="46.13556" lon="6.80005">
        <ele>2417.108</ele>
        <time>2026-02-22T12:53:46Z</time>
      </trkpt>
      <trkpt lat="46.13556" lon="6.80005">
        <ele>2417.068</ele>
        <time>2026-02-22T12:53:51Z</time>
      </trkpt>
      <trkpt lat="46.13556" lon="6.80005">
        <ele>2417.059</ele>
        <time>2026-02-22T12:53:56Z</time>
      </trkpt>
      <trkpt lat="46.13556" lon="6.80005">
        <ele>2417.054</ele>
        <time>2026-02-22T12:54:01Z</time>
      </trkpt>
      <trkpt lat="46.13556" lon="6.80005">
        <ele>2417.053</ele>
        <time>2026-02-22T12:54:06Z</time>
      </trkpt>
      <trkpt lat="46.13556" lon="6.80005">
        <ele>2417.049</ele>
        <time>2026-02-22T12:54:11Z</time>
      </trkpt>
      <trkpt lat="46.13556" lon="6.80005">
        <ele>2417.048</ele>
        <time>2026-02-22T12:54:16Z</time>
      </trkpt>
      <trkpt lat="46.13556" lon="6.80005">
        <ele>2417.046</ele>
        <time>2026-02-22T12:54:21Z</time>
      </trkpt>
      <trkpt lat="46.13556" lon="6.80005">
        <ele>2417.045</ele>
        <time>2026-02-22T12:54:26Z</time>
      </trkpt>
      <trkpt lat="46.13556" lon="6.80005">
        <ele>2417.047</ele>
        <time>2026-02-22T12:54:31Z</time>
      </trkpt>
      <trkpt lat="46.13556" lon="6.80005">
        <ele>2417.047</ele>
        <time>2026-02-22T12:54:36Z</time>
      </trkpt>
      <trkpt lat="46.13556" lon="6.80005">
        <ele>2417.048</ele>
        <time>2026-02-22T12:54:41Z</time>
      </trkpt>
      <trkpt lat="46.13556" lon="6.80005">
        <ele>2417.05</ele>
        <time>2026-02-22T12:54:46Z</time>
      </trkpt>
      <trkpt lat="46.13556" lon="6.80005">
        <ele>2417.051</ele>
        <time>2026-02-22T12:54:51Z</time>
      </trkpt>
      <trkpt lat="46.13556" lon="6.80005">
        <ele>2417.055</ele>
        <time>2026-02-22T12:54:56Z</time>
      </trkpt>
      <trkpt lat="46.13556" lon="6.80005">
        <ele>2417.054</ele>
        <time>2026-02-22T12:55:01Z</time>
      </trkpt>
      <trkpt lat="46.13556" lon="6.80005">
        <ele>2417.056</ele>
        <time>2026-02-22T12:55:06Z</time>
      </trkpt>
      <trkpt lat="46.13556" lon="6.80005">
        <ele>2417.055</ele>
        <time>2026-02-22T12:55:11Z</time>
      </trkpt>
      <trkpt lat="46.13556" lon="6.80005">
        <ele>2417.056</ele>
        <time>2026-02-22T12:55:16Z</time>
      </trkpt>
      <trkpt lat="46.13556" lon="6.80005">
        <ele>2417.055</ele>
        <time>2026-02-22T12:55:21Z</time>
      </trkpt>
      <trkpt lat="46.13556" lon="6.80005">
        <ele>2417.053</ele>
        <time>2026-02-22T12:55:26Z</time>
      </trkpt>
      <trkpt lat="46.13556" lon="6.80005">
        <ele>2417.051</ele>
        <time>2026-02-22T12:55:31Z</time>
      </trkpt>
      <trkpt lat="46.13556" lon="6.80005">
        <ele>2417.051</ele>
        <time>2026-02-22T12:55:36Z</time>
      </trkpt>
      <trkpt lat="46.13556" lon="6.80005">
        <ele>2417.05</ele>
        <time>2026-02-22T12:55:41Z</time>
      </trkpt>
      <trkpt lat="46.13556" lon="6.80005">
        <ele>2417.052</ele>
        <time>2026-02-22T12:55:46Z</time>
      </trkpt>
      <trkpt lat="46.13556" lon="6.80005">
        <ele>2417.052</ele>
        <time>2026-02-22T12:55:51Z</time>
      </trkpt>
      <trkpt lat="46.13556" lon="6.80005">
        <ele>2417.052</ele>
        <time>2026-02-22T12:55:56Z</time>
      </trkpt>
      <trkpt lat="46.13556" lon="6.80005">
        <ele>2417.051</ele>
        <time>2026-02-22T12:56:01Z</time>
      </trkpt>
      <trkpt lat="46.13556" lon="6.80005">
        <ele>2417.051</ele>
        <time>2026-02-22T12:56:06Z</time>
      </trkpt>
      <trkpt lat="46.13556" lon="6.80005">
        <ele>2417.051</ele>
        <time>2026-02-22T12:56:11Z</time>
      </trkpt>
      <trkpt lat="46.13556" lon="6.80005">
        <ele>2417.052</ele>
        <time>2026-02-22T12:56:16Z</time>
      </trkpt>
      <trkpt lat="46.13556" lon="6.80005">
        <ele>2417.053</ele>
        <time>2026-02-22T12:56:21Z</time>
      </trkpt>
      <trkpt lat="46.13556" lon="6.80005">
        <ele>2417.052</ele>
        <time>2026-02-22T12:56:26Z</time>
      </trkpt>
      <trkpt lat="46.13556" lon="6.80005">
        <ele>2417.046</ele>
        <time>2026-02-22T12:56:31Z</time>
      </trkpt>
      <trkpt lat="46.13556" lon="6.80005">
        <ele>2417.047</ele>
        <time>2026-02-22T12:56:35Z</time>
      </trkpt>
      <trkpt lat="46.13556" lon="6.80005">
        <ele>2417.046</ele>
        <time>2026-02-22T12:56:41Z</time>
      </trkpt>
      <trkpt lat="46.13556" lon="6.80005">
        <ele>2417.044</ele>
        <time>2026-02-22T12:56:46Z</time>
      </trkpt>
      <trkpt lat="46.13556" lon="6.80005">
        <ele>2415.21</ele>
        <time>2026-02-22T12:56:51Z</time>
      </trkpt>
      <trkpt lat="46.13556" lon="6.80005">
        <ele>2414.868</ele>
        <time>2026-02-22T12:56:56Z</time>
      </trkpt>
      <trkpt lat="46.13556" lon="6.80005">
        <ele>2414.767</ele>
        <time>2026-02-22T12:57:01Z</time>
      </trkpt>
      <trkpt lat="46.13556" lon="6.80005">
        <ele>2415.04</ele>
        <time>2026-02-22T12:57:06Z</time>
      </trkpt>
      <trkpt lat="46.13556" lon="6.80005">
        <ele>2415.197</ele>
        <time>2026-02-22T12:57:11Z</time>
      </trkpt>
      <trkpt lat="46.13556" lon="6.80005">
        <ele>2415.212</ele>
        <time>2026-02-22T12:57:16Z</time>
      </trkpt>
      <trkpt lat="46.13556" lon="6.80005">
        <ele>2415.169</ele>
        <time>2026-02-22T12:57:21Z</time>
      </trkpt>
      <trkpt lat="46.13556" lon="6.80005">
        <ele>2415.164</ele>
        <time>2026-02-22T12:57:26Z</time>
      </trkpt>
      <trkpt lat="46.13556" lon="6.80005">
        <ele>2415.162</ele>
        <time>2026-02-22T12:57:31Z</time>
      </trkpt>
      <trkpt lat="46.13556" lon="6.80005">
        <ele>2415.08</ele>
        <time>2026-02-22T12:57:36Z</time>
      </trkpt>
      <trkpt lat="46.13556" lon="6.80005">
        <ele>2415.08</ele>
        <time>2026-02-22T12:57:41Z</time>
      </trkpt>
      <trkpt lat="46.13556" lon="6.80005">
        <ele>2414.83</ele>
        <time>2026-02-22T12:57:46Z</time>
      </trkpt>
      <trkpt lat="46.13556" lon="6.80005">
        <ele>2414.878</ele>
        <time>2026-02-22T12:57:51Z</time>
      </trkpt>
      <trkpt lat="46.13556" lon="6.80005">
        <ele>2414.883</ele>
        <time>2026-02-22T12:57:56Z</time>
      </trkpt>
      <trkpt lat="46.13556" lon="6.80005">
        <ele>2414.895</ele>
        <time>2026-02-22T12:58:01Z</time>
      </trkpt>
      <trkpt lat="46.13556" lon="6.80005">
        <ele>2414.919</ele>
        <time>2026-02-22T12:58:06Z</time>
      </trkpt>
      <trkpt lat="46.13556" lon="6.80005">
        <ele>2414.966</ele>
        <time>2026-02-22T12:58:11Z</time>
      </trkpt>
      <trkpt lat="46.13556" lon="6.80005">
        <ele>2414.979</ele>
        <time>2026-02-22T12:58:16Z</time>
      </trkpt>
      <trkpt lat="46.13556" lon="6.80005">
        <ele>2414.968</ele>
        <time>2026-02-22T12:58:21Z</time>
      </trkpt>
      <trkpt lat="46.13556" lon="6.80005">
        <ele>2414.965</ele>
        <time>2026-02-22T12:58:26Z</time>
      </trkpt>
      <trkpt lat="46.13556" lon="6.80005">
        <ele>2414.965</ele>
        <time>2026-02-22T12:58:31Z</time>
      </trkpt>
      <trkpt lat="46.13556" lon="6.80005">
        <ele>2414.969</ele>
        <time>2026-02-22T12:58:36Z</time>
      </trkpt>
      <trkpt lat="46.13556" lon="6.80005">
        <ele>2414.984</ele>
        <time>2026-02-22T12:58:41Z</time>
      </trkpt>
      <trkpt lat="46.13556" lon="6.80005">
        <ele>2415.006</ele>
        <time>2026-02-22T12:58:46Z</time>
      </trkpt>
      <trkpt lat="46.13556" lon="6.80005">
        <ele>2415.01</ele>
        <time>2026-02-22T12:58:51Z</time>
      </trkpt>
      <trkpt lat="46.13556" lon="6.80005">
        <ele>2419.155</ele>
        <time>2026-02-22T12:58:56Z</time>
      </trkpt>
      <trkpt lat="46.13556" lon="6.80005">
        <ele>2417.726</ele>
        <time>2026-02-22T12:59:01Z</time>
      </trkpt>
      <trkpt lat="46.13556" lon="6.80005">
        <ele>2416.133</ele>
        <time>2026-02-22T12:59:06Z</time>
      </trkpt>
      <trkpt lat="46.13556" lon="6.80005">
        <ele>2416.183</ele>
        <time>2026-02-22T12:59:11Z</time>
      </trkpt>
      <trkpt lat="46.13556" lon="6.80005">
        <ele>2416.187</ele>
        <time>2026-02-22T12:59:16Z</time>
      </trkpt>
      <trkpt lat="46.13556" lon="6.80005">
        <ele>2415.998</ele>
        <time>2026-02-22T12:59:21Z</time>
      </trkpt>
      <trkpt lat="46.13556" lon="6.80005">
        <ele>2415.995</ele>
        <time>2026-02-22T12:59:26Z</time>
      </trkpt>
      <trkpt lat="46.13556" lon="6.80005">
        <ele>2416.014</ele>
        <time>2026-02-22T12:59:31Z</time>
      </trkpt>
      <trkpt lat="46.13556" lon="6.80005">
        <ele>2416.038</ele>
        <time>2026-02-22T12:59:36Z</time>
      </trkpt>
      <trkpt lat="46.13556" lon="6.80005">
        <ele>2416.038</ele>
        <time>2026-02-22T12:59:41Z</time>
      </trkpt>
      <trkpt lat="46.13556" lon="6.80005">
        <ele>2416.068</ele>
        <time>2026-02-22T12:59:46Z</time>
      </trkpt>
      <trkpt lat="46.13556" lon="6.80005">
        <ele>2416.083</ele>
        <time>2026-02-22T12:59:51Z</time>
      </trkpt>
      <trkpt lat="46.13556" lon="6.80005">
        <ele>2416.113</ele>
        <time>2026-02-22T12:59:56Z</time>
      </trkpt>
      <trkpt lat="46.13556" lon="6.80005">
        <ele>2416.117</ele>
        <time>2026-02-22T13:00:01Z</time>
      </trkpt>
      <trkpt lat="46.13556" lon="6.80005">
        <ele>2416.055</ele>
        <time>2026-02-22T13:00:06Z</time>
      </trkpt>
      <trkpt lat="46.13556" lon="6.80005">
        <ele>2416.103</ele>
        <time>2026-02-22T13:00:11Z</time>
      </trkpt>
      <trkpt lat="46.13556" lon="6.80005">
        <ele>2416.107</ele>
        <time>2026-02-22T13:00:16Z</time>
      </trkpt>
      <trkpt lat="46.13556" lon="6.80005">
        <ele>2416.098</ele>
        <time>2026-02-22T13:00:21Z</time>
      </trkpt>
      <trkpt lat="46.13556" lon="6.80005">
        <ele>2416.079</ele>
        <time>2026-02-22T13:00:26Z</time>
      </trkpt>
      <trkpt lat="46.13556" lon="6.80005">
        <ele>2416.094</ele>
        <time>2026-02-22T13:00:31Z</time>
      </trkpt>
      <trkpt lat="46.13556" lon="6.80005">
        <ele>2416.096</ele>
        <time>2026-02-22T13:00:36Z</time>
      </trkpt>
      <trkpt lat="46.13556" lon="6.80005">
        <ele>2416.096</ele>
        <time>2026-02-22T13:00:41Z</time>
      </trkpt>
      <trkpt lat="46.13556" lon="6.80005">
        <ele>2415.737</ele>
        <time>2026-02-22T13:00:46Z</time>
      </trkpt>
      <trkpt lat="46.13556" lon="6.80005">
        <ele>2415.552</ele>
        <time>2026-02-22T13:00:51Z</time>
      </trkpt>
      <trkpt lat="46.13556" lon="6.80005">
        <ele>2414.595</ele>
        <time>2026-02-22T13:00:56Z</time>
      </trkpt>
      <trkpt lat="46.13556" lon="6.80005">
        <ele>2414.727</ele>
        <time>2026-02-22T13:01:01Z</time>
      </trkpt>
      <trkpt lat="46.13556" lon="6.80005">
        <ele>2413.284</ele>
        <time>2026-02-22T13:01:06Z</time>
      </trkpt>
      <trkpt lat="46.13556" lon="6.80005">
        <ele>2412.13</ele>
        <time>2026-02-22T13:01:11Z</time>
      </trkpt>
      <trkpt lat="46.13556" lon="6.80005">
        <ele>2412.204</ele>
        <time>2026-02-22T13:01:16Z</time>
      </trkpt>
      <trkpt lat="46.13556" lon="6.80005">
        <ele>2412.157</ele>
        <time>2026-02-22T13:01:21Z</time>
      </trkpt>
      <trkpt lat="46.13556" lon="6.80005">
        <ele>2412.319</ele>
        <time>2026-02-22T13:01:26Z</time>
      </trkpt>
      <trkpt lat="46.13556" lon="6.80005">
        <ele>2412.622</ele>
        <time>2026-02-22T13:01:31Z</time>
      </trkpt>
      <trkpt lat="46.13556" lon="6.80005">
        <ele>2412.812</ele>
        <time>2026-02-22T13:01:36Z</time>
      </trkpt>
      <trkpt lat="46.13556" lon="6.80005">
        <ele>2413.027</ele>
        <time>2026-02-22T13:01:41Z</time>
      </trkpt>
      <trkpt lat="46.13556" lon="6.80005">
        <ele>2413.052</ele>
        <time>2026-02-22T13:01:46Z</time>
      </trkpt>
      <trkpt lat="46.13556" lon="6.80005">
        <ele>2413.037</ele>
        <time>2026-02-22T13:01:51Z</time>
      </trkpt>
      <trkpt lat="46.13556" lon="6.80005">
        <ele>2413.13</ele>
        <time>2026-02-22T13:01:56Z</time>
      </trkpt>
      <trkpt lat="46.13556" lon="6.80005">
        <ele>2414.384</ele>
        <time>2026-02-22T13:02:01Z</time>
      </trkpt>
      <trkpt lat="46.13556" lon="6.80005">
        <ele>2415.778</ele>
        <time>2026-02-22T13:02:06Z</time>
      </trkpt>
      <trkpt lat="46.13556" lon="6.80005">
        <ele>2416.645</ele>
        <time>2026-02-22T13:02:11Z</time>
      </trkpt>
      <trkpt lat="46.13556" lon="6.80005">
        <ele>2416.82</ele>
        <time>2026-02-22T13:02:16Z</time>
      </trkpt>
      <trkpt lat="46.13556" lon="6.80005">
        <ele>2416.824</ele>
        <time>2026-02-22T13:02:21Z</time>
      </trkpt>
      <trkpt lat="46.13556" lon="6.80005">
        <ele>2416.835</ele>
        <time>2026-02-22T13:02:26Z</time>
      </trkpt>
      <trkpt lat="46.13556" lon="6.80005">
        <ele>2416.838</ele>
        <time>2026-02-22T13:02:31Z</time>
      </trkpt>
      <trkpt lat="46.13556" lon="6.80005">
        <ele>2416.777</ele>
        <time>2026-02-22T13:02:36Z</time>
      </trkpt>
      <trkpt lat="46.13556" lon="6.80005">
        <ele>2416.783</ele>
        <time>2026-02-22T13:02:41Z</time>
      </trkpt>
      <trkpt lat="46.13556" lon="6.80005">
        <ele>2416.793</ele>
        <time>2026-02-22T13:02:46Z</time>
      </trkpt>
      <trkpt lat="46.13556" lon="6.80005">
        <ele>2416.795</ele>
        <time>2026-02-22T13:02:51Z</time>
      </trkpt>
      <trkpt lat="46.13556" lon="6.80005">
        <ele>2416.799</ele>
        <time>2026-02-22T13:02:56Z</time>
      </trkpt>
      <trkpt lat="46.13556" lon="6.80005">
        <ele>2416.804</ele>
        <time>2026-02-22T13:03:01Z</time>
      </trkpt>
      <trkpt lat="46.13556" lon="6.80005">
        <ele>2416.809</ele>
        <time>2026-02-22T13:03:06Z</time>
      </trkpt>
      <trkpt lat="46.13556" lon="6.80005">
        <ele>2416.809</ele>
        <time>2026-02-22T13:03:11Z</time>
      </trkpt>
      <trkpt lat="46.13556" lon="6.80005">
        <ele>2416.815</ele>
        <time>2026-02-22T13:03:16Z</time>
      </trkpt>
      <trkpt lat="46.13556" lon="6.80005">
        <ele>2416.828</ele>
        <time>2026-02-22T13:03:21Z</time>
      </trkpt>
      <trkpt lat="46.13556" lon="6.80005">
        <ele>2417.82</ele>
        <time>2026-02-22T13:03:26Z</time>
      </trkpt>
      <trkpt lat="46.13556" lon="6.80005">
        <ele>2418.116</ele>
        <time>2026-02-22T13:03:31Z</time>
      </trkpt>
      <trkpt lat="46.13556" lon="6.80005">
        <ele>2418.078</ele>
        <time>2026-02-22T13:03:36Z</time>
      </trkpt>
      <trkpt lat="46.13556" lon="6.80005">
        <ele>2418.073</ele>
        <time>2026-02-22T13:03:41Z</time>
      </trkpt>
      <trkpt lat="46.13556" lon="6.80005">
        <ele>2418.079</ele>
        <time>2026-02-22T13:03:46Z</time>
      </trkpt>
      <trkpt lat="46.13556" lon="6.80005">
        <ele>2418.268</ele>
        <time>2026-02-22T13:03:51Z</time>
      </trkpt>
      <trkpt lat="46.13556" lon="6.80005">
        <ele>2418.476</ele>
        <time>2026-02-22T13:03:56Z</time>
      </trkpt>
      <trkpt lat="46.13556" lon="6.80005">
        <ele>2418.231</ele>
        <time>2026-02-22T13:04:01Z</time>
      </trkpt>
      <trkpt lat="46.13556" lon="6.80005">
        <ele>2418.232</ele>
        <time>2026-02-22T13:04:06Z</time>
      </trkpt>
      <trkpt lat="46.13556" lon="6.80005">
        <ele>2418.437</ele>
        <time>2026-02-22T13:04:11Z</time>
      </trkpt>
      <trkpt lat="46.13556" lon="6.80005">
        <ele>2418.374</ele>
        <time>2026-02-22T13:04:16Z</time>
      </trkpt>
      <trkpt lat="46.13556" lon="6.80005">
        <ele>2418.605</ele>
        <time>2026-02-22T13:04:21Z</time>
      </trkpt>
      <trkpt lat="46.13556" lon="6.80005">
        <ele>2418.574</ele>
        <time>2026-02-22T13:04:26Z</time>
      </trkpt>
      <trkpt lat="46.13556" lon="6.80005">
        <ele>2417.146</ele>
        <time>2026-02-22T13:04:31Z</time>
      </trkpt>
      <trkpt lat="46.13556" lon="6.80005">
        <ele>2416.844</ele>
        <time>2026-02-22T13:04:36Z</time>
      </trkpt>
      <trkpt lat="46.13556" lon="6.80005">
        <ele>2416.769</ele>
        <time>2026-02-22T13:04:41Z</time>
      </trkpt>
      <trkpt lat="46.13556" lon="6.80005">
        <ele>2416.753</ele>
        <time>2026-02-22T13:04:46Z</time>
      </trkpt>
      <trkpt lat="46.13556" lon="6.80005">
        <ele>2416.727</ele>
        <time>2026-02-22T13:04:51Z</time>
      </trkpt>
      <trkpt lat="46.13556" lon="6.80005">
        <ele>2416.86</ele>
        <time>2026-02-22T13:04:56Z</time>
      </trkpt>
      <trkpt lat="46.13556" lon="6.80005">
        <ele>2416.721</ele>
        <time>2026-02-22T13:05:01Z</time>
      </trkpt>
      <trkpt lat="46.13556" lon="6.80005">
        <ele>2416.728</ele>
        <time>2026-02-22T13:05:06Z</time>
      </trkpt>
      <trkpt lat="46.13556" lon="6.80005">
        <ele>2416.722</ele>
        <time>2026-02-22T13:05:11Z</time>
      </trkpt>
      <trkpt lat="46.13556" lon="6.80005">
        <ele>2417.508</ele>
        <time>2026-02-22T13:05:16Z</time>
      </trkpt>
      <trkpt lat="46.13556" lon="6.80005">
        <ele>2417.536</ele>
        <time>2026-02-22T13:05:21Z</time>
      </trkpt>
      <trkpt lat="46.13553" lon="6.8001">
        <ele>2416.976</ele>
        <time>2026-02-22T13:05:26Z</time>
      </trkpt>
      <trkpt lat="46.13554" lon="6.80011">
        <ele>2415.847</ele>
        <time>2026-02-22T13:05:31Z</time>
      </trkpt>
      <trkpt lat="46.13556" lon="6.80016">
        <ele>2416.113</ele>
        <time>2026-02-22T13:05:36Z</time>
      </trkpt>
      <trkpt lat="46.13557" lon="6.80022">
        <ele>2417.031</ele>
        <time>2026-02-22T13:05:41Z</time>
      </trkpt>
      <trkpt lat="46.13558" lon="6.80029">
        <ele>2417.839</ele>
        <time>2026-02-22T13:05:46Z</time>
      </trkpt>
      <trkpt lat="46.13559" lon="6.80031">
        <ele>2418.04</ele>
        <time>2026-02-22T13:05:51Z</time>
      </trkpt>
      <trkpt lat="46.13559" lon="6.80031">
        <ele>2418.045</ele>
        <time>2026-02-22T13:05:56Z</time>
      </trkpt>
      <trkpt lat="46.13559" lon="6.80031">
        <ele>2418.044</ele>
        <time>2026-02-22T13:06:01Z</time>
      </trkpt>
      <trkpt lat="46.13559" lon="6.80031">
        <ele>2418.051</ele>
        <time>2026-02-22T13:06:06Z</time>
      </trkpt>
      <trkpt lat="46.13559" lon="6.80031">
        <ele>2418.055</ele>
        <time>2026-02-22T13:06:11Z</time>
      </trkpt>
      <trkpt lat="46.13559" lon="6.80031">
        <ele>2418.065</ele>
        <time>2026-02-22T13:06:16Z</time>
      </trkpt>
      <trkpt lat="46.13559" lon="6.80031">
        <ele>2418.072</ele>
        <time>2026-02-22T13:06:21Z</time>
      </trkpt>
      <trkpt lat="46.13559" lon="6.80031">
        <ele>2418.08</ele>
        <time>2026-02-22T13:06:26Z</time>
      </trkpt>
      <trkpt lat="46.13559" lon="6.80031">
        <ele>2418.089</ele>
        <time>2026-02-22T13:06:31Z</time>
      </trkpt>
      <trkpt lat="46.13559" lon="6.80031">
        <ele>2418.096</ele>
        <time>2026-02-22T13:06:36Z</time>
      </trkpt>
      <trkpt lat="46.13559" lon="6.80031">
        <ele>2418.104</ele>
        <time>2026-02-22T13:06:41Z</time>
      </trkpt>
      <trkpt lat="46.13559" lon="6.80031">
        <ele>2418.108</ele>
        <time>2026-02-22T13:06:46Z</time>
      </trkpt>
      <trkpt lat="46.13559" lon="6.80031">
        <ele>2418.121</ele>
        <time>2026-02-22T13:06:51Z</time>
      </trkpt>
      <trkpt lat="46.13559" lon="6.80031">
        <ele>2418.127</ele>
        <time>2026-02-22T13:06:56Z</time>
      </trkpt>
      <trkpt lat="46.13559" lon="6.80031">
        <ele>2418.262</ele>
        <time>2026-02-22T13:07:01Z</time>
      </trkpt>
      <trkpt lat="46.13559" lon="6.80031">
        <ele>2418.761</ele>
        <time>2026-02-22T13:07:06Z</time>
      </trkpt>
      <trkpt lat="46.13559" lon="6.80031">
        <ele>2418.766</ele>
        <time>2026-02-22T13:07:11Z</time>
      </trkpt>
      <trkpt lat="46.13559" lon="6.80031">
        <ele>2418.774</ele>
        <time>2026-02-22T13:07:16Z</time>
      </trkpt>
      <trkpt lat="46.13559" lon="6.80031">
        <ele>2418.665</ele>
        <time>2026-02-22T13:07:21Z</time>
      </trkpt>
      <trkpt lat="46.13559" lon="6.80031">
        <ele>2418.673</ele>
        <time>2026-02-22T13:07:26Z</time>
      </trkpt>
      <trkpt lat="46.13559" lon="6.80031">
        <ele>2418.682</ele>
        <time>2026-02-22T13:07:31Z</time>
      </trkpt>
      <trkpt lat="46.13559" lon="6.80031">
        <ele>2418.541</ele>
        <time>2026-02-22T13:07:36Z</time>
      </trkpt>
      <trkpt lat="46.13559" lon="6.80031">
        <ele>2418.544</ele>
        <time>2026-02-22T13:07:41Z</time>
      </trkpt>
      <trkpt lat="46.13559" lon="6.80031">
        <ele>2418.546</ele>
        <time>2026-02-22T13:07:46Z</time>
      </trkpt>
      <trkpt lat="46.13559" lon="6.80031">
        <ele>2419.041</ele>
        <time>2026-02-22T13:07:51Z</time>
      </trkpt>
      <trkpt lat="46.13559" lon="6.80031">
        <ele>2419.038</ele>
        <time>2026-02-22T13:07:56Z</time>
      </trkpt>
      <trkpt lat="46.13559" lon="6.80031">
        <ele>2419.181</ele>
        <time>2026-02-22T13:08:01Z</time>
      </trkpt>
      <trkpt lat="46.13557" lon="6.80027">
        <ele>2419.38</ele>
        <time>2026-02-22T13:08:06Z</time>
      </trkpt>
      <trkpt lat="46.13557" lon="6.80023">
        <ele>2419.798</ele>
        <time>2026-02-22T13:08:11Z</time>
      </trkpt>
      <trkpt lat="46.13555" lon="6.80018">
        <ele>2420.041</ele>
        <time>2026-02-22T13:08:16Z</time>
      </trkpt>
      <trkpt lat="46.13555" lon="6.80014">
        <ele>2419.34</ele>
        <time>2026-02-22T13:08:21Z</time>
      </trkpt>
      <trkpt lat="46.13556" lon="6.8001">
        <ele>2418.556</ele>
        <time>2026-02-22T13:08:26Z</time>
      </trkpt>
      <trkpt lat="46.13556" lon="6.80006">
        <ele>2418.137</ele>
        <time>2026-02-22T13:08:31Z</time>
      </trkpt>
      <trkpt lat="46.13556" lon="6.80004">
        <ele>2417.766</ele>
        <time>2026-02-22T13:08:36Z</time>
      </trkpt>
      <trkpt lat="46.13554" lon="6.80003">
        <ele>2418.355</ele>
        <time>2026-02-22T13:08:41Z</time>
      </trkpt>
      <trkpt lat="46.13553" lon="6.80004">
        <ele>2418.7</ele>
        <time>2026-02-22T13:08:46Z</time>
      </trkpt>
      <trkpt lat="46.13553" lon="6.80004">
        <ele>2418.706</ele>
        <time>2026-02-22T13:08:51Z</time>
      </trkpt>
      <trkpt lat="46.13553" lon="6.80004">
        <ele>2418.719</ele>
        <time>2026-02-22T13:08:56Z</time>
      </trkpt>
      <trkpt lat="46.13553" lon="6.80004">
        <ele>2418.732</ele>
        <time>2026-02-22T13:09:01Z</time>
      </trkpt>
      <trkpt lat="46.13553" lon="6.80004">
        <ele>2418.743</ele>
        <time>2026-02-22T13:09:06Z</time>
      </trkpt>
      <trkpt lat="46.13553" lon="6.80004">
        <ele>2418.751</ele>
        <time>2026-02-22T13:09:11Z</time>
      </trkpt>
      <trkpt lat="46.13553" lon="6.80004">
        <ele>2418.755</ele>
        <time>2026-02-22T13:09:16Z</time>
      </trkpt>
      <trkpt lat="46.13553" lon="6.80004">
        <ele>2418.756</ele>
        <time>2026-02-22T13:09:21Z</time>
      </trkpt>
      <trkpt lat="46.13553" lon="6.80004">
        <ele>2418.72</ele>
        <time>2026-02-22T13:09:26Z</time>
      </trkpt>
      <trkpt lat="46.13553" lon="6.80004">
        <ele>2418.713</ele>
        <time>2026-02-22T13:09:31Z</time>
      </trkpt>
      <trkpt lat="46.13553" lon="6.80004">
        <ele>2418.283</ele>
        <time>2026-02-22T13:09:36Z</time>
      </trkpt>
      <trkpt lat="46.13553" lon="6.80004">
        <ele>2417.803</ele>
        <time>2026-02-22T13:09:41Z</time>
      </trkpt>
      <trkpt lat="46.13553" lon="6.80004">
        <ele>2417.337</ele>
        <time>2026-02-22T13:09:46Z</time>
      </trkpt>
      <trkpt lat="46.13553" lon="6.80004">
        <ele>2417.341</ele>
        <time>2026-02-22T13:09:51Z</time>
      </trkpt>
      <trkpt lat="46.13553" lon="6.80004">
        <ele>2417.348</ele>
        <time>2026-02-22T13:09:56Z</time>
      </trkpt>
      <trkpt lat="46.13553" lon="6.80004">
        <ele>2417.358</ele>
        <time>2026-02-22T13:10:01Z</time>
      </trkpt>
      <trkpt lat="46.13553" lon="6.80004">
        <ele>2417.364</ele>
        <time>2026-02-22T13:10:06Z</time>
      </trkpt>
      <trkpt lat="46.13553" lon="6.80004">
        <ele>2417.364</ele>
        <time>2026-02-22T13:10:11Z</time>
      </trkpt>
      <trkpt lat="46.13553" lon="6.80004">
        <ele>2417.374</ele>
        <time>2026-02-22T13:10:16Z</time>
      </trkpt>
      <trkpt lat="46.13553" lon="6.80004">
        <ele>2417.575</ele>
        <time>2026-02-22T13:10:21Z</time>
      </trkpt>
      <trkpt lat="46.13553" lon="6.80004">
        <ele>2417.569</ele>
        <time>2026-02-22T13:10:26Z</time>
      </trkpt>
      <trkpt lat="46.13553" lon="6.80004">
        <ele>2417.636</ele>
        <time>2026-02-22T13:10:31Z</time>
      </trkpt>
      <trkpt lat="46.13553" lon="6.80004">
        <ele>2418.027</ele>
        <time>2026-02-22T13:10:36Z</time>
      </trkpt>
      <trkpt lat="46.13553" lon="6.80004">
        <ele>2417.943</ele>
        <time>2026-02-22T13:10:41Z</time>
      </trkpt>
      <trkpt lat="46.13553" lon="6.80004">
        <ele>2417.939</ele>
        <time>2026-02-22T13:10:46Z</time>
      </trkpt>
      <trkpt lat="46.13553" lon="6.80004">
        <ele>2417.84</ele>
        <time>2026-02-22T13:10:51Z</time>
      </trkpt>
      <trkpt lat="46.13553" lon="6.80004">
        <ele>2418.248</ele>
        <time>2026-02-22T13:10:56Z</time>
      </trkpt>
      <trkpt lat="46.13553" lon="6.80004">
        <ele>2418.254</ele>
        <time>2026-02-22T13:11:01Z</time>
      </trkpt>
      <trkpt lat="46.13553" lon="6.80004">
        <ele>2418.252</ele>
        <time>2026-02-22T13:11:06Z</time>
      </trkpt>
      <trkpt lat="46.13553" lon="6.80004">
        <ele>2418.254</ele>
        <time>2026-02-22T13:11:11Z</time>
      </trkpt>
      <trkpt lat="46.13553" lon="6.80004">
        <ele>2418.256</ele>
        <time>2026-02-22T13:11:16Z</time>
      </trkpt>
      <trkpt lat="46.13553" lon="6.80004">
        <ele>2418.177</ele>
        <time>2026-02-22T13:11:21Z</time>
      </trkpt>
      <trkpt lat="46.13553" lon="6.80004">
        <ele>2417.857</ele>
        <time>2026-02-22T13:11:26Z</time>
      </trkpt>
      <trkpt lat="46.13553" lon="6.80004">
        <ele>2417.856</ele>
        <time>2026-02-22T13:11:31Z</time>
      </trkpt>
      <trkpt lat="46.13553" lon="6.80004">
        <ele>2417.613</ele>
        <time>2026-02-22T13:11:36Z</time>
      </trkpt>
      <trkpt lat="46.13553" lon="6.80004">
        <ele>2417.45</ele>
        <time>2026-02-22T13:11:41Z</time>
      </trkpt>
      <trkpt lat="46.13553" lon="6.80004">
        <ele>2417.454</ele>
        <time>2026-02-22T13:11:46Z</time>
      </trkpt>
      <trkpt lat="46.13553" lon="6.80004">
        <ele>2417.462</ele>
        <time>2026-02-22T13:11:51Z</time>
      </trkpt>
      <trkpt lat="46.13553" lon="6.80004">
        <ele>2417.467</ele>
        <time>2026-02-22T13:11:56Z</time>
      </trkpt>
      <trkpt lat="46.13553" lon="6.80004">
        <ele>2417.47</ele>
        <time>2026-02-22T13:12:01Z</time>
      </trkpt>
      <trkpt lat="46.13553" lon="6.80004">
        <ele>2417.481</ele>
        <time>2026-02-22T13:12:06Z</time>
      </trkpt>
      <trkpt lat="46.13553" lon="6.80004">
        <ele>2417.482</ele>
        <time>2026-02-22T13:12:11Z</time>
      </trkpt>
      <trkpt lat="46.13553" lon="6.80004">
        <ele>2417.823</ele>
        <time>2026-02-22T13:12:16Z</time>
      </trkpt>
      <trkpt lat="46.13553" lon="6.80004">
        <ele>2417.839</ele>
        <time>2026-02-22T13:12:21Z</time>
      </trkpt>
      <trkpt lat="46.13553" lon="6.80004">
        <ele>2417.771</ele>
        <time>2026-02-22T13:12:26Z</time>
      </trkpt>
      <trkpt lat="46.13553" lon="6.80004">
        <ele>2417.78</ele>
        <time>2026-02-22T13:12:31Z</time>
      </trkpt>
      <trkpt lat="46.13553" lon="6.80004">
        <ele>2417.78</ele>
        <time>2026-02-22T13:12:36Z</time>
      </trkpt>
      <trkpt lat="46.13553" lon="6.80004">
        <ele>2417.785</ele>
        <time>2026-02-22T13:12:41Z</time>
      </trkpt>
      <trkpt lat="46.13553" lon="6.80004">
        <ele>2417.785</ele>
        <time>2026-02-22T13:12:46Z</time>
      </trkpt>
      <trkpt lat="46.13553" lon="6.80004">
        <ele>2417.784</ele>
        <time>2026-02-22T13:12:51Z</time>
      </trkpt>
      <trkpt lat="46.13553" lon="6.80004">
        <ele>2417.781</ele>
        <time>2026-02-22T13:12:56Z</time>
      </trkpt>
      <trkpt lat="46.13553" lon="6.80004">
        <ele>2417.784</ele>
        <time>2026-02-22T13:13:01Z</time>
      </trkpt>
      <trkpt lat="46.13553" lon="6.80004">
        <ele>2417.786</ele>
        <time>2026-02-22T13:13:06Z</time>
      </trkpt>
      <trkpt lat="46.13553" lon="6.80004">
        <ele>2417.786</ele>
        <time>2026-02-22T13:13:11Z</time>
      </trkpt>
      <trkpt lat="46.13553" lon="6.80004">
        <ele>2417.791</ele>
        <time>2026-02-22T13:13:16Z</time>
      </trkpt>
      <trkpt lat="46.13553" lon="6.80004">
        <ele>2417.794</ele>
        <time>2026-02-22T13:13:21Z</time>
      </trkpt>
      <trkpt lat="46.13553" lon="6.80004">
        <ele>2417.801</ele>
        <time>2026-02-22T13:13:26Z</time>
      </trkpt>
      <trkpt lat="46.13553" lon="6.80004">
        <ele>2417.799</ele>
        <time>2026-02-22T13:13:31Z</time>
      </trkpt>
      <trkpt lat="46.13553" lon="6.80004">
        <ele>2417.798</ele>
        <time>2026-02-22T13:13:36Z</time>
      </trkpt>
      <trkpt lat="46.13553" lon="6.80004">
        <ele>2417.797</ele>
        <time>2026-02-22T13:13:41Z</time>
      </trkpt>
      <trkpt lat="46.13553" lon="6.80004">
        <ele>2417.794</ele>
        <time>2026-02-22T13:13:46Z</time>
      </trkpt>
      <trkpt lat="46.13553" lon="6.80004">
        <ele>2417.792</ele>
        <time>2026-02-22T13:13:51Z</time>
      </trkpt>
      <trkpt lat="46.13553" lon="6.80004">
        <ele>2417.636</ele>
        <time>2026-02-22T13:13:56Z</time>
      </trkpt>
      <trkpt lat="46.13553" lon="6.80004">
        <ele>2417.644</ele>
        <time>2026-02-22T13:14:01Z</time>
      </trkpt>
      <trkpt lat="46.13553" lon="6.80004">
        <ele>2417.645</ele>
        <time>2026-02-22T13:14:06Z</time>
      </trkpt>
      <trkpt lat="46.13553" lon="6.80004">
        <ele>2417.48</ele>
        <time>2026-02-22T13:14:11Z</time>
      </trkpt>
      <trkpt lat="46.13553" lon="6.80004">
        <ele>2417.45</ele>
        <time>2026-02-22T13:14:16Z</time>
      </trkpt>
      <trkpt lat="46.13553" lon="6.80004">
        <ele>2417.447</ele>
        <time>2026-02-22T13:14:21Z</time>
      </trkpt>
      <trkpt lat="46.13553" lon="6.80004">
        <ele>2417.449</ele>
        <time>2026-02-22T13:14:26Z</time>
      </trkpt>
      <trkpt lat="46.13553" lon="6.80004">
        <ele>2417.447</ele>
        <time>2026-02-22T13:14:31Z</time>
      </trkpt>
      <trkpt lat="46.13553" lon="6.80004">
        <ele>2417.452</ele>
        <time>2026-02-22T13:14:36Z</time>
      </trkpt>
      <trkpt lat="46.13553" lon="6.80004">
        <ele>2416.811</ele>
        <time>2026-02-22T13:14:41Z</time>
      </trkpt>
      <trkpt lat="46.13553" lon="6.80004">
        <ele>2417.087</ele>
        <time>2026-02-22T13:14:46Z</time>
      </trkpt>
      <trkpt lat="46.13553" lon="6.80004">
        <ele>2417.094</ele>
        <time>2026-02-22T13:14:51Z</time>
      </trkpt>
      <trkpt lat="46.13553" lon="6.80004">
        <ele>2417.101</ele>
        <time>2026-02-22T13:14:56Z</time>
      </trkpt>
      <trkpt lat="46.13553" lon="6.80004">
        <ele>2417.11</ele>
        <time>2026-02-22T13:15:01Z</time>
      </trkpt>
      <trkpt lat="46.13553" lon="6.80004">
        <ele>2417.113</ele>
        <time>2026-02-22T13:15:06Z</time>
      </trkpt>
      <trkpt lat="46.13553" lon="6.80004">
        <ele>2417.132</ele>
        <time>2026-02-22T13:15:11Z</time>
      </trkpt>
      <trkpt lat="46.13553" lon="6.80004">
        <ele>2417.132</ele>
        <time>2026-02-22T13:15:16Z</time>
      </trkpt>
      <trkpt lat="46.13553" lon="6.80004">
        <ele>2417.137</ele>
        <time>2026-02-22T13:15:21Z</time>
      </trkpt>
      <trkpt lat="46.13553" lon="6.80004">
        <ele>2417.145</ele>
        <time>2026-02-22T13:15:26Z</time>
      </trkpt>
      <trkpt lat="46.13553" lon="6.80004">
        <ele>2417.151</ele>
        <time>2026-02-22T13:15:31Z</time>
      </trkpt>
      <trkpt lat="46.13553" lon="6.80004">
        <ele>2417.163</ele>
        <time>2026-02-22T13:15:36Z</time>
      </trkpt>
      <trkpt lat="46.13553" lon="6.80004">
        <ele>2417.171</ele>
        <time>2026-02-22T13:15:41Z</time>
      </trkpt>
      <trkpt lat="46.13553" lon="6.80004">
        <ele>2417.17</ele>
        <time>2026-02-22T13:15:46Z</time>
      </trkpt>
      <trkpt lat="46.13553" lon="6.80004">
        <ele>2417.18</ele>
        <time>2026-02-22T13:15:51Z</time>
      </trkpt>
      <trkpt lat="46.13553" lon="6.80004">
        <ele>2417.203</ele>
        <time>2026-02-22T13:15:56Z</time>
      </trkpt>
      <trkpt lat="46.13553" lon="6.80004">
        <ele>2417.39</ele>
        <time>2026-02-22T13:16:01Z</time>
      </trkpt>
      <trkpt lat="46.13553" lon="6.80004">
        <ele>2416.294</ele>
        <time>2026-02-22T13:16:06Z</time>
      </trkpt>
      <trkpt lat="46.13553" lon="6.80004">
        <ele>2416.304</ele>
        <time>2026-02-22T13:16:11Z</time>
      </trkpt>
      <trkpt lat="46.13553" lon="6.80004">
        <ele>2416.321</ele>
        <time>2026-02-22T13:16:16Z</time>
      </trkpt>
      <trkpt lat="46.13553" lon="6.80004">
        <ele>2416.35</ele>
        <time>2026-02-22T13:16:21Z</time>
      </trkpt>
      <trkpt lat="46.13553" lon="6.80004">
        <ele>2416.364</ele>
        <time>2026-02-22T13:16:26Z</time>
      </trkpt>
      <trkpt lat="46.13553" lon="6.80004">
        <ele>2416.375</ele>
        <time>2026-02-22T13:16:31Z</time>
      </trkpt>
      <trkpt lat="46.13553" lon="6.80004">
        <ele>2416.387</ele>
        <time>2026-02-22T13:16:36Z</time>
      </trkpt>
      <trkpt lat="46.13553" lon="6.80004">
        <ele>2416.398</ele>
        <time>2026-02-22T13:16:41Z</time>
      </trkpt>
      <trkpt lat="46.13553" lon="6.80004">
        <ele>2416.279</ele>
        <time>2026-02-22T13:16:46Z</time>
      </trkpt>
      <trkpt lat="46.13554" lon="6.80002">
        <ele>2416.299</ele>
        <time>2026-02-22T13:16:51Z</time>
      </trkpt>
      <trkpt lat="46.13554" lon="6.80002">
        <ele>2416.311</ele>
        <time>2026-02-22T13:16:56Z</time>
      </trkpt>
      <trkpt lat="46.13554" lon="6.80002">
        <ele>2416.319</ele>
        <time>2026-02-22T13:17:01Z</time>
      </trkpt>
      <trkpt lat="46.13554" lon="6.80002">
        <ele>2416.334</ele>
        <time>2026-02-22T13:17:06Z</time>
      </trkpt>
      <trkpt lat="46.13554" lon="6.80002">
        <ele>2416.348</ele>
        <time>2026-02-22T13:17:11Z</time>
      </trkpt>
      <trkpt lat="46.13554" lon="6.80002">
        <ele>2416.367</ele>
        <time>2026-02-22T13:17:16Z</time>
      </trkpt>
      <trkpt lat="46.13554" lon="6.80002">
        <ele>2416.381</ele>
        <time>2026-02-22T13:17:21Z</time>
      </trkpt>
      <trkpt lat="46.13554" lon="6.80002">
        <ele>2416.389</ele>
        <time>2026-02-22T13:17:26Z</time>
      </trkpt>
      <trkpt lat="46.13554" lon="6.80002">
        <ele>2416.401</ele>
        <time>2026-02-22T13:17:31Z</time>
      </trkpt>
      <trkpt lat="46.13555" lon="6.80001">
        <ele>2416.417</ele>
        <time>2026-02-22T13:17:36Z</time>
      </trkpt>
      <trkpt lat="46.13554" lon="6.8">
        <ele>2416.444</ele>
        <time>2026-02-22T13:17:41Z</time>
      </trkpt>
      <trkpt lat="46.13554" lon="6.7999">
        <ele>2415.963</ele>
        <time>2026-02-22T13:17:46Z</time>
      </trkpt>
      <trkpt lat="46.13559" lon="6.79973">
        <ele>2414.507</ele>
        <time>2026-02-22T13:17:51Z</time>
      </trkpt>
      <trkpt lat="46.13564" lon="6.79951">
        <ele>2411.041</ele>
        <time>2026-02-22T13:17:56Z</time>
      </trkpt>
      <trkpt lat="46.13557" lon="6.79928">
        <ele>2408.315</ele>
        <time>2026-02-22T13:18:01Z</time>
      </trkpt>
      <trkpt lat="46.13553" lon="6.79901">
        <ele>2403.381</ele>
        <time>2026-02-22T13:18:06Z</time>
      </trkpt>
      <trkpt lat="46.13546" lon="6.79876">
        <ele>2399.868</ele>
        <time>2026-02-22T13:18:11Z</time>
      </trkpt>
      <trkpt lat="46.13544" lon="6.79848">
        <ele>2395.574</ele>
        <time>2026-02-22T13:18:16Z</time>
      </trkpt>
      <trkpt lat="46.13543" lon="6.79827">
        <ele>2389.849</ele>
        <time>2026-02-22T13:18:21Z</time>
      </trkpt>
      <trkpt lat="46.13542" lon="6.79804">
        <ele>2384.266</ele>
        <time>2026-02-22T13:18:26Z</time>
      </trkpt>
      <trkpt lat="46.13543" lon="6.79777">
        <ele>2378.535</ele>
        <time>2026-02-22T13:18:31Z</time>
      </trkpt>
      <trkpt lat="46.13541" lon="6.79745">
        <ele>2371.04</ele>
        <time>2026-02-22T13:18:36Z</time>
      </trkpt>
      <trkpt lat="46.13525" lon="6.79718">
        <ele>2366.011</ele>
        <time>2026-02-22T13:18:41Z</time>
      </trkpt>
      <trkpt lat="46.13522" lon="6.79689">
        <ele>2361.113</ele>
        <time>2026-02-22T13:18:46Z</time>
      </trkpt>
      <trkpt lat="46.13509" lon="6.79662">
        <ele>2357.434</ele>
        <time>2026-02-22T13:18:51Z</time>
      </trkpt>
      <trkpt lat="46.13506" lon="6.79631">
        <ele>2352.742</ele>
        <time>2026-02-22T13:18:56Z</time>
      </trkpt>
      <trkpt lat="46.13502" lon="6.79599">
        <ele>2349.311</ele>
        <time>2026-02-22T13:19:01Z</time>
      </trkpt>
      <trkpt lat="46.1349" lon="6.79581">
        <ele>2344.497</ele>
        <time>2026-02-22T13:19:06Z</time>
      </trkpt>
      <trkpt lat="46.13494" lon="6.79554">
        <ele>2341.068</ele>
        <time>2026-02-22T13:19:11Z</time>
      </trkpt>
      <trkpt lat="46.13496" lon="6.79552">
        <ele>2340.251</ele>
        <time>2026-02-22T13:19:16Z</time>
      </trkpt>
      <trkpt lat="46.13496" lon="6.79552">
        <ele>2340.397</ele>
        <time>2026-02-22T13:19:21Z</time>
      </trkpt>
      <trkpt lat="46.13499" lon="6.79548">
        <ele>2337.245</ele>
        <time>2026-02-22T13:19:26Z</time>
      </trkpt>
      <trkpt lat="46.135" lon="6.79523">
        <ele>2332.685</ele>
        <time>2026-02-22T13:19:31Z</time>
      </trkpt>
      <trkpt lat="46.135" lon="6.79512">
        <ele>2329.53</ele>
        <time>2026-02-22T13:19:36Z</time>
      </trkpt>
      <trkpt lat="46.13499" lon="6.7951">
        <ele>2329.713</ele>
        <time>2026-02-22T13:19:41Z</time>
      </trkpt>
      <trkpt lat="46.135" lon="6.7951">
        <ele>2329.351</ele>
        <time>2026-02-22T13:19:46Z</time>
      </trkpt>
      <trkpt lat="46.135" lon="6.7951">
        <ele>2329.615</ele>
        <time>2026-02-22T13:19:51Z</time>
      </trkpt>
      <trkpt lat="46.135" lon="6.79496">
        <ele>2328.758</ele>
        <time>2026-02-22T13:19:56Z</time>
      </trkpt>
      <trkpt lat="46.13497" lon="6.79491">
        <ele>2326.249</ele>
        <time>2026-02-22T13:20:01Z</time>
      </trkpt>
      <trkpt lat="46.13491" lon="6.79493">
        <ele>2324.06</ele>
        <time>2026-02-22T13:20:06Z</time>
      </trkpt>
      <trkpt lat="46.13491" lon="6.79475">
        <ele>2320.65</ele>
        <time>2026-02-22T13:20:11Z</time>
      </trkpt>
      <trkpt lat="46.13481" lon="6.79464">
        <ele>2315.616</ele>
        <time>2026-02-22T13:20:16Z</time>
      </trkpt>
      <trkpt lat="46.1349" lon="6.79451">
        <ele>2312.755</ele>
        <time>2026-02-22T13:20:21Z</time>
      </trkpt>
      <trkpt lat="46.13485" lon="6.7943">
        <ele>2308.793</ele>
        <time>2026-02-22T13:20:26Z</time>
      </trkpt>
      <trkpt lat="46.13476" lon="6.79403">
        <ele>2305.703</ele>
        <time>2026-02-22T13:20:31Z</time>
      </trkpt>
      <trkpt lat="46.1347" lon="6.79379">
        <ele>2300.394</ele>
        <time>2026-02-22T13:20:36Z</time>
      </trkpt>
      <trkpt lat="46.13453" lon="6.79356">
        <ele>2295.901</ele>
        <time>2026-02-22T13:20:41Z</time>
      </trkpt>
      <trkpt lat="46.13441" lon="6.7933">
        <ele>2291.316</ele>
        <time>2026-02-22T13:20:46Z</time>
      </trkpt>
      <trkpt lat="46.13439" lon="6.79312">
        <ele>2290.479</ele>
        <time>2026-02-22T13:20:51Z</time>
      </trkpt>
      <trkpt lat="46.13438" lon="6.79307">
        <ele>2290.251</ele>
        <time>2026-02-22T13:20:56Z</time>
      </trkpt>
      <trkpt lat="46.13437" lon="6.79307">
        <ele>2289.728</ele>
        <time>2026-02-22T13:21:01Z</time>
      </trkpt>
      <trkpt lat="46.13426" lon="6.79295">
        <ele>2284.5</ele>
        <time>2026-02-22T13:21:06Z</time>
      </trkpt>
      <trkpt lat="46.1341" lon="6.79268">
        <ele>2281.357</ele>
        <time>2026-02-22T13:21:11Z</time>
      </trkpt>
      <trkpt lat="46.13399" lon="6.79243">
        <ele>2275.401</ele>
        <time>2026-02-22T13:21:16Z</time>
      </trkpt>
      <trkpt lat="46.13391" lon="6.79218">
        <ele>2271.578</ele>
        <time>2026-02-22T13:21:21Z</time>
      </trkpt>
      <trkpt lat="46.13385" lon="6.79194">
        <ele>2265.626</ele>
        <time>2026-02-22T13:21:26Z</time>
      </trkpt>
      <trkpt lat="46.1337" lon="6.7917">
        <ele>2257.395</ele>
        <time>2026-02-22T13:21:31Z</time>
      </trkpt>
      <trkpt lat="46.13351" lon="6.79147">
        <ele>2255.145</ele>
        <time>2026-02-22T13:21:36Z</time>
      </trkpt>
      <trkpt lat="46.13337" lon="6.79125">
        <ele>2250.126</ele>
        <time>2026-02-22T13:21:41Z</time>
      </trkpt>
      <trkpt lat="46.13327" lon="6.79103">
        <ele>2247.329</ele>
        <time>2026-02-22T13:21:46Z</time>
      </trkpt>
      <trkpt lat="46.13314" lon="6.79084">
        <ele>2241.94</ele>
        <time>2026-02-22T13:21:51Z</time>
      </trkpt>
      <trkpt lat="46.13314" lon="6.79082">
        <ele>2242.4</ele>
        <time>2026-02-22T13:21:56Z</time>
      </trkpt>
      <trkpt lat="46.13315" lon="6.79081">
        <ele>2242.545</ele>
        <time>2026-02-22T13:22:01Z</time>
      </trkpt>
      <trkpt lat="46.13315" lon="6.79081">
        <ele>2242.643</ele>
        <time>2026-02-22T13:22:06Z</time>
      </trkpt>
      <trkpt lat="46.13315" lon="6.79081">
        <ele>2242.743</ele>
        <time>2026-02-22T13:22:11Z</time>
      </trkpt>
      <trkpt lat="46.13315" lon="6.79081">
        <ele>2241.189</ele>
        <time>2026-02-22T13:22:16Z</time>
      </trkpt>
      <trkpt lat="46.13315" lon="6.79081">
        <ele>2240.111</ele>
        <time>2026-02-22T13:22:21Z</time>
      </trkpt>
      <trkpt lat="46.13315" lon="6.79081">
        <ele>2240.379</ele>
        <time>2026-02-22T13:22:26Z</time>
      </trkpt>
      <trkpt lat="46.13315" lon="6.79081">
        <ele>2240.232</ele>
        <time>2026-02-22T13:22:31Z</time>
      </trkpt>
      <trkpt lat="46.13315" lon="6.79081">
        <ele>2239.134</ele>
        <time>2026-02-22T13:22:36Z</time>
      </trkpt>
      <trkpt lat="46.13315" lon="6.79081">
        <ele>2237.951</ele>
        <time>2026-02-22T13:22:41Z</time>
      </trkpt>
      <trkpt lat="46.13315" lon="6.79081">
        <ele>2237.717</ele>
        <time>2026-02-22T13:22:46Z</time>
      </trkpt>
      <trkpt lat="46.13315" lon="6.79081">
        <ele>2236.864</ele>
        <time>2026-02-22T13:22:51Z</time>
      </trkpt>
      <trkpt lat="46.13315" lon="6.79081">
        <ele>2237.247</ele>
        <time>2026-02-22T13:22:56Z</time>
      </trkpt>
      <trkpt lat="46.13315" lon="6.79081">
        <ele>2237.223</ele>
        <time>2026-02-22T13:23:01Z</time>
      </trkpt>
      <trkpt lat="46.13315" lon="6.79081">
        <ele>2237.196</ele>
        <time>2026-02-22T13:23:06Z</time>
      </trkpt>
      <trkpt lat="46.13315" lon="6.79081">
        <ele>2237.211</ele>
        <time>2026-02-22T13:23:11Z</time>
      </trkpt>
      <trkpt lat="46.13315" lon="6.79081">
        <ele>2237.226</ele>
        <time>2026-02-22T13:23:16Z</time>
      </trkpt>
      <trkpt lat="46.13315" lon="6.79081">
        <ele>2237.99</ele>
        <time>2026-02-22T13:23:21Z</time>
      </trkpt>
      <trkpt lat="46.13315" lon="6.79081">
        <ele>2237.216</ele>
        <time>2026-02-22T13:23:26Z</time>
      </trkpt>
      <trkpt lat="46.13315" lon="6.79081">
        <ele>2238.134</ele>
        <time>2026-02-22T13:23:31Z</time>
      </trkpt>
      <trkpt lat="46.13315" lon="6.79081">
        <ele>2238.648</ele>
        <time>2026-02-22T13:23:36Z</time>
      </trkpt>
      <trkpt lat="46.13315" lon="6.7908">
        <ele>2238.811</ele>
        <time>2026-02-22T13:23:41Z</time>
      </trkpt>
      <trkpt lat="46.13314" lon="6.79078">
        <ele>2240.346</ele>
        <time>2026-02-22T13:23:46Z</time>
      </trkpt>
      <trkpt lat="46.13302" lon="6.79059">
        <ele>2235.516</ele>
        <time>2026-02-22T13:23:51Z</time>
      </trkpt>
      <trkpt lat="46.13297" lon="6.79029">
        <ele>2225.684</ele>
        <time>2026-02-22T13:23:56Z</time>
      </trkpt>
      <trkpt lat="46.13285" lon="6.78996">
        <ele>2224.825</ele>
        <time>2026-02-22T13:24:01Z</time>
      </trkpt>
      <trkpt lat="46.13275" lon="6.78959">
        <ele>2221.985</ele>
        <time>2026-02-22T13:24:06Z</time>
      </trkpt>
      <trkpt lat="46.1327" lon="6.78911">
        <ele>2217.242</ele>
        <time>2026-02-22T13:24:11Z</time>
      </trkpt>
      <trkpt lat="46.13273" lon="6.78871">
        <ele>2212.994</ele>
        <time>2026-02-22T13:24:16Z</time>
      </trkpt>
      <trkpt lat="46.13272" lon="6.78827">
        <ele>2209.903</ele>
        <time>2026-02-22T13:24:21Z</time>
      </trkpt>
      <trkpt lat="46.13267" lon="6.78794">
        <ele>2205.196</ele>
        <time>2026-02-22T13:24:26Z</time>
      </trkpt>
      <trkpt lat="46.13262" lon="6.78758">
        <ele>2200.498</ele>
        <time>2026-02-22T13:24:31Z</time>
      </trkpt>
      <trkpt lat="46.13263" lon="6.78733">
        <ele>2196.384</ele>
        <time>2026-02-22T13:24:36Z</time>
      </trkpt>
      <trkpt lat="46.13263" lon="6.78733">
        <ele>2193.613</ele>
        <time>2026-02-22T13:24:41Z</time>
      </trkpt>
      <trkpt lat="46.1326" lon="6.78716">
        <ele>2188.474</ele>
        <time>2026-02-22T13:24:46Z</time>
      </trkpt>
      <trkpt lat="46.13261" lon="6.787">
        <ele>2188.508</ele>
        <time>2026-02-22T13:24:51Z</time>
      </trkpt>
      <trkpt lat="46.13256" lon="6.78695">
        <ele>2187.607</ele>
        <time>2026-02-22T13:24:56Z</time>
      </trkpt>
      <trkpt lat="46.13249" lon="6.78698">
        <ele>2188.063</ele>
        <time>2026-02-22T13:25:01Z</time>
      </trkpt>
      <trkpt lat="46.13249" lon="6.78698">
        <ele>2186.078</ele>
        <time>2026-02-22T13:25:06Z</time>
      </trkpt>
      <trkpt lat="46.13252" lon="6.78689">
        <ele>2186.131</ele>
        <time>2026-02-22T13:25:11Z</time>
      </trkpt>
      <trkpt lat="46.13254" lon="6.7865">
        <ele>2179.206</ele>
        <time>2026-02-22T13:25:16Z</time>
      </trkpt>
      <trkpt lat="46.13257" lon="6.7862">
        <ele>2182.02</ele>
        <time>2026-02-22T13:25:21Z</time>
      </trkpt>
      <trkpt lat="46.13259" lon="6.78613">
        <ele>2185.666</ele>
        <time>2026-02-22T13:25:26Z</time>
      </trkpt>
      <trkpt lat="46.13258" lon="6.78606">
        <ele>2184.648</ele>
        <time>2026-02-22T13:25:31Z</time>
      </trkpt>
      <trkpt lat="46.13258" lon="6.78603">
        <ele>2184.063</ele>
        <time>2026-02-22T13:25:36Z</time>
      </trkpt>
      <trkpt lat="46.13254" lon="6.78592">
        <ele>2182.733</ele>
        <time>2026-02-22T13:25:41Z</time>
      </trkpt>
      <trkpt lat="46.13251" lon="6.7858">
        <ele>2184.277</ele>
        <time>2026-02-22T13:25:46Z</time>
      </trkpt>
      <trkpt lat="46.13242" lon="6.78554">
        <ele>2179.22</ele>
        <time>2026-02-22T13:25:51Z</time>
      </trkpt>
      <trkpt lat="46.13233" lon="6.78543">
        <ele>2174.511</ele>
        <time>2026-02-22T13:25:56Z</time>
      </trkpt>
      <trkpt lat="46.13231" lon="6.78538">
        <ele>2175.838</ele>
        <time>2026-02-22T13:26:01Z</time>
      </trkpt>
      <trkpt lat="46.13227" lon="6.78529">
        <ele>2173.489</ele>
        <time>2026-02-22T13:26:06Z</time>
      </trkpt>
      <trkpt lat="46.13216" lon="6.78508">
        <ele>2168.391</ele>
        <time>2026-02-22T13:26:11Z</time>
      </trkpt>
      <trkpt lat="46.13204" lon="6.78468">
        <ele>2163.785</ele>
        <time>2026-02-22T13:26:16Z</time>
      </trkpt>
      <trkpt lat="46.13199" lon="6.7841">
        <ele>2161.185</ele>
        <time>2026-02-22T13:26:21Z</time>
      </trkpt>
      <trkpt lat="46.1319" lon="6.78377">
        <ele>2163.084</ele>
        <time>2026-02-22T13:26:26Z</time>
      </trkpt>
      <trkpt lat="46.13188" lon="6.78373">
        <ele>2163.451</ele>
        <time>2026-02-22T13:26:31Z</time>
      </trkpt>
      <trkpt lat="46.13182" lon="6.78347">
        <ele>2161.893</ele>
        <time>2026-02-22T13:26:36Z</time>
      </trkpt>
      <trkpt lat="46.13174" lon="6.78318">
        <ele>2157.922</ele>
        <time>2026-02-22T13:26:41Z</time>
      </trkpt>
      <trkpt lat="46.13171" lon="6.7829">
        <ele>2153.766</ele>
        <time>2026-02-22T13:26:46Z</time>
      </trkpt>
      <trkpt lat="46.13167" lon="6.78261">
        <ele>2147.075</ele>
        <time>2026-02-22T13:26:51Z</time>
      </trkpt>
      <trkpt lat="46.13167" lon="6.78233">
        <ele>2141.71</ele>
        <time>2026-02-22T13:26:56Z</time>
      </trkpt>
      <trkpt lat="46.13163" lon="6.78199">
        <ele>2135.369</ele>
        <time>2026-02-22T13:27:01Z</time>
      </trkpt>
      <trkpt lat="46.13165" lon="6.78194">
        <ele>2135.198</ele>
        <time>2026-02-22T13:27:06Z</time>
      </trkpt>
      <trkpt lat="46.13163" lon="6.78178">
        <ele>2135.109</ele>
        <time>2026-02-22T13:27:11Z</time>
      </trkpt>
      <trkpt lat="46.1316" lon="6.78145">
        <ele>2127.141</ele>
        <time>2026-02-22T13:27:16Z</time>
      </trkpt>
      <trkpt lat="46.13156" lon="6.78107">
        <ele>2122.772</ele>
        <time>2026-02-22T13:27:21Z</time>
      </trkpt>
      <trkpt lat="46.13153" lon="6.7807">
        <ele>2116.869</ele>
        <time>2026-02-22T13:27:26Z</time>
      </trkpt>
      <trkpt lat="46.13149" lon="6.78036">
        <ele>2114.368</ele>
        <time>2026-02-22T13:27:31Z</time>
      </trkpt>
      <trkpt lat="46.13144" lon="6.77998">
        <ele>2110.019</ele>
        <time>2026-02-22T13:27:36Z</time>
      </trkpt>
      <trkpt lat="46.13134" lon="6.77958">
        <ele>2104.861</ele>
        <time>2026-02-22T13:27:41Z</time>
      </trkpt>
      <trkpt lat="46.13125" lon="6.7792">
        <ele>2100.854</ele>
        <time>2026-02-22T13:27:46Z</time>
      </trkpt>
      <trkpt lat="46.13113" lon="6.77891">
        <ele>2096.262</ele>
        <time>2026-02-22T13:27:51Z</time>
      </trkpt>
      <trkpt lat="46.131" lon="6.77857">
        <ele>2092.121</ele>
        <time>2026-02-22T13:27:56Z</time>
      </trkpt>
      <trkpt lat="46.13095" lon="6.77833">
        <ele>2089.553</ele>
        <time>2026-02-22T13:28:01Z</time>
      </trkpt>
      <trkpt lat="46.13096" lon="6.77832">
        <ele>2088.843</ele>
        <time>2026-02-22T13:28:06Z</time>
      </trkpt>
      <trkpt lat="46.13096" lon="6.77831">
        <ele>2089.223</ele>
        <time>2026-02-22T13:28:11Z</time>
      </trkpt>
      <trkpt lat="46.13096" lon="6.77831">
        <ele>2089.522</ele>
        <time>2026-02-22T13:28:16Z</time>
      </trkpt>
      <trkpt lat="46.13096" lon="6.77831">
        <ele>2089.684</ele>
        <time>2026-02-22T13:28:21Z</time>
      </trkpt>
      <trkpt lat="46.13096" lon="6.77831">
        <ele>2089.535</ele>
        <time>2026-02-22T13:28:26Z</time>
      </trkpt>
      <trkpt lat="46.13096" lon="6.77831">
        <ele>2089.544</ele>
        <time>2026-02-22T13:28:31Z</time>
      </trkpt>
      <trkpt lat="46.13096" lon="6.77831">
        <ele>2089.541</ele>
        <time>2026-02-22T13:28:36Z</time>
      </trkpt>
      <trkpt lat="46.13096" lon="6.77831">
        <ele>2089.551</ele>
        <time>2026-02-22T13:28:41Z</time>
      </trkpt>
      <trkpt lat="46.13096" lon="6.77831">
        <ele>2089.995</ele>
        <time>2026-02-22T13:28:46Z</time>
      </trkpt>
      <trkpt lat="46.13096" lon="6.7783">
        <ele>2090.013</ele>
        <time>2026-02-22T13:28:51Z</time>
      </trkpt>
      <trkpt lat="46.13095" lon="6.77829">
        <ele>2089.844</ele>
        <time>2026-02-22T13:28:56Z</time>
      </trkpt>
      <trkpt lat="46.13089" lon="6.77822">
        <ele>2087.334</ele>
        <time>2026-02-22T13:29:01Z</time>
      </trkpt>
      <trkpt lat="46.13081" lon="6.77812">
        <ele>2083.815</ele>
        <time>2026-02-22T13:29:06Z</time>
      </trkpt>
      <trkpt lat="46.13081" lon="6.77811">
        <ele>2083.215</ele>
        <time>2026-02-22T13:29:11Z</time>
      </trkpt>
      <trkpt lat="46.13081" lon="6.77811">
        <ele>2083.52</ele>
        <time>2026-02-22T13:29:16Z</time>
      </trkpt>
      <trkpt lat="46.13081" lon="6.77811">
        <ele>2083.881</ele>
        <time>2026-02-22T13:29:21Z</time>
      </trkpt>
      <trkpt lat="46.13078" lon="6.7781">
        <ele>2083.443</ele>
        <time>2026-02-22T13:29:26Z</time>
      </trkpt>
      <trkpt lat="46.13071" lon="6.77816">
        <ele>2076.723</ele>
        <time>2026-02-22T13:29:31Z</time>
      </trkpt>
      <trkpt lat="46.1306" lon="6.77798">
        <ele>2066.465</ele>
        <time>2026-02-22T13:29:36Z</time>
      </trkpt>
      <trkpt lat="46.13055" lon="6.77775">
        <ele>2063.982</ele>
        <time>2026-02-22T13:29:41Z</time>
      </trkpt>
      <trkpt lat="46.13048" lon="6.77759">
        <ele>2057.116</ele>
        <time>2026-02-22T13:29:46Z</time>
      </trkpt>
      <trkpt lat="46.1305" lon="6.77756">
        <ele>2056.063</ele>
        <time>2026-02-22T13:29:51Z</time>
      </trkpt>
      <trkpt lat="46.1305" lon="6.77755">
        <ele>2056.847</ele>
        <time>2026-02-22T13:29:56Z</time>
      </trkpt>
      <trkpt lat="46.1305" lon="6.77755">
        <ele>2057.05</ele>
        <time>2026-02-22T13:30:01Z</time>
      </trkpt>
      <trkpt lat="46.13039" lon="6.77742">
        <ele>2048.717</ele>
        <time>2026-02-22T13:30:06Z</time>
      </trkpt>
      <trkpt lat="46.13039" lon="6.77731">
        <ele>2046.969</ele>
        <time>2026-02-22T13:30:11Z</time>
      </trkpt>
      <trkpt lat="46.13046" lon="6.77714">
        <ele>2043.573</ele>
        <time>2026-02-22T13:30:16Z</time>
      </trkpt>
      <trkpt lat="46.13042" lon="6.77701">
        <ele>2039.648</ele>
        <time>2026-02-22T13:30:21Z</time>
      </trkpt>
      <trkpt lat="46.13044" lon="6.77697">
        <ele>2038.884</ele>
        <time>2026-02-22T13:30:26Z</time>
      </trkpt>
      <trkpt lat="46.13044" lon="6.77696">
        <ele>2038.955</ele>
        <time>2026-02-22T13:30:31Z</time>
      </trkpt>
      <trkpt lat="46.13045" lon="6.77694">
        <ele>2038.089</ele>
        <time>2026-02-22T13:30:36Z</time>
      </trkpt>
      <trkpt lat="46.13035" lon="6.77685">
        <ele>2033.973</ele>
        <time>2026-02-22T13:30:41Z</time>
      </trkpt>
      <trkpt lat="46.13022" lon="6.7768">
        <ele>2028.238</ele>
        <time>2026-02-22T13:30:46Z</time>
      </trkpt>
      <trkpt lat="46.13009" lon="6.77671">
        <ele>2022.454</ele>
        <time>2026-02-22T13:30:51Z</time>
      </trkpt>
      <trkpt lat="46.13006" lon="6.77649">
        <ele>2017.7</ele>
        <time>2026-02-22T13:30:56Z</time>
      </trkpt>
      <trkpt lat="46.12988" lon="6.77657">
        <ele>2014.109</ele>
        <time>2026-02-22T13:31:01Z</time>
      </trkpt>
      <trkpt lat="46.12988" lon="6.77657">
        <ele>2014.879</ele>
        <time>2026-02-22T13:31:06Z</time>
      </trkpt>
      <trkpt lat="46.12988" lon="6.77657">
        <ele>2014.76</ele>
        <time>2026-02-22T13:31:11Z</time>
      </trkpt>
      <trkpt lat="46.12988" lon="6.77657">
        <ele>2014.248</ele>
        <time>2026-02-22T13:31:16Z</time>
      </trkpt>
      <trkpt lat="46.12988" lon="6.77657">
        <ele>2014.414</ele>
        <time>2026-02-22T13:31:21Z</time>
      </trkpt>
      <trkpt lat="46.12988" lon="6.77657">
        <ele>2014.34</ele>
        <time>2026-02-22T13:31:26Z</time>
      </trkpt>
      <trkpt lat="46.12988" lon="6.77657">
        <ele>2014.354</ele>
        <time>2026-02-22T13:31:31Z</time>
      </trkpt>
      <trkpt lat="46.12988" lon="6.77657">
        <ele>2014.342</ele>
        <time>2026-02-22T13:31:36Z</time>
      </trkpt>
      <trkpt lat="46.12988" lon="6.77657">
        <ele>2014.36</ele>
        <time>2026-02-22T13:31:41Z</time>
      </trkpt>
      <trkpt lat="46.12989" lon="6.7765">
        <ele>2014.391</ele>
        <time>2026-02-22T13:31:46Z</time>
      </trkpt>
      <trkpt lat="46.12989" lon="6.7765">
        <ele>2014.395</ele>
        <time>2026-02-22T13:31:51Z</time>
      </trkpt>
      <trkpt lat="46.12989" lon="6.7765">
        <ele>2014.302</ele>
        <time>2026-02-22T13:31:56Z</time>
      </trkpt>
      <trkpt lat="46.12989" lon="6.7765">
        <ele>2014.322</ele>
        <time>2026-02-22T13:32:01Z</time>
      </trkpt>
      <trkpt lat="46.12976" lon="6.77647">
        <ele>2004.987</ele>
        <time>2026-02-22T13:32:06Z</time>
      </trkpt>
      <trkpt lat="46.12955" lon="6.77635">
        <ele>1999.519</ele>
        <time>2026-02-22T13:32:11Z</time>
      </trkpt>
      <trkpt lat="46.12946" lon="6.77606">
        <ele>1992.976</ele>
        <time>2026-02-22T13:32:16Z</time>
      </trkpt>
      <trkpt lat="46.12944" lon="6.7759">
        <ele>1983.495</ele>
        <time>2026-02-22T13:32:21Z</time>
      </trkpt>
      <trkpt lat="46.12928" lon="6.77584">
        <ele>1978.102</ele>
        <time>2026-02-22T13:32:26Z</time>
      </trkpt>
      <trkpt lat="46.12914" lon="6.77564">
        <ele>1969.726</ele>
        <time>2026-02-22T13:32:31Z</time>
      </trkpt>
      <trkpt lat="46.12897" lon="6.77571">
        <ele>1968.025</ele>
        <time>2026-02-22T13:32:36Z</time>
      </trkpt>
      <trkpt lat="46.12884" lon="6.77571">
        <ele>1963.482</ele>
        <time>2026-02-22T13:32:41Z</time>
      </trkpt>
      <trkpt lat="46.12878" lon="6.77559">
        <ele>1959.207</ele>
        <time>2026-02-22T13:32:46Z</time>
      </trkpt>
      <trkpt lat="46.12861" lon="6.7754">
        <ele>1952.733</ele>
        <time>2026-02-22T13:32:51Z</time>
      </trkpt>
      <trkpt lat="46.12847" lon="6.77543">
        <ele>1950.566</ele>
        <time>2026-02-22T13:32:56Z</time>
      </trkpt>
      <trkpt lat="46.12843" lon="6.77539">
        <ele>1948.004</ele>
        <time>2026-02-22T13:33:01Z</time>
      </trkpt>
      <trkpt lat="46.12843" lon="6.77539">
        <ele>1948.364</ele>
        <time>2026-02-22T13:33:06Z</time>
      </trkpt>
      <trkpt lat="46.12843" lon="6.77539">
        <ele>1949.269</ele>
        <time>2026-02-22T13:33:11Z</time>
      </trkpt>
      <trkpt lat="46.12843" lon="6.77539">
        <ele>1949.273</ele>
        <time>2026-02-22T13:33:16Z</time>
      </trkpt>
      <trkpt lat="46.12843" lon="6.77539">
        <ele>1949.703</ele>
        <time>2026-02-22T13:33:21Z</time>
      </trkpt>
      <trkpt lat="46.12843" lon="6.77539">
        <ele>1949.715</ele>
        <time>2026-02-22T13:33:26Z</time>
      </trkpt>
      <trkpt lat="46.12843" lon="6.77539">
        <ele>1949.714</ele>
        <time>2026-02-22T13:33:31Z</time>
      </trkpt>
      <trkpt lat="46.12843" lon="6.77539">
        <ele>1949.72</ele>
        <time>2026-02-22T13:33:36Z</time>
      </trkpt>
      <trkpt lat="46.12837" lon="6.77527">
        <ele>1946.672</ele>
        <time>2026-02-22T13:33:41Z</time>
      </trkpt>
      <trkpt lat="46.12816" lon="6.77513">
        <ele>1940.279</ele>
        <time>2026-02-22T13:33:46Z</time>
      </trkpt>
      <trkpt lat="46.12796" lon="6.77516">
        <ele>1932.46</ele>
        <time>2026-02-22T13:33:51Z</time>
      </trkpt>
      <trkpt lat="46.12772" lon="6.77516">
        <ele>1926.243</ele>
        <time>2026-02-22T13:33:56Z</time>
      </trkpt>
      <trkpt lat="46.12755" lon="6.77514">
        <ele>1920.293</ele>
        <time>2026-02-22T13:34:01Z</time>
      </trkpt>
      <trkpt lat="46.12738" lon="6.77514">
        <ele>1916.015</ele>
        <time>2026-02-22T13:34:06Z</time>
      </trkpt>
      <trkpt lat="46.12734" lon="6.7752">
        <ele>1915.528</ele>
        <time>2026-02-22T13:34:11Z</time>
      </trkpt>
      <trkpt lat="46.12734" lon="6.7752">
        <ele>1915.95</ele>
        <time>2026-02-22T13:34:16Z</time>
      </trkpt>
      <trkpt lat="46.12734" lon="6.7752">
        <ele>1915.237</ele>
        <time>2026-02-22T13:34:21Z</time>
      </trkpt>
      <trkpt lat="46.12734" lon="6.7752">
        <ele>1915.28</ele>
        <time>2026-02-22T13:34:26Z</time>
      </trkpt>
      <trkpt lat="46.12734" lon="6.7752">
        <ele>1915.286</ele>
        <time>2026-02-22T13:34:31Z</time>
      </trkpt>
      <trkpt lat="46.12734" lon="6.7752">
        <ele>1915.276</ele>
        <time>2026-02-22T13:34:36Z</time>
      </trkpt>
      <trkpt lat="46.12732" lon="6.77519">
        <ele>1914.3</ele>
        <time>2026-02-22T13:34:41Z</time>
      </trkpt>
      <trkpt lat="46.12718" lon="6.77523">
        <ele>1911.957</ele>
        <time>2026-02-22T13:34:46Z</time>
      </trkpt>
      <trkpt lat="46.12709" lon="6.77509">
        <ele>1906.629</ele>
        <time>2026-02-22T13:34:51Z</time>
      </trkpt>
      <trkpt lat="46.12702" lon="6.77497">
        <ele>1900.72</ele>
        <time>2026-02-22T13:34:56Z</time>
      </trkpt>
      <trkpt lat="46.12703" lon="6.77489">
        <ele>1899.434</ele>
        <time>2026-02-22T13:35:01Z</time>
      </trkpt>
      <trkpt lat="46.12703" lon="6.77489">
        <ele>1899.407</ele>
        <time>2026-02-22T13:35:06Z</time>
      </trkpt>
      <trkpt lat="46.12703" lon="6.77489">
        <ele>1897.672</ele>
        <time>2026-02-22T13:35:11Z</time>
      </trkpt>
      <trkpt lat="46.12703" lon="6.77489">
        <ele>1898.563</ele>
        <time>2026-02-22T13:35:16Z</time>
      </trkpt>
      <trkpt lat="46.12703" lon="6.77489">
        <ele>1900.26</ele>
        <time>2026-02-22T13:35:21Z</time>
      </trkpt>
      <trkpt lat="46.12703" lon="6.77489">
        <ele>1897.464</ele>
        <time>2026-02-22T13:35:26Z</time>
      </trkpt>
      <trkpt lat="46.12703" lon="6.77489">
        <ele>1896.122</ele>
        <time>2026-02-22T13:35:31Z</time>
      </trkpt>
      <trkpt lat="46.12703" lon="6.77489">
        <ele>1897.121</ele>
        <time>2026-02-22T13:35:36Z</time>
      </trkpt>
      <trkpt lat="46.12703" lon="6.77489">
        <ele>1897.153</ele>
        <time>2026-02-22T13:35:41Z</time>
      </trkpt>
      <trkpt lat="46.12703" lon="6.77489">
        <ele>1897.135</ele>
        <time>2026-02-22T13:35:46Z</time>
      </trkpt>
      <trkpt lat="46.12703" lon="6.77489">
        <ele>1897.142</ele>
        <time>2026-02-22T13:35:51Z</time>
      </trkpt>
      <trkpt lat="46.12703" lon="6.77489">
        <ele>1897.142</ele>
        <time>2026-02-22T13:35:56Z</time>
      </trkpt>
      <trkpt lat="46.12703" lon="6.77489">
        <ele>1897.138</ele>
        <time>2026-02-22T13:36:01Z</time>
      </trkpt>
      <trkpt lat="46.12695" lon="6.77482">
        <ele>1897.12</ele>
        <time>2026-02-22T13:36:06Z</time>
      </trkpt>
      <trkpt lat="46.12691" lon="6.77483">
        <ele>1892.433</ele>
        <time>2026-02-22T13:36:11Z</time>
      </trkpt>
      <trkpt lat="46.12679" lon="6.77495">
        <ele>1881.925</ele>
        <time>2026-02-22T13:36:16Z</time>
      </trkpt>
      <trkpt lat="46.12669" lon="6.77493">
        <ele>1877.427</ele>
        <time>2026-02-22T13:36:21Z</time>
      </trkpt>
      <trkpt lat="46.12669" lon="6.77493">
        <ele>1876.006</ele>
        <time>2026-02-22T13:36:26Z</time>
      </trkpt>
      <trkpt lat="46.12671" lon="6.77491">
        <ele>1876.336</ele>
        <time>2026-02-22T13:36:31Z</time>
      </trkpt>
      <trkpt lat="46.12663" lon="6.77471">
        <ele>1870.097</ele>
        <time>2026-02-22T13:36:36Z</time>
      </trkpt>
      <trkpt lat="46.12656" lon="6.77496">
        <ele>1861.03</ele>
        <time>2026-02-22T13:36:41Z</time>
      </trkpt>
      <trkpt lat="46.12656" lon="6.77496">
        <ele>1862.288</ele>
        <time>2026-02-22T13:36:46Z</time>
      </trkpt>
      <trkpt lat="46.12656" lon="6.77496">
        <ele>1861.995</ele>
        <time>2026-02-22T13:36:51Z</time>
      </trkpt>
      <trkpt lat="46.12656" lon="6.77496">
        <ele>1862.337</ele>
        <time>2026-02-22T13:36:56Z</time>
      </trkpt>
      <trkpt lat="46.12656" lon="6.77496">
        <ele>1861.616</ele>
        <time>2026-02-22T13:37:01Z</time>
      </trkpt>
      <trkpt lat="46.12656" lon="6.77496">
        <ele>1861.911</ele>
        <time>2026-02-22T13:37:06Z</time>
      </trkpt>
      <trkpt lat="46.12656" lon="6.77496">
        <ele>1861.032</ele>
        <time>2026-02-22T13:37:11Z</time>
      </trkpt>
      <trkpt lat="46.12656" lon="6.77496">
        <ele>1859.996</ele>
        <time>2026-02-22T13:37:16Z</time>
      </trkpt>
      <trkpt lat="46.12656" lon="6.77496">
        <ele>1862.358</ele>
        <time>2026-02-22T13:37:22Z</time>
      </trkpt>
      <trkpt lat="46.12656" lon="6.77496">
        <ele>1862.665</ele>
        <time>2026-02-22T13:37:27Z</time>
      </trkpt>
      <trkpt lat="46.12656" lon="6.77496">
        <ele>1862.617</ele>
        <time>2026-02-22T13:37:32Z</time>
      </trkpt>
      <trkpt lat="46.12656" lon="6.77496">
        <ele>1862.64</ele>
        <time>2026-02-22T13:37:37Z</time>
      </trkpt>
      <trkpt lat="46.12656" lon="6.77496">
        <ele>1862.672</ele>
        <time>2026-02-22T13:37:42Z</time>
      </trkpt>
      <trkpt lat="46.12656" lon="6.77496">
        <ele>1862.736</ele>
        <time>2026-02-22T13:37:47Z</time>
      </trkpt>
      <trkpt lat="46.12656" lon="6.77496">
        <ele>1862.792</ele>
        <time>2026-02-22T13:37:52Z</time>
      </trkpt>
      <trkpt lat="46.12656" lon="6.77496">
        <ele>1862.794</ele>
        <time>2026-02-22T13:37:57Z</time>
      </trkpt>
      <trkpt lat="46.12656" lon="6.77496">
        <ele>1862.846</ele>
        <time>2026-02-22T13:38:02Z</time>
      </trkpt>
      <trkpt lat="46.12656" lon="6.77496">
        <ele>1862.878</ele>
        <time>2026-02-22T13:38:07Z</time>
      </trkpt>
      <trkpt lat="46.12656" lon="6.77496">
        <ele>1862.928</ele>
        <time>2026-02-22T13:38:12Z</time>
      </trkpt>
      <trkpt lat="46.12656" lon="6.77496">
        <ele>1862.978</ele>
        <time>2026-02-22T13:38:17Z</time>
      </trkpt>
      <trkpt lat="46.12654" lon="6.77495">
        <ele>1862.995</ele>
        <time>2026-02-22T13:38:22Z</time>
      </trkpt>
      <trkpt lat="46.12644" lon="6.77518">
        <ele>1859.968</ele>
        <time>2026-02-22T13:38:27Z</time>
      </trkpt>
      <trkpt lat="46.12635" lon="6.77531">
        <ele>1858.357</ele>
        <time>2026-02-22T13:38:32Z</time>
      </trkpt>
      <trkpt lat="46.12619" lon="6.77549">
        <ele>1855.228</ele>
        <time>2026-02-22T13:38:37Z</time>
      </trkpt>
      <trkpt lat="46.12606" lon="6.7757">
        <ele>1852.827</ele>
        <time>2026-02-22T13:38:42Z</time>
      </trkpt>
      <trkpt lat="46.12586" lon="6.77581">
        <ele>1845.752</ele>
        <time>2026-02-22T13:38:47Z</time>
      </trkpt>
      <trkpt lat="46.12569" lon="6.77605">
        <ele>1842.975</ele>
        <time>2026-02-22T13:38:52Z</time>
      </trkpt>
      <trkpt lat="46.12569" lon="6.77605">
        <ele>1843.222</ele>
        <time>2026-02-22T13:38:57Z</time>
      </trkpt>
      <trkpt lat="46.12567" lon="6.77608">
        <ele>1843.177</ele>
        <time>2026-02-22T13:39:02Z</time>
      </trkpt>
      <trkpt lat="46.1255" lon="6.77613">
        <ele>1838.698</ele>
        <time>2026-02-22T13:39:07Z</time>
      </trkpt>
      <trkpt lat="46.12525" lon="6.77618">
        <ele>1833.253</ele>
        <time>2026-02-22T13:39:12Z</time>
      </trkpt>
      <trkpt lat="46.1251" lon="6.77623">
        <ele>1831.187</ele>
        <time>2026-02-22T13:39:17Z</time>
      </trkpt>
      <trkpt lat="46.12509" lon="6.77623">
        <ele>1829.846</ele>
        <time>2026-02-22T13:39:22Z</time>
      </trkpt>
      <trkpt lat="46.12509" lon="6.77622">
        <ele>1829.011</ele>
        <time>2026-02-22T13:39:27Z</time>
      </trkpt>
      <trkpt lat="46.125" lon="6.7764">
        <ele>1823.986</ele>
        <time>2026-02-22T13:39:32Z</time>
      </trkpt>
      <trkpt lat="46.12485" lon="6.7766">
        <ele>1819.436</ele>
        <time>2026-02-22T13:39:37Z</time>
      </trkpt>
      <trkpt lat="46.12477" lon="6.77668">
        <ele>1815.592</ele>
        <time>2026-02-22T13:39:42Z</time>
      </trkpt>
      <trkpt lat="46.12464" lon="6.77675">
        <ele>1815.17</ele>
        <time>2026-02-22T13:39:47Z</time>
      </trkpt>
      <trkpt lat="46.12464" lon="6.77675">
        <ele>1815.277</ele>
        <time>2026-02-22T13:39:52Z</time>
      </trkpt>
      <trkpt lat="46.12464" lon="6.77675">
        <ele>1814.524</ele>
        <time>2026-02-22T13:39:57Z</time>
      </trkpt>
      <trkpt lat="46.12454" lon="6.77667">
        <ele>1806.309</ele>
        <time>2026-02-22T13:40:02Z</time>
      </trkpt>
      <trkpt lat="46.12449" lon="6.7765">
        <ele>1802.435</ele>
        <time>2026-02-22T13:40:07Z</time>
      </trkpt>
      <trkpt lat="46.12449" lon="6.7765">
        <ele>1801.989</ele>
        <time>2026-02-22T13:40:12Z</time>
      </trkpt>
      <trkpt lat="46.12449" lon="6.7765">
        <ele>1802.74</ele>
        <time>2026-02-22T13:40:17Z</time>
      </trkpt>
      <trkpt lat="46.12449" lon="6.7765">
        <ele>1802.699</ele>
        <time>2026-02-22T13:40:22Z</time>
      </trkpt>
      <trkpt lat="46.12449" lon="6.7765">
        <ele>1803.309</ele>
        <time>2026-02-22T13:40:27Z</time>
      </trkpt>
      <trkpt lat="46.12449" lon="6.7765">
        <ele>1803.628</ele>
        <time>2026-02-22T13:40:32Z</time>
      </trkpt>
      <trkpt lat="46.12449" lon="6.7765">
        <ele>1803.651</ele>
        <time>2026-02-22T13:40:37Z</time>
      </trkpt>
      <trkpt lat="46.12449" lon="6.7765">
        <ele>1803.666</ele>
        <time>2026-02-22T13:40:42Z</time>
      </trkpt>
      <trkpt lat="46.12449" lon="6.7765">
        <ele>1803.686</ele>
        <time>2026-02-22T13:40:47Z</time>
      </trkpt>
      <trkpt lat="46.12448" lon="6.77655">
        <ele>1803.693</ele>
        <time>2026-02-22T13:40:52Z</time>
      </trkpt>
      <trkpt lat="46.12448" lon="6.77656">
        <ele>1803.691</ele>
        <time>2026-02-22T13:40:57Z</time>
      </trkpt>
      <trkpt lat="46.12446" lon="6.77667">
        <ele>1800.638</ele>
        <time>2026-02-22T13:41:02Z</time>
      </trkpt>
      <trkpt lat="46.12437" lon="6.77688">
        <ele>1796.51</ele>
        <time>2026-02-22T13:41:07Z</time>
      </trkpt>
      <trkpt lat="46.12425" lon="6.77697">
        <ele>1791.532</ele>
        <time>2026-02-22T13:41:12Z</time>
      </trkpt>
      <trkpt lat="46.1241" lon="6.77681">
        <ele>1780.971</ele>
        <time>2026-02-22T13:41:17Z</time>
      </trkpt>
      <trkpt lat="46.12391" lon="6.77687">
        <ele>1773.66</ele>
        <time>2026-02-22T13:41:22Z</time>
      </trkpt>
      <trkpt lat="46.12371" lon="6.77683">
        <ele>1761.851</ele>
        <time>2026-02-22T13:41:27Z</time>
      </trkpt>
      <trkpt lat="46.12363" lon="6.777">
        <ele>1757.87</ele>
        <time>2026-02-22T13:41:32Z</time>
      </trkpt>
      <trkpt lat="46.12362" lon="6.77703">
        <ele>1756.807</ele>
        <time>2026-02-22T13:41:37Z</time>
      </trkpt>
      <trkpt lat="46.12362" lon="6.77703">
        <ele>1756.243</ele>
        <time>2026-02-22T13:41:42Z</time>
      </trkpt>
      <trkpt lat="46.12362" lon="6.77704">
        <ele>1755.75</ele>
        <time>2026-02-22T13:41:47Z</time>
      </trkpt>
      <trkpt lat="46.12363" lon="6.77705">
        <ele>1755.308</ele>
        <time>2026-02-22T13:41:52Z</time>
      </trkpt>
      <trkpt lat="46.12363" lon="6.77707">
        <ele>1755.367</ele>
        <time>2026-02-22T13:41:57Z</time>
      </trkpt>
      <trkpt lat="46.12363" lon="6.77707">
        <ele>1757.018</ele>
        <time>2026-02-22T13:42:02Z</time>
      </trkpt>
      <trkpt lat="46.12364" lon="6.77708">
        <ele>1759.366</ele>
        <time>2026-02-22T13:42:07Z</time>
      </trkpt>
      <trkpt lat="46.12364" lon="6.77709">
        <ele>1759.633</ele>
        <time>2026-02-22T13:42:12Z</time>
      </trkpt>
      <trkpt lat="46.12364" lon="6.77709">
        <ele>1759.661</ele>
        <time>2026-02-22T13:42:17Z</time>
      </trkpt>
      <trkpt lat="46.12364" lon="6.77709">
        <ele>1759.668</ele>
        <time>2026-02-22T13:42:22Z</time>
      </trkpt>
      <trkpt lat="46.12364" lon="6.77709">
        <ele>1759.68</ele>
        <time>2026-02-22T13:42:27Z</time>
      </trkpt>
      <trkpt lat="46.12364" lon="6.77709">
        <ele>1759.675</ele>
        <time>2026-02-22T13:42:32Z</time>
      </trkpt>
      <trkpt lat="46.12364" lon="6.77709">
        <ele>1759.689</ele>
        <time>2026-02-22T13:42:37Z</time>
      </trkpt>
      <trkpt lat="46.12364" lon="6.77709">
        <ele>1757.959</ele>
        <time>2026-02-22T13:42:42Z</time>
      </trkpt>
      <trkpt lat="46.12364" lon="6.77709">
        <ele>1757.535</ele>
        <time>2026-02-22T13:42:47Z</time>
      </trkpt>
      <trkpt lat="46.12364" lon="6.77709">
        <ele>1757.209</ele>
        <time>2026-02-22T13:42:52Z</time>
      </trkpt>
      <trkpt lat="46.12364" lon="6.77709">
        <ele>1757.64</ele>
        <time>2026-02-22T13:42:57Z</time>
      </trkpt>
      <trkpt lat="46.12364" lon="6.77714">
        <ele>1758.376</ele>
        <time>2026-02-22T13:43:02Z</time>
      </trkpt>
      <trkpt lat="46.12365" lon="6.77718">
        <ele>1759.31</ele>
        <time>2026-02-22T13:43:07Z</time>
      </trkpt>
      <trkpt lat="46.12365" lon="6.77722">
        <ele>1759.185</ele>
        <time>2026-02-22T13:43:12Z</time>
      </trkpt>
      <trkpt lat="46.12365" lon="6.77725">
        <ele>1758.468</ele>
        <time>2026-02-22T13:43:17Z</time>
      </trkpt>
      <trkpt lat="46.12365" lon="6.77729">
        <ele>1759.064</ele>
        <time>2026-02-22T13:43:22Z</time>
      </trkpt>
      <trkpt lat="46.12366" lon="6.77733">
        <ele>1760.125</ele>
        <time>2026-02-22T13:43:27Z</time>
      </trkpt>
      <trkpt lat="46.12367" lon="6.77735">
        <ele>1760.135</ele>
        <time>2026-02-22T13:43:32Z</time>
      </trkpt>
      <trkpt lat="46.12367" lon="6.77735">
        <ele>1759.677</ele>
        <time>2026-02-22T13:43:37Z</time>
      </trkpt>
      <trkpt lat="46.12367" lon="6.77735">
        <ele>1759.218</ele>
        <time>2026-02-22T13:43:42Z</time>
      </trkpt>
      <trkpt lat="46.12366" lon="6.77739">
        <ele>1757.555</ele>
        <time>2026-02-22T13:43:47Z</time>
      </trkpt>
      <trkpt lat="46.12366" lon="6.77745">
        <ele>1758.9</ele>
        <time>2026-02-22T13:43:52Z</time>
      </trkpt>
      <trkpt lat="46.12364" lon="6.77752">
        <ele>1758.586</ele>
        <time>2026-02-22T13:43:57Z</time>
      </trkpt>
      <trkpt lat="46.12363" lon="6.77759">
        <ele>1756.942</ele>
        <time>2026-02-22T13:44:02Z</time>
      </trkpt>
      <trkpt lat="46.12363" lon="6.77766">
        <ele>1754.425</ele>
        <time>2026-02-22T13:44:07Z</time>
      </trkpt>
      <trkpt lat="46.12363" lon="6.77773">
        <ele>1757.97</ele>
        <time>2026-02-22T13:44:12Z</time>
      </trkpt>
      <trkpt lat="46.12363" lon="6.77778">
        <ele>1759.053</ele>
        <time>2026-02-22T13:44:17Z</time>
      </trkpt>
      <trkpt lat="46.12363" lon="6.77782">
        <ele>1759.306</ele>
        <time>2026-02-22T13:44:22Z</time>
      </trkpt>
      <trkpt lat="46.12364" lon="6.77786">
        <ele>1760.444</ele>
        <time>2026-02-22T13:44:27Z</time>
      </trkpt>
      <trkpt lat="46.12365" lon="6.77787">
        <ele>1761.507</ele>
        <time>2026-02-22T13:44:32Z</time>
      </trkpt>
      <trkpt lat="46.12364" lon="6.77792">
        <ele>1761.877</ele>
        <time>2026-02-22T13:44:37Z</time>
      </trkpt>
      <trkpt lat="46.12363" lon="6.77794">
        <ele>1761.998</ele>
        <time>2026-02-22T13:44:42Z</time>
      </trkpt>
      <trkpt lat="46.12363" lon="6.77797">
        <ele>1762.138</ele>
        <time>2026-02-22T13:44:47Z</time>
      </trkpt>
      <trkpt lat="46.12363" lon="6.77798">
        <ele>1763.657</ele>
        <time>2026-02-22T13:44:52Z</time>
      </trkpt>
      <trkpt lat="46.12362" lon="6.778">
        <ele>1763.444</ele>
        <time>2026-02-22T13:44:57Z</time>
      </trkpt>
      <trkpt lat="46.1236" lon="6.77807">
        <ele>1765.373</ele>
        <time>2026-02-22T13:45:02Z</time>
      </trkpt>
      <trkpt lat="46.12358" lon="6.77812">
        <ele>1763.786</ele>
        <time>2026-02-22T13:45:07Z</time>
      </trkpt>
      <trkpt lat="46.12358" lon="6.77814">
        <ele>1763.862</ele>
        <time>2026-02-22T13:45:12Z</time>
      </trkpt>
      <trkpt lat="46.12358" lon="6.77818">
        <ele>1764.565</ele>
        <time>2026-02-22T13:45:17Z</time>
      </trkpt>
      <trkpt lat="46.12358" lon="6.77823">
        <ele>1764.06</ele>
        <time>2026-02-22T13:45:22Z</time>
      </trkpt>
      <trkpt lat="46.12357" lon="6.7783">
        <ele>1763.831</ele>
        <time>2026-02-22T13:45:27Z</time>
      </trkpt>
      <trkpt lat="46.12356" lon="6.77838">
        <ele>1764.168</ele>
        <time>2026-02-22T13:45:32Z</time>
      </trkpt>
      <trkpt lat="46.12355" lon="6.77845">
        <ele>1764.155</ele>
        <time>2026-02-22T13:45:37Z</time>
      </trkpt>
      <trkpt lat="46.12354" lon="6.77851">
        <ele>1763.751</ele>
        <time>2026-02-22T13:45:42Z</time>
      </trkpt>
      <trkpt lat="46.12352" lon="6.77856">
        <ele>1763.443</ele>
        <time>2026-02-22T13:45:47Z</time>
      </trkpt>
      <trkpt lat="46.12351" lon="6.77861">
        <ele>1763.749</ele>
        <time>2026-02-22T13:45:52Z</time>
      </trkpt>
      <trkpt lat="46.12352" lon="6.77864">
        <ele>1763.068</ele>
        <time>2026-02-22T13:45:57Z</time>
      </trkpt>
      <trkpt lat="46.12351" lon="6.77867">
        <ele>1762.976</ele>
        <time>2026-02-22T13:46:02Z</time>
      </trkpt>
      <trkpt lat="46.12348" lon="6.77871">
        <ele>1763.754</ele>
        <time>2026-02-22T13:46:07Z</time>
      </trkpt>
      <trkpt lat="46.12346" lon="6.77876">
        <ele>1764.481</ele>
        <time>2026-02-22T13:46:12Z</time>
      </trkpt>
      <trkpt lat="46.12342" lon="6.77884">
        <ele>1763.451</ele>
        <time>2026-02-22T13:46:17Z</time>
      </trkpt>
      <trkpt lat="46.12338" lon="6.77899">
        <ele>1762.599</ele>
        <time>2026-02-22T13:46:22Z</time>
      </trkpt>
      <trkpt lat="46.12336" lon="6.77907">
        <ele>1763.638</ele>
        <time>2026-02-22T13:46:27Z</time>
      </trkpt>
      <trkpt lat="46.12336" lon="6.77907">
        <ele>1763.909</ele>
        <time>2026-02-22T13:46:32Z</time>
      </trkpt>
      <trkpt lat="46.12336" lon="6.77908">
        <ele>1763.716</ele>
        <time>2026-02-22T13:46:37Z</time>
      </trkpt>
      <trkpt lat="46.12336" lon="6.77909">
        <ele>1763.238</ele>
        <time>2026-02-22T13:46:42Z</time>
      </trkpt>
      <trkpt lat="46.12336" lon="6.77909">
        <ele>1762.354</ele>
        <time>2026-02-22T13:46:47Z</time>
      </trkpt>
      <trkpt lat="46.12336" lon="6.77909">
        <ele>1761.753</ele>
        <time>2026-02-22T13:46:52Z</time>
      </trkpt>
      <trkpt lat="46.12336" lon="6.77909">
        <ele>1762.444</ele>
        <time>2026-02-22T13:46:57Z</time>
      </trkpt>
      <trkpt lat="46.12336" lon="6.77909">
        <ele>1762.551</ele>
        <time>2026-02-22T13:47:02Z</time>
      </trkpt>
      <trkpt lat="46.12336" lon="6.77909">
        <ele>1762.783</ele>
        <time>2026-02-22T13:47:07Z</time>
      </trkpt>
      <trkpt lat="46.12336" lon="6.77909">
        <ele>1763.811</ele>
        <time>2026-02-22T13:47:12Z</time>
      </trkpt>
      <trkpt lat="46.12336" lon="6.77909">
        <ele>1762.162</ele>
        <time>2026-02-22T13:47:17Z</time>
      </trkpt>
      <trkpt lat="46.12336" lon="6.77909">
        <ele>1761.257</ele>
        <time>2026-02-22T13:47:22Z</time>
      </trkpt>
      <trkpt lat="46.12336" lon="6.77909">
        <ele>1760.707</ele>
        <time>2026-02-22T13:47:27Z</time>
      </trkpt>
      <trkpt lat="46.12336" lon="6.77909">
        <ele>1759.678</ele>
        <time>2026-02-22T13:47:32Z</time>
      </trkpt>
      <trkpt lat="46.12336" lon="6.77909">
        <ele>1757.258</ele>
        <time>2026-02-22T13:47:37Z</time>
      </trkpt>
      <trkpt lat="46.12336" lon="6.77909">
        <ele>1757.814</ele>
        <time>2026-02-22T13:47:42Z</time>
      </trkpt>
      <trkpt lat="46.12336" lon="6.77909">
        <ele>1759.53</ele>
        <time>2026-02-22T13:47:47Z</time>
      </trkpt>
      <trkpt lat="46.12336" lon="6.77909">
        <ele>1759.738</ele>
        <time>2026-02-22T13:47:52Z</time>
      </trkpt>
      <trkpt lat="46.12336" lon="6.77909">
        <ele>1759.965</ele>
        <time>2026-02-22T13:47:57Z</time>
      </trkpt>
      <trkpt lat="46.12336" lon="6.77909">
        <ele>1759.551</ele>
        <time>2026-02-22T13:48:02Z</time>
      </trkpt>
      <trkpt lat="46.12336" lon="6.77909">
        <ele>1759.657</ele>
        <time>2026-02-22T13:48:07Z</time>
      </trkpt>
      <trkpt lat="46.12336" lon="6.77909">
        <ele>1758.158</ele>
        <time>2026-02-22T13:48:12Z</time>
      </trkpt>
      <trkpt lat="46.1234" lon="6.77913">
        <ele>1758.076</ele>
        <time>2026-02-22T13:48:17Z</time>
      </trkpt>
      <trkpt lat="46.12343" lon="6.77912">
        <ele>1758.228</ele>
        <time>2026-02-22T13:48:22Z</time>
      </trkpt>
      <trkpt lat="46.12343" lon="6.77912">
        <ele>1758.228</ele>
        <time>2026-02-22T13:48:22Z</time>
      </trkpt>
      <trkpt lat="46.12323" lon="6.77889">
        <ele>1761.85</ele>
        <time>2026-02-22T14:31:40Z</time>
      </trkpt>
      <trkpt lat="46.12334" lon="6.7789">
        <ele>1759.589</ele>
        <time>2026-02-22T14:31:45Z</time>
      </trkpt>
      <trkpt lat="46.12336" lon="6.7789">
        <ele>1758.986</ele>
        <time>2026-02-22T14:31:50Z</time>
      </trkpt>
      <trkpt lat="46.12337" lon="6.7789">
        <ele>1760.304</ele>
        <time>2026-02-22T14:31:55Z</time>
      </trkpt>
      <trkpt lat="46.12337" lon="6.7789">
        <ele>1760.721</ele>
        <time>2026-02-22T14:32:00Z</time>
      </trkpt>
      <trkpt lat="46.1234" lon="6.77871">
        <ele>1763.808</ele>
        <time>2026-02-22T14:32:05Z</time>
      </trkpt>
      <trkpt lat="46.1234" lon="6.77845">
        <ele>1759.941</ele>
        <time>2026-02-22T14:32:10Z</time>
      </trkpt>
      <trkpt lat="46.12335" lon="6.77825">
        <ele>1754.722</ele>
        <time>2026-02-22T14:32:15Z</time>
      </trkpt>
      <trkpt lat="46.12327" lon="6.77802">
        <ele>1751.599</ele>
        <time>2026-02-22T14:32:20Z</time>
      </trkpt>
      <trkpt lat="46.12314" lon="6.77772">
        <ele>1746.923</ele>
        <time>2026-02-22T14:32:25Z</time>
      </trkpt>
      <trkpt lat="46.12314" lon="6.77744">
        <ele>1744.156</ele>
        <time>2026-02-22T14:32:30Z</time>
      </trkpt>
      <trkpt lat="46.12317" lon="6.7773">
        <ele>1743.789</ele>
        <time>2026-02-22T14:32:35Z</time>
      </trkpt>
      <trkpt lat="46.12318" lon="6.77728">
        <ele>1743.713</ele>
        <time>2026-02-22T14:32:40Z</time>
      </trkpt>
      <trkpt lat="46.1232" lon="6.77719">
        <ele>1742.38</ele>
        <time>2026-02-22T14:32:45Z</time>
      </trkpt>
      <trkpt lat="46.12315" lon="6.77696">
        <ele>1739.605</ele>
        <time>2026-02-22T14:32:50Z</time>
      </trkpt>
      <trkpt lat="46.1231" lon="6.77669">
        <ele>1737.766</ele>
        <time>2026-02-22T14:32:55Z</time>
      </trkpt>
      <trkpt lat="46.12309" lon="6.77641">
        <ele>1734.465</ele>
        <time>2026-02-22T14:33:00Z</time>
      </trkpt>
      <trkpt lat="46.12308" lon="6.77606">
        <ele>1734.274</ele>
        <time>2026-02-22T14:33:05Z</time>
      </trkpt>
      <trkpt lat="46.12304" lon="6.77578">
        <ele>1734.978</ele>
        <time>2026-02-22T14:33:10Z</time>
      </trkpt>
      <trkpt lat="46.12303" lon="6.77564">
        <ele>1734.217</ele>
        <time>2026-02-22T14:33:15Z</time>
      </trkpt>
      <trkpt lat="46.12303" lon="6.77559">
        <ele>1733.468</ele>
        <time>2026-02-22T14:33:20Z</time>
      </trkpt>
      <trkpt lat="46.12303" lon="6.77559">
        <ele>1733.723</ele>
        <time>2026-02-22T14:33:25Z</time>
      </trkpt>
      <trkpt lat="46.12304" lon="6.77557">
        <ele>1731.374</ele>
        <time>2026-02-22T14:33:30Z</time>
      </trkpt>
      <trkpt lat="46.12303" lon="6.77546">
        <ele>1732.053</ele>
        <time>2026-02-22T14:33:35Z</time>
      </trkpt>
      <trkpt lat="46.12301" lon="6.77539">
        <ele>1730.182</ele>
        <time>2026-02-22T14:33:40Z</time>
      </trkpt>
      <trkpt lat="46.12293" lon="6.77507">
        <ele>1727.342</ele>
        <time>2026-02-22T14:33:45Z</time>
      </trkpt>
      <trkpt lat="46.12282" lon="6.77482">
        <ele>1723.054</ele>
        <time>2026-02-22T14:33:50Z</time>
      </trkpt>
      <trkpt lat="46.12282" lon="6.77464">
        <ele>1718.056</ele>
        <time>2026-02-22T14:33:55Z</time>
      </trkpt>
      <trkpt lat="46.12284" lon="6.77454">
        <ele>1718.362</ele>
        <time>2026-02-22T14:34:00Z</time>
      </trkpt>
      <trkpt lat="46.12284" lon="6.77453">
        <ele>1717.87</ele>
        <time>2026-02-22T14:34:05Z</time>
      </trkpt>
      <trkpt lat="46.12276" lon="6.77449">
        <ele>1716.016</ele>
        <time>2026-02-22T14:34:10Z</time>
      </trkpt>
      <trkpt lat="46.12252" lon="6.77455">
        <ele>1711.591</ele>
        <time>2026-02-22T14:34:15Z</time>
      </trkpt>
      <trkpt lat="46.12232" lon="6.77431">
        <ele>1704.899</ele>
        <time>2026-02-22T14:34:20Z</time>
      </trkpt>
      <trkpt lat="46.12218" lon="6.7742">
        <ele>1699.453</ele>
        <time>2026-02-22T14:34:25Z</time>
      </trkpt>
      <trkpt lat="46.12199" lon="6.77397">
        <ele>1696.532</ele>
        <time>2026-02-22T14:34:30Z</time>
      </trkpt>
      <trkpt lat="46.12191" lon="6.77388">
        <ele>1690.551</ele>
        <time>2026-02-22T14:34:35Z</time>
      </trkpt>
      <trkpt lat="46.12191" lon="6.77388">
        <ele>1687.523</ele>
        <time>2026-02-22T14:34:40Z</time>
      </trkpt>
      <trkpt lat="46.12191" lon="6.77388">
        <ele>1682.109</ele>
        <time>2026-02-22T14:34:45Z</time>
      </trkpt>
      <trkpt lat="46.12191" lon="6.77388">
        <ele>1680.669</ele>
        <time>2026-02-22T14:34:50Z</time>
      </trkpt>
      <trkpt lat="46.12192" lon="6.77385">
        <ele>1681.153</ele>
        <time>2026-02-22T14:34:55Z</time>
      </trkpt>
      <trkpt lat="46.12175" lon="6.77354">
        <ele>1680.385</ele>
        <time>2026-02-22T14:35:00Z</time>
      </trkpt>
      <trkpt lat="46.12163" lon="6.77333">
        <ele>1672.864</ele>
        <time>2026-02-22T14:35:05Z</time>
      </trkpt>
      <trkpt lat="46.12162" lon="6.77332">
        <ele>1673.319</ele>
        <time>2026-02-22T14:35:10Z</time>
      </trkpt>
      <trkpt lat="46.12162" lon="6.77332">
        <ele>1673.435</ele>
        <time>2026-02-22T14:35:15Z</time>
      </trkpt>
      <trkpt lat="46.12162" lon="6.77332">
        <ele>1671.692</ele>
        <time>2026-02-22T14:35:20Z</time>
      </trkpt>
      <trkpt lat="46.12162" lon="6.77331">
        <ele>1671.316</ele>
        <time>2026-02-22T14:35:25Z</time>
      </trkpt>
      <trkpt lat="46.12156" lon="6.77303">
        <ele>1666.377</ele>
        <time>2026-02-22T14:35:30Z</time>
      </trkpt>
      <trkpt lat="46.12152" lon="6.77277">
        <ele>1658.199</ele>
        <time>2026-02-22T14:35:35Z</time>
      </trkpt>
      <trkpt lat="46.12157" lon="6.77249">
        <ele>1654.018</ele>
        <time>2026-02-22T14:35:40Z</time>
      </trkpt>
      <trkpt lat="46.12144" lon="6.77227">
        <ele>1654.912</ele>
        <time>2026-02-22T14:35:45Z</time>
      </trkpt>
      <trkpt lat="46.12143" lon="6.77227">
        <ele>1654.881</ele>
        <time>2026-02-22T14:35:50Z</time>
      </trkpt>
      <trkpt lat="46.12126" lon="6.77217">
        <ele>1650.445</ele>
        <time>2026-02-22T14:35:55Z</time>
      </trkpt>
      <trkpt lat="46.12119" lon="6.7722">
        <ele>1649.118</ele>
        <time>2026-02-22T14:36:00Z</time>
      </trkpt>
      <trkpt lat="46.12117" lon="6.77221">
        <ele>1647.445</ele>
        <time>2026-02-22T14:36:05Z</time>
      </trkpt>
      <trkpt lat="46.12117" lon="6.77222">
        <ele>1646.783</ele>
        <time>2026-02-22T14:36:10Z</time>
      </trkpt>
      <trkpt lat="46.12117" lon="6.77222">
        <ele>1646.421</ele>
        <time>2026-02-22T14:36:15Z</time>
      </trkpt>
      <trkpt lat="46.12117" lon="6.77222">
        <ele>1646.426</ele>
        <time>2026-02-22T14:36:20Z</time>
      </trkpt>
      <trkpt lat="46.12117" lon="6.77222">
        <ele>1646.433</ele>
        <time>2026-02-22T14:36:25Z</time>
      </trkpt>
      <trkpt lat="46.12117" lon="6.77221">
        <ele>1646.465</ele>
        <time>2026-02-22T14:36:30Z</time>
      </trkpt>
      <trkpt lat="46.12117" lon="6.77221">
        <ele>1646.417</ele>
        <time>2026-02-22T14:36:35Z</time>
      </trkpt>
      <trkpt lat="46.12109" lon="6.77215">
        <ele>1644.726</ele>
        <time>2026-02-22T14:36:40Z</time>
      </trkpt>
      <trkpt lat="46.12092" lon="6.77216">
        <ele>1642.504</ele>
        <time>2026-02-22T14:36:45Z</time>
      </trkpt>
      <trkpt lat="46.12081" lon="6.77205">
        <ele>1635.054</ele>
        <time>2026-02-22T14:36:50Z</time>
      </trkpt>
      <trkpt lat="46.12071" lon="6.77186">
        <ele>1630.494</ele>
        <time>2026-02-22T14:36:55Z</time>
      </trkpt>
      <trkpt lat="46.12069" lon="6.77184">
        <ele>1628.885</ele>
        <time>2026-02-22T14:37:00Z</time>
      </trkpt>
      <trkpt lat="46.12066" lon="6.77183">
        <ele>1627.985</ele>
        <time>2026-02-22T14:37:05Z</time>
      </trkpt>
      <trkpt lat="46.12053" lon="6.77177">
        <ele>1623.983</ele>
        <time>2026-02-22T14:37:10Z</time>
      </trkpt>
      <trkpt lat="46.12041" lon="6.77177">
        <ele>1620.637</ele>
        <time>2026-02-22T14:37:15Z</time>
      </trkpt>
      <trkpt lat="46.12017" lon="6.77156">
        <ele>1617.662</ele>
        <time>2026-02-22T14:37:20Z</time>
      </trkpt>
      <trkpt lat="46.12007" lon="6.77161">
        <ele>1612.925</ele>
        <time>2026-02-22T14:37:25Z</time>
      </trkpt>
      <trkpt lat="46.12001" lon="6.7716">
        <ele>1611.667</ele>
        <time>2026-02-22T14:37:30Z</time>
      </trkpt>
      <trkpt lat="46.12001" lon="6.7716">
        <ele>1610.686</ele>
        <time>2026-02-22T14:37:35Z</time>
      </trkpt>
      <trkpt lat="46.12001" lon="6.7716">
        <ele>1613.56</ele>
        <time>2026-02-22T14:37:40Z</time>
      </trkpt>
      <trkpt lat="46.12001" lon="6.7716">
        <ele>1612.731</ele>
        <time>2026-02-22T14:37:45Z</time>
      </trkpt>
      <trkpt lat="46.12" lon="6.77158">
        <ele>1612.685</ele>
        <time>2026-02-22T14:37:50Z</time>
      </trkpt>
      <trkpt lat="46.12" lon="6.77158">
        <ele>1612.855</ele>
        <time>2026-02-22T14:37:55Z</time>
      </trkpt>
      <trkpt lat="46.12" lon="6.77158">
        <ele>1612.852</ele>
        <time>2026-02-22T14:38:00Z</time>
      </trkpt>
      <trkpt lat="46.12" lon="6.77158">
        <ele>1612.856</ele>
        <time>2026-02-22T14:38:05Z</time>
      </trkpt>
      <trkpt lat="46.12" lon="6.77158">
        <ele>1612.853</ele>
        <time>2026-02-22T14:38:10Z</time>
      </trkpt>
      <trkpt lat="46.11998" lon="6.77158">
        <ele>1612.896</ele>
        <time>2026-02-22T14:38:15Z</time>
      </trkpt>
      <trkpt lat="46.11985" lon="6.77144">
        <ele>1606.752</ele>
        <time>2026-02-22T14:38:20Z</time>
      </trkpt>
      <trkpt lat="46.1198" lon="6.7712">
        <ele>1603.018</ele>
        <time>2026-02-22T14:38:25Z</time>
      </trkpt>
      <trkpt lat="46.11968" lon="6.77121">
        <ele>1599.583</ele>
        <time>2026-02-22T14:38:30Z</time>
      </trkpt>
      <trkpt lat="46.11965" lon="6.77113">
        <ele>1598.098</ele>
        <time>2026-02-22T14:38:35Z</time>
      </trkpt>
      <trkpt lat="46.11952" lon="6.77124">
        <ele>1593.401</ele>
        <time>2026-02-22T14:38:40Z</time>
      </trkpt>
      <trkpt lat="46.11945" lon="6.77097">
        <ele>1587.755</ele>
        <time>2026-02-22T14:38:45Z</time>
      </trkpt>
      <trkpt lat="46.11946" lon="6.77072">
        <ele>1586.065</ele>
        <time>2026-02-22T14:38:50Z</time>
      </trkpt>
      <trkpt lat="46.11942" lon="6.77049">
        <ele>1587.368</ele>
        <time>2026-02-22T14:38:55Z</time>
      </trkpt>
      <trkpt lat="46.11939" lon="6.77042">
        <ele>1589.499</ele>
        <time>2026-02-22T14:39:00Z</time>
      </trkpt>
      <trkpt lat="46.11939" lon="6.77042">
        <ele>1589.171</ele>
        <time>2026-02-22T14:39:05Z</time>
      </trkpt>
      <trkpt lat="46.11939" lon="6.77042">
        <ele>1586.699</ele>
        <time>2026-02-22T14:39:10Z</time>
      </trkpt>
      <trkpt lat="46.11939" lon="6.77042">
        <ele>1587.968</ele>
        <time>2026-02-22T14:39:15Z</time>
      </trkpt>
      <trkpt lat="46.11939" lon="6.77042">
        <ele>1588.468</ele>
        <time>2026-02-22T14:39:20Z</time>
      </trkpt>
      <trkpt lat="46.11931" lon="6.77032">
        <ele>1584.549</ele>
        <time>2026-02-22T14:39:25Z</time>
      </trkpt>
      <trkpt lat="46.11916" lon="6.77002">
        <ele>1583.555</ele>
        <time>2026-02-22T14:39:30Z</time>
      </trkpt>
      <trkpt lat="46.11902" lon="6.76986">
        <ele>1568.814</ele>
        <time>2026-02-22T14:39:35Z</time>
      </trkpt>
      <trkpt lat="46.11887" lon="6.7696">
        <ele>1557.877</ele>
        <time>2026-02-22T14:39:40Z</time>
      </trkpt>
      <trkpt lat="46.11874" lon="6.76947">
        <ele>1553.441</ele>
        <time>2026-02-22T14:39:45Z</time>
      </trkpt>
      <trkpt lat="46.1187" lon="6.76926">
        <ele>1552.463</ele>
        <time>2026-02-22T14:39:50Z</time>
      </trkpt>
      <trkpt lat="46.11873" lon="6.76922">
        <ele>1549.066</ele>
        <time>2026-02-22T14:39:55Z</time>
      </trkpt>
      <trkpt lat="46.11873" lon="6.76922">
        <ele>1547.888</ele>
        <time>2026-02-22T14:40:00Z</time>
      </trkpt>
      <trkpt lat="46.11873" lon="6.76922">
        <ele>1548.092</ele>
        <time>2026-02-22T14:40:05Z</time>
      </trkpt>
      <trkpt lat="46.11865" lon="6.76914">
        <ele>1545.348</ele>
        <time>2026-02-22T14:40:10Z</time>
      </trkpt>
      <trkpt lat="46.11856" lon="6.76895">
        <ele>1543.452</ele>
        <time>2026-02-22T14:40:15Z</time>
      </trkpt>
      <trkpt lat="46.11843" lon="6.76878">
        <ele>1532.457</ele>
        <time>2026-02-22T14:40:20Z</time>
      </trkpt>
      <trkpt lat="46.11842" lon="6.76851">
        <ele>1527.873</ele>
        <time>2026-02-22T14:40:25Z</time>
      </trkpt>
      <trkpt lat="46.11842" lon="6.76851">
        <ele>1528.855</ele>
        <time>2026-02-22T14:40:30Z</time>
      </trkpt>
      <trkpt lat="46.11842" lon="6.76851">
        <ele>1531.347</ele>
        <time>2026-02-22T14:40:35Z</time>
      </trkpt>
      <trkpt lat="46.11842" lon="6.76848">
        <ele>1529.511</ele>
        <time>2026-02-22T14:40:40Z</time>
      </trkpt>
      <trkpt lat="46.11833" lon="6.76807">
        <ele>1523.142</ele>
        <time>2026-02-22T14:40:45Z</time>
      </trkpt>
      <trkpt lat="46.11835" lon="6.768">
        <ele>1521.606</ele>
        <time>2026-02-22T14:40:50Z</time>
      </trkpt>
      <trkpt lat="46.11834" lon="6.76798">
        <ele>1521.35</ele>
        <time>2026-02-22T14:40:55Z</time>
      </trkpt>
      <trkpt lat="46.11831" lon="6.76796">
        <ele>1519.011</ele>
        <time>2026-02-22T14:41:00Z</time>
      </trkpt>
      <trkpt lat="46.11819" lon="6.76762">
        <ele>1514.704</ele>
        <time>2026-02-22T14:41:05Z</time>
      </trkpt>
      <trkpt lat="46.11797" lon="6.76727">
        <ele>1510.741</ele>
        <time>2026-02-22T14:41:10Z</time>
      </trkpt>
      <trkpt lat="46.1178" lon="6.76697">
        <ele>1504.144</ele>
        <time>2026-02-22T14:41:15Z</time>
      </trkpt>
      <trkpt lat="46.11778" lon="6.76674">
        <ele>1498.709</ele>
        <time>2026-02-22T14:41:20Z</time>
      </trkpt>
      <trkpt lat="46.11777" lon="6.76673">
        <ele>1498.406</ele>
        <time>2026-02-22T14:41:25Z</time>
      </trkpt>
      <trkpt lat="46.11777" lon="6.76673">
        <ele>1498.052</ele>
        <time>2026-02-22T14:41:30Z</time>
      </trkpt>
      <trkpt lat="46.11777" lon="6.76673">
        <ele>1497.595</ele>
        <time>2026-02-22T14:41:35Z</time>
      </trkpt>
      <trkpt lat="46.11777" lon="6.76673">
        <ele>1496.736</ele>
        <time>2026-02-22T14:41:40Z</time>
      </trkpt>
      <trkpt lat="46.11777" lon="6.76673">
        <ele>1497.046</ele>
        <time>2026-02-22T14:41:45Z</time>
      </trkpt>
      <trkpt lat="46.11777" lon="6.76673">
        <ele>1497.152</ele>
        <time>2026-02-22T14:41:50Z</time>
      </trkpt>
      <trkpt lat="46.11777" lon="6.76673">
        <ele>1497.161</ele>
        <time>2026-02-22T14:41:55Z</time>
      </trkpt>
      <trkpt lat="46.11777" lon="6.76673">
        <ele>1497.158</ele>
        <time>2026-02-22T14:42:00Z</time>
      </trkpt>
      <trkpt lat="46.11777" lon="6.76673">
        <ele>1497.174</ele>
        <time>2026-02-22T14:42:05Z</time>
      </trkpt>
      <trkpt lat="46.11777" lon="6.76673">
        <ele>1497.181</ele>
        <time>2026-02-22T14:42:10Z</time>
      </trkpt>
      <trkpt lat="46.11777" lon="6.76673">
        <ele>1497.176</ele>
        <time>2026-02-22T14:42:15Z</time>
      </trkpt>
      <trkpt lat="46.11777" lon="6.76673">
        <ele>1497.168</ele>
        <time>2026-02-22T14:42:20Z</time>
      </trkpt>
      <trkpt lat="46.11777" lon="6.76673">
        <ele>1497.165</ele>
        <time>2026-02-22T14:42:25Z</time>
      </trkpt>
      <trkpt lat="46.11777" lon="6.76673">
        <ele>1497.168</ele>
        <time>2026-02-22T14:42:30Z</time>
      </trkpt>
      <trkpt lat="46.11777" lon="6.76673">
        <ele>1497.182</ele>
        <time>2026-02-22T14:42:35Z</time>
      </trkpt>
      <trkpt lat="46.11777" lon="6.76673">
        <ele>1497.182</ele>
        <time>2026-02-22T14:42:40Z</time>
      </trkpt>
      <trkpt lat="46.11777" lon="6.76673">
        <ele>1497.176</ele>
        <time>2026-02-22T14:42:45Z</time>
      </trkpt>
      <trkpt lat="46.11777" lon="6.76673">
        <ele>1497.183</ele>
        <time>2026-02-22T14:42:50Z</time>
      </trkpt>
      <trkpt lat="46.11777" lon="6.76673">
        <ele>1497.174</ele>
        <time>2026-02-22T14:42:55Z</time>
      </trkpt>
      <trkpt lat="46.11777" lon="6.76673">
        <ele>1497.181</ele>
        <time>2026-02-22T14:43:00Z</time>
      </trkpt>
      <trkpt lat="46.11777" lon="6.76673">
        <ele>1497.177</ele>
        <time>2026-02-22T14:43:05Z</time>
      </trkpt>
      <trkpt lat="46.11777" lon="6.76673">
        <ele>1497.177</ele>
        <time>2026-02-22T14:43:10Z</time>
      </trkpt>
      <trkpt lat="46.11777" lon="6.76673">
        <ele>1497.193</ele>
        <time>2026-02-22T14:43:15Z</time>
      </trkpt>
      <trkpt lat="46.11777" lon="6.76673">
        <ele>1498.083</ele>
        <time>2026-02-22T14:43:20Z</time>
      </trkpt>
      <trkpt lat="46.11777" lon="6.76673">
        <ele>1496.391</ele>
        <time>2026-02-22T14:43:25Z</time>
      </trkpt>
      <trkpt lat="46.11777" lon="6.76673">
        <ele>1496.663</ele>
        <time>2026-02-22T14:43:30Z</time>
      </trkpt>
      <trkpt lat="46.11777" lon="6.76673">
        <ele>1495.011</ele>
        <time>2026-02-22T14:43:35Z</time>
      </trkpt>
      <trkpt lat="46.11777" lon="6.76673">
        <ele>1497.628</ele>
        <time>2026-02-22T14:43:40Z</time>
      </trkpt>
      <trkpt lat="46.11777" lon="6.76673">
        <ele>1491.859</ele>
        <time>2026-02-22T14:43:45Z</time>
      </trkpt>
      <trkpt lat="46.11777" lon="6.76673">
        <ele>1494.871</ele>
        <time>2026-02-22T14:43:50Z</time>
      </trkpt>
      <trkpt lat="46.11777" lon="6.76673">
        <ele>1496.934</ele>
        <time>2026-02-22T14:43:55Z</time>
      </trkpt>
      <trkpt lat="46.11777" lon="6.76673">
        <ele>1490.065</ele>
        <time>2026-02-22T14:44:00Z</time>
      </trkpt>
      <trkpt lat="46.11777" lon="6.76673">
        <ele>1490.297</ele>
        <time>2026-02-22T14:44:05Z</time>
      </trkpt>
      <trkpt lat="46.11777" lon="6.76673">
        <ele>1491.501</ele>
        <time>2026-02-22T14:44:10Z</time>
      </trkpt>
      <trkpt lat="46.11777" lon="6.76673">
        <ele>1494.195</ele>
        <time>2026-02-22T14:44:15Z</time>
      </trkpt>
      <trkpt lat="46.11777" lon="6.76673">
        <ele>1494.182</ele>
        <time>2026-02-22T14:44:20Z</time>
      </trkpt>
      <trkpt lat="46.11777" lon="6.76673">
        <ele>1494.188</ele>
        <time>2026-02-22T14:44:25Z</time>
      </trkpt>
      <trkpt lat="46.11777" lon="6.76673">
        <ele>1494.706</ele>
        <time>2026-02-22T14:44:30Z</time>
      </trkpt>
      <trkpt lat="46.11777" lon="6.76673">
        <ele>1493.577</ele>
        <time>2026-02-22T14:44:35Z</time>
      </trkpt>
      <trkpt lat="46.11777" lon="6.76673">
        <ele>1495.205</ele>
        <time>2026-02-22T14:44:40Z</time>
      </trkpt>
      <trkpt lat="46.11777" lon="6.76673">
        <ele>1495.795</ele>
        <time>2026-02-22T14:44:45Z</time>
      </trkpt>
      <trkpt lat="46.11777" lon="6.76673">
        <ele>1497.129</ele>
        <time>2026-02-22T14:44:50Z</time>
      </trkpt>
      <trkpt lat="46.11777" lon="6.76673">
        <ele>1496.759</ele>
        <time>2026-02-22T14:44:55Z</time>
      </trkpt>
      <trkpt lat="46.11777" lon="6.76673">
        <ele>1496.235</ele>
        <time>2026-02-22T14:45:00Z</time>
      </trkpt>
      <trkpt lat="46.11777" lon="6.76673">
        <ele>1495.697</ele>
        <time>2026-02-22T14:45:05Z</time>
      </trkpt>
      <trkpt lat="46.11777" lon="6.76673">
        <ele>1496.964</ele>
        <time>2026-02-22T14:45:10Z</time>
      </trkpt>
      <trkpt lat="46.11777" lon="6.76673">
        <ele>1497.683</ele>
        <time>2026-02-22T14:45:15Z</time>
      </trkpt>
      <trkpt lat="46.11777" lon="6.76673">
        <ele>1494.931</ele>
        <time>2026-02-22T14:45:20Z</time>
      </trkpt>
      <trkpt lat="46.11777" lon="6.76673">
        <ele>1495.561</ele>
        <time>2026-02-22T14:45:25Z</time>
      </trkpt>
      <trkpt lat="46.11777" lon="6.76673">
        <ele>1493.805</ele>
        <time>2026-02-22T14:45:30Z</time>
      </trkpt>
      <trkpt lat="46.11777" lon="6.76673">
        <ele>1492.923</ele>
        <time>2026-02-22T14:45:35Z</time>
      </trkpt>
      <trkpt lat="46.11777" lon="6.76673">
        <ele>1492.945</ele>
        <time>2026-02-22T14:45:40Z</time>
      </trkpt>
      <trkpt lat="46.11777" lon="6.76673">
        <ele>1494.827</ele>
        <time>2026-02-22T14:45:45Z</time>
      </trkpt>
      <trkpt lat="46.11777" lon="6.76673">
        <ele>1492.337</ele>
        <time>2026-02-22T14:45:50Z</time>
      </trkpt>
      <trkpt lat="46.11777" lon="6.76673">
        <ele>1493.225</ele>
        <time>2026-02-22T14:45:55Z</time>
      </trkpt>
      <trkpt lat="46.11777" lon="6.76673">
        <ele>1493.034</ele>
        <time>2026-02-22T14:46:00Z</time>
      </trkpt>
      <trkpt lat="46.11777" lon="6.76673">
        <ele>1492.96</ele>
        <time>2026-02-22T14:46:05Z</time>
      </trkpt>
      <trkpt lat="46.11777" lon="6.76673">
        <ele>1492.963</ele>
        <time>2026-02-22T14:46:10Z</time>
      </trkpt>
      <trkpt lat="46.11777" lon="6.76673">
        <ele>1492.227</ele>
        <time>2026-02-22T14:46:15Z</time>
      </trkpt>
      <trkpt lat="46.11777" lon="6.76673">
        <ele>1492.745</ele>
        <time>2026-02-22T14:46:21Z</time>
      </trkpt>
      <trkpt lat="46.11777" lon="6.76673">
        <ele>1491.821</ele>
        <time>2026-02-22T14:46:26Z</time>
      </trkpt>
      <trkpt lat="46.11777" lon="6.76673">
        <ele>1492.207</ele>
        <time>2026-02-22T14:46:31Z</time>
      </trkpt>
      <trkpt lat="46.11777" lon="6.76673">
        <ele>1492.18</ele>
        <time>2026-02-22T14:46:36Z</time>
      </trkpt>
      <trkpt lat="46.11777" lon="6.76673">
        <ele>1494.309</ele>
        <time>2026-02-22T14:46:41Z</time>
      </trkpt>
      <trkpt lat="46.11777" lon="6.76673">
        <ele>1494.914</ele>
        <time>2026-02-22T14:46:46Z</time>
      </trkpt>
      <trkpt lat="46.11777" lon="6.76673">
        <ele>1496.538</ele>
        <time>2026-02-22T14:46:51Z</time>
      </trkpt>
      <trkpt lat="46.11777" lon="6.76673">
        <ele>1496.463</ele>
        <time>2026-02-22T14:46:56Z</time>
      </trkpt>
      <trkpt lat="46.11777" lon="6.76673">
        <ele>1496.452</ele>
        <time>2026-02-22T14:47:01Z</time>
      </trkpt>
      <trkpt lat="46.11777" lon="6.76673">
        <ele>1496.215</ele>
        <time>2026-02-22T14:47:06Z</time>
      </trkpt>
      <trkpt lat="46.11777" lon="6.76673">
        <ele>1497.613</ele>
        <time>2026-02-22T14:47:11Z</time>
      </trkpt>
      <trkpt lat="46.11777" lon="6.76673">
        <ele>1496.546</ele>
        <time>2026-02-22T14:47:16Z</time>
      </trkpt>
      <trkpt lat="46.11777" lon="6.76673">
        <ele>1496.524</ele>
        <time>2026-02-22T14:47:21Z</time>
      </trkpt>
      <trkpt lat="46.11777" lon="6.76673">
        <ele>1496.513</ele>
        <time>2026-02-22T14:47:26Z</time>
      </trkpt>
      <trkpt lat="46.11777" lon="6.76673">
        <ele>1496.497</ele>
        <time>2026-02-22T14:47:31Z</time>
      </trkpt>
      <trkpt lat="46.11777" lon="6.76673">
        <ele>1496.489</ele>
        <time>2026-02-22T14:47:36Z</time>
      </trkpt>
      <trkpt lat="46.11777" lon="6.76673">
        <ele>1496.479</ele>
        <time>2026-02-22T14:47:41Z</time>
      </trkpt>
      <trkpt lat="46.11777" lon="6.76673">
        <ele>1496.464</ele>
        <time>2026-02-22T14:47:46Z</time>
      </trkpt>
      <trkpt lat="46.11777" lon="6.76673">
        <ele>1496.45</ele>
        <time>2026-02-22T14:47:51Z</time>
      </trkpt>
      <trkpt lat="46.11777" lon="6.76673">
        <ele>1496.434</ele>
        <time>2026-02-22T14:47:56Z</time>
      </trkpt>
      <trkpt lat="46.11777" lon="6.76673">
        <ele>1496.427</ele>
        <time>2026-02-22T14:48:01Z</time>
      </trkpt>
      <trkpt lat="46.11777" lon="6.76673">
        <ele>1496.413</ele>
        <time>2026-02-22T14:48:06Z</time>
      </trkpt>
      <trkpt lat="46.11777" lon="6.76673">
        <ele>1496.405</ele>
        <time>2026-02-22T14:48:11Z</time>
      </trkpt>
      <trkpt lat="46.11777" lon="6.76673">
        <ele>1496.398</ele>
        <time>2026-02-22T14:48:16Z</time>
      </trkpt>
      <trkpt lat="46.11777" lon="6.76673">
        <ele>1496.389</ele>
        <time>2026-02-22T14:48:21Z</time>
      </trkpt>
      <trkpt lat="46.11777" lon="6.76673">
        <ele>1496.378</ele>
        <time>2026-02-22T14:48:26Z</time>
      </trkpt>
      <trkpt lat="46.11777" lon="6.76673">
        <ele>1496.374</ele>
        <time>2026-02-22T14:48:31Z</time>
      </trkpt>
      <trkpt lat="46.11777" lon="6.76673">
        <ele>1496.363</ele>
        <time>2026-02-22T14:48:36Z</time>
      </trkpt>
      <trkpt lat="46.11777" lon="6.76673">
        <ele>1496.351</ele>
        <time>2026-02-22T14:48:41Z</time>
      </trkpt>
      <trkpt lat="46.11777" lon="6.76673">
        <ele>1493.489</ele>
        <time>2026-02-22T14:48:46Z</time>
      </trkpt>
      <trkpt lat="46.11777" lon="6.76673">
        <ele>1494.524</ele>
        <time>2026-02-22T14:48:51Z</time>
      </trkpt>
      <trkpt lat="46.11777" lon="6.76673">
        <ele>1494.781</ele>
        <time>2026-02-22T14:48:56Z</time>
      </trkpt>
      <trkpt lat="46.11777" lon="6.76673">
        <ele>1494.791</ele>
        <time>2026-02-22T14:49:01Z</time>
      </trkpt>
      <trkpt lat="46.11777" lon="6.76673">
        <ele>1496.542</ele>
        <time>2026-02-22T14:49:06Z</time>
      </trkpt>
      <trkpt lat="46.11777" lon="6.76673">
        <ele>1496.238</ele>
        <time>2026-02-22T14:49:11Z</time>
      </trkpt>
      <trkpt lat="46.11777" lon="6.76673">
        <ele>1496.204</ele>
        <time>2026-02-22T14:49:16Z</time>
      </trkpt>
      <trkpt lat="46.1177" lon="6.76672">
        <ele>1491.509</ele>
        <time>2026-02-22T14:49:21Z</time>
      </trkpt>
      <trkpt lat="46.11769" lon="6.76672">
        <ele>1489.29</ele>
        <time>2026-02-22T14:49:26Z</time>
      </trkpt>
      <trkpt lat="46.11761" lon="6.76653">
        <ele>1487.684</ele>
        <time>2026-02-22T14:49:31Z</time>
      </trkpt>
      <trkpt lat="46.11758" lon="6.7664">
        <ele>1491.464</ele>
        <time>2026-02-22T14:49:36Z</time>
      </trkpt>
      <trkpt lat="46.11758" lon="6.76638">
        <ele>1491.831</ele>
        <time>2026-02-22T14:49:41Z</time>
      </trkpt>
      <trkpt lat="46.11758" lon="6.76638">
        <ele>1492.725</ele>
        <time>2026-02-22T14:49:46Z</time>
      </trkpt>
      <trkpt lat="46.11758" lon="6.76638">
        <ele>1492.551</ele>
        <time>2026-02-22T14:49:51Z</time>
      </trkpt>
      <trkpt lat="46.11758" lon="6.76638">
        <ele>1492.576</ele>
        <time>2026-02-22T14:49:56Z</time>
      </trkpt>
      <trkpt lat="46.11758" lon="6.76637">
        <ele>1492.571</ele>
        <time>2026-02-22T14:50:01Z</time>
      </trkpt>
      <trkpt lat="46.11758" lon="6.76637">
        <ele>1492.562</ele>
        <time>2026-02-22T14:50:06Z</time>
      </trkpt>
      <trkpt lat="46.11758" lon="6.76637">
        <ele>1492.558</ele>
        <time>2026-02-22T14:50:11Z</time>
      </trkpt>
      <trkpt lat="46.11762" lon="6.7662">
        <ele>1491.162</ele>
        <time>2026-02-22T14:50:16Z</time>
      </trkpt>
      <trkpt lat="46.11765" lon="6.76588">
        <ele>1491.789</ele>
        <time>2026-02-22T14:50:21Z</time>
      </trkpt>
      <trkpt lat="46.11758" lon="6.76554">
        <ele>1487.061</ele>
        <time>2026-02-22T14:50:26Z</time>
      </trkpt>
      <trkpt lat="46.11758" lon="6.76523">
        <ele>1487.189</ele>
        <time>2026-02-22T14:50:31Z</time>
      </trkpt>
      <trkpt lat="46.11748" lon="6.76505">
        <ele>1480.657</ele>
        <time>2026-02-22T14:50:36Z</time>
      </trkpt>
      <trkpt lat="46.11745" lon="6.76478">
        <ele>1473.604</ele>
        <time>2026-02-22T14:50:41Z</time>
      </trkpt>
      <trkpt lat="46.1174" lon="6.76433">
        <ele>1471.583</ele>
        <time>2026-02-22T14:50:46Z</time>
      </trkpt>
      <trkpt lat="46.11736" lon="6.76428">
        <ele>1469.949</ele>
        <time>2026-02-22T14:50:51Z</time>
      </trkpt>
      <trkpt lat="46.11735" lon="6.76428">
        <ele>1469.979</ele>
        <time>2026-02-22T14:50:56Z</time>
      </trkpt>
      <trkpt lat="46.11734" lon="6.76428">
        <ele>1470.598</ele>
        <time>2026-02-22T14:51:01Z</time>
      </trkpt>
      <trkpt lat="46.11732" lon="6.76427">
        <ele>1468.383</ele>
        <time>2026-02-22T14:51:06Z</time>
      </trkpt>
      <trkpt lat="46.11724" lon="6.76407">
        <ele>1464.47</ele>
        <time>2026-02-22T14:51:11Z</time>
      </trkpt>
      <trkpt lat="46.11716" lon="6.76383">
        <ele>1458.33</ele>
        <time>2026-02-22T14:51:16Z</time>
      </trkpt>
      <trkpt lat="46.11717" lon="6.76357">
        <ele>1455.121</ele>
        <time>2026-02-22T14:51:21Z</time>
      </trkpt>
      <trkpt lat="46.11736" lon="6.76353">
        <ele>1452.392</ele>
        <time>2026-02-22T14:51:26Z</time>
      </trkpt>
      <trkpt lat="46.11752" lon="6.76365">
        <ele>1448.842</ele>
        <time>2026-02-22T14:51:31Z</time>
      </trkpt>
      <trkpt lat="46.1177" lon="6.76376">
        <ele>1444.453</ele>
        <time>2026-02-22T14:51:36Z</time>
      </trkpt>
      <trkpt lat="46.11794" lon="6.76382">
        <ele>1439.302</ele>
        <time>2026-02-22T14:51:41Z</time>
      </trkpt>
      <trkpt lat="46.11809" lon="6.76376">
        <ele>1437.506</ele>
        <time>2026-02-22T14:51:46Z</time>
      </trkpt>
      <trkpt lat="46.11823" lon="6.76361">
        <ele>1435.541</ele>
        <time>2026-02-22T14:51:51Z</time>
      </trkpt>
      <trkpt lat="46.11835" lon="6.76337">
        <ele>1431.712</ele>
        <time>2026-02-22T14:51:56Z</time>
      </trkpt>
      <trkpt lat="46.11842" lon="6.76312">
        <ele>1429.739</ele>
        <time>2026-02-22T14:52:01Z</time>
      </trkpt>
      <trkpt lat="46.11848" lon="6.76303">
        <ele>1429.256</ele>
        <time>2026-02-22T14:52:06Z</time>
      </trkpt>
      <trkpt lat="46.11848" lon="6.76303">
        <ele>1429.294</ele>
        <time>2026-02-22T14:52:11Z</time>
      </trkpt>
      <trkpt lat="46.1185" lon="6.76304">
        <ele>1429.517</ele>
        <time>2026-02-22T14:52:16Z</time>
      </trkpt>
      <trkpt lat="46.11861" lon="6.76293">
        <ele>1420.695</ele>
        <time>2026-02-22T14:52:21Z</time>
      </trkpt>
      <trkpt lat="46.1187" lon="6.76265">
        <ele>1418.444</ele>
        <time>2026-02-22T14:52:26Z</time>
      </trkpt>
      <trkpt lat="46.11873" lon="6.76234">
        <ele>1414.351</ele>
        <time>2026-02-22T14:52:31Z</time>
      </trkpt>
      <trkpt lat="46.11876" lon="6.76204">
        <ele>1407.964</ele>
        <time>2026-02-22T14:52:36Z</time>
      </trkpt>
      <trkpt lat="46.11881" lon="6.76182">
        <ele>1404.869</ele>
        <time>2026-02-22T14:52:41Z</time>
      </trkpt>
      <trkpt lat="46.11881" lon="6.76181">
        <ele>1405.46</ele>
        <time>2026-02-22T14:52:46Z</time>
      </trkpt>
      <trkpt lat="46.11882" lon="6.7618">
        <ele>1406.001</ele>
        <time>2026-02-22T14:52:51Z</time>
      </trkpt>
      <trkpt lat="46.11883" lon="6.76177">
        <ele>1403.951</ele>
        <time>2026-02-22T14:52:56Z</time>
      </trkpt>
      <trkpt lat="46.11885" lon="6.76149">
        <ele>1398.863</ele>
        <time>2026-02-22T14:53:01Z</time>
      </trkpt>
      <trkpt lat="46.11893" lon="6.76122">
        <ele>1396.103</ele>
        <time>2026-02-22T14:53:06Z</time>
      </trkpt>
      <trkpt lat="46.11898" lon="6.76097">
        <ele>1392.481</ele>
        <time>2026-02-22T14:53:11Z</time>
      </trkpt>
      <trkpt lat="46.119" lon="6.7607">
        <ele>1388.113</ele>
        <time>2026-02-22T14:53:16Z</time>
      </trkpt>
      <trkpt lat="46.11899" lon="6.7604">
        <ele>1382.885</ele>
        <time>2026-02-22T14:53:21Z</time>
      </trkpt>
      <trkpt lat="46.11903" lon="6.7601">
        <ele>1380.284</ele>
        <time>2026-02-22T14:53:26Z</time>
      </trkpt>
      <trkpt lat="46.11915" lon="6.75986">
        <ele>1375.526</ele>
        <time>2026-02-22T14:53:31Z</time>
      </trkpt>
      <trkpt lat="46.11919" lon="6.75972">
        <ele>1374.476</ele>
        <time>2026-02-22T14:53:36Z</time>
      </trkpt>
      <trkpt lat="46.1192" lon="6.75951">
        <ele>1372.648</ele>
        <time>2026-02-22T14:53:41Z</time>
      </trkpt>
      <trkpt lat="46.11921" lon="6.75934">
        <ele>1372.03</ele>
        <time>2026-02-22T14:53:46Z</time>
      </trkpt>
      <trkpt lat="46.1193" lon="6.75916">
        <ele>1368.308</ele>
        <time>2026-02-22T14:53:51Z</time>
      </trkpt>
      <trkpt lat="46.11929" lon="6.75889">
        <ele>1367.338</ele>
        <time>2026-02-22T14:53:56Z</time>
      </trkpt>
      <trkpt lat="46.11924" lon="6.75885">
        <ele>1365.122</ele>
        <time>2026-02-22T14:54:01Z</time>
      </trkpt>
      <trkpt lat="46.11922" lon="6.75885">
        <ele>1364.192</ele>
        <time>2026-02-22T14:54:06Z</time>
      </trkpt>
      <trkpt lat="46.1192" lon="6.75885">
        <ele>1364.062</ele>
        <time>2026-02-22T14:54:11Z</time>
      </trkpt>
      <trkpt lat="46.1192" lon="6.75885">
        <ele>1364.032</ele>
        <time>2026-02-22T14:54:16Z</time>
      </trkpt>
      <trkpt lat="46.11919" lon="6.75885">
        <ele>1364.25</ele>
        <time>2026-02-22T14:54:21Z</time>
      </trkpt>
      <trkpt lat="46.11918" lon="6.75884">
        <ele>1366.894</ele>
        <time>2026-02-22T14:54:26Z</time>
      </trkpt>
      <trkpt lat="46.11918" lon="6.75883">
        <ele>1366.322</ele>
        <time>2026-02-22T14:54:31Z</time>
      </trkpt>
      <trkpt lat="46.11918" lon="6.75883">
        <ele>1366.215</ele>
        <time>2026-02-22T14:54:36Z</time>
      </trkpt>
      <trkpt lat="46.11918" lon="6.75883">
        <ele>1366.285</ele>
        <time>2026-02-22T14:54:41Z</time>
      </trkpt>
      <trkpt lat="46.11918" lon="6.75883">
        <ele>1366.259</ele>
        <time>2026-02-22T14:54:46Z</time>
      </trkpt>
      <trkpt lat="46.11918" lon="6.75883">
        <ele>1366.249</ele>
        <time>2026-02-22T14:54:51Z</time>
      </trkpt>
      <trkpt lat="46.11918" lon="6.75883">
        <ele>1366.246</ele>
        <time>2026-02-22T14:54:56Z</time>
      </trkpt>
      <trkpt lat="46.11918" lon="6.75879">
        <ele>1362.471</ele>
        <time>2026-02-22T14:55:01Z</time>
      </trkpt>
      <trkpt lat="46.11922" lon="6.75856">
        <ele>1358.596</ele>
        <time>2026-02-22T14:55:06Z</time>
      </trkpt>
      <trkpt lat="46.11919" lon="6.75829">
        <ele>1355.391</ele>
        <time>2026-02-22T14:55:11Z</time>
      </trkpt>
      <trkpt lat="46.1191" lon="6.75801">
        <ele>1352.653</ele>
        <time>2026-02-22T14:55:16Z</time>
      </trkpt>
      <trkpt lat="46.11902" lon="6.75769">
        <ele>1346.245</ele>
        <time>2026-02-22T14:55:21Z</time>
      </trkpt>
      <trkpt lat="46.11896" lon="6.75734">
        <ele>1342.724</ele>
        <time>2026-02-22T14:55:26Z</time>
      </trkpt>
      <trkpt lat="46.11892" lon="6.75697">
        <ele>1337.223</ele>
        <time>2026-02-22T14:55:31Z</time>
      </trkpt>
      <trkpt lat="46.11887" lon="6.7566">
        <ele>1336.16</ele>
        <time>2026-02-22T14:55:36Z</time>
      </trkpt>
      <trkpt lat="46.1188" lon="6.7565">
        <ele>1333.27</ele>
        <time>2026-02-22T14:55:41Z</time>
      </trkpt>
      <trkpt lat="46.11876" lon="6.7568">
        <ele>1327.619</ele>
        <time>2026-02-22T14:55:46Z</time>
      </trkpt>
      <trkpt lat="46.11875" lon="6.75685">
        <ele>1327.885</ele>
        <time>2026-02-22T14:55:51Z</time>
      </trkpt>
      <trkpt lat="46.11874" lon="6.75684">
        <ele>1327.41</ele>
        <time>2026-02-22T14:55:56Z</time>
      </trkpt>
      <trkpt lat="46.1187" lon="6.75707">
        <ele>1323.785</ele>
        <time>2026-02-22T14:56:01Z</time>
      </trkpt>
      <trkpt lat="46.11864" lon="6.75726">
        <ele>1322.956</ele>
        <time>2026-02-22T14:56:06Z</time>
      </trkpt>
      <trkpt lat="46.11861" lon="6.75735">
        <ele>1323.16</ele>
        <time>2026-02-22T14:56:11Z</time>
      </trkpt>
      <trkpt lat="46.1185" lon="6.75754">
        <ele>1319.986</ele>
        <time>2026-02-22T14:56:16Z</time>
      </trkpt>
      <trkpt lat="46.11838" lon="6.75775">
        <ele>1314.899</ele>
        <time>2026-02-22T14:56:21Z</time>
      </trkpt>
      <trkpt lat="46.11838" lon="6.75784">
        <ele>1313.306</ele>
        <time>2026-02-22T14:56:26Z</time>
      </trkpt>
      <trkpt lat="46.11838" lon="6.75797">
        <ele>1311.296</ele>
        <time>2026-02-22T14:56:31Z</time>
      </trkpt>
      <trkpt lat="46.1182" lon="6.75805">
        <ele>1308.827</ele>
        <time>2026-02-22T14:56:36Z</time>
      </trkpt>
      <trkpt lat="46.11818" lon="6.75776">
        <ele>1301.478</ele>
        <time>2026-02-22T14:56:41Z</time>
      </trkpt>
      <trkpt lat="46.11823" lon="6.75745">
        <ele>1296.766</ele>
        <time>2026-02-22T14:56:46Z</time>
      </trkpt>
      <trkpt lat="46.11828" lon="6.75718">
        <ele>1292.391</ele>
        <time>2026-02-22T14:56:51Z</time>
      </trkpt>
      <trkpt lat="46.11823" lon="6.75682">
        <ele>1289.572</ele>
        <time>2026-02-22T14:56:56Z</time>
      </trkpt>
      <trkpt lat="46.11824" lon="6.75649">
        <ele>1284.372</ele>
        <time>2026-02-22T14:57:01Z</time>
      </trkpt>
      <trkpt lat="46.11821" lon="6.75619">
        <ele>1280.065</ele>
        <time>2026-02-22T14:57:06Z</time>
      </trkpt>
      <trkpt lat="46.11817" lon="6.75582">
        <ele>1274.998</ele>
        <time>2026-02-22T14:57:11Z</time>
      </trkpt>
      <trkpt lat="46.11814" lon="6.75549">
        <ele>1272.51</ele>
        <time>2026-02-22T14:57:16Z</time>
      </trkpt>
      <trkpt lat="46.11807" lon="6.75526">
        <ele>1272.069</ele>
        <time>2026-02-22T14:57:21Z</time>
      </trkpt>
      <trkpt lat="46.11794" lon="6.75498">
        <ele>1270.887</ele>
        <time>2026-02-22T14:57:26Z</time>
      </trkpt>
      <trkpt lat="46.11774" lon="6.75483">
        <ele>1265.916</ele>
        <time>2026-02-22T14:57:31Z</time>
      </trkpt>
      <trkpt lat="46.11772" lon="6.75512">
        <ele>1262.629</ele>
        <time>2026-02-22T14:57:36Z</time>
      </trkpt>
      <trkpt lat="46.11774" lon="6.75544">
        <ele>1260.527</ele>
        <time>2026-02-22T14:57:41Z</time>
      </trkpt>
      <trkpt lat="46.11771" lon="6.75579">
        <ele>1256.182</ele>
        <time>2026-02-22T14:57:46Z</time>
      </trkpt>
      <trkpt lat="46.11768" lon="6.75589">
        <ele>1255.022</ele>
        <time>2026-02-22T14:57:51Z</time>
      </trkpt>
      <trkpt lat="46.11768" lon="6.75588">
        <ele>1254.26</ele>
        <time>2026-02-22T14:57:56Z</time>
      </trkpt>
      <trkpt lat="46.11767" lon="6.75587">
        <ele>1254.041</ele>
        <time>2026-02-22T14:58:01Z</time>
      </trkpt>
      <trkpt lat="46.11767" lon="6.75587">
        <ele>1254.155</ele>
        <time>2026-02-22T14:58:06Z</time>
      </trkpt>
      <trkpt lat="46.11767" lon="6.75587">
        <ele>1254.154</ele>
        <time>2026-02-22T14:58:11Z</time>
      </trkpt>
      <trkpt lat="46.11764" lon="6.7559">
        <ele>1254.434</ele>
        <time>2026-02-22T14:58:16Z</time>
      </trkpt>
      <trkpt lat="46.11749" lon="6.75603">
        <ele>1255.219</ele>
        <time>2026-02-22T14:58:21Z</time>
      </trkpt>
      <trkpt lat="46.11731" lon="6.75625">
        <ele>1247.849</ele>
        <time>2026-02-22T14:58:26Z</time>
      </trkpt>
      <trkpt lat="46.11716" lon="6.75654">
        <ele>1240.653</ele>
        <time>2026-02-22T14:58:31Z</time>
      </trkpt>
      <trkpt lat="46.11706" lon="6.75687">
        <ele>1235.196</ele>
        <time>2026-02-22T14:58:36Z</time>
      </trkpt>
      <trkpt lat="46.11689" lon="6.75719">
        <ele>1231.551</ele>
        <time>2026-02-22T14:58:41Z</time>
      </trkpt>
      <trkpt lat="46.11665" lon="6.75735">
        <ele>1229.079</ele>
        <time>2026-02-22T14:58:46Z</time>
      </trkpt>
      <trkpt lat="46.11645" lon="6.75716">
        <ele>1222.156</ele>
        <time>2026-02-22T14:58:51Z</time>
      </trkpt>
      <trkpt lat="46.11616" lon="6.75715">
        <ele>1219.135</ele>
        <time>2026-02-22T14:58:56Z</time>
      </trkpt>
      <trkpt lat="46.11594" lon="6.75697">
        <ele>1213.832</ele>
        <time>2026-02-22T14:59:01Z</time>
      </trkpt>
      <trkpt lat="46.11573" lon="6.75668">
        <ele>1210.644</ele>
        <time>2026-02-22T14:59:06Z</time>
      </trkpt>
      <trkpt lat="46.11557" lon="6.7564">
        <ele>1206.549</ele>
        <time>2026-02-22T14:59:11Z</time>
      </trkpt>
      <trkpt lat="46.11545" lon="6.75604">
        <ele>1202.607</ele>
        <time>2026-02-22T14:59:16Z</time>
      </trkpt>
      <trkpt lat="46.11555" lon="6.75576">
        <ele>1199.363</ele>
        <time>2026-02-22T14:59:21Z</time>
      </trkpt>
      <trkpt lat="46.11559" lon="6.75573">
        <ele>1198.733</ele>
        <time>2026-02-22T14:59:26Z</time>
      </trkpt>
      <trkpt lat="46.11559" lon="6.75573">
        <ele>1197.702</ele>
        <time>2026-02-22T14:59:31Z</time>
      </trkpt>
      <trkpt lat="46.11559" lon="6.75573">
        <ele>1197.314</ele>
        <time>2026-02-22T14:59:36Z</time>
      </trkpt>
      <trkpt lat="46.11559" lon="6.75573">
        <ele>1197.313</ele>
        <time>2026-02-22T14:59:41Z</time>
      </trkpt>
      <trkpt lat="46.11559" lon="6.75573">
        <ele>1197.311</ele>
        <time>2026-02-22T14:59:46Z</time>
      </trkpt>
      <trkpt lat="46.11559" lon="6.75572">
        <ele>1197.657</ele>
        <time>2026-02-22T14:59:51Z</time>
      </trkpt>
      <trkpt lat="46.1156" lon="6.75558">
        <ele>1194.301</ele>
        <time>2026-02-22T14:59:56Z</time>
      </trkpt>
      <trkpt lat="46.11563" lon="6.75521">
        <ele>1191.787</ele>
        <time>2026-02-22T15:00:01Z</time>
      </trkpt>
      <trkpt lat="46.11561" lon="6.75481">
        <ele>1188.887</ele>
        <time>2026-02-22T15:00:06Z</time>
      </trkpt>
      <trkpt lat="46.11545" lon="6.75447">
        <ele>1184.346</ele>
        <time>2026-02-22T15:00:11Z</time>
      </trkpt>
      <trkpt lat="46.11524" lon="6.75418">
        <ele>1183.931</ele>
        <time>2026-02-22T15:00:16Z</time>
      </trkpt>
      <trkpt lat="46.11506" lon="6.75395">
        <ele>1178.846</ele>
        <time>2026-02-22T15:00:21Z</time>
      </trkpt>
      <trkpt lat="46.11494" lon="6.75365">
        <ele>1177.021</ele>
        <time>2026-02-22T15:00:26Z</time>
      </trkpt>
      <trkpt lat="46.1148" lon="6.75334">
        <ele>1176.535</ele>
        <time>2026-02-22T15:00:31Z</time>
      </trkpt>
      <trkpt lat="46.11449" lon="6.75316">
        <ele>1171.516</ele>
        <time>2026-02-22T15:00:36Z</time>
      </trkpt>
      <trkpt lat="46.11423" lon="6.75325">
        <ele>1165.224</ele>
        <time>2026-02-22T15:00:41Z</time>
      </trkpt>
      <trkpt lat="46.11395" lon="6.75338">
        <ele>1156.648</ele>
        <time>2026-02-22T15:00:46Z</time>
      </trkpt>
      <trkpt lat="46.11367" lon="6.75339">
        <ele>1151.215</ele>
        <time>2026-02-22T15:00:51Z</time>
      </trkpt>
      <trkpt lat="46.11346" lon="6.75325">
        <ele>1146.219</ele>
        <time>2026-02-22T15:00:56Z</time>
      </trkpt>
      <trkpt lat="46.11324" lon="6.75303">
        <ele>1140.083</ele>
        <time>2026-02-22T15:01:01Z</time>
      </trkpt>
      <trkpt lat="46.11321" lon="6.75287">
        <ele>1139.403</ele>
        <time>2026-02-22T15:01:06Z</time>
      </trkpt>
      <trkpt lat="46.11321" lon="6.75287">
        <ele>1138.387</ele>
        <time>2026-02-22T15:01:11Z</time>
      </trkpt>
      <trkpt lat="46.11322" lon="6.75287">
        <ele>1137.837</ele>
        <time>2026-02-22T15:01:16Z</time>
      </trkpt>
      <trkpt lat="46.11322" lon="6.75287">
        <ele>1137.827</ele>
        <time>2026-02-22T15:01:21Z</time>
      </trkpt>
      <trkpt lat="46.11322" lon="6.75287">
        <ele>1137.829</ele>
        <time>2026-02-22T15:01:26Z</time>
      </trkpt>
      <trkpt lat="46.11322" lon="6.75287">
        <ele>1137.831</ele>
        <time>2026-02-22T15:01:31Z</time>
      </trkpt>
      <trkpt lat="46.11322" lon="6.75287">
        <ele>1137.832</ele>
        <time>2026-02-22T15:01:36Z</time>
      </trkpt>
      <trkpt lat="46.1132" lon="6.75282">
        <ele>1137.059</ele>
        <time>2026-02-22T15:01:41Z</time>
      </trkpt>
      <trkpt lat="46.11311" lon="6.7526">
        <ele>1134.911</ele>
        <time>2026-02-22T15:01:46Z</time>
      </trkpt>
      <trkpt lat="46.11298" lon="6.75227">
        <ele>1133.201</ele>
        <time>2026-02-22T15:01:51Z</time>
      </trkpt>
      <trkpt lat="46.11289" lon="6.75192">
        <ele>1125.087</ele>
        <time>2026-02-22T15:01:56Z</time>
      </trkpt>
      <trkpt lat="46.11275" lon="6.75156">
        <ele>1118.178</ele>
        <time>2026-02-22T15:02:01Z</time>
      </trkpt>
      <trkpt lat="46.11257" lon="6.75133">
        <ele>1117.786</ele>
        <time>2026-02-22T15:02:06Z</time>
      </trkpt>
      <trkpt lat="46.11253" lon="6.75102">
        <ele>1110.869</ele>
        <time>2026-02-22T15:02:11Z</time>
      </trkpt>
      <trkpt lat="46.11253" lon="6.751">
        <ele>1109.048</ele>
        <time>2026-02-22T15:02:16Z</time>
      </trkpt>
      <trkpt lat="46.11245" lon="6.7509">
        <ele>1107.225</ele>
        <time>2026-02-22T15:02:21Z</time>
      </trkpt>
      <trkpt lat="46.11239" lon="6.75089">
        <ele>1106.484</ele>
        <time>2026-02-22T15:02:26Z</time>
      </trkpt>
      <trkpt lat="46.11238" lon="6.75089">
        <ele>1106.21</ele>
        <time>2026-02-22T15:02:31Z</time>
      </trkpt>
      <trkpt lat="46.11238" lon="6.75089">
        <ele>1105.96</ele>
        <time>2026-02-22T15:02:36Z</time>
      </trkpt>
      <trkpt lat="46.11237" lon="6.75089">
        <ele>1107.122</ele>
        <time>2026-02-22T15:02:41Z</time>
      </trkpt>
      <trkpt lat="46.11236" lon="6.7509">
        <ele>1107.471</ele>
        <time>2026-02-22T15:02:46Z</time>
      </trkpt>
      <trkpt lat="46.11236" lon="6.7509">
        <ele>1106.685</ele>
        <time>2026-02-22T15:02:51Z</time>
      </trkpt>
      <trkpt lat="46.11236" lon="6.7509">
        <ele>1106.364</ele>
        <time>2026-02-22T15:02:56Z</time>
      </trkpt>
      <trkpt lat="46.11236" lon="6.7509">
        <ele>1104.282</ele>
        <time>2026-02-22T15:03:01Z</time>
      </trkpt>
      <trkpt lat="46.11236" lon="6.7509">
        <ele>1105.707</ele>
        <time>2026-02-22T15:03:06Z</time>
      </trkpt>
      <trkpt lat="46.11236" lon="6.7509">
        <ele>1106.763</ele>
        <time>2026-02-22T15:03:11Z</time>
      </trkpt>
      <trkpt lat="46.11236" lon="6.7509">
        <ele>1107.213</ele>
        <time>2026-02-22T15:03:16Z</time>
      </trkpt>
      <trkpt lat="46.11236" lon="6.7509">
        <ele>1107.654</ele>
        <time>2026-02-22T15:03:21Z</time>
      </trkpt>
      <trkpt lat="46.11236" lon="6.7509">
        <ele>1108.464</ele>
        <time>2026-02-22T15:03:26Z</time>
      </trkpt>
      <trkpt lat="46.11236" lon="6.7509">
        <ele>1108.548</ele>
        <time>2026-02-22T15:03:31Z</time>
      </trkpt>
      <trkpt lat="46.11236" lon="6.7509">
        <ele>1108.543</ele>
        <time>2026-02-22T15:03:36Z</time>
      </trkpt>
      <trkpt lat="46.11236" lon="6.7509">
        <ele>1108.391</ele>
        <time>2026-02-22T15:03:41Z</time>
      </trkpt>
      <trkpt lat="46.11236" lon="6.7509">
        <ele>1108.494</ele>
        <time>2026-02-22T15:03:46Z</time>
      </trkpt>
      <trkpt lat="46.11236" lon="6.7509">
        <ele>1108.486</ele>
        <time>2026-02-22T15:03:51Z</time>
      </trkpt>
      <trkpt lat="46.11236" lon="6.7509">
        <ele>1108.48</ele>
        <time>2026-02-22T15:03:56Z</time>
      </trkpt>
      <trkpt lat="46.11236" lon="6.7509">
        <ele>1108.48</ele>
        <time>2026-02-22T15:04:01Z</time>
      </trkpt>
      <trkpt lat="46.11236" lon="6.7509">
        <ele>1108.48</ele>
        <time>2026-02-22T15:04:06Z</time>
      </trkpt>
      <trkpt lat="46.11236" lon="6.7509">
        <ele>1108.48</ele>
        <time>2026-02-22T15:04:11Z</time>
      </trkpt>
      <trkpt lat="46.11236" lon="6.7509">
        <ele>1108.482</ele>
        <time>2026-02-22T15:04:16Z</time>
      </trkpt>
      <trkpt lat="46.11236" lon="6.7509">
        <ele>1108.48</ele>
        <time>2026-02-22T15:04:21Z</time>
      </trkpt>
      <trkpt lat="46.11236" lon="6.7509">
        <ele>1108.474</ele>
        <time>2026-02-22T15:04:26Z</time>
      </trkpt>
      <trkpt lat="46.11236" lon="6.7509">
        <ele>1108.463</ele>
        <time>2026-02-22T15:04:31Z</time>
      </trkpt>
      <trkpt lat="46.11236" lon="6.7509">
        <ele>1108.488</ele>
        <time>2026-02-22T15:04:36Z</time>
      </trkpt>
      <trkpt lat="46.11236" lon="6.7509">
        <ele>1108.493</ele>
        <time>2026-02-22T15:04:41Z</time>
      </trkpt>
      <trkpt lat="46.11236" lon="6.7509">
        <ele>1108.495</ele>
        <time>2026-02-22T15:04:46Z</time>
      </trkpt>
      <trkpt lat="46.11236" lon="6.7509">
        <ele>1108.5</ele>
        <time>2026-02-22T15:04:51Z</time>
      </trkpt>
      <trkpt lat="46.11236" lon="6.7509">
        <ele>1108.503</ele>
        <time>2026-02-22T15:04:56Z</time>
      </trkpt>
      <trkpt lat="46.11236" lon="6.7509">
        <ele>1108.502</ele>
        <time>2026-02-22T15:05:01Z</time>
      </trkpt>
      <trkpt lat="46.11236" lon="6.7509">
        <ele>1109.318</ele>
        <time>2026-02-22T15:05:06Z</time>
      </trkpt>
      <trkpt lat="46.11236" lon="6.7509">
        <ele>1106.276</ele>
        <time>2026-02-22T15:05:11Z</time>
      </trkpt>
      <trkpt lat="46.11236" lon="6.7509">
        <ele>1106.603</ele>
        <time>2026-02-22T15:05:16Z</time>
      </trkpt>
      <trkpt lat="46.11236" lon="6.7509">
        <ele>1106.628</ele>
        <time>2026-02-22T15:05:21Z</time>
      </trkpt>
      <trkpt lat="46.11236" lon="6.7509">
        <ele>1106.663</ele>
        <time>2026-02-22T15:05:26Z</time>
      </trkpt>
      <trkpt lat="46.11236" lon="6.7509">
        <ele>1106.671</ele>
        <time>2026-02-22T15:05:31Z</time>
      </trkpt>
      <trkpt lat="46.11236" lon="6.7509">
        <ele>1106.668</ele>
        <time>2026-02-22T15:05:36Z</time>
      </trkpt>
      <trkpt lat="46.11236" lon="6.7509">
        <ele>1106.758</ele>
        <time>2026-02-22T15:05:41Z</time>
      </trkpt>
      <trkpt lat="46.11236" lon="6.7509">
        <ele>1106.736</ele>
        <time>2026-02-22T15:05:46Z</time>
      </trkpt>
      <trkpt lat="46.11236" lon="6.7509">
        <ele>1106.75</ele>
        <time>2026-02-22T15:05:51Z</time>
      </trkpt>
      <trkpt lat="46.11236" lon="6.7509">
        <ele>1106.719</ele>
        <time>2026-02-22T15:05:56Z</time>
      </trkpt>
      <trkpt lat="46.11236" lon="6.7509">
        <ele>1106.756</ele>
        <time>2026-02-22T15:06:01Z</time>
      </trkpt>
      <trkpt lat="46.11236" lon="6.7509">
        <ele>1106.778</ele>
        <time>2026-02-22T15:06:06Z</time>
      </trkpt>
      <trkpt lat="46.11236" lon="6.7509">
        <ele>1106.904</ele>
        <time>2026-02-22T15:06:11Z</time>
      </trkpt>
      <trkpt lat="46.11236" lon="6.7509">
        <ele>1106.883</ele>
        <time>2026-02-22T15:06:16Z</time>
      </trkpt>
      <trkpt lat="46.11236" lon="6.7509">
        <ele>1106.876</ele>
        <time>2026-02-22T15:06:21Z</time>
      </trkpt>
      <trkpt lat="46.11236" lon="6.7509">
        <ele>1106.929</ele>
        <time>2026-02-22T15:06:26Z</time>
      </trkpt>
      <trkpt lat="46.11238" lon="6.75089">
        <ele>1106.944</ele>
        <time>2026-02-22T15:06:31Z</time>
      </trkpt>
      <trkpt lat="46.11238" lon="6.75089">
        <ele>1106.826</ele>
        <time>2026-02-22T15:06:36Z</time>
      </trkpt>
      <trkpt lat="46.11239" lon="6.75087">
        <ele>1103.991</ele>
        <time>2026-02-22T15:06:41Z</time>
      </trkpt>
      <trkpt lat="46.11239" lon="6.75086">
        <ele>1104.086</ele>
        <time>2026-02-22T15:06:46Z</time>
      </trkpt>
      <trkpt lat="46.11239" lon="6.75086">
        <ele>1104.053</ele>
        <time>2026-02-22T15:06:51Z</time>
      </trkpt>
      <trkpt lat="46.11239" lon="6.75086">
        <ele>1104.055</ele>
        <time>2026-02-22T15:06:56Z</time>
      </trkpt>
      <trkpt lat="46.11239" lon="6.75086">
        <ele>1104.068</ele>
        <time>2026-02-22T15:07:01Z</time>
      </trkpt>
      <trkpt lat="46.1124" lon="6.75086">
        <ele>1104.838</ele>
        <time>2026-02-22T15:07:06Z</time>
      </trkpt>
      <trkpt lat="46.11243" lon="6.75081">
        <ele>1105.967</ele>
        <time>2026-02-22T15:07:11Z</time>
      </trkpt>
      <trkpt lat="46.11245" lon="6.75077">
        <ele>1105.732</ele>
        <time>2026-02-22T15:07:16Z</time>
      </trkpt>
      <trkpt lat="46.11247" lon="6.75072">
        <ele>1105.04</ele>
        <time>2026-02-22T15:07:21Z</time>
      </trkpt>
      <trkpt lat="46.11249" lon="6.75065">
        <ele>1104.067</ele>
        <time>2026-02-22T15:07:26Z</time>
      </trkpt>
      <trkpt lat="46.1125" lon="6.75062">
        <ele>1103.338</ele>
        <time>2026-02-22T15:07:31Z</time>
      </trkpt>
      <trkpt lat="46.11251" lon="6.75057">
        <ele>1103.015</ele>
        <time>2026-02-22T15:07:36Z</time>
      </trkpt>
      <trkpt lat="46.11253" lon="6.75053">
        <ele>1102.785</ele>
        <time>2026-02-22T15:07:41Z</time>
      </trkpt>
      <trkpt lat="46.11255" lon="6.75048">
        <ele>1102.526</ele>
        <time>2026-02-22T15:07:46Z</time>
      </trkpt>
      <trkpt lat="46.11257" lon="6.75043">
        <ele>1101.492</ele>
        <time>2026-02-22T15:07:51Z</time>
      </trkpt>
      <trkpt lat="46.11259" lon="6.75037">
        <ele>1102.205</ele>
        <time>2026-02-22T15:07:56Z</time>
      </trkpt>
      <trkpt lat="46.11261" lon="6.75032">
        <ele>1101.967</ele>
        <time>2026-02-22T15:08:01Z</time>
      </trkpt>
      <trkpt lat="46.11261" lon="6.75026">
        <ele>1102.206</ele>
        <time>2026-02-22T15:08:06Z</time>
      </trkpt>
      <trkpt lat="46.11259" lon="6.7502">
        <ele>1103.065</ele>
        <time>2026-02-22T15:08:11Z</time>
      </trkpt>
      <trkpt lat="46.11256" lon="6.75016">
        <ele>1103.553</ele>
        <time>2026-02-22T15:08:16Z</time>
      </trkpt>
      <trkpt lat="46.11252" lon="6.75013">
        <ele>1101.788</ele>
        <time>2026-02-22T15:08:21Z</time>
      </trkpt>
      <trkpt lat="46.1125" lon="6.75008">
        <ele>1100.038</ele>
        <time>2026-02-22T15:08:26Z</time>
      </trkpt>
      <trkpt lat="46.11248" lon="6.75003">
        <ele>1098.613</ele>
        <time>2026-02-22T15:08:31Z</time>
      </trkpt>
      <trkpt lat="46.11248" lon="6.74997">
        <ele>1097.697</ele>
        <time>2026-02-22T15:08:36Z</time>
      </trkpt>
      <trkpt lat="46.11249" lon="6.74991">
        <ele>1096.739</ele>
        <time>2026-02-22T15:08:41Z</time>
      </trkpt>
      <trkpt lat="46.11248" lon="6.74987">
        <ele>1097.114</ele>
        <time>2026-02-22T15:08:46Z</time>
      </trkpt>
      <trkpt lat="46.11247" lon="6.74982">
        <ele>1096.902</ele>
        <time>2026-02-22T15:08:51Z</time>
      </trkpt>
      <trkpt lat="46.11246" lon="6.74976">
        <ele>1097.323</ele>
        <time>2026-02-22T15:08:56Z</time>
      </trkpt>
      <trkpt lat="46.11244" lon="6.7497">
        <ele>1098.155</ele>
        <time>2026-02-22T15:09:01Z</time>
      </trkpt>
      <trkpt lat="46.11241" lon="6.74966">
        <ele>1096.039</ele>
        <time>2026-02-22T15:09:06Z</time>
      </trkpt>
      <trkpt lat="46.11238" lon="6.74962">
        <ele>1096.508</ele>
        <time>2026-02-22T15:09:11Z</time>
      </trkpt>
      <trkpt lat="46.11234" lon="6.74959">
        <ele>1096.973</ele>
        <time>2026-02-22T15:09:16Z</time>
      </trkpt>
      <trkpt lat="46.11231" lon="6.74956">
        <ele>1097.551</ele>
        <time>2026-02-22T15:09:21Z</time>
      </trkpt>
      <trkpt lat="46.11227" lon="6.74954">
        <ele>1097.763</ele>
        <time>2026-02-22T15:09:26Z</time>
      </trkpt>
      <trkpt lat="46.11225" lon="6.74951">
        <ele>1096.09</ele>
        <time>2026-02-22T15:09:31Z</time>
      </trkpt>
      <trkpt lat="46.11221" lon="6.74949">
        <ele>1095.859</ele>
        <time>2026-02-22T15:09:36Z</time>
      </trkpt>
      <trkpt lat="46.11218" lon="6.74946">
        <ele>1096.344</ele>
        <time>2026-02-22T15:09:41Z</time>
      </trkpt>
      <trkpt lat="46.11216" lon="6.74945">
        <ele>1095.254</ele>
        <time>2026-02-22T15:09:46Z</time>
      </trkpt>
      <trkpt lat="46.11216" lon="6.74945">
        <ele>1095.597</ele>
        <time>2026-02-22T15:09:51Z</time>
      </trkpt>
      <trkpt lat="46.11216" lon="6.74945">
        <ele>1095.601</ele>
        <time>2026-02-22T15:09:56Z</time>
      </trkpt>
      <trkpt lat="46.11216" lon="6.74945">
        <ele>1095.79</ele>
        <time>2026-02-22T15:10:01Z</time>
      </trkpt>
      <trkpt lat="46.11216" lon="6.74945">
        <ele>1095.163</ele>
        <time>2026-02-22T15:10:06Z</time>
      </trkpt>
      <trkpt lat="46.11216" lon="6.74945">
        <ele>1095.169</ele>
        <time>2026-02-22T15:10:11Z</time>
      </trkpt>
      <trkpt lat="46.11216" lon="6.74945">
        <ele>1094.97</ele>
        <time>2026-02-22T15:10:16Z</time>
      </trkpt>
      <trkpt lat="46.11216" lon="6.74945">
        <ele>1094.978</ele>
        <time>2026-02-22T15:10:21Z</time>
      </trkpt>
      <trkpt lat="46.11216" lon="6.74945">
        <ele>1094.414</ele>
        <time>2026-02-22T15:10:26Z</time>
      </trkpt>
      <trkpt lat="46.11216" lon="6.74945">
        <ele>1094.423</ele>
        <time>2026-02-22T15:10:31Z</time>
      </trkpt>
      <trkpt lat="46.11216" lon="6.74945">
        <ele>1094.595</ele>
        <time>2026-02-22T15:10:36Z</time>
      </trkpt>
      <trkpt lat="46.11216" lon="6.74945">
        <ele>1094.588</ele>
        <time>2026-02-22T15:10:41Z</time>
      </trkpt>
      <trkpt lat="46.11216" lon="6.74945">
        <ele>1094.579</ele>
        <time>2026-02-22T15:10:46Z</time>
      </trkpt>
      <trkpt lat="46.11216" lon="6.74945">
        <ele>1094.58</ele>
        <time>2026-02-22T15:10:51Z</time>
      </trkpt>
      <trkpt lat="46.11216" lon="6.74945">
        <ele>1094.349</ele>
        <time>2026-02-22T15:10:56Z</time>
      </trkpt>
      <trkpt lat="46.11216" lon="6.74945">
        <ele>1094.014</ele>
        <time>2026-02-22T15:11:01Z</time>
      </trkpt>
      <trkpt lat="46.11216" lon="6.74945">
        <ele>1093.97</ele>
        <time>2026-02-22T15:11:06Z</time>
      </trkpt>
      <trkpt lat="46.11216" lon="6.74945">
        <ele>1095.013</ele>
        <time>2026-02-22T15:11:11Z</time>
      </trkpt>
      <trkpt lat="46.11216" lon="6.74945">
        <ele>1095.061</ele>
        <time>2026-02-22T15:11:16Z</time>
      </trkpt>
      <trkpt lat="46.11216" lon="6.74945">
        <ele>1095.102</ele>
        <time>2026-02-22T15:11:21Z</time>
      </trkpt>
      <trkpt lat="46.11216" lon="6.74945">
        <ele>1095.125</ele>
        <time>2026-02-22T15:11:26Z</time>
      </trkpt>
      <trkpt lat="46.11216" lon="6.74945">
        <ele>1095.095</ele>
        <time>2026-02-22T15:11:31Z</time>
      </trkpt>
      <trkpt lat="46.11216" lon="6.74945">
        <ele>1095.101</ele>
        <time>2026-02-22T15:11:36Z</time>
      </trkpt>
      <trkpt lat="46.11216" lon="6.74945">
        <ele>1095.113</ele>
        <time>2026-02-22T15:11:41Z</time>
      </trkpt>
      <trkpt lat="46.11216" lon="6.74945">
        <ele>1095.128</ele>
        <time>2026-02-22T15:11:46Z</time>
      </trkpt>
      <trkpt lat="46.11216" lon="6.74945">
        <ele>1094.832</ele>
        <time>2026-02-22T15:11:51Z</time>
      </trkpt>
      <trkpt lat="46.11216" lon="6.74945">
        <ele>1094.792</ele>
        <time>2026-02-22T15:11:56Z</time>
      </trkpt>
      <trkpt lat="46.11216" lon="6.74945">
        <ele>1094.797</ele>
        <time>2026-02-22T15:12:01Z</time>
      </trkpt>
      <trkpt lat="46.11216" lon="6.74945">
        <ele>1095.113</ele>
        <time>2026-02-22T15:12:06Z</time>
      </trkpt>
      <trkpt lat="46.11216" lon="6.74945">
        <ele>1095.408</ele>
        <time>2026-02-22T15:12:11Z</time>
      </trkpt>
      <trkpt lat="46.11216" lon="6.74945">
        <ele>1095.638</ele>
        <time>2026-02-22T15:12:16Z</time>
      </trkpt>
      <trkpt lat="46.11216" lon="6.74945">
        <ele>1095.307</ele>
        <time>2026-02-22T15:12:21Z</time>
      </trkpt>
      <trkpt lat="46.11216" lon="6.74945">
        <ele>1095.23</ele>
        <time>2026-02-22T15:12:26Z</time>
      </trkpt>
      <trkpt lat="46.11216" lon="6.74945">
        <ele>1095.235</ele>
        <time>2026-02-22T15:12:31Z</time>
      </trkpt>
      <trkpt lat="46.11216" lon="6.74945">
        <ele>1095.246</ele>
        <time>2026-02-22T15:12:36Z</time>
      </trkpt>
      <trkpt lat="46.11216" lon="6.74945">
        <ele>1095.263</ele>
        <time>2026-02-22T15:12:41Z</time>
      </trkpt>
      <trkpt lat="46.11216" lon="6.74945">
        <ele>1095.277</ele>
        <time>2026-02-22T15:12:46Z</time>
      </trkpt>
      <trkpt lat="46.11216" lon="6.74945">
        <ele>1095.294</ele>
        <time>2026-02-22T15:12:51Z</time>
      </trkpt>
      <trkpt lat="46.11216" lon="6.74945">
        <ele>1095.3</ele>
        <time>2026-02-22T15:12:56Z</time>
      </trkpt>
      <trkpt lat="46.11216" lon="6.74945">
        <ele>1095.31</ele>
        <time>2026-02-22T15:13:01Z</time>
      </trkpt>
      <trkpt lat="46.11216" lon="6.74945">
        <ele>1095.314</ele>
        <time>2026-02-22T15:13:06Z</time>
      </trkpt>
      <trkpt lat="46.11216" lon="6.74945">
        <ele>1095.306</ele>
        <time>2026-02-22T15:13:11Z</time>
      </trkpt>
      <trkpt lat="46.11216" lon="6.74945">
        <ele>1093.781</ele>
        <time>2026-02-22T15:13:16Z</time>
      </trkpt>
      <trkpt lat="46.11216" lon="6.74945">
        <ele>1094.363</ele>
        <time>2026-02-22T15:13:21Z</time>
      </trkpt>
      <trkpt lat="46.11216" lon="6.74945">
        <ele>1094.542</ele>
        <time>2026-02-22T15:13:26Z</time>
      </trkpt>
      <trkpt lat="46.11216" lon="6.74945">
        <ele>1094.485</ele>
        <time>2026-02-22T15:13:31Z</time>
      </trkpt>
      <trkpt lat="46.11216" lon="6.74945">
        <ele>1094.478</ele>
        <time>2026-02-22T15:13:36Z</time>
      </trkpt>
      <trkpt lat="46.11216" lon="6.74945">
        <ele>1094.468</ele>
        <time>2026-02-22T15:13:41Z</time>
      </trkpt>
      <trkpt lat="46.11216" lon="6.74945">
        <ele>1094.097</ele>
        <time>2026-02-22T15:13:46Z</time>
      </trkpt>
      <trkpt lat="46.11216" lon="6.74945">
        <ele>1094.338</ele>
        <time>2026-02-22T15:13:51Z</time>
      </trkpt>
      <trkpt lat="46.11216" lon="6.74945">
        <ele>1094.331</ele>
        <time>2026-02-22T15:13:56Z</time>
      </trkpt>
      <trkpt lat="46.11216" lon="6.74945">
        <ele>1094.318</ele>
        <time>2026-02-22T15:14:01Z</time>
      </trkpt>
      <trkpt lat="46.11216" lon="6.74945">
        <ele>1094.318</ele>
        <time>2026-02-22T15:14:06Z</time>
      </trkpt>
      <trkpt lat="46.11216" lon="6.74945">
        <ele>1094.375</ele>
        <time>2026-02-22T15:14:11Z</time>
      </trkpt>
      <trkpt lat="46.11216" lon="6.74945">
        <ele>1094.298</ele>
        <time>2026-02-22T15:14:16Z</time>
      </trkpt>
      <trkpt lat="46.11216" lon="6.74945">
        <ele>1094.305</ele>
        <time>2026-02-22T15:14:21Z</time>
      </trkpt>
      <trkpt lat="46.11216" lon="6.74945">
        <ele>1094.073</ele>
        <time>2026-02-22T15:14:26Z</time>
      </trkpt>
      <trkpt lat="46.11216" lon="6.74945">
        <ele>1094.034</ele>
        <time>2026-02-22T15:14:31Z</time>
      </trkpt>
      <trkpt lat="46.11216" lon="6.74945">
        <ele>1094.048</ele>
        <time>2026-02-22T15:14:36Z</time>
      </trkpt>
      <trkpt lat="46.11216" lon="6.74945">
        <ele>1094.496</ele>
        <time>2026-02-22T15:14:41Z</time>
      </trkpt>
      <trkpt lat="46.11216" lon="6.74945">
        <ele>1093.754</ele>
        <time>2026-02-22T15:14:46Z</time>
      </trkpt>
      <trkpt lat="46.11216" lon="6.74945">
        <ele>1093.59</ele>
        <time>2026-02-22T15:14:51Z</time>
      </trkpt>
      <trkpt lat="46.11216" lon="6.74945">
        <ele>1093.515</ele>
        <time>2026-02-22T15:14:56Z</time>
      </trkpt>
      <trkpt lat="46.11216" lon="6.74945">
        <ele>1093.869</ele>
        <time>2026-02-22T15:15:01Z</time>
      </trkpt>
      <trkpt lat="46.11216" lon="6.74945">
        <ele>1094.265</ele>
        <time>2026-02-22T15:15:06Z</time>
      </trkpt>
      <trkpt lat="46.11216" lon="6.74945">
        <ele>1094.271</ele>
        <time>2026-02-22T15:15:11Z</time>
      </trkpt>
      <trkpt lat="46.11216" lon="6.74945">
        <ele>1094.29</ele>
        <time>2026-02-22T15:15:16Z</time>
      </trkpt>
      <trkpt lat="46.11216" lon="6.74945">
        <ele>1094.32</ele>
        <time>2026-02-22T15:15:21Z</time>
      </trkpt>
      <trkpt lat="46.11216" lon="6.74945">
        <ele>1094.37</ele>
        <time>2026-02-22T15:15:26Z</time>
      </trkpt>
      <trkpt lat="46.11216" lon="6.74945">
        <ele>1094.429</ele>
        <time>2026-02-22T15:15:31Z</time>
      </trkpt>
      <trkpt lat="46.11216" lon="6.74945">
        <ele>1094.969</ele>
        <time>2026-02-22T15:15:36Z</time>
      </trkpt>
      <trkpt lat="46.11216" lon="6.74945">
        <ele>1095.011</ele>
        <time>2026-02-22T15:15:41Z</time>
      </trkpt>
      <trkpt lat="46.11216" lon="6.74945">
        <ele>1095.422</ele>
        <time>2026-02-22T15:15:46Z</time>
      </trkpt>
      <trkpt lat="46.11216" lon="6.74945">
        <ele>1095.406</ele>
        <time>2026-02-22T15:15:51Z</time>
      </trkpt>
      <trkpt lat="46.11216" lon="6.74945">
        <ele>1095.419</ele>
        <time>2026-02-22T15:15:56Z</time>
      </trkpt>
      <trkpt lat="46.11216" lon="6.74945">
        <ele>1094.604</ele>
        <time>2026-02-22T15:16:01Z</time>
      </trkpt>
      <trkpt lat="46.11216" lon="6.74945">
        <ele>1094.48</ele>
        <time>2026-02-22T15:16:06Z</time>
      </trkpt>
      <trkpt lat="46.11216" lon="6.74945">
        <ele>1093.986</ele>
        <time>2026-02-22T15:16:11Z</time>
      </trkpt>
      <trkpt lat="46.11216" lon="6.74945">
        <ele>1094.105</ele>
        <time>2026-02-22T15:16:16Z</time>
      </trkpt>
      <trkpt lat="46.11216" lon="6.74945">
        <ele>1094.056</ele>
        <time>2026-02-22T15:16:21Z</time>
      </trkpt>
      <trkpt lat="46.11216" lon="6.74945">
        <ele>1093.857</ele>
        <time>2026-02-22T15:16:26Z</time>
      </trkpt>
      <trkpt lat="46.11216" lon="6.74945">
        <ele>1093.024</ele>
        <time>2026-02-22T15:16:31Z</time>
      </trkpt>
      <trkpt lat="46.11216" lon="6.74945">
        <ele>1093.101</ele>
        <time>2026-02-22T15:16:36Z</time>
      </trkpt>
      <trkpt lat="46.11216" lon="6.74945">
        <ele>1093.145</ele>
        <time>2026-02-22T15:16:41Z</time>
      </trkpt>
      <trkpt lat="46.11216" lon="6.74945">
        <ele>1093.17</ele>
        <time>2026-02-22T15:16:46Z</time>
      </trkpt>
      <trkpt lat="46.11218" lon="6.74944">
        <ele>1093.206</ele>
        <time>2026-02-22T15:16:51Z</time>
      </trkpt>
      <trkpt lat="46.11219" lon="6.74944">
        <ele>1094.148</ele>
        <time>2026-02-22T15:16:56Z</time>
      </trkpt>
      <trkpt lat="46.11221" lon="6.74945">
        <ele>1097.869</ele>
        <time>2026-02-22T15:17:01Z</time>
      </trkpt>
    </trkseg>
  </trk>
</gpx>